<?xml version="1.0" encoding="UTF-8"?>
<gpx version="1.1" creator=" " xmlns="http://www.topografix.com/GPX/1/1" xmlns:xsi="http://www.w3.org/2001/XMLSchema-instance" xsi:schemaLocation="http://www.topografix.com/GPX/1/1 http://www.topografix.com/GPX/1/1/gpx.xsd">
<metadata>
<name>Böbingen</name>
<desc></desc>
<link href="">
<text>  </text>
</link>
<time>2024-05-12T15:16:43Z</time>
</metadata>
<trk>
<trkseg>
<trkpt lat="48.82228849455714" lon="9.913093484938145">
<ele>388.6</ele>
</trkpt>
<trkpt lat="48.82228849455714" lon="9.913093484938145">
<ele>388.6</ele>
<time>2024-05-12T15:16:43Z</time>
</trkpt>
<trkpt lat="48.82228849455714" lon="9.913095412775874">
<ele>388.2</ele>
<time>2024-05-12T15:16:57Z</time>
</trkpt>
<trkpt lat="48.82228849455714" lon="9.913093484938145">
<ele>387.6</ele>
<time>2024-05-12T15:17:13Z</time>
</trkpt>
<trkpt lat="48.82228849455714" lon="9.913091640919449">
<ele>387.2</ele>
<time>2024-05-12T15:17:35Z</time>
</trkpt>
<trkpt lat="48.82228463888168" lon="9.913093484938145">
<ele>386.8</ele>
<time>2024-05-12T15:17:49Z</time>
</trkpt>
<trkpt lat="48.822280867025256" lon="9.913091640919449">
<ele>386.4</ele>
<time>2024-05-12T15:17:58Z</time>
</trkpt>
<trkpt lat="48.822280867025256" lon="9.913089713081716">
<ele>386</ele>
<time>2024-05-12T15:18:01Z</time>
</trkpt>
<trkpt lat="48.8222770113498" lon="9.913089713081716">
<ele>385.6</ele>
<time>2024-05-12T15:18:02Z</time>
</trkpt>
<trkpt lat="48.8222770113498" lon="9.913087785243988">
<ele>385.4</ele>
<time>2024-05-12T15:18:03Z</time>
</trkpt>
<trkpt lat="48.8222770113498" lon="9.91308686323464">
<ele>385</ele>
<time>2024-05-12T15:18:07Z</time>
</trkpt>
<trkpt lat="48.8222770113498" lon="9.91308493539691">
<ele>384.8</ele>
<time>2024-05-12T15:18:09Z</time>
</trkpt>
<trkpt lat="48.8222770113498" lon="9.91308300755918">
<ele>384.6</ele>
<time>2024-05-12T15:18:11Z</time>
</trkpt>
<trkpt lat="48.8222770113498" lon="9.913082085549831">
<ele>384.6</ele>
<time>2024-05-12T15:18:13Z</time>
</trkpt>
<trkpt lat="48.82227323949337" lon="9.913080157712102">
<ele>384.4</ele>
<time>2024-05-12T15:18:18Z</time>
</trkpt>
<trkpt lat="48.82227323949337" lon="9.913078229874372">
<ele>384.2</ele>
<time>2024-05-12T15:18:20Z</time>
</trkpt>
<trkpt lat="48.82227323949337" lon="9.913076385855677">
<ele>384.2</ele>
<time>2024-05-12T15:18:27Z</time>
</trkpt>
<trkpt lat="48.82227323949337" lon="9.913078229874372">
<ele>384.2</ele>
<time>2024-05-12T15:18:42Z</time>
</trkpt>
<trkpt lat="48.82226938381791" lon="9.913078229874372">
<ele>384.2</ele>
<time>2024-05-12T15:18:44Z</time>
</trkpt>
<trkpt lat="48.82226938381791" lon="9.913076385855677">
<ele>384.4</ele>
<time>2024-05-12T15:19:04Z</time>
</trkpt>
<trkpt lat="48.82226938381791" lon="9.913074458017944">
<ele>384.4</ele>
<time>2024-05-12T15:19:07Z</time>
</trkpt>
<trkpt lat="48.82226938381791" lon="9.913073536008596">
<ele>384.6</ele>
<time>2024-05-12T15:19:09Z</time>
</trkpt>
<trkpt lat="48.82226938381791" lon="9.913071608170869">
<ele>384.6</ele>
<time>2024-05-12T15:19:11Z</time>
</trkpt>
<trkpt lat="48.82226938381791" lon="9.913069680333138">
<ele>384.6</ele>
<time>2024-05-12T15:19:12Z</time>
</trkpt>
<trkpt lat="48.82226938381791" lon="9.913068758323789">
<ele>384.6</ele>
<time>2024-05-12T15:19:14Z</time>
</trkpt>
<trkpt lat="48.82226938381791" lon="9.91306683048606">
<ele>384.6</ele>
<time>2024-05-12T15:19:16Z</time>
</trkpt>
<trkpt lat="48.82227323949337" lon="9.91306683048606">
<ele>384.6</ele>
<time>2024-05-12T15:19:18Z</time>
</trkpt>
<trkpt lat="48.82227323949337" lon="9.91306490264833">
<ele>384.6</ele>
<time>2024-05-12T15:19:19Z</time>
</trkpt>
<trkpt lat="48.82227323949337" lon="9.9130629748106">
<ele>384.6</ele>
<time>2024-05-12T15:19:22Z</time>
</trkpt>
<trkpt lat="48.82227323949337" lon="9.91306490264833">
<ele>384.4</ele>
<time>2024-05-12T15:19:23Z</time>
</trkpt>
<trkpt lat="48.82226938381791" lon="9.91306490264833">
<ele>384.4</ele>
<time>2024-05-12T15:19:25Z</time>
</trkpt>
<trkpt lat="48.82226561196149" lon="9.91306683048606">
<ele>384.4</ele>
<time>2024-05-12T15:19:28Z</time>
</trkpt>
<trkpt lat="48.822261756286025" lon="9.913068758323789">
<ele>384.4</ele>
<time>2024-05-12T15:19:29Z</time>
</trkpt>
<trkpt lat="48.8222579844296" lon="9.913069680333138">
<ele>384.4</ele>
<time>2024-05-12T15:19:30Z</time>
</trkpt>
<trkpt lat="48.82225412875414" lon="9.913071608170869">
<ele>384.4</ele>
<time>2024-05-12T15:19:31Z</time>
</trkpt>
<trkpt lat="48.82225035689771" lon="9.913074458017944">
<ele>384.4</ele>
<time>2024-05-12T15:19:32Z</time>
</trkpt>
<trkpt lat="48.82224650122225" lon="9.913082085549831">
<ele>384.4</ele>
<time>2024-05-12T15:19:33Z</time>
</trkpt>
<trkpt lat="48.82223887369037" lon="9.91308686323464">
<ele>384.4</ele>
<time>2024-05-12T15:19:34Z</time>
</trkpt>
<trkpt lat="48.82223887369037" lon="9.913091640919449">
<ele>384.4</ele>
<time>2024-05-12T15:19:35Z</time>
</trkpt>
<trkpt lat="48.82223510183394" lon="9.913093484938145">
<ele>384.4</ele>
<time>2024-05-12T15:19:36Z</time>
</trkpt>
<trkpt lat="48.82223510183394" lon="9.913095412775874">
<ele>384.4</ele>
<time>2024-05-12T15:19:37Z</time>
</trkpt>
<trkpt lat="48.82223124615848" lon="9.913096418604256">
<ele>384.4</ele>
<time>2024-05-12T15:19:38Z</time>
</trkpt>
<trkpt lat="48.82222747430205" lon="9.913101196289063">
<ele>384.4</ele>
<time>2024-05-12T15:19:39Z</time>
</trkpt>
<trkpt lat="48.82222747430205" lon="9.91310689598322">
<ele>384.4</ele>
<time>2024-05-12T15:19:40Z</time>
</trkpt>
<trkpt lat="48.82222747430205" lon="9.913109745830296">
<ele>384.4</ele>
<time>2024-05-12T15:19:41Z</time>
</trkpt>
<trkpt lat="48.82222747430205" lon="9.913111673668029">
<ele>384.4</ele>
<time>2024-05-12T15:19:42Z</time>
</trkpt>
<trkpt lat="48.82222747430205" lon="9.913109745830296">
<ele>384.4</ele>
<time>2024-05-12T15:19:43Z</time>
</trkpt>
<trkpt lat="48.82222747430205" lon="9.913108823820949">
<ele>384.4</ele>
<time>2024-05-12T15:19:44Z</time>
</trkpt>
<trkpt lat="48.82223124615848" lon="9.91310689598322">
<ele>384.4</ele>
<time>2024-05-12T15:19:45Z</time>
</trkpt>
<trkpt lat="48.82223124615848" lon="9.91310496814549">
<ele>384.4</ele>
<time>2024-05-12T15:19:50Z</time>
</trkpt>
<trkpt lat="48.82223124615848" lon="9.91310689598322">
<ele>384.4</ele>
<time>2024-05-12T15:19:51Z</time>
</trkpt>
<trkpt lat="48.82223510183394" lon="9.91310689598322">
<ele>384.4</ele>
<time>2024-05-12T15:20:02Z</time>
</trkpt>
<trkpt lat="48.82223510183394" lon="9.91310496814549">
<ele>384.4</ele>
<time>2024-05-12T15:20:04Z</time>
</trkpt>
<trkpt lat="48.82223124615848" lon="9.91310304030776">
<ele>384.4</ele>
<time>2024-05-12T15:20:05Z</time>
</trkpt>
<trkpt lat="48.82223124615848" lon="9.913101196289063">
<ele>384.4</ele>
<time>2024-05-12T15:20:06Z</time>
</trkpt>
<trkpt lat="48.82222747430205" lon="9.91310304030776">
<ele>384.4</ele>
<time>2024-05-12T15:20:09Z</time>
</trkpt>
<trkpt lat="48.82222747430205" lon="9.913100190460682">
<ele>384.4</ele>
<time>2024-05-12T15:20:10Z</time>
</trkpt>
<trkpt lat="48.82222747430205" lon="9.913098262622952">
<ele>384.4</ele>
<time>2024-05-12T15:20:11Z</time>
</trkpt>
<trkpt lat="48.822223618626595" lon="9.913091640919449">
<ele>384.4</ele>
<time>2024-05-12T15:20:13Z</time>
</trkpt>
<trkpt lat="48.82221984677017" lon="9.91308686323464">
<ele>384.4</ele>
<time>2024-05-12T15:20:14Z</time>
</trkpt>
<trkpt lat="48.82221221923828" lon="9.913076385855677">
<ele>384.4</ele>
<time>2024-05-12T15:20:15Z</time>
</trkpt>
<trkpt lat="48.82219688035548" lon="9.913062052801251">
<ele>384.4</ele>
<time>2024-05-12T15:20:16Z</time>
</trkpt>
<trkpt lat="48.822181625291705" lon="9.913031542673709">
<ele>384.4</ele>
<time>2024-05-12T15:20:17Z</time>
</trkpt>
<trkpt lat="48.82215874269605" lon="9.912995332852006">
<ele>384.4</ele>
<time>2024-05-12T15:20:18Z</time>
</trkpt>
<trkpt lat="48.822143487632275" lon="9.912955267354846">
<ele>384.4</ele>
<time>2024-05-12T15:20:19Z</time>
</trkpt>
<trkpt lat="48.8221282325685" lon="9.912913274019957">
<ele>384.4</ele>
<time>2024-05-12T15:20:20Z</time>
</trkpt>
<trkpt lat="48.82211683318019" lon="9.912866586819291">
<ele>384.4</ele>
<time>2024-05-12T15:20:21Z</time>
</trkpt>
<trkpt lat="48.82210534997285" lon="9.912821743637323">
<ele>384.4</ele>
<time>2024-05-12T15:20:22Z</time>
</trkpt>
<trkpt lat="48.82210157811642" lon="9.912770194932818">
<ele>384.4</ele>
<time>2024-05-12T15:20:23Z</time>
</trkpt>
<trkpt lat="48.82210157811642" lon="9.912723507732151">
<ele>384.4</ele>
<time>2024-05-12T15:20:24Z</time>
</trkpt>
<trkpt lat="48.82209395058453" lon="9.912676736712456">
<ele>384.4</ele>
<time>2024-05-12T15:20:25Z</time>
</trkpt>
<trkpt lat="48.82209009490907" lon="9.912634827196598">
<ele>384.4</ele>
<time>2024-05-12T15:20:26Z</time>
</trkpt>
<trkpt lat="48.82207869552076" lon="9.912592833861709">
<ele>384.4</ele>
<time>2024-05-12T15:20:27Z</time>
</trkpt>
<trkpt lat="48.82205958478153" lon="9.912558551877735">
<ele>384.4</ele>
<time>2024-05-12T15:20:28Z</time>
</trkpt>
<trkpt lat="48.82203670218587" lon="9.91253181360662">
<ele>384.4</ele>
<time>2024-05-12T15:20:29Z</time>
</trkpt>
<trkpt lat="48.822006192058325" lon="9.912521336227655">
<ele>384.4</ele>
<time>2024-05-12T15:20:30Z</time>
</trkpt>
<trkpt lat="48.82197182625532" lon="9.91252795793116">
<ele>384.4</ele>
<time>2024-05-12T15:20:31Z</time>
</trkpt>
<trkpt lat="48.82194131612778" lon="9.91254991851747">
<ele>384.4</ele>
<time>2024-05-12T15:20:32Z</time>
</trkpt>
<trkpt lat="48.821907034143806" lon="9.912580428645017">
<ele>384.4</ele>
<time>2024-05-12T15:20:33Z</time>
</trkpt>
<trkpt lat="48.82188029587269" lon="9.912606161087751">
<ele>384.4</ele>
<time>2024-05-12T15:20:34Z</time>
</trkpt>
<trkpt lat="48.82186118513346" lon="9.912634827196598">
<ele>384.4</ele>
<time>2024-05-12T15:20:35Z</time>
</trkpt>
<trkpt lat="48.8218383025378" lon="9.912665337324142">
<ele>384.4</ele>
<time>2024-05-12T15:20:36Z</time>
</trkpt>
<trkpt lat="48.8218192756176" lon="9.91270825266838">
<ele>384.4</ele>
<time>2024-05-12T15:20:37Z</time>
</trkpt>
<trkpt lat="48.82179639302194" lon="9.912752090021968">
<ele>384.4</ele>
<time>2024-05-12T15:20:38Z</time>
</trkpt>
<trkpt lat="48.82177728228271" lon="9.912796933203936">
<ele>384.4</ele>
<time>2024-05-12T15:20:39Z</time>
</trkpt>
<trkpt lat="48.82175825536251" lon="9.912850325927138">
<ele>384.4</ele>
<time>2024-05-12T15:20:40Z</time>
</trkpt>
<trkpt lat="48.82174300029874" lon="9.912908496335149">
<ele>384.4</ele>
<time>2024-05-12T15:20:41Z</time>
</trkpt>
<trkpt lat="48.821727745234966" lon="9.91296473890543">
<ele>384.4</ele>
<time>2024-05-12T15:20:42Z</time>
</trkpt>
<trkpt lat="48.821712490171194" lon="9.913020059466362">
<ele>384.4</ele>
<time>2024-05-12T15:20:43Z</time>
</trkpt>
<trkpt lat="48.82170100696385" lon="9.913069680333138">
<ele>384.4</ele>
<time>2024-05-12T15:20:44Z</time>
</trkpt>
<trkpt lat="48.82168575190008" lon="9.913120223209262">
<ele>384.4</ele>
<time>2024-05-12T15:20:45Z</time>
</trkpt>
<trkpt lat="48.82167426869273" lon="9.91316699422896">
<ele>384.4</ele>
<time>2024-05-12T15:20:46Z</time>
</trkpt>
<trkpt lat="48.82166286930442" lon="9.913209909573196">
<ele>384.4</ele>
<time>2024-05-12T15:20:47Z</time>
</trkpt>
<trkpt lat="48.821651386097074" lon="9.913254668936132">
<ele>384.4</ele>
<time>2024-05-12T15:20:48Z</time>
</trkpt>
<trkpt lat="48.82163998670876" lon="9.9132995121181">
<ele>384.6</ele>
<time>2024-05-12T15:20:49Z</time>
</trkpt>
<trkpt lat="48.82162473164499" lon="9.913346283137798">
<ele>384.6</ele>
<time>2024-05-12T15:20:50Z</time>
</trkpt>
<trkpt lat="48.82160562090576" lon="9.913394898176191">
<ele>384.6</ele>
<time>2024-05-12T15:20:51Z</time>
</trkpt>
<trkpt lat="48.82158659398556" lon="9.913443513214588">
<ele>384.8</ele>
<time>2024-05-12T15:20:52Z</time>
</trkpt>
<trkpt lat="48.821571338921785" lon="9.913495061919091">
<ele>384.8</ele>
<time>2024-05-12T15:20:53Z</time>
</trkpt>
<trkpt lat="48.821552228182554" lon="9.913550298660994">
<ele>385</ele>
<time>2024-05-12T15:20:54Z</time>
</trkpt>
<trkpt lat="48.82153697311878" lon="9.913604697212577">
<ele>385.2</ele>
<time>2024-05-12T15:20:55Z</time>
</trkpt>
<trkpt lat="48.82152557373047" lon="9.913660017773507">
<ele>385.2</ele>
<time>2024-05-12T15:20:56Z</time>
</trkpt>
<trkpt lat="48.821510234847665" lon="9.913711482658982">
<ele>385.4</ele>
<time>2024-05-12T15:20:57Z</time>
</trkpt>
<trkpt lat="48.82149883545935" lon="9.913763031363487">
<ele>385.6</ele>
<time>2024-05-12T15:20:58Z</time>
</trkpt>
<trkpt lat="48.82148358039558" lon="9.91381449624896">
<ele>385.8</ele>
<time>2024-05-12T15:20:59Z</time>
</trkpt>
<trkpt lat="48.82146832533181" lon="9.913867888972163">
<ele>386</ele>
<time>2024-05-12T15:21:00Z</time>
</trkpt>
<trkpt lat="48.821453070268035" lon="9.913923209533095">
<ele>386.2</ele>
<time>2024-05-12T15:21:01Z</time>
</trkpt>
<trkpt lat="48.82143781520426" lon="9.913978530094028">
<ele>386.2</ele>
<time>2024-05-12T15:21:02Z</time>
</trkpt>
<trkpt lat="48.82141870446503" lon="9.91403192281723">
<ele>386.4</ele>
<time>2024-05-12T15:21:03Z</time>
</trkpt>
<trkpt lat="48.82140344940126" lon="9.914086321368814">
<ele>386.6</ele>
<time>2024-05-12T15:21:04Z</time>
</trkpt>
<trkpt lat="48.82138442248106" lon="9.914138792082667">
<ele>386.6</ele>
<time>2024-05-12T15:21:05Z</time>
</trkpt>
<trkpt lat="48.8213615398854" lon="9.91419117897749">
<ele>386.6</ele>
<time>2024-05-12T15:21:06Z</time>
</trkpt>
<trkpt lat="48.8213462010026" lon="9.914244571700692">
<ele>386.8</ele>
<time>2024-05-12T15:21:07Z</time>
</trkpt>
<trkpt lat="48.8213271740824" lon="9.914298048242928">
<ele>386.8</ele>
<time>2024-05-12T15:21:08Z</time>
</trkpt>
<trkpt lat="48.821311919018626" lon="9.91435144096613">
<ele>386.8</ele>
<time>2024-05-12T15:21:09Z</time>
</trkpt>
<trkpt lat="48.821292808279395" lon="9.914404833689332">
<ele>386.8</ele>
<time>2024-05-12T15:21:10Z</time>
</trkpt>
<trkpt lat="48.82127755321562" lon="9.914456298574803">
<ele>386.8</ele>
<time>2024-05-12T15:21:11Z</time>
</trkpt>
<trkpt lat="48.82125852629542" lon="9.914511619135736">
<ele>387</ele>
<time>2024-05-12T15:21:12Z</time>
</trkpt>
<trkpt lat="48.82123941555619" lon="9.914556462317703">
<ele>387</ele>
<time>2024-05-12T15:21:13Z</time>
</trkpt>
<trkpt lat="48.82122038863599" lon="9.914598455652596">
<ele>387</ele>
<time>2024-05-12T15:21:14Z</time>
</trkpt>
<trkpt lat="48.82120513357222" lon="9.91464707069099">
<ele>387</ele>
<time>2024-05-12T15:21:15Z</time>
</trkpt>
<trkpt lat="48.82118987850845" lon="9.914694763720036">
<ele>387</ele>
<time>2024-05-12T15:21:16Z</time>
</trkpt>
<trkpt lat="48.821174539625645" lon="9.91474530659616">
<ele>387.2</ele>
<time>2024-05-12T15:21:17Z</time>
</trkpt>
<trkpt lat="48.82115928456187" lon="9.914794843643904">
<ele>387.4</ele>
<time>2024-05-12T15:21:18Z</time>
</trkpt>
<trkpt lat="48.8211440294981" lon="9.91484354250133">
<ele>387.6</ele>
<time>2024-05-12T15:21:19Z</time>
</trkpt>
<trkpt lat="48.82112877443433" lon="9.914896935224531">
<ele>387.8</ele>
<time>2024-05-12T15:21:20Z</time>
</trkpt>
<trkpt lat="48.82111351937056" lon="9.914948400110006">
<ele>387.8</ele>
<time>2024-05-12T15:21:21Z</time>
</trkpt>
<trkpt lat="48.821098264306784" lon="9.914999948814511">
<ele>388</ele>
<time>2024-05-12T15:21:22Z</time>
</trkpt>
<trkpt lat="48.82108300924301" lon="9.915055269375443">
<ele>388.2</ele>
<time>2024-05-12T15:21:23Z</time>
</trkpt>
<trkpt lat="48.82106775417924" lon="9.915109584107997">
<ele>388.4</ele>
<time>2024-05-12T15:21:24Z</time>
</trkpt>
<trkpt lat="48.82105249911547" lon="9.915166832506657">
<ele>388.6</ele>
<time>2024-05-12T15:21:25Z</time>
</trkpt>
<trkpt lat="48.82104487158358" lon="9.915223075076938">
<ele>388.8</ele>
<time>2024-05-12T15:21:26Z</time>
</trkpt>
<trkpt lat="48.82103347219527" lon="9.9152803234756">
<ele>388.8</ele>
<time>2024-05-12T15:21:27Z</time>
</trkpt>
<trkpt lat="48.82102198898792" lon="9.91534042172134">
<ele>389</ele>
<time>2024-05-12T15:21:28Z</time>
</trkpt>
<trkpt lat="48.82101058959961" lon="9.91539859212935">
<ele>389.2</ele>
<time>2024-05-12T15:21:29Z</time>
</trkpt>
<trkpt lat="48.820999106392264" lon="9.9154529068619">
<ele>389.4</ele>
<time>2024-05-12T15:21:30Z</time>
</trkpt>
<trkpt lat="48.82098762318492" lon="9.915505377575755">
<ele>389.4</ele>
<time>2024-05-12T15:21:31Z</time>
</trkpt>
<trkpt lat="48.820976223796606" lon="9.9155530706048">
<ele>389.6</ele>
<time>2024-05-12T15:21:32Z</time>
</trkpt>
<trkpt lat="48.82096474058926" lon="9.915601685643196">
<ele>389.6</ele>
<time>2024-05-12T15:21:33Z</time>
</trkpt>
<trkpt lat="48.820957113057375" lon="9.915651306509972">
<ele>389.6</ele>
<time>2024-05-12T15:21:34Z</time>
</trkpt>
<trkpt lat="48.82094948552549" lon="9.915704699233174">
<ele>389.6</ele>
<time>2024-05-12T15:21:35Z</time>
</trkpt>
<trkpt lat="48.820938086137176" lon="9.915758091956375">
<ele>389.6</ele>
<time>2024-05-12T15:21:36Z</time>
</trkpt>
<trkpt lat="48.82093045860529" lon="9.91581341251731">
<ele>389.4</ele>
<time>2024-05-12T15:21:37Z</time>
</trkpt>
<trkpt lat="48.82091520354152" lon="9.91586965508759">
<ele>389.4</ele>
<time>2024-05-12T15:21:38Z</time>
</trkpt>
<trkpt lat="48.82090372033417" lon="9.915926903486252">
<ele>389.2</ele>
<time>2024-05-12T15:21:39Z</time>
</trkpt>
<trkpt lat="48.8208884652704" lon="9.915983146056533">
<ele>389.2</ele>
<time>2024-05-12T15:21:40Z</time>
</trkpt>
<trkpt lat="48.82087321020663" lon="9.916040394455194">
<ele>389.2</ele>
<time>2024-05-12T15:21:41Z</time>
</trkpt>
<trkpt lat="48.820857955142856" lon="9.916098564863203">
<ele>389</ele>
<time>2024-05-12T15:21:42Z</time>
</trkpt>
<trkpt lat="48.82084270007908" lon="9.916154807433486">
<ele>389</ele>
<time>2024-05-12T15:21:43Z</time>
</trkpt>
<trkpt lat="48.82082358933985" lon="9.916212977841496">
<ele>389</ele>
<time>2024-05-12T15:21:44Z</time>
</trkpt>
<trkpt lat="48.82080833427608" lon="9.916270226240158">
<ele>389.2</ele>
<time>2024-05-12T15:21:45Z</time>
</trkpt>
<trkpt lat="48.82078545168042" lon="9.91632454097271">
<ele>389.2</ele>
<time>2024-05-12T15:21:46Z</time>
</trkpt>
<trkpt lat="48.82076256908476" lon="9.916379861533642">
<ele>389.2</ele>
<time>2024-05-12T15:21:47Z</time>
</trkpt>
<trkpt lat="48.820739686489105" lon="9.916433254256845">
<ele>389.4</ele>
<time>2024-05-12T15:21:48Z</time>
</trkpt>
<trkpt lat="48.82071680389345" lon="9.91648673079908">
<ele>389.4</ele>
<time>2024-05-12T15:21:49Z</time>
</trkpt>
<trkpt lat="48.82069392129779" lon="9.916538195684552">
<ele>389.4</ele>
<time>2024-05-12T15:21:50Z</time>
</trkpt>
<trkpt lat="48.8206672668457" lon="9.916589660570024">
<ele>389.6</ele>
<time>2024-05-12T15:21:51Z</time>
</trkpt>
<trkpt lat="48.820640528574586" lon="9.916636431589724">
<ele>389.6</ele>
<time>2024-05-12T15:21:52Z</time>
</trkpt>
<trkpt lat="48.82061764597893" lon="9.916685046628118">
<ele>389.8</ele>
<time>2024-05-12T15:21:53Z</time>
</trkpt>
<trkpt lat="48.82059476338327" lon="9.916734667494891">
<ele>390</ele>
<time>2024-05-12T15:21:54Z</time>
</trkpt>
<trkpt lat="48.82056802511215" lon="9.916783282533288">
<ele>390.2</ele>
<time>2024-05-12T15:21:55Z</time>
</trkpt>
<trkpt lat="48.82054137066007" lon="9.916831897571685">
<ele>390.2</ele>
<time>2024-05-12T15:21:56Z</time>
</trkpt>
<trkpt lat="48.82051463238895" lon="9.91687866859138">
<ele>390.4</ele>
<time>2024-05-12T15:21:57Z</time>
</trkpt>
<trkpt lat="48.820484122261405" lon="9.916925355792046">
<ele>390.4</ele>
<time>2024-05-12T15:21:58Z</time>
</trkpt>
<trkpt lat="48.82045361213386" lon="9.916970198974012">
<ele>390.6</ele>
<time>2024-05-12T15:21:59Z</time>
</trkpt>
<trkpt lat="48.82042310200632" lon="9.917011186480522">
<ele>390.6</ele>
<time>2024-05-12T15:22:00Z</time>
</trkpt>
<trkpt lat="48.82039259187877" lon="9.91705510765314">
<ele>390.6</ele>
<time>2024-05-12T15:22:01Z</time>
</trkpt>
<trkpt lat="48.82035822607577" lon="9.91709802299738">
<ele>390.8</ele>
<time>2024-05-12T15:22:02Z</time>
</trkpt>
<trkpt lat="48.82033157162368" lon="9.917141860350966">
<ele>390.8</ele>
<time>2024-05-12T15:22:03Z</time>
</trkpt>
<trkpt lat="48.82030097767711" lon="9.917181925848126">
<ele>391</ele>
<time>2024-05-12T15:22:04Z</time>
</trkpt>
<trkpt lat="48.82027046754956" lon="9.917226769030094">
<ele>391</ele>
<time>2024-05-12T15:22:05Z</time>
</trkpt>
<trkpt lat="48.82023995742202" lon="9.917268678545952">
<ele>391.2</ele>
<time>2024-05-12T15:22:06Z</time>
</trkpt>
<trkpt lat="48.820209447294474" lon="9.917309749871492">
<ele>391.2</ele>
<time>2024-05-12T15:22:07Z</time>
</trkpt>
<trkpt lat="48.82018279284239" lon="9.91735165938735">
<ele>391.4</ele>
<time>2024-05-12T15:22:08Z</time>
</trkpt>
<trkpt lat="48.820148427039385" lon="9.917394574731588">
<ele>391.4</ele>
<time>2024-05-12T15:22:09Z</time>
</trkpt>
<trkpt lat="48.82012168876827" lon="9.917440339922903">
<ele>391.4</ele>
<time>2024-05-12T15:22:10Z</time>
</trkpt>
<trkpt lat="48.82009117864072" lon="9.917483255267143">
<ele>391.6</ele>
<time>2024-05-12T15:22:11Z</time>
</trkpt>
<trkpt lat="48.82006452418864" lon="9.917523320764303">
<ele>391.6</ele>
<time>2024-05-12T15:22:12Z</time>
</trkpt>
<trkpt lat="48.82003778591752" lon="9.917559614405036">
<ele>391.6</ele>
<time>2024-05-12T15:22:13Z</time>
</trkpt>
<trkpt lat="48.82002253085375" lon="9.917576713487506">
<ele>391.8</ele>
<time>2024-05-12T15:22:14Z</time>
</trkpt>
<trkpt lat="48.81999587640166" lon="9.917603451758623">
<ele>392</ele>
<time>2024-05-12T15:22:15Z</time>
</trkpt>
<trkpt lat="48.81997676566243" lon="9.917623484507205">
<ele>392.2</ele>
<time>2024-05-12T15:22:16Z</time>
</trkpt>
<trkpt lat="48.81997676566243" lon="9.917638739570975">
<ele>392.2</ele>
<time>2024-05-12T15:22:17Z</time>
</trkpt>
<trkpt lat="48.81996528245509" lon="9.91766639985144">
<ele>392.4</ele>
<time>2024-05-12T15:22:18Z</time>
</trkpt>
<trkpt lat="48.81994239985943" lon="9.917683582752945">
<ele>392.6</ele>
<time>2024-05-12T15:22:19Z</time>
</trkpt>
<trkpt lat="48.819927144795656" lon="9.91770839318633">
<ele>392.6</ele>
<time>2024-05-12T15:22:20Z</time>
</trkpt>
<trkpt lat="48.81990811787546" lon="9.917733119800689">
<ele>392.8</ele>
<time>2024-05-12T15:22:21Z</time>
</trkpt>
<trkpt lat="48.819892862811685" lon="9.917759858071804">
<ele>392.8</ele>
<time>2024-05-12T15:22:22Z</time>
</trkpt>
<trkpt lat="48.81987375207245" lon="9.91778844036162">
<ele>392.8</ele>
<time>2024-05-12T15:22:23Z</time>
</trkpt>
<trkpt lat="48.81985849700868" lon="9.917819956317544">
<ele>393</ele>
<time>2024-05-12T15:22:24Z</time>
</trkpt>
<trkpt lat="48.81984324194491" lon="9.917855244129896">
<ele>393</ele>
<time>2024-05-12T15:22:25Z</time>
</trkpt>
<trkpt lat="48.81983184255659" lon="9.91788667626679">
<ele>393</ele>
<time>2024-05-12T15:22:26Z</time>
</trkpt>
<trkpt lat="48.819816587492824" lon="9.917916264384983">
<ele>393</ele>
<time>2024-05-12T15:22:27Z</time>
</trkpt>
<trkpt lat="48.81980124861002" lon="9.917940068989992">
<ele>393</ele>
<time>2024-05-12T15:22:28Z</time>
</trkpt>
<trkpt lat="48.81978599354625" lon="9.91796295158565">
<ele>393</ele>
<time>2024-05-12T15:22:29Z</time>
</trkpt>
<trkpt lat="48.81976311095059" lon="9.91798876784742">
<ele>393</ele>
<time>2024-05-12T15:22:30Z</time>
</trkpt>
<trkpt lat="48.81974022835493" lon="9.918016428127885">
<ele>393</ele>
<time>2024-05-12T15:22:31Z</time>
</trkpt>
<trkpt lat="48.81972120143473" lon="9.9180450104177">
<ele>392.8</ele>
<time>2024-05-12T15:22:32Z</time>
</trkpt>
<trkpt lat="48.81969831883907" lon="9.918076442554591">
<ele>392.8</ele>
<time>2024-05-12T15:22:33Z</time>
</trkpt>
<trkpt lat="48.819675436243415" lon="9.918113658204676">
<ele>392.8</ele>
<time>2024-05-12T15:22:34Z</time>
</trkpt>
<trkpt lat="48.81965255364776" lon="9.918148024007678">
<ele>392.8</ele>
<time>2024-05-12T15:22:35Z</time>
</trkpt>
<trkpt lat="48.819633442908525" lon="9.918185155838728">
<ele>392.6</ele>
<time>2024-05-12T15:22:36Z</time>
</trkpt>
<trkpt lat="48.819614332169294" lon="9.918228071182966">
<ele>392.6</ele>
<time>2024-05-12T15:22:37Z</time>
</trkpt>
<trkpt lat="48.81959144957363" lon="9.918270064517856">
<ele>392.6</ele>
<time>2024-05-12T15:22:38Z</time>
</trkpt>
<trkpt lat="48.819576194509864" lon="9.918312057852743">
<ele>392.4</ele>
<time>2024-05-12T15:22:39Z</time>
</trkpt>
<trkpt lat="48.819557167589664" lon="9.918352123349903">
<ele>392.4</ele>
<time>2024-05-12T15:22:40Z</time>
</trkpt>
<trkpt lat="48.81953805685043" lon="9.918395038694143">
<ele>392.6</ele>
<time>2024-05-12T15:22:41Z</time>
</trkpt>
<trkpt lat="48.819519029930234" lon="9.918437954038382">
<ele>392.6</ele>
<time>2024-05-12T15:22:42Z</time>
</trkpt>
<trkpt lat="48.819499919191" lon="9.91847986355424">
<ele>392.6</ele>
<time>2024-05-12T15:22:43Z</time>
</trkpt>
<trkpt lat="48.81948466412723" lon="9.91851800121367">
<ele>392.6</ele>
<time>2024-05-12T15:22:44Z</time>
</trkpt>
<trkpt lat="48.81946563720703" lon="9.91855999454856">
<ele>392.6</ele>
<time>2024-05-12T15:22:45Z</time>
</trkpt>
<trkpt lat="48.8194465264678" lon="9.918602909892796">
<ele>392.6</ele>
<time>2024-05-12T15:22:46Z</time>
</trkpt>
<trkpt lat="48.81942364387214" lon="9.918649597093465">
<ele>392.6</ele>
<time>2024-05-12T15:22:47Z</time>
</trkpt>
<trkpt lat="48.81940453313291" lon="9.918695446103811">
<ele>392.4</ele>
<time>2024-05-12T15:22:48Z</time>
</trkpt>
<trkpt lat="48.81938927806914" lon="9.91873542778194">
<ele>392.4</ele>
<time>2024-05-12T15:22:49Z</time>
</trkpt>
<trkpt lat="48.819374023005366" lon="9.918778343126178">
<ele>392.6</ele>
<time>2024-05-12T15:22:50Z</time>
</trkpt>
<trkpt lat="48.819358767941594" lon="9.918820336461067">
<ele>392.6</ele>
<time>2024-05-12T15:22:51Z</time>
</trkpt>
<trkpt lat="48.81934736855328" lon="9.918858474120498">
<ele>392.8</ele>
<time>2024-05-12T15:22:52Z</time>
</trkpt>
<trkpt lat="48.81933211348951" lon="9.91889476776123">
<ele>392.8</ele>
<time>2024-05-12T15:22:53Z</time>
</trkpt>
<trkpt lat="48.819316858425736" lon="9.91893290542066">
<ele>393</ele>
<time>2024-05-12T15:22:54Z</time>
</trkpt>
<trkpt lat="48.81930160336197" lon="9.918970037251713">
<ele>393</ele>
<time>2024-05-12T15:22:55Z</time>
</trkpt>
<trkpt lat="48.819278636947274" lon="9.91901010274887">
<ele>393.2</ele>
<time>2024-05-12T15:22:56Z</time>
</trkpt>
<trkpt lat="48.819255754351616" lon="9.91905494593084">
<ele>393.2</ele>
<time>2024-05-12T15:22:57Z</time>
</trkpt>
<trkpt lat="48.81923672743142" lon="9.919101633131504">
<ele>393.2</ele>
<time>2024-05-12T15:22:58Z</time>
</trkpt>
<trkpt lat="48.819217616692185" lon="9.91915033198893">
<ele>393.2</ele>
<time>2024-05-12T15:22:59Z</time>
</trkpt>
<trkpt lat="48.81919473409653" lon="9.919198025017977">
<ele>393.2</ele>
<time>2024-05-12T15:23:00Z</time>
</trkpt>
<trkpt lat="48.819179479032755" lon="9.919244712218642">
<ele>393.4</ele>
<time>2024-05-12T15:23:01Z</time>
</trkpt>
<trkpt lat="48.8191565964371" lon="9.91929148323834">
<ele>393.4</ele>
<time>2024-05-12T15:23:02Z</time>
</trkpt>
<trkpt lat="48.81913371384144" lon="9.919340098276734">
<ele>393.6</ele>
<time>2024-05-12T15:23:03Z</time>
</trkpt>
<trkpt lat="48.81911083124578" lon="9.9193867854774">
<ele>393.8</ele>
<time>2024-05-12T15:23:05Z</time>
</trkpt>
<trkpt lat="48.81906883791089" lon="9.919483177363873">
<ele>394.2</ele>
<time>2024-05-12T15:23:06Z</time>
</trkpt>
<trkpt lat="48.81904981099069" lon="9.919527936726809">
<ele>394.4</ele>
<time>2024-05-12T15:23:07Z</time>
</trkpt>
<trkpt lat="48.819023072719574" lon="9.919572779908776">
<ele>394.6</ele>
<time>2024-05-12T15:23:08Z</time>
</trkpt>
<trkpt lat="48.819004045799375" lon="9.919619550928472">
<ele>394.8</ele>
<time>2024-05-12T15:23:09Z</time>
</trkpt>
<trkpt lat="48.81898116320371" lon="9.919670093804598">
<ele>395</ele>
<time>2024-05-12T15:23:10Z</time>
</trkpt>
<trkpt lat="48.81895828060806" lon="9.919721558690073">
<ele>395.2</ele>
<time>2024-05-12T15:23:11Z</time>
</trkpt>
<trkpt lat="48.81893531419337" lon="9.919774951413274">
<ele>395.4</ele>
<time>2024-05-12T15:23:12Z</time>
</trkpt>
<trkpt lat="48.81891243159771" lon="9.91982650011778">
<ele>395.4</ele>
<time>2024-05-12T15:23:13Z</time>
</trkpt>
<trkpt lat="48.81888954900205" lon="9.919877965003252">
<ele>395.6</ele>
<time>2024-05-12T15:23:14Z</time>
</trkpt>
<trkpt lat="48.81886666640639" lon="9.919926580041649">
<ele>395.6</ele>
<time>2024-05-12T15:23:15Z</time>
</trkpt>
<trkpt lat="48.81883615627885" lon="9.919978128746152">
<ele>395.6</ele>
<time>2024-05-12T15:23:16Z</time>
</trkpt>
<trkpt lat="48.81881327368319" lon="9.920029593631623">
<ele>395.8</ele>
<time>2024-05-12T15:23:17Z</time>
</trkpt>
<trkpt lat="48.818786619231105" lon="9.92007820867002">
<ele>395.6</ele>
<time>2024-05-12T15:23:18Z</time>
</trkpt>
<trkpt lat="48.81875988095999" lon="9.920127829536796">
<ele>395.6</ele>
<time>2024-05-12T15:23:19Z</time>
</trkpt>
<trkpt lat="48.81873314268887" lon="9.92018030025065">
<ele>395.6</ele>
<time>2024-05-12T15:23:21Z</time>
</trkpt>
<trkpt lat="48.81868360564113" lon="9.92027468048036">
<ele>395.4</ele>
<time>2024-05-12T15:23:22Z</time>
</trkpt>
<trkpt lat="48.81865686737001" lon="9.92031667381525">
<ele>395.4</ele>
<time>2024-05-12T15:23:23Z</time>
</trkpt>
<trkpt lat="48.81863021291792" lon="9.92035673931241">
<ele>395.2</ele>
<time>2024-05-12T15:23:24Z</time>
</trkpt>
<trkpt lat="48.81860347464681" lon="9.92039487697184">
<ele>395</ele>
<time>2024-05-12T15:23:25Z</time>
</trkpt>
<trkpt lat="48.81857673637569" lon="9.920434942469">
<ele>395</ele>
<time>2024-05-12T15:23:26Z</time>
</trkpt>
<trkpt lat="48.818546226248145" lon="9.920479701831937">
<ele>395</ele>
<time>2024-05-12T15:23:27Z</time>
</trkpt>
<trkpt lat="48.8185157161206" lon="9.920516917482018">
<ele>395</ele>
<time>2024-05-12T15:23:28Z</time>
</trkpt>
<trkpt lat="48.818489061668515" lon="9.92055027745664">
<ele>395</ele>
<time>2024-05-12T15:23:29Z</time>
</trkpt>
<trkpt lat="48.81845855154097" lon="9.920584643259645">
<ele>395</ele>
<time>2024-05-12T15:23:30Z</time>
</trkpt>
<trkpt lat="48.818427957594395" lon="9.920615153387187">
<ele>395</ele>
<time>2024-05-12T15:23:31Z</time>
</trkpt>
<trkpt lat="48.81839744746685" lon="9.920639963820577">
<ele>395.2</ele>
<time>2024-05-12T15:23:32Z</time>
</trkpt>
<trkpt lat="48.818370793014765" lon="9.920664774253964">
<ele>395.2</ele>
<time>2024-05-12T15:23:33Z</time>
</trkpt>
<trkpt lat="48.81834791041911" lon="9.920686651021242">
<ele>395.4</ele>
<time>2024-05-12T15:23:34Z</time>
</trkpt>
<trkpt lat="48.81832117214799" lon="9.920708611607552">
<ele>395.4</ele>
<time>2024-05-12T15:23:35Z</time>
</trkpt>
<trkpt lat="48.81830214522779" lon="9.920736271888018">
<ele>395.6</ele>
<time>2024-05-12T15:23:36Z</time>
</trkpt>
<trkpt lat="48.81827926263213" lon="9.920766782015562">
<ele>395.8</ele>
<time>2024-05-12T15:23:37Z</time>
</trkpt>
<trkpt lat="48.81825629621744" lon="9.920800141990185">
<ele>395.8</ele>
<time>2024-05-12T15:23:39Z</time>
</trkpt>
<trkpt lat="48.81821815855801" lon="9.920886978507042">
<ele>396</ele>
<time>2024-05-12T15:23:40Z</time>
</trkpt>
<trkpt lat="48.81819913163781" lon="9.920934671536088">
<ele>396</ele>
<time>2024-05-12T15:23:41Z</time>
</trkpt>
<trkpt lat="48.81818764843047" lon="9.920985214412212">
<ele>396</ele>
<time>2024-05-12T15:23:42Z</time>
</trkpt>
<trkpt lat="48.81817624904215" lon="9.921031901612878">
<ele>396</ele>
<time>2024-05-12T15:23:43Z</time>
</trkpt>
<trkpt lat="48.81816476583481" lon="9.921083450317385">
<ele>396</ele>
<time>2024-05-12T15:23:44Z</time>
</trkpt>
<trkpt lat="48.818153366446495" lon="9.921138687059283">
<ele>395.8</ele>
<time>2024-05-12T15:23:45Z</time>
</trkpt>
<trkpt lat="48.818134255707264" lon="9.921193085610868">
<ele>395.6</ele>
<time>2024-05-12T15:23:46Z</time>
</trkpt>
<trkpt lat="48.818115228787065" lon="9.92124455049634">
<ele>395.6</ele>
<time>2024-05-12T15:23:47Z</time>
</trkpt>
<trkpt lat="48.81808849051595" lon="9.921290315687656">
<ele>395.4</ele>
<time>2024-05-12T15:23:48Z</time>
</trkpt>
<trkpt lat="48.818054124712944" lon="9.92132853716612">
<ele>395.2</ele>
<time>2024-05-12T15:23:49Z</time>
</trkpt>
<trkpt lat="48.81801984272897" lon="9.92136189714074">
<ele>395.2</ele>
<time>2024-05-12T15:23:50Z</time>
</trkpt>
<trkpt lat="48.81798170506954" lon="9.921393329277636">
<ele>395.2</ele>
<time>2024-05-12T15:23:51Z</time>
</trkpt>
<trkpt lat="48.81794733926654" lon="9.92142199538648">
<ele>395.2</ele>
<time>2024-05-12T15:23:52Z</time>
</trkpt>
<trkpt lat="48.81790920160711" lon="9.921453427523376">
<ele>395.2</ele>
<time>2024-05-12T15:23:53Z</time>
</trkpt>
<trkpt lat="48.817874835804105" lon="9.9214849434793">
<ele>395.2</ele>
<time>2024-05-12T15:23:54Z</time>
</trkpt>
<trkpt lat="48.817836698144674" lon="9.921516375616193">
<ele>395.4</ele>
<time>2024-05-12T15:23:56Z</time>
</trkpt>
<trkpt lat="48.81776042282581" lon="9.921569768339396">
<ele>395.4</ele>
<time>2024-05-12T15:23:57Z</time>
</trkpt>
<trkpt lat="48.81772228516638" lon="9.921594578772783">
<ele>395.2</ele>
<time>2024-05-12T15:23:58Z</time>
</trkpt>
<trkpt lat="48.81768414750695" lon="9.92162031121552">
<ele>395.2</ele>
<time>2024-05-12T15:23:59Z</time>
</trkpt>
<trkpt lat="48.81764978170395" lon="9.921643193811178">
<ele>395.2</ele>
<time>2024-05-12T15:24:00Z</time>
</trkpt>
<trkpt lat="48.81761549971998" lon="9.921663226559758">
<ele>395.2</ele>
<time>2024-05-12T15:24:01Z</time>
</trkpt>
<trkpt lat="48.817581133916974" lon="9.92168040946126">
<ele>395.2</ele>
<time>2024-05-12T15:24:02Z</time>
</trkpt>
<trkpt lat="48.81754676811397" lon="9.921689964830875">
<ele>395</ele>
<time>2024-05-12T15:24:03Z</time>
</trkpt>
<trkpt lat="48.817516257986426" lon="9.921693736687304">
<ele>395</ele>
<time>2024-05-12T15:24:04Z</time>
</trkpt>
<trkpt lat="48.817481976002455" lon="9.921693736687304">
<ele>395.2</ele>
<time>2024-05-12T15:24:05Z</time>
</trkpt>
<trkpt lat="48.81745523773134" lon="9.921693736687304">
<ele>395.2</ele>
<time>2024-05-12T15:24:06Z</time>
</trkpt>
<trkpt lat="48.81742858327925" lon="9.921691892668605">
<ele>395.2</ele>
<time>2024-05-12T15:24:07Z</time>
</trkpt>
<trkpt lat="48.81739798933267" lon="9.921688036993146">
<ele>395.2</ele>
<time>2024-05-12T15:24:08Z</time>
</trkpt>
<trkpt lat="48.81736747920513" lon="9.921688036993146">
<ele>395.2</ele>
<time>2024-05-12T15:24:09Z</time>
</trkpt>
<trkpt lat="48.81733319722116" lon="9.921694742515683">
<ele>395.2</ele>
<time>2024-05-12T15:24:10Z</time>
</trkpt>
<trkpt lat="48.81730645895004" lon="9.92169851437211">
<ele>395.2</ele>
<time>2024-05-12T15:24:11Z</time>
</trkpt>
<trkpt lat="48.81727217696607" lon="9.921707147732375">
<ele>395.4</ele>
<time>2024-05-12T15:24:12Z</time>
</trkpt>
<trkpt lat="48.817245438694954" lon="9.921714775264263">
<ele>395.4</ele>
<time>2024-05-12T15:24:13Z</time>
</trkpt>
<trkpt lat="48.81721492856741" lon="9.921726174652576">
<ele>395.4</ele>
<time>2024-05-12T15:24:14Z</time>
</trkpt>
<trkpt lat="48.81718819029629" lon="9.92173665203154">
<ele>395.6</ele>
<time>2024-05-12T15:24:15Z</time>
</trkpt>
<trkpt lat="48.81716916337609" lon="9.921741429716349">
<ele>395.6</ele>
<time>2024-05-12T15:24:16Z</time>
</trkpt>
<trkpt lat="48.81715005263686" lon="9.921745285391808">
<ele>395.6</ele>
<time>2024-05-12T15:24:17Z</time>
</trkpt>
<trkpt lat="48.81713479757309" lon="9.921750063076615">
<ele>395.6</ele>
<time>2024-05-12T15:24:18Z</time>
</trkpt>
<trkpt lat="48.81711191497743" lon="9.921754756942391">
<ele>395.8</ele>
<time>2024-05-12T15:24:19Z</time>
</trkpt>
<trkpt lat="48.81709288805723" lon="9.92175861261785">
<ele>395.8</ele>
<time>2024-05-12T15:24:20Z</time>
</trkpt>
<trkpt lat="48.817070005461574" lon="9.9217595346272">
<ele>395.8</ele>
<time>2024-05-12T15:24:21Z</time>
</trkpt>
<trkpt lat="48.817043267190456" lon="9.92175861261785">
<ele>395.8</ele>
<time>2024-05-12T15:24:22Z</time>
</trkpt>
<trkpt lat="48.81701652891934" lon="9.921745285391808">
<ele>395.8</ele>
<time>2024-05-12T15:24:23Z</time>
</trkpt>
<trkpt lat="48.81699750199914" lon="9.92172047495842">
<ele>395.8</ele>
<time>2024-05-12T15:24:24Z</time>
</trkpt>
<trkpt lat="48.81697461940348" lon="9.921686109155416">
<ele>395.8</ele>
<time>2024-05-12T15:24:25Z</time>
</trkpt>
<trkpt lat="48.81695173680782" lon="9.921651827171443">
<ele>395.8</ele>
<time>2024-05-12T15:24:26Z</time>
</trkpt>
<trkpt lat="48.816924998536706" lon="9.921627938747406">
<ele>396</ele>
<time>2024-05-12T15:24:27Z</time>
</trkpt>
<trkpt lat="48.81689448840916" lon="9.921613689512014">
<ele>396</ele>
<time>2024-05-12T15:24:28Z</time>
</trkpt>
<trkpt lat="48.81686012260616" lon="9.921609833836555">
<ele>396</ele>
<time>2024-05-12T15:24:29Z</time>
</trkpt>
<trkpt lat="48.81682584062219" lon="9.921613689512014">
<ele>396</ele>
<time>2024-05-12T15:24:30Z</time>
</trkpt>
<trkpt lat="48.81679147481918" lon="9.92162031121552">
<ele>396</ele>
<time>2024-05-12T15:24:31Z</time>
</trkpt>
<trkpt lat="48.81676096469164" lon="9.921627016738055">
<ele>396</ele>
<time>2024-05-12T15:24:32Z</time>
</trkpt>
<trkpt lat="48.816730454564095" lon="9.921631794422863">
<ele>396</ele>
<time>2024-05-12T15:24:33Z</time>
</trkpt>
<trkpt lat="48.81669608876109" lon="9.921636572107673">
<ele>396</ele>
<time>2024-05-12T15:24:34Z</time>
</trkpt>
<trkpt lat="48.81666180677712" lon="9.9216403439641">
<ele>396</ele>
<time>2024-05-12T15:24:35Z</time>
</trkpt>
<trkpt lat="48.816631296649575" lon="9.921643193811178">
<ele>396</ele>
<time>2024-05-12T15:24:36Z</time>
</trkpt>
<trkpt lat="48.81659693084657" lon="9.921647049486635">
<ele>395.8</ele>
<time>2024-05-12T15:24:37Z</time>
</trkpt>
<trkpt lat="48.81656642071903" lon="9.921651827171443">
<ele>395.8</ele>
<time>2024-05-12T15:24:38Z</time>
</trkpt>
<trkpt lat="48.81653591059148" lon="9.921656604856253">
<ele>395.8</ele>
<time>2024-05-12T15:24:39Z</time>
</trkpt>
<trkpt lat="48.816513027995825" lon="9.92166037671268">
<ele>396</ele>
<time>2024-05-12T15:24:40Z</time>
</trkpt>
<trkpt lat="48.81647866219282" lon="9.921665154397488">
<ele>396</ele>
<time>2024-05-12T15:24:41Z</time>
</trkpt>
<trkpt lat="48.81644438020885" lon="9.921665154397488">
<ele>396.2</ele>
<time>2024-05-12T15:24:42Z</time>
</trkpt>
<trkpt lat="48.81641001440585" lon="9.921667082235215">
<ele>396.2</ele>
<time>2024-05-12T15:24:43Z</time>
</trkpt>
<trkpt lat="48.81636802107096" lon="9.921669932082295">
<ele>396.4</ele>
<time>2024-05-12T15:24:44Z</time>
</trkpt>
<trkpt lat="48.81632988341153" lon="9.921671859920025">
<ele>396.6</ele>
<time>2024-05-12T15:24:45Z</time>
</trkpt>
<trkpt lat="48.816291745752096" lon="9.921669932082295">
<ele>396.6</ele>
<time>2024-05-12T15:24:46Z</time>
</trkpt>
<trkpt lat="48.816257463768125" lon="9.921669932082295">
<ele>396.8</ele>
<time>2024-05-12T15:24:47Z</time>
</trkpt>
<trkpt lat="48.816219326108694" lon="9.921671859920025">
<ele>397</ele>
<time>2024-05-12T15:24:48Z</time>
</trkpt>
<trkpt lat="48.816177332773805" lon="9.921671859920025">
<ele>397.4</ele>
<time>2024-05-12T15:24:49Z</time>
</trkpt>
<trkpt lat="48.81613156758249" lon="9.9216765537858">
<ele>397.6</ele>
<time>2024-05-12T15:24:50Z</time>
</trkpt>
<trkpt lat="48.8160895742476" lon="9.921683259308338">
<ele>397.8</ele>
<time>2024-05-12T15:24:51Z</time>
</trkpt>
<trkpt lat="48.81604380905628" lon="9.921688036993146">
<ele>398</ele>
<time>2024-05-12T15:24:52Z</time>
</trkpt>
<trkpt lat="48.81600181572139" lon="9.921694742515683">
<ele>398.2</ele>
<time>2024-05-12T15:24:53Z</time>
</trkpt>
<trkpt lat="48.81595605053008" lon="9.921699520200493">
<ele>398.4</ele>
<time>2024-05-12T15:24:54Z</time>
</trkpt>
<trkpt lat="48.81591028533876" lon="9.921703292056918">
<ele>398.6</ele>
<time>2024-05-12T15:24:55Z</time>
</trkpt>
<trkpt lat="48.8158683758229" lon="9.921707147732375">
<ele>398.6</ele>
<time>2024-05-12T15:24:56Z</time>
</trkpt>
<trkpt lat="48.81582252681255" lon="9.921709997579455">
<ele>398.8</ele>
<time>2024-05-12T15:24:57Z</time>
</trkpt>
<trkpt lat="48.81577676162124" lon="9.921712847426534">
<ele>398.8</ele>
<time>2024-05-12T15:24:58Z</time>
</trkpt>
<trkpt lat="48.81573099642992" lon="9.92172047495842">
<ele>399</ele>
<time>2024-05-12T15:24:59Z</time>
</trkpt>
<trkpt lat="48.81568523123861" lon="9.921726174652576">
<ele>399</ele>
<time>2024-05-12T15:25:00Z</time>
</trkpt>
<trkpt lat="48.815643237903714" lon="9.921730030328035">
<ele>399</ele>
<time>2024-05-12T15:25:01Z</time>
</trkpt>
<trkpt lat="48.81560132838786" lon="9.921730030328035">
<ele>399</ele>
<time>2024-05-12T15:25:02Z</time>
</trkpt>
<trkpt lat="48.81555933505297" lon="9.921730030328035">
<ele>399</ele>
<time>2024-05-12T15:25:03Z</time>
</trkpt>
<trkpt lat="48.81551742553711" lon="9.921730030328035">
<ele>399</ele>
<time>2024-05-12T15:25:04Z</time>
</trkpt>
<trkpt lat="48.81547543220222" lon="9.921732880175114">
<ele>399</ele>
<time>2024-05-12T15:25:05Z</time>
</trkpt>
<trkpt lat="48.81543343886733" lon="9.92173950187862">
<ele>399</ele>
<time>2024-05-12T15:25:06Z</time>
</trkpt>
<trkpt lat="48.81539152935147" lon="9.921748135238886">
<ele>399</ele>
<time>2024-05-12T15:25:07Z</time>
</trkpt>
<trkpt lat="48.81535339169204" lon="9.921751907095311">
<ele>399</ele>
<time>2024-05-12T15:25:08Z</time>
</trkpt>
<trkpt lat="48.81531139835715" lon="9.92175668478012">
<ele>399</ele>
<time>2024-05-12T15:25:09Z</time>
</trkpt>
<trkpt lat="48.81527326069772" lon="9.9217595346272">
<ele>399</ele>
<time>2024-05-12T15:25:10Z</time>
</trkpt>
<trkpt lat="48.81523512303829" lon="9.921765318140388">
<ele>399</ele>
<time>2024-05-12T15:25:11Z</time>
</trkpt>
<trkpt lat="48.81519698537886" lon="9.921770095825195">
<ele>399</ele>
<time>2024-05-12T15:25:12Z</time>
</trkpt>
<trkpt lat="48.81516261957586" lon="9.921774789690971">
<ele>399</ele>
<time>2024-05-12T15:25:13Z</time>
</trkpt>
<trkpt lat="48.81512448191643" lon="9.92177956737578">
<ele>399</ele>
<time>2024-05-12T15:25:14Z</time>
</trkpt>
<trkpt lat="48.815086344257" lon="9.921783423051238">
<ele>399</ele>
<time>2024-05-12T15:25:15Z</time>
</trkpt>
<trkpt lat="48.81504820659757" lon="9.921785350888968">
<ele>399</ele>
<time>2024-05-12T15:25:16Z</time>
</trkpt>
<trkpt lat="48.81501384079456" lon="9.921786272898316">
<ele>399</ele>
<time>2024-05-12T15:25:17Z</time>
</trkpt>
<trkpt lat="48.81497947499156" lon="9.921792978420854">
<ele>399.2</ele>
<time>2024-05-12T15:25:18Z</time>
</trkpt>
<trkpt lat="48.81494133733213" lon="9.92179867811501">
<ele>399.2</ele>
<time>2024-05-12T15:25:19Z</time>
</trkpt>
<trkpt lat="48.8149031996727" lon="9.92179960012436">
<ele>399.4</ele>
<time>2024-05-12T15:25:20Z</time>
</trkpt>
<trkpt lat="48.81486506201327" lon="9.921806305646896">
<ele>399.4</ele>
<time>2024-05-12T15:25:21Z</time>
</trkpt>
<trkpt lat="48.81482306867838" lon="9.921814855188131">
<ele>399.4</ele>
<time>2024-05-12T15:25:22Z</time>
</trkpt>
<trkpt lat="48.81478493101895" lon="9.921825332567096">
<ele>399.6</ele>
<time>2024-05-12T15:25:23Z</time>
</trkpt>
<trkpt lat="48.81474679335952" lon="9.92183681577444">
<ele>399.6</ele>
<time>2024-05-12T15:25:24Z</time>
</trkpt>
<trkpt lat="48.81470488384366" lon="9.921848215162754">
<ele>399.6</ele>
<time>2024-05-12T15:25:25Z</time>
</trkpt>
<trkpt lat="48.81466289050877" lon="9.921861626207829">
<ele>399.8</ele>
<time>2024-05-12T15:25:26Z</time>
</trkpt>
<trkpt lat="48.81462475284934" lon="9.921873025596142">
<ele>399.8</ele>
<time>2024-05-12T15:25:27Z</time>
</trkpt>
<trkpt lat="48.81458275951445" lon="9.921883502975106">
<ele>399.8</ele>
<time>2024-05-12T15:25:28Z</time>
</trkpt>
<trkpt lat="48.81454847753048" lon="9.921888280659914">
<ele>399.8</ele>
<time>2024-05-12T15:25:29Z</time>
</trkpt>
<trkpt lat="48.81451033987105" lon="9.921893058344722">
<ele>400</ele>
<time>2024-05-12T15:25:30Z</time>
</trkpt>
<trkpt lat="48.81447211839259" lon="9.921901691704988">
<ele>400</ele>
<time>2024-05-12T15:25:31Z</time>
</trkpt>
<trkpt lat="48.81443398073315" lon="9.921913091093302">
<ele>400.2</ele>
<time>2024-05-12T15:25:32Z</time>
</trkpt>
<trkpt lat="48.8143920712173" lon="9.921928346157074">
<ele>400.4</ele>
<time>2024-05-12T15:25:33Z</time>
</trkpt>
<trkpt lat="48.81435007788241" lon="9.921944607049229">
<ele>400.4</ele>
<time>2024-05-12T15:25:34Z</time>
</trkpt>
<trkpt lat="48.81431194022298" lon="9.921959862113">
<ele>400.6</ele>
<time>2024-05-12T15:25:35Z</time>
</trkpt>
<trkpt lat="48.81427380256355" lon="9.921973189339042">
<ele>400.6</ele>
<time>2024-05-12T15:25:36Z</time>
</trkpt>
<trkpt lat="48.814239436760545" lon="9.921990372240543">
<ele>400.8</ele>
<time>2024-05-12T15:25:37Z</time>
</trkpt>
<trkpt lat="48.81420515477657" lon="9.922008477151394">
<ele>400.8</ele>
<time>2024-05-12T15:25:38Z</time>
</trkpt>
<trkpt lat="48.81416701711714" lon="9.922024654224517">
<ele>400.8</ele>
<time>2024-05-12T15:25:39Z</time>
</trkpt>
<trkpt lat="48.81413265131414" lon="9.92203806526959">
<ele>401</ele>
<time>2024-05-12T15:25:40Z</time>
</trkpt>
<trkpt lat="48.814098285511136" lon="9.92205617018044">
<ele>401</ele>
<time>2024-05-12T15:25:41Z</time>
</trkpt>
<trkpt lat="48.814064003527164" lon="9.92207519710064">
<ele>401</ele>
<time>2024-05-12T15:25:42Z</time>
</trkpt>
<trkpt lat="48.81402963772416" lon="9.922091457992792">
<ele>401</ele>
<time>2024-05-12T15:25:43Z</time>
</trkpt>
<trkpt lat="48.81399535574019" lon="9.922109562903644">
<ele>401</ele>
<time>2024-05-12T15:25:44Z</time>
</trkpt>
<trkpt lat="48.813960989937186" lon="9.922126745805144">
<ele>401</ele>
<time>2024-05-12T15:25:45Z</time>
</trkpt>
<trkpt lat="48.81392662413418" lon="9.922144850715997">
<ele>401</ele>
<time>2024-05-12T15:25:46Z</time>
</trkpt>
<trkpt lat="48.81389611400664" lon="9.922164883464577">
<ele>401.2</ele>
<time>2024-05-12T15:25:47Z</time>
</trkpt>
<trkpt lat="48.81386183202267" lon="9.922184916213157">
<ele>401.2</ele>
<time>2024-05-12T15:25:48Z</time>
</trkpt>
<trkpt lat="48.813827466219664" lon="9.922206876799464">
<ele>401.4</ele>
<time>2024-05-12T15:25:49Z</time>
</trkpt>
<trkpt lat="48.81379310041666" lon="9.922227831557391">
<ele>401.6</ele>
<time>2024-05-12T15:25:50Z</time>
</trkpt>
<trkpt lat="48.81375496275723" lon="9.922249792143704">
<ele>401.6</ele>
<time>2024-05-12T15:25:51Z</time>
</trkpt>
<trkpt lat="48.81372068077326" lon="9.92227359674871">
<ele>401.8</ele>
<time>2024-05-12T15:25:52Z</time>
</trkpt>
<trkpt lat="48.813686314970255" lon="9.92229362949729">
<ele>401.8</ele>
<time>2024-05-12T15:25:53Z</time>
</trkpt>
<trkpt lat="48.81365203298628" lon="9.92231366224587">
<ele>401.8</ele>
<time>2024-05-12T15:25:54Z</time>
</trkpt>
<trkpt lat="48.81361766718328" lon="9.92233369499445">
<ele>402</ele>
<time>2024-05-12T15:25:55Z</time>
</trkpt>
<trkpt lat="48.81358330138028" lon="9.922354649752378">
<ele>402</ele>
<time>2024-05-12T15:25:56Z</time>
</trkpt>
<trkpt lat="48.81355279125273" lon="9.922376610338688">
<ele>402</ele>
<time>2024-05-12T15:25:57Z</time>
</trkpt>
<trkpt lat="48.81352228112519" lon="9.922398487105966">
<ele>402</ele>
<time>2024-05-12T15:25:58Z</time>
</trkpt>
<trkpt lat="48.81349177099764" lon="9.922423297539352">
<ele>402</ele>
<time>2024-05-12T15:25:59Z</time>
</trkpt>
<trkpt lat="48.8134612608701" lon="9.922446180135012">
<ele>402.2</ele>
<time>2024-05-12T15:26:00Z</time>
</trkpt>
<trkpt lat="48.81343452259898" lon="9.92247006855905">
<ele>402.2</ele>
<time>2024-05-12T15:26:01Z</time>
</trkpt>
<trkpt lat="48.813407868146896" lon="9.9224881734699">
<ele>402.2</ele>
<time>2024-05-12T15:26:02Z</time>
</trkpt>
<trkpt lat="48.81338112987578" lon="9.922505356371405">
<ele>402.4</ele>
<time>2024-05-12T15:26:03Z</time>
</trkpt>
<trkpt lat="48.813354475423694" lon="9.922523461282251">
<ele>402.6</ele>
<time>2024-05-12T15:26:04Z</time>
</trkpt>
<trkpt lat="48.81332396529615" lon="9.922543494030831">
<ele>402.6</ele>
<time>2024-05-12T15:26:05Z</time>
</trkpt>
<trkpt lat="48.81329722702503" lon="9.922563526779411">
<ele>402.8</ele>
<time>2024-05-12T15:26:06Z</time>
</trkpt>
<trkpt lat="48.813270488753915" lon="9.922583559527991">
<ele>403</ele>
<time>2024-05-12T15:26:07Z</time>
</trkpt>
<trkpt lat="48.81324760615826" lon="9.92260836996138">
<ele>403</ele>
<time>2024-05-12T15:26:08Z</time>
</trkpt>
<trkpt lat="48.8132247235626" lon="9.922633096575735">
<ele>403</ele>
<time>2024-05-12T15:26:09Z</time>
</trkpt>
<trkpt lat="48.81320184096694" lon="9.922657907009125">
<ele>403.2</ele>
<time>2024-05-12T15:26:10Z</time>
</trkpt>
<trkpt lat="48.813171330839396" lon="9.922677939757705">
<ele>403.2</ele>
<time>2024-05-12T15:26:11Z</time>
</trkpt>
<trkpt lat="48.81314467638731" lon="9.922695122659206">
<ele>403.2</ele>
<time>2024-05-12T15:26:12Z</time>
</trkpt>
<trkpt lat="48.813114166259766" lon="9.92270367220044">
<ele>403.2</ele>
<time>2024-05-12T15:26:13Z</time>
</trkpt>
<trkpt lat="48.81308357231319" lon="9.922704678028822">
<ele>403.4</ele>
<time>2024-05-12T15:26:14Z</time>
</trkpt>
<trkpt lat="48.81304929032922" lon="9.922699900344014">
<ele>403.4</ele>
<time>2024-05-12T15:26:15Z</time>
</trkpt>
<trkpt lat="48.813014924526215" lon="9.9226903449744">
<ele>403.4</ele>
<time>2024-05-12T15:26:16Z</time>
</trkpt>
<trkpt lat="48.812976786866784" lon="9.922677939757705">
<ele>403.2</ele>
<time>2024-05-12T15:26:17Z</time>
</trkpt>
<trkpt lat="48.81294250488281" lon="9.92266360670328">
<ele>403.2</ele>
<time>2024-05-12T15:26:18Z</time>
</trkpt>
<trkpt lat="48.81290428340435" lon="9.92264835163951">
<ele>403.2</ele>
<time>2024-05-12T15:26:19Z</time>
</trkpt>
<trkpt lat="48.81287000142038" lon="9.922633096575735">
<ele>403.2</ele>
<time>2024-05-12T15:26:20Z</time>
</trkpt>
<trkpt lat="48.812835635617375" lon="9.922619769349694">
<ele>403.2</ele>
<time>2024-05-12T15:26:21Z</time>
</trkpt>
<trkpt lat="48.81280135363341" lon="9.92261021398008">
<ele>403.2</ele>
<time>2024-05-12T15:26:22Z</time>
</trkpt>
<trkpt lat="48.8127669878304" lon="9.922597808763385">
<ele>403.2</ele>
<time>2024-05-12T15:26:23Z</time>
</trkpt>
<trkpt lat="48.812736477702856" lon="9.922592109069228">
<ele>403.2</ele>
<time>2024-05-12T15:26:24Z</time>
</trkpt>
<trkpt lat="48.81270211189985" lon="9.922578781843184">
<ele>403</ele>
<time>2024-05-12T15:26:25Z</time>
</trkpt>
<trkpt lat="48.81267160177231" lon="9.922561598941684">
<ele>403</ele>
<time>2024-05-12T15:26:26Z</time>
</trkpt>
<trkpt lat="48.81263346411288" lon="9.922545421868564">
<ele>403</ele>
<time>2024-05-12T15:26:27Z</time>
</trkpt>
<trkpt lat="48.812599182128906" lon="9.922525389119984">
<ele>403</ele>
<time>2024-05-12T15:26:28Z</time>
</trkpt>
<trkpt lat="48.8125648163259" lon="9.922503428533672">
<ele>403</ele>
<time>2024-05-12T15:26:29Z</time>
</trkpt>
<trkpt lat="48.81252667866647" lon="9.922486245632172">
<ele>403.2</ele>
<time>2024-05-12T15:26:30Z</time>
</trkpt>
<trkpt lat="48.81249231286347" lon="9.92247006855905">
<ele>403.2</ele>
<time>2024-05-12T15:26:32Z</time>
</trkpt>
<trkpt lat="48.81241603754461" lon="9.922418519854546">
<ele>403.4</ele>
<time>2024-05-12T15:26:33Z</time>
</trkpt>
<trkpt lat="48.81237404420972" lon="9.922385159879925">
<ele>403.6</ele>
<time>2024-05-12T15:26:34Z</time>
</trkpt>
<trkpt lat="48.8123282790184" lon="9.92234794422984">
<ele>403.6</ele>
<time>2024-05-12T15:26:35Z</time>
</trkpt>
<trkpt lat="48.812286369502544" lon="9.92231366224587">
<ele>403.8</ele>
<time>2024-05-12T15:26:36Z</time>
</trkpt>
<trkpt lat="48.812244376167655" lon="9.922280302271249">
<ele>403.8</ele>
<time>2024-05-12T15:26:37Z</time>
</trkpt>
<trkpt lat="48.812202382832766" lon="9.922245014458897">
<ele>403.8</ele>
<time>2024-05-12T15:26:38Z</time>
</trkpt>
<trkpt lat="48.81216047331691" lon="9.92221349850297">
<ele>403.8</ele>
<time>2024-05-12T15:26:39Z</time>
</trkpt>
<trkpt lat="48.81211847998202" lon="9.922182066366076">
<ele>403.8</ele>
<time>2024-05-12T15:26:40Z</time>
</trkpt>
<trkpt lat="48.81207648664713" lon="9.92215340025723">
<ele>404</ele>
<time>2024-05-12T15:26:41Z</time>
</trkpt>
<trkpt lat="48.81203457713127" lon="9.922129595652224">
<ele>404.2</ele>
<time>2024-05-12T15:26:42Z</time>
</trkpt>
<trkpt lat="48.811984956264496" lon="9.922109562903644">
<ele>404.4</ele>
<time>2024-05-12T15:26:43Z</time>
</trkpt>
<trkpt lat="48.81194304674864" lon="9.922098079696298">
<ele>404</ele>
<time>2024-05-12T15:26:44Z</time>
</trkpt>
<trkpt lat="48.81189342588186" lon="9.922091457992792">
<ele>403.6</ele>
<time>2024-05-12T15:26:45Z</time>
</trkpt>
<trkpt lat="48.811847660690546" lon="9.922093385830522">
<ele>403.6</ele>
<time>2024-05-12T15:26:46Z</time>
</trkpt>
<trkpt lat="48.81180189549923" lon="9.922111490741372">
<ele>403.6</ele>
<time>2024-05-12T15:26:48Z</time>
</trkpt>
<trkpt lat="48.8117293920368" lon="9.922186844050884">
<ele>403.8</ele>
<time>2024-05-12T15:26:49Z</time>
</trkpt>
<trkpt lat="48.81169502623379" lon="9.922240236774089">
<ele>404</ele>
<time>2024-05-12T15:26:50Z</time>
</trkpt>
<trkpt lat="48.81166074424982" lon="9.92229455150664">
<ele>404</ele>
<time>2024-05-12T15:26:51Z</time>
</trkpt>
<trkpt lat="48.81163023412227" lon="9.92234987206757">
<ele>404.2</ele>
<time>2024-05-12T15:26:52Z</time>
</trkpt>
<trkpt lat="48.81159972399473" lon="9.922403264790772">
<ele>404.4</ele>
<time>2024-05-12T15:26:54Z</time>
</trkpt>
<trkpt lat="48.8115462474525" lon="9.922514911741018">
<ele>405</ele>
<time>2024-05-12T15:26:55Z</time>
</trkpt>
<trkpt lat="48.81151959300041" lon="9.922574926167728">
<ele>405.6</ele>
<time>2024-05-12T15:26:56Z</time>
</trkpt>
<trkpt lat="48.811496710404754" lon="9.92263125255704">
<ele>406</ele>
<time>2024-05-12T15:26:57Z</time>
</trkpt>
<trkpt lat="48.81146997213364" lon="9.922684645280242">
<ele>406.4</ele>
<time>2024-05-12T15:26:58Z</time>
</trkpt>
<trkpt lat="48.81144708953798" lon="9.922733260318635">
<ele>407</ele>
<time>2024-05-12T15:26:59Z</time>
</trkpt>
<trkpt lat="48.81142420694232" lon="9.922780031338334">
<ele>407.4</ele>
<time>2024-05-12T15:27:00Z</time>
</trkpt>
<trkpt lat="48.81140132434666" lon="9.922826718539">
<ele>407.8</ele>
<time>2024-05-12T15:27:01Z</time>
</trkpt>
<trkpt lat="48.811378441751" lon="9.922871561720967">
<ele>408.2</ele>
<time>2024-05-12T15:27:02Z</time>
</trkpt>
<trkpt lat="48.81135933101177" lon="9.922916404902937">
<ele>408.6</ele>
<time>2024-05-12T15:27:03Z</time>
</trkpt>
<trkpt lat="48.81134030409157" lon="9.9229630921036">
<ele>409</ele>
<time>2024-05-12T15:27:04Z</time>
</trkpt>
<trkpt lat="48.8113250490278" lon="9.923007935285568">
<ele>409.4</ele>
<time>2024-05-12T15:27:05Z</time>
</trkpt>
<trkpt lat="48.81130216643214" lon="9.923049844801426">
<ele>409.6</ele>
<time>2024-05-12T15:27:06Z</time>
</trkpt>
<trkpt lat="48.81128305569291" lon="9.923093765974045">
<ele>410</ele>
<time>2024-05-12T15:27:07Z</time>
</trkpt>
<trkpt lat="48.81126402877271" lon="9.923134753480554">
<ele>410.2</ele>
<time>2024-05-12T15:27:08Z</time>
</trkpt>
<trkpt lat="48.81124491803348" lon="9.923174818977714">
<ele>410.6</ele>
<time>2024-05-12T15:27:09Z</time>
</trkpt>
<trkpt lat="48.81122203543782" lon="9.923214884474874">
<ele>411</ele>
<time>2024-05-12T15:27:11Z</time>
</trkpt>
<trkpt lat="48.81118766963482" lon="9.9233016371727">
<ele>411.6</ele>
<time>2024-05-12T15:27:12Z</time>
</trkpt>
<trkpt lat="48.81116864271462" lon="9.923348408192396">
<ele>412</ele>
<time>2024-05-12T15:27:13Z</time>
</trkpt>
<trkpt lat="48.81114953197539" lon="9.923393167555332">
<ele>412.2</ele>
<time>2024-05-12T15:27:14Z</time>
</trkpt>
<trkpt lat="48.811134276911616" lon="9.92343993857503">
<ele>412.6</ele>
<time>2024-05-12T15:27:15Z</time>
</trkpt>
<trkpt lat="48.81111524999142" lon="9.923484781756995">
<ele>412.8</ele>
<time>2024-05-12T15:27:16Z</time>
</trkpt>
<trkpt lat="48.811099994927645" lon="9.923533396795392">
<ele>413</ele>
<time>2024-05-12T15:27:17Z</time>
</trkpt>
<trkpt lat="48.8110885117203" lon="9.923582011833789">
<ele>413.4</ele>
<time>2024-05-12T15:27:18Z</time>
</trkpt>
<trkpt lat="48.81107325665653" lon="9.923627777025104">
<ele>413.4</ele>
<time>2024-05-12T15:27:19Z</time>
</trkpt>
<trkpt lat="48.811058001592755" lon="9.9236745480448">
<ele>413.6</ele>
<time>2024-05-12T15:27:21Z</time>
</trkpt>
<trkpt lat="48.81103126332164" lon="9.923763228580356">
<ele>413.8</ele>
<time>2024-05-12T15:27:22Z</time>
</trkpt>
<trkpt lat="48.811019863933325" lon="9.923807065933945">
<ele>413.8</ele>
<time>2024-05-12T15:27:23Z</time>
</trkpt>
<trkpt lat="48.81100838072598" lon="9.92384998127818">
<ele>413.8</ele>
<time>2024-05-12T15:27:24Z</time>
</trkpt>
<trkpt lat="48.81099698133767" lon="9.92389197461307">
<ele>413.6</ele>
<time>2024-05-12T15:27:25Z</time>
</trkpt>
<trkpt lat="48.81098549813032" lon="9.92393204011023">
<ele>413.6</ele>
<time>2024-05-12T15:27:26Z</time>
</trkpt>
<trkpt lat="48.810977870598435" lon="9.923968249931931">
<ele>413.4</ele>
<time>2024-05-12T15:27:27Z</time>
</trkpt>
<trkpt lat="48.81096647121012" lon="9.924006387591362">
<ele>413.4</ele>
<time>2024-05-12T15:27:28Z</time>
</trkpt>
<trkpt lat="48.81095121614635" lon="9.92405030876398">
<ele>413.2</ele>
<time>2024-05-12T15:27:29Z</time>
</trkpt>
<trkpt lat="48.81093596108258" lon="9.92409322410822">
<ele>413.2</ele>
<time>2024-05-12T15:27:30Z</time>
</trkpt>
<trkpt lat="48.810920706018806" lon="9.924137061461806">
<ele>413.2</ele>
<time>2024-05-12T15:27:31Z</time>
</trkpt>
<trkpt lat="48.81090922281146" lon="9.924181904643774">
<ele>413.2</ele>
<time>2024-05-12T15:27:32Z</time>
</trkpt>
<trkpt lat="48.81089396774769" lon="9.924226747825742">
<ele>413.4</ele>
<time>2024-05-12T15:27:33Z</time>
</trkpt>
<trkpt lat="48.81087485700846" lon="9.924271507188678">
<ele>413.4</ele>
<time>2024-05-12T15:27:34Z</time>
</trkpt>
<trkpt lat="48.810859601944685" lon="9.924320206046104">
<ele>413.4</ele>
<time>2024-05-12T15:27:35Z</time>
</trkpt>
<trkpt lat="48.810840575024486" lon="9.92436789907515">
<ele>413.4</ele>
<time>2024-05-12T15:27:36Z</time>
</trkpt>
<trkpt lat="48.810821464285254" lon="9.924413664266469">
<ele>413.6</ele>
<time>2024-05-12T15:27:37Z</time>
</trkpt>
<trkpt lat="48.81080620922148" lon="9.924461357295511">
<ele>413.6</ele>
<time>2024-05-12T15:27:38Z</time>
</trkpt>
<trkpt lat="48.81079095415771" lon="9.92450804449618">
<ele>413.6</ele>
<time>2024-05-12T15:27:39Z</time>
</trkpt>
<trkpt lat="48.81077192723751" lon="9.924552887678146">
<ele>413.6</ele>
<time>2024-05-12T15:27:40Z</time>
</trkpt>
<trkpt lat="48.81074904464185" lon="9.924596725031734">
<ele>413.6</ele>
<time>2024-05-12T15:27:41Z</time>
</trkpt>
<trkpt lat="48.810722306370735" lon="9.9246415682137">
<ele>413.4</ele>
<time>2024-05-12T15:27:42Z</time>
</trkpt>
<trkpt lat="48.81069556809962" lon="9.92468163371086">
<ele>413.4</ele>
<time>2024-05-12T15:27:43Z</time>
</trkpt>
<trkpt lat="48.810661286115646" lon="9.924716921523212">
<ele>413.4</ele>
<time>2024-05-12T15:27:44Z</time>
</trkpt>
<trkpt lat="48.81062692031264" lon="9.9247417319566">
<ele>413.4</ele>
<time>2024-05-12T15:27:45Z</time>
</trkpt>
<trkpt lat="48.81058878265321" lon="9.924753131344914">
<ele>413.4</ele>
<time>2024-05-12T15:27:46Z</time>
</trkpt>
<trkpt lat="48.81055064499378" lon="9.924755059182644">
<ele>413.4</ele>
<time>2024-05-12T15:27:47Z</time>
</trkpt>
<trkpt lat="48.81051250733435" lon="9.924748353660108">
<ele>413.2</ele>
<time>2024-05-12T15:27:48Z</time>
</trkpt>
<trkpt lat="48.81047436967492" lon="9.924736954271792">
<ele>413.2</ele>
<time>2024-05-12T15:27:50Z</time>
</trkpt>
<trkpt lat="48.8103942386806" lon="9.924711221829057">
<ele>413.2</ele>
<time>2024-05-12T15:27:51Z</time>
</trkpt>
<trkpt lat="48.81035610102117" lon="9.924697810783982">
<ele>413.4</ele>
<time>2024-05-12T15:27:52Z</time>
</trkpt>
<trkpt lat="48.81031410768628" lon="9.924690183252096">
<ele>413.4</ele>
<time>2024-05-12T15:27:53Z</time>
</trkpt>
<trkpt lat="48.810268342494965" lon="9.92468356154859">
<ele>413.6</ele>
<time>2024-05-12T15:27:54Z</time>
</trkpt>
<trkpt lat="48.81022643297911" lon="9.924679705873132">
<ele>413.6</ele>
<time>2024-05-12T15:27:55Z</time>
</trkpt>
<trkpt lat="48.810188211500645" lon="9.924674928188324">
<ele>413.8</ele>
<time>2024-05-12T15:27:56Z</time>
</trkpt>
<trkpt lat="48.810150073841214" lon="9.924670150503516">
<ele>413.8</ele>
<time>2024-05-12T15:27:57Z</time>
</trkpt>
<trkpt lat="48.81011579185724" lon="9.924656823277472">
<ele>414</ele>
<time>2024-05-12T15:27:58Z</time>
</trkpt>
<trkpt lat="48.81008142605424" lon="9.92462824098766">
<ele>414</ele>
<time>2024-05-12T15:27:59Z</time>
</trkpt>
<trkpt lat="48.810050915926695" lon="9.924586247652767">
<ele>414.2</ele>
<time>2024-05-12T15:28:00Z</time>
</trkpt>
<trkpt lat="48.81001655012369" lon="9.9245414044708">
<ele>414.2</ele>
<time>2024-05-12T15:28:01Z</time>
</trkpt>
<trkpt lat="48.80998226813972" lon="9.924496645107864">
<ele>414.2</ele>
<time>2024-05-12T15:28:02Z</time>
</trkpt>
<trkpt lat="48.80994790233672" lon="9.924453729763629">
<ele>414.2</ele>
<time>2024-05-12T15:28:03Z</time>
</trkpt>
<trkpt lat="48.809913620352745" lon="9.924416514113544">
<ele>414.2</ele>
<time>2024-05-12T15:28:04Z</time>
</trkpt>
<trkpt lat="48.80987925454974" lon="9.924380220472813">
<ele>414.2</ele>
<time>2024-05-12T15:28:05Z</time>
</trkpt>
<trkpt lat="48.80984488874674" lon="9.924343088641765">
<ele>414.4</ele>
<time>2024-05-12T15:28:06Z</time>
</trkpt>
<trkpt lat="48.80980675108731" lon="9.92430872283876">
<ele>414.4</ele>
<time>2024-05-12T15:28:08Z</time>
</trkpt>
<trkpt lat="48.80973810330033" lon="9.924238147214057">
<ele>414.8</ele>
<time>2024-05-12T15:28:09Z</time>
</trkpt>
<trkpt lat="48.8096999656409" lon="9.924202859401705">
<ele>415</ele>
<time>2024-05-12T15:28:10Z</time>
</trkpt>
<trkpt lat="48.80966945551336" lon="9.924168577417731">
<ele>415.2</ele>
<time>2024-05-12T15:28:11Z</time>
</trkpt>
<trkpt lat="48.80963131785393" lon="9.924135133624077">
<ele>415.6</ele>
<time>2024-05-12T15:28:12Z</time>
</trkpt>
<trkpt lat="48.80959695205093" lon="9.924101773649454">
<ele>415.8</ele>
<time>2024-05-12T15:28:13Z</time>
</trkpt>
<trkpt lat="48.80956267006695" lon="9.92407034151256">
<ele>415.8</ele>
<time>2024-05-12T15:28:14Z</time>
</trkpt>
<trkpt lat="48.80952453240752" lon="9.924041675403714">
<ele>416</ele>
<time>2024-05-12T15:28:15Z</time>
</trkpt>
<trkpt lat="48.80948631092906" lon="9.924015020951629">
<ele>416.2</ele>
<time>2024-05-12T15:28:16Z</time>
</trkpt>
<trkpt lat="48.80944817326963" lon="9.923988282680511">
<ele>416.6</ele>
<time>2024-05-12T15:28:17Z</time>
</trkpt>
<trkpt lat="48.8094100356102" lon="9.923963472247124">
<ele>416.8</ele>
<time>2024-05-12T15:28:18Z</time>
</trkpt>
<trkpt lat="48.80937189795077" lon="9.923939667642117">
<ele>417</ele>
<time>2024-05-12T15:28:19Z</time>
</trkpt>
<trkpt lat="48.8093376159668" lon="9.923912929371">
<ele>417.2</ele>
<time>2024-05-12T15:28:20Z</time>
</trkpt>
<trkpt lat="48.809303250163794" lon="9.923886274918914">
<ele>417.6</ele>
<time>2024-05-12T15:28:21Z</time>
</trkpt>
<trkpt lat="48.80926511250436" lon="9.923861464485526">
<ele>417.8</ele>
<time>2024-05-12T15:28:22Z</time>
</trkpt>
<trkpt lat="48.80923074670136" lon="9.923836654052138">
<ele>418.2</ele>
<time>2024-05-12T15:28:23Z</time>
</trkpt>
<trkpt lat="48.80919646471739" lon="9.923812849447131">
<ele>418.6</ele>
<time>2024-05-12T15:28:24Z</time>
</trkpt>
<trkpt lat="48.809162098914385" lon="9.923788039013743">
<ele>419</ele>
<time>2024-05-12T15:28:25Z</time>
</trkpt>
<trkpt lat="48.80913158878684" lon="9.923767084255816">
<ele>419.4</ele>
<time>2024-05-12T15:28:26Z</time>
</trkpt>
<trkpt lat="48.80909722298384" lon="9.923745123669503">
<ele>419.8</ele>
<time>2024-05-12T15:28:28Z</time>
</trkpt>
<trkpt lat="48.80903243087232" lon="9.923703130334616">
<ele>420.4</ele>
<time>2024-05-12T15:28:29Z</time>
</trkpt>
<trkpt lat="48.80899806506932" lon="9.923686953261496">
<ele>420.8</ele>
<time>2024-05-12T15:28:30Z</time>
</trkpt>
<trkpt lat="48.808963699266315" lon="9.923669770359991">
<ele>421.2</ele>
<time>2024-05-12T15:28:31Z</time>
</trkpt>
<trkpt lat="48.80893318913877" lon="9.923653593286872">
<ele>421.4</ele>
<time>2024-05-12T15:28:32Z</time>
</trkpt>
<trkpt lat="48.8088989071548" lon="9.92363641038537">
<ele>421.8</ele>
<time>2024-05-12T15:28:33Z</time>
</trkpt>
<trkpt lat="48.808864541351795" lon="9.923620149493216">
<ele>422</ele>
<time>2024-05-12T15:28:34Z</time>
</trkpt>
<trkpt lat="48.808830259367824" lon="9.923604894429443">
<ele>422.2</ele>
<time>2024-05-12T15:28:35Z</time>
</trkpt>
<trkpt lat="48.80879589356482" lon="9.923589639365671">
<ele>422.4</ele>
<time>2024-05-12T15:28:36Z</time>
</trkpt>
<trkpt lat="48.80876152776182" lon="9.923571534454824">
<ele>422.6</ele>
<time>2024-05-12T15:28:37Z</time>
</trkpt>
<trkpt lat="48.808727245777845" lon="9.923551501706244">
<ele>422.8</ele>
<time>2024-05-12T15:28:39Z</time>
</trkpt>
<trkpt lat="48.8086623698473" lon="9.923506658524277">
<ele>423.4</ele>
<time>2024-05-12T15:28:40Z</time>
</trkpt>
<trkpt lat="48.80863185971975" lon="9.923488553613424">
<ele>423.4</ele>
<time>2024-05-12T15:28:41Z</time>
</trkpt>
<trkpt lat="48.80860134959221" lon="9.923471370711924">
<ele>423.6</ele>
<time>2024-05-12T15:28:42Z</time>
</trkpt>
<trkpt lat="48.808566983789206" lon="9.923455193638802">
<ele>423.8</ele>
<time>2024-05-12T15:28:43Z</time>
</trkpt>
<trkpt lat="48.80853647366166" lon="9.92343993857503">
<ele>424</ele>
<time>2024-05-12T15:28:44Z</time>
</trkpt>
<trkpt lat="48.80850596353412" lon="9.923426611348988">
<ele>424.2</ele>
<time>2024-05-12T15:28:45Z</time>
</trkpt>
<trkpt lat="48.80847159773111" lon="9.923411356285214">
<ele>424.4</ele>
<time>2024-05-12T15:28:46Z</time>
</trkpt>
<trkpt lat="48.80844108760357" lon="9.923397023230793">
<ele>424.8</ele>
<time>2024-05-12T15:28:47Z</time>
</trkpt>
<trkpt lat="48.808410577476025" lon="9.92338176816702">
<ele>425</ele>
<time>2024-05-12T15:28:48Z</time>
</trkpt>
<trkpt lat="48.80838006734848" lon="9.923366513103248">
<ele>425.2</ele>
<time>2024-05-12T15:28:49Z</time>
</trkpt>
<trkpt lat="48.808353412896395" lon="9.923350252211094">
<ele>425.4</ele>
<time>2024-05-12T15:28:50Z</time>
</trkpt>
<trkpt lat="48.80831904709339" lon="9.923333153128624">
<ele>425.6</ele>
<time>2024-05-12T15:28:51Z</time>
</trkpt>
<trkpt lat="48.80828853696585" lon="9.92331974208355">
<ele>425.8</ele>
<time>2024-05-12T15:28:52Z</time>
</trkpt>
<trkpt lat="48.8082580268383" lon="9.923306414857509">
<ele>426</ele>
<time>2024-05-12T15:28:53Z</time>
</trkpt>
<trkpt lat="48.808231288567185" lon="9.923293087631464">
<ele>426.2</ele>
<time>2024-05-12T15:28:54Z</time>
</trkpt>
<trkpt lat="48.8082046341151" lon="9.923276826739311">
<ele>426.4</ele>
<time>2024-05-12T15:28:55Z</time>
</trkpt>
<trkpt lat="48.80817789584398" lon="9.92325972765684">
<ele>426.8</ele>
<time>2024-05-12T15:28:56Z</time>
</trkpt>
<trkpt lat="48.8081512413919" lon="9.923245394602418">
<ele>427</ele>
<time>2024-05-12T15:28:57Z</time>
</trkpt>
<trkpt lat="48.80812450312078" lon="9.923232067376375">
<ele>427.2</ele>
<time>2024-05-12T15:28:58Z</time>
</trkpt>
<trkpt lat="48.80809399299323" lon="9.92321966215968">
<ele>427.4</ele>
<time>2024-05-12T15:28:59Z</time>
</trkpt>
<trkpt lat="48.80806725472212" lon="9.923208178952336">
<ele>427.4</ele>
<time>2024-05-12T15:29:00Z</time>
</trkpt>
<trkpt lat="48.80804060027003" lon="9.923196779564025">
<ele>427.6</ele>
<time>2024-05-12T15:29:01Z</time>
</trkpt>
<trkpt lat="48.80801386199891" lon="9.923183368518949">
<ele>427.8</ele>
<time>2024-05-12T15:29:02Z</time>
</trkpt>
<trkpt lat="48.80799097940326" lon="9.923170041292906">
<ele>427.8</ele>
<time>2024-05-12T15:29:03Z</time>
</trkpt>
<trkpt lat="48.80796432495117" lon="9.92315956391394">
<ele>428</ele>
<time>2024-05-12T15:29:04Z</time>
</trkpt>
<trkpt lat="48.80794135853648" lon="9.923150008544326">
<ele>428</ele>
<time>2024-05-12T15:29:05Z</time>
</trkpt>
<trkpt lat="48.8079147040844" lon="9.923138609156013">
<ele>428</ele>
<time>2024-05-12T15:29:06Z</time>
</trkpt>
<trkpt lat="48.80789182148874" lon="9.92312620393932">
<ele>428.2</ele>
<time>2024-05-12T15:29:07Z</time>
</trkpt>
<trkpt lat="48.80786508321762" lon="9.923114720731974">
<ele>428.4</ele>
<time>2024-05-12T15:29:08Z</time>
</trkpt>
<trkpt lat="48.80783080123365" lon="9.923105165362358">
<ele>428.4</ele>
<time>2024-05-12T15:29:09Z</time>
</trkpt>
<trkpt lat="48.807796435430646" lon="9.923089910298586">
<ele>428.6</ele>
<time>2024-05-12T15:29:10Z</time>
</trkpt>
<trkpt lat="48.8077659253031" lon="9.923076583072543">
<ele>428.8</ele>
<time>2024-05-12T15:29:11Z</time>
</trkpt>
<trkpt lat="48.80773541517556" lon="9.923060405999422">
<ele>428.8</ele>
<time>2024-05-12T15:29:12Z</time>
</trkpt>
<trkpt lat="48.80770490504801" lon="9.92304322309792">
<ele>429</ele>
<time>2024-05-12T15:29:13Z</time>
</trkpt>
<trkpt lat="48.80767053924501" lon="9.92302319034934">
<ele>429</ele>
<time>2024-05-12T15:29:14Z</time>
</trkpt>
<trkpt lat="48.80763625726104" lon="9.923000307753682">
<ele>429.2</ele>
<time>2024-05-12T15:29:15Z</time>
</trkpt>
<trkpt lat="48.807601891458035" lon="9.922976419329643">
<ele>429.2</ele>
<time>2024-05-12T15:29:16Z</time>
</trkpt>
<trkpt lat="48.80756375379861" lon="9.922954542562366">
<ele>429.2</ele>
<time>2024-05-12T15:29:17Z</time>
</trkpt>
<trkpt lat="48.8075293879956" lon="9.922933503985403">
<ele>429.4</ele>
<time>2024-05-12T15:29:18Z</time>
</trkpt>
<trkpt lat="48.80749510601163" lon="9.922913471236823">
<ele>429.4</ele>
<time>2024-05-12T15:29:19Z</time>
</trkpt>
<trkpt lat="48.8074569683522" lon="9.922893522307277">
<ele>429.4</ele>
<time>2024-05-12T15:29:20Z</time>
</trkpt>
<trkpt lat="48.807418746873736" lon="9.922875333577394">
<ele>429.4</ele>
<time>2024-05-12T15:29:21Z</time>
</trkpt>
<trkpt lat="48.807380609214306" lon="9.922855300828816">
<ele>429.4</ele>
<time>2024-05-12T15:29:22Z</time>
</trkpt>
<trkpt lat="48.807346327230334" lon="9.922831496223807">
<ele>429.4</ele>
<time>2024-05-12T15:29:23Z</time>
</trkpt>
<trkpt lat="48.807308189570904" lon="9.922811463475227">
<ele>429.4</ele>
<time>2024-05-12T15:29:24Z</time>
</trkpt>
<trkpt lat="48.80726996809244" lon="9.922791430726647">
<ele>429.4</ele>
<time>2024-05-12T15:29:25Z</time>
</trkpt>
<trkpt lat="48.807228058576584" lon="9.922771397978067">
<ele>429.4</ele>
<time>2024-05-12T15:29:26Z</time>
</trkpt>
<trkpt lat="48.807186065241694" lon="9.922751365229487">
<ele>429.4</ele>
<time>2024-05-12T15:29:27Z</time>
</trkpt>
<trkpt lat="48.807147927582264" lon="9.922731332480907">
<ele>429.4</ele>
<time>2024-05-12T15:29:28Z</time>
</trkpt>
<trkpt lat="48.807106018066406" lon="9.922711299732327">
<ele>429.4</ele>
<time>2024-05-12T15:29:29Z</time>
</trkpt>
<trkpt lat="48.80706402473152" lon="9.922693194821475">
<ele>429.4</ele>
<time>2024-05-12T15:29:30Z</time>
</trkpt>
<trkpt lat="48.80702203139663" lon="9.922677017748356">
<ele>429.6</ele>
<time>2024-05-12T15:29:31Z</time>
</trkpt>
<trkpt lat="48.80698012188077" lon="9.922661762684584">
<ele>429.6</ele>
<time>2024-05-12T15:29:32Z</time>
</trkpt>
<trkpt lat="48.80693812854588" lon="9.922641729936004">
<ele>429.6</ele>
<time>2024-05-12T15:29:33Z</time>
</trkpt>
<trkpt lat="48.80689999088645" lon="9.922619769349694">
<ele>429.6</ele>
<time>2024-05-12T15:29:34Z</time>
</trkpt>
<trkpt lat="48.80685799755156" lon="9.922601664438844">
<ele>429.6</ele>
<time>2024-05-12T15:29:35Z</time>
</trkpt>
<trkpt lat="48.80681985989213" lon="9.922584481537342">
<ele>429.6</ele>
<time>2024-05-12T15:29:36Z</time>
</trkpt>
<trkpt lat="48.80677409470081" lon="9.922566376626492">
<ele>429.6</ele>
<time>2024-05-12T15:29:37Z</time>
</trkpt>
<trkpt lat="48.80673210136592" lon="9.922545421868564">
<ele>429.6</ele>
<time>2024-05-12T15:29:38Z</time>
</trkpt>
<trkpt lat="48.806690191850066" lon="9.922523461282251">
<ele>429.6</ele>
<time>2024-05-12T15:29:39Z</time>
</trkpt>
<trkpt lat="48.80664819851518" lon="9.922499656677246">
<ele>429.6</ele>
<time>2024-05-12T15:29:40Z</time>
</trkpt>
<trkpt lat="48.80660628899932" lon="9.922474846243858">
<ele>429.6</ele>
<time>2024-05-12T15:29:41Z</time>
</trkpt>
<trkpt lat="48.80656043998897" lon="9.92245003581047">
<ele>429.6</ele>
<time>2024-05-12T15:29:42Z</time>
</trkpt>
<trkpt lat="48.806514674797654" lon="9.922426147386432">
<ele>429.8</ele>
<time>2024-05-12T15:29:43Z</time>
</trkpt>
<trkpt lat="48.80646513774991" lon="9.922403264790772">
<ele>429.8</ele>
<time>2024-05-12T15:29:44Z</time>
</trkpt>
<trkpt lat="48.80642314441502" lon="9.922381388023496">
<ele>429.8</ele>
<time>2024-05-12T15:29:45Z</time>
</trkpt>
<trkpt lat="48.806377379223704" lon="9.922358505427836">
<ele>429.8</ele>
<time>2024-05-12T15:29:46Z</time>
</trkpt>
<trkpt lat="48.80633161403239" lon="9.92233176715672">
<ele>429.8</ele>
<time>2024-05-12T15:29:47Z</time>
</trkpt>
<trkpt lat="48.80628584884107" lon="9.922301257029176">
<ele>429.8</ele>
<time>2024-05-12T15:29:48Z</time>
</trkpt>
<trkpt lat="48.80623999983072" lon="9.92227451875806">
<ele>429.8</ele>
<time>2024-05-12T15:29:49Z</time>
</trkpt>
<trkpt lat="48.80618660710752" lon="9.9222516361624">
<ele>429.8</ele>
<time>2024-05-12T15:29:50Z</time>
</trkpt>
<trkpt lat="48.80613321438432" lon="9.922224981710317">
<ele>429.6</ele>
<time>2024-05-12T15:29:51Z</time>
</trkpt>
<trkpt lat="48.806079821661115" lon="9.922198243439198">
<ele>429.6</ele>
<time>2024-05-12T15:29:52Z</time>
</trkpt>
<trkpt lat="48.80602642893791" lon="9.922169661149384">
<ele>429.6</ele>
<time>2024-05-12T15:29:53Z</time>
</trkpt>
<trkpt lat="48.80597303621471" lon="9.922142000868917">
<ele>429.4</ele>
<time>2024-05-12T15:29:54Z</time>
</trkpt>
<trkpt lat="48.80591964349151" lon="9.922113418579102">
<ele>429.2</ele>
<time>2024-05-12T15:29:56Z</time>
</trkpt>
<trkpt lat="48.80581277422607" lon="9.92205809801817">
<ele>428.8</ele>
<time>2024-05-12T15:29:57Z</time>
</trkpt>
<trkpt lat="48.80575938150287" lon="9.922035215422513">
<ele>428.8</ele>
<time>2024-05-12T15:29:58Z</time>
</trkpt>
<trkpt lat="48.80570976063609" lon="9.922015182673931">
<ele>428.6</ele>
<time>2024-05-12T15:29:59Z</time>
</trkpt>
<trkpt lat="48.80566022358835" lon="9.921993222087622">
<ele>428.2</ele>
<time>2024-05-12T15:30:00Z</time>
</trkpt>
<trkpt lat="48.80561445839703" lon="9.921973189339042">
<ele>428</ele>
<time>2024-05-12T15:30:01Z</time>
</trkpt>
<trkpt lat="48.805568693205714" lon="9.921951228752732">
<ele>428</ele>
<time>2024-05-12T15:30:02Z</time>
</trkpt>
<trkpt lat="48.80551907233894" lon="9.921928346157074">
<ele>427.8</ele>
<time>2024-05-12T15:30:04Z</time>
</trkpt>
<trkpt lat="48.80542368628085" lon="9.921883502975106">
<ele>427.6</ele>
<time>2024-05-12T15:30:05Z</time>
</trkpt>
<trkpt lat="48.80537792108953" lon="9.921863554045558">
<ele>427.4</ele>
<time>2024-05-12T15:30:06Z</time>
</trkpt>
<trkpt lat="48.805328300222754" lon="9.921841593459249">
<ele>427.2</ele>
<time>2024-05-12T15:30:07Z</time>
</trkpt>
<trkpt lat="48.80528253503144" lon="9.92181871086359">
<ele>427</ele>
<time>2024-05-12T15:30:08Z</time>
</trkpt>
<trkpt lat="48.805232997983694" lon="9.92179675027728">
<ele>427</ele>
<time>2024-05-12T15:30:09Z</time>
</trkpt>
<trkpt lat="48.80518337711692" lon="9.921774789690971">
<ele>426.8</ele>
<time>2024-05-12T15:30:10Z</time>
</trkpt>
<trkpt lat="48.80513375625014" lon="9.921752912923694">
<ele>426.8</ele>
<time>2024-05-12T15:30:11Z</time>
</trkpt>
<trkpt lat="48.80508036352694" lon="9.921731874346731">
<ele>426.8</ele>
<time>2024-05-12T15:30:12Z</time>
</trkpt>
<trkpt lat="48.805034598335624" lon="9.921709997579455">
<ele>426.6</ele>
<time>2024-05-12T15:30:13Z</time>
</trkpt>
<trkpt lat="48.80498497746885" lon="9.921688036993146">
<ele>426.6</ele>
<time>2024-05-12T15:30:14Z</time>
</trkpt>
<trkpt lat="48.804935440421104" lon="9.921663226559758">
<ele>426.6</ele>
<time>2024-05-12T15:30:15Z</time>
</trkpt>
<trkpt lat="48.80488967522979" lon="9.9216403439641">
<ele>426.6</ele>
<time>2024-05-12T15:30:16Z</time>
</trkpt>
<trkpt lat="48.80484005436301" lon="9.92161838337779">
<ele>426.4</ele>
<time>2024-05-12T15:30:17Z</time>
</trkpt>
<trkpt lat="48.80479043349624" lon="9.92160027846694">
<ele>426.4</ele>
<time>2024-05-12T15:30:18Z</time>
</trkpt>
<trkpt lat="48.804737040773034" lon="9.92158024571836">
<ele>426.4</ele>
<time>2024-05-12T15:30:19Z</time>
</trkpt>
<trkpt lat="48.80468741990626" lon="9.92156314663589">
<ele>426.4</ele>
<time>2024-05-12T15:30:20Z</time>
</trkpt>
<trkpt lat="48.80463025532663" lon="9.921546885743735">
<ele>426.2</ele>
<time>2024-05-12T15:30:21Z</time>
</trkpt>
<trkpt lat="48.80457300692797" lon="9.921529702842236">
<ele>426</ele>
<time>2024-05-12T15:30:22Z</time>
</trkpt>
<trkpt lat="48.80451198667288" lon="9.921514447778463">
<ele>426</ele>
<time>2024-05-12T15:30:23Z</time>
</trkpt>
<trkpt lat="48.80444711074233" lon="9.92150304839015">
<ele>425.8</ele>
<time>2024-05-12T15:30:24Z</time>
</trkpt>
<trkpt lat="48.80437469109893" lon="9.921493493020536">
<ele>425.6</ele>
<time>2024-05-12T15:30:25Z</time>
</trkpt>
<trkpt lat="48.80429833196104" lon="9.921488715335729">
<ele>425.4</ele>
<time>2024-05-12T15:30:26Z</time>
</trkpt>
<trkpt lat="48.80421442911029" lon="9.921486787497996">
<ele>425</ele>
<time>2024-05-12T15:30:27Z</time>
</trkpt>
<trkpt lat="48.80413052625954" lon="9.921488715335729">
<ele>424.8</ele>
<time>2024-05-12T15:30:28Z</time>
</trkpt>
<trkpt lat="48.804042767733335" lon="9.921488715335729">
<ele>424.6</ele>
<time>2024-05-12T15:30:29Z</time>
</trkpt>
<trkpt lat="48.80395500920713" lon="9.921493493020536">
<ele>424.4</ele>
<time>2024-05-12T15:30:30Z</time>
</trkpt>
<trkpt lat="48.80387496203184" lon="9.921496342867613">
<ele>424.2</ele>
<time>2024-05-12T15:30:31Z</time>
</trkpt>
<trkpt lat="48.80379483103752" lon="9.921504892408848">
<ele>424</ele>
<time>2024-05-12T15:30:32Z</time>
</trkpt>
<trkpt lat="48.80371855571866" lon="9.921516375616193">
<ele>424</ele>
<time>2024-05-12T15:30:33Z</time>
</trkpt>
<trkpt lat="48.80364605225623" lon="9.921533558517694">
<ele>424</ele>
<time>2024-05-12T15:30:34Z</time>
</trkpt>
<trkpt lat="48.80357740446925" lon="9.921551663428543">
<ele>424</ele>
<time>2024-05-12T15:30:35Z</time>
</trkpt>
<trkpt lat="48.80351638421416" lon="9.921569768339396">
<ele>424</ele>
<time>2024-05-12T15:30:36Z</time>
</trkpt>
<trkpt lat="48.80345528014004" lon="9.921587873250246">
<ele>424.2</ele>
<time>2024-05-12T15:30:37Z</time>
</trkpt>
<trkpt lat="48.80340188741684" lon="9.921606983989475">
<ele>424.2</ele>
<time>2024-05-12T15:30:38Z</time>
</trkpt>
<trkpt lat="48.80335612222552" lon="9.921627016738055">
<ele>424.2</ele>
<time>2024-05-12T15:30:39Z</time>
</trkpt>
<trkpt lat="48.80330650135875" lon="9.921647049486635">
<ele>424.2</ele>
<time>2024-05-12T15:30:40Z</time>
</trkpt>
<trkpt lat="48.80326459184289" lon="9.921663226559758">
<ele>424.2</ele>
<time>2024-05-12T15:30:41Z</time>
</trkpt>
<trkpt lat="48.80321882665157" lon="9.921681331470609">
<ele>424.4</ele>
<time>2024-05-12T15:30:42Z</time>
</trkpt>
<trkpt lat="48.80317683331669" lon="9.92169851437211">
<ele>424.4</ele>
<time>2024-05-12T15:30:43Z</time>
</trkpt>
<trkpt lat="48.803134839981794" lon="9.921712847426534">
<ele>424.6</ele>
<time>2024-05-12T15:30:44Z</time>
</trkpt>
<trkpt lat="48.80308907479048" lon="9.921725252643228">
<ele>424.6</ele>
<time>2024-05-12T15:30:45Z</time>
</trkpt>
<trkpt lat="48.80304330959916" lon="9.921734808012843">
<ele>424.8</ele>
<time>2024-05-12T15:30:46Z</time>
</trkpt>
<trkpt lat="48.802997544407845" lon="9.921745285391808">
<ele>425.2</ele>
<time>2024-05-12T15:30:47Z</time>
</trkpt>
<trkpt lat="48.80295177921653" lon="9.921754756942391">
<ele>425.4</ele>
<time>2024-05-12T15:30:48Z</time>
</trkpt>
<trkpt lat="48.80290215834975" lon="9.9217595346272">
<ele>425.6</ele>
<time>2024-05-12T15:30:49Z</time>
</trkpt>
<trkpt lat="48.80285639315843" lon="9.921761462464929">
<ele>426</ele>
<time>2024-05-12T15:30:50Z</time>
</trkpt>
<trkpt lat="48.80280677229166" lon="9.92175861261785">
<ele>426.2</ele>
<time>2024-05-12T15:30:51Z</time>
</trkpt>
<trkpt lat="48.80275723524392" lon="9.921752912923694">
<ele>426.4</ele>
<time>2024-05-12T15:30:52Z</time>
</trkpt>
<trkpt lat="48.8027114700526" lon="9.921741429716349">
<ele>426.4</ele>
<time>2024-05-12T15:30:53Z</time>
</trkpt>
<trkpt lat="48.802661849185824" lon="9.921730030328035">
<ele>426.6</ele>
<time>2024-05-12T15:30:54Z</time>
</trkpt>
<trkpt lat="48.80261608399451" lon="9.921712847426534">
<ele>426.8</ele>
<time>2024-05-12T15:30:55Z</time>
</trkpt>
<trkpt lat="48.80256646312773" lon="9.921691892668605">
<ele>426.8</ele>
<time>2024-05-12T15:30:56Z</time>
</trkpt>
<trkpt lat="48.802520697936416" lon="9.921669932082295">
<ele>427</ele>
<time>2024-05-12T15:30:57Z</time>
</trkpt>
<trkpt lat="48.8024749327451" lon="9.921647971495986">
<ele>427.2</ele>
<time>2024-05-12T15:30:58Z</time>
</trkpt>
<trkpt lat="48.80242916755378" lon="9.921627016738055">
<ele>427.2</ele>
<time>2024-05-12T15:30:59Z</time>
</trkpt>
<trkpt lat="48.802383402362466" lon="9.92160027846694">
<ele>427.4</ele>
<time>2024-05-12T15:31:00Z</time>
</trkpt>
<trkpt lat="48.80233763717115" lon="9.921573624014854">
<ele>427.6</ele>
<time>2024-05-12T15:31:01Z</time>
</trkpt>
<trkpt lat="48.8022917881608" lon="9.921546885743735">
<ele>427.8</ele>
<time>2024-05-12T15:31:02Z</time>
</trkpt>
<trkpt lat="48.80224225111306" lon="9.921518303453922">
<ele>427.8</ele>
<time>2024-05-12T15:31:03Z</time>
</trkpt>
<trkpt lat="48.80219648592174" lon="9.921491565182803">
<ele>428</ele>
<time>2024-05-12T15:31:04Z</time>
</trkpt>
<trkpt lat="48.802150720730424" lon="9.921466754749416">
<ele>428.2</ele>
<time>2024-05-12T15:31:05Z</time>
</trkpt>
<trkpt lat="48.80210487172008" lon="9.921438172459602">
<ele>428.2</ele>
<time>2024-05-12T15:31:06Z</time>
</trkpt>
<trkpt lat="48.80205533467233" lon="9.921411434188483">
<ele>428.4</ele>
<time>2024-05-12T15:31:07Z</time>
</trkpt>
<trkpt lat="48.80200571380555" lon="9.9213847797364">
<ele>428.4</ele>
<time>2024-05-12T15:31:08Z</time>
</trkpt>
<trkpt lat="48.80195994861424" lon="9.921359969303012">
<ele>428.4</ele>
<time>2024-05-12T15:31:09Z</time>
</trkpt>
<trkpt lat="48.80190655589104" lon="9.921337086707354">
<ele>428.4</ele>
<time>2024-05-12T15:31:10Z</time>
</trkpt>
<trkpt lat="48.80185693502426" lon="9.921313282102346">
<ele>428.6</ele>
<time>2024-05-12T15:31:11Z</time>
</trkpt>
<trkpt lat="48.80180739797652" lon="9.921291321516035">
<ele>428.6</ele>
<time>2024-05-12T15:31:12Z</time>
</trkpt>
<trkpt lat="48.80175777710974" lon="9.921270366758108">
<ele>428.6</ele>
<time>2024-05-12T15:31:13Z</time>
</trkpt>
<trkpt lat="48.80170815624297" lon="9.921251256018875">
<ele>428.8</ele>
<time>2024-05-12T15:31:14Z</time>
</trkpt>
<trkpt lat="48.80165476351976" lon="9.921235078945756">
<ele>428.8</ele>
<time>2024-05-12T15:31:15Z</time>
</trkpt>
<trkpt lat="48.80160514265299" lon="9.92122451774776">
<ele>428.8</ele>
<time>2024-05-12T15:31:16Z</time>
</trkpt>
<trkpt lat="48.801551749929786" lon="9.921219823881984">
<ele>428.8</ele>
<time>2024-05-12T15:31:17Z</time>
</trkpt>
<trkpt lat="48.80149458535016" lon="9.921223595738413">
<ele>428.8</ele>
<time>2024-05-12T15:31:18Z</time>
</trkpt>
<trkpt lat="48.80144119262695" lon="9.92122837342322">
<ele>429</ele>
<time>2024-05-12T15:31:19Z</time>
</trkpt>
<trkpt lat="48.80138394422829" lon="9.921237928792834">
<ele>429</ele>
<time>2024-05-12T15:31:20Z</time>
</trkpt>
<trkpt lat="48.80132669582963" lon="9.9212484061718">
<ele>429</ele>
<time>2024-05-12T15:31:21Z</time>
</trkpt>
<trkpt lat="48.80127330310643" lon="9.921259805560112">
<ele>429</ele>
<time>2024-05-12T15:31:22Z</time>
</trkpt>
<trkpt lat="48.801216054707766" lon="9.921273216605186">
<ele>429</ele>
<time>2024-05-12T15:31:23Z</time>
</trkpt>
<trkpt lat="48.80116266198456" lon="9.921290315687656">
<ele>429.2</ele>
<time>2024-05-12T15:31:24Z</time>
</trkpt>
<trkpt lat="48.80110549740493" lon="9.92130657657981">
<ele>429.2</ele>
<time>2024-05-12T15:31:25Z</time>
</trkpt>
<trkpt lat="48.8010520208627" lon="9.92132375948131">
<ele>429.4</ele>
<time>2024-05-12T15:31:26Z</time>
</trkpt>
<trkpt lat="48.80099485628307" lon="9.921338008716702">
<ele>429.4</ele>
<time>2024-05-12T15:31:27Z</time>
</trkpt>
<trkpt lat="48.800941463559866" lon="9.921358041465282">
<ele>429.4</ele>
<time>2024-05-12T15:31:28Z</time>
</trkpt>
<trkpt lat="48.80089184269309" lon="9.921388551592829">
<ele>429.6</ele>
<time>2024-05-12T15:31:29Z</time>
</trkpt>
<trkpt lat="48.80083844996989" lon="9.92142484523356">
<ele>429.6</ele>
<time>2024-05-12T15:31:30Z</time>
</trkpt>
<trkpt lat="48.80079268477857" lon="9.92146491073072">
<ele>429.6</ele>
<time>2024-05-12T15:31:31Z</time>
</trkpt>
<trkpt lat="48.80074683576822" lon="9.921508748084308">
<ele>429.6</ele>
<time>2024-05-12T15:31:32Z</time>
</trkpt>
<trkpt lat="48.800704926252365" lon="9.921553591266274">
<ele>429.6</ele>
<time>2024-05-12T15:31:33Z</time>
</trkpt>
<trkpt lat="48.800666788592935" lon="9.921598434448242">
<ele>429.8</ele>
<time>2024-05-12T15:31:34Z</time>
</trkpt>
<trkpt lat="48.80063242278993" lon="9.9216403439641">
<ele>429.8</ele>
<time>2024-05-12T15:31:35Z</time>
</trkpt>
<trkpt lat="48.80059814080596" lon="9.92167848162353">
<ele>429.8</ele>
<time>2024-05-12T15:31:36Z</time>
</trkpt>
<trkpt lat="48.80057517439127" lon="9.92171854712069">
<ele>429.8</ele>
<time>2024-05-12T15:31:37Z</time>
</trkpt>
<trkpt lat="48.80055229179561" lon="9.921761462464929">
<ele>429.8</ele>
<time>2024-05-12T15:31:38Z</time>
</trkpt>
<trkpt lat="48.80052940919995" lon="9.921805299818516">
<ele>430</ele>
<time>2024-05-12T15:31:39Z</time>
</trkpt>
<trkpt lat="48.800506526604295" lon="9.921848215162754">
<ele>430</ele>
<time>2024-05-12T15:31:40Z</time>
</trkpt>
<trkpt lat="48.80048364400864" lon="9.921893058344722">
<ele>430.2</ele>
<time>2024-05-12T15:31:41Z</time>
</trkpt>
<trkpt lat="48.80046461708844" lon="9.92193982936442">
<ele>430.2</ele>
<time>2024-05-12T15:31:42Z</time>
</trkpt>
<trkpt lat="48.800449362024665" lon="9.921990372240543">
<ele>430.4</ele>
<time>2024-05-12T15:31:43Z</time>
</trkpt>
<trkpt lat="48.80043410696089" lon="9.922042842954395">
<ele>430.6</ele>
<time>2024-05-12T15:31:44Z</time>
</trkpt>
<trkpt lat="48.80042262375355" lon="9.922098079696298">
<ele>430.8</ele>
<time>2024-05-12T15:31:45Z</time>
</trkpt>
<trkpt lat="48.800411224365234" lon="9.92215340025723">
<ele>431</ele>
<time>2024-05-12T15:31:46Z</time>
</trkpt>
<trkpt lat="48.80040351301432" lon="9.922208720818162">
<ele>431</ele>
<time>2024-05-12T15:31:47Z</time>
</trkpt>
<trkpt lat="48.80039588548243" lon="9.922261191532016">
<ele>431.2</ele>
<time>2024-05-12T15:31:48Z</time>
</trkpt>
<trkpt lat="48.800388257950544" lon="9.92231458425522">
<ele>431.4</ele>
<time>2024-05-12T15:31:49Z</time>
</trkpt>
<trkpt lat="48.80038448609412" lon="9.92236797697842">
<ele>431.6</ele>
<time>2024-05-12T15:31:50Z</time>
</trkpt>
<trkpt lat="48.80038448609412" lon="9.922425225377085">
<ele>431.8</ele>
<time>2024-05-12T15:31:51Z</time>
</trkpt>
<trkpt lat="48.80038063041866" lon="9.922481467947364">
<ele>431.8</ele>
<time>2024-05-12T15:31:52Z</time>
</trkpt>
<trkpt lat="48.80038063041866" lon="9.922539638355374">
<ele>432</ele>
<time>2024-05-12T15:31:53Z</time>
</trkpt>
<trkpt lat="48.80038063041866" lon="9.922601664438844">
<ele>432.2</ele>
<time>2024-05-12T15:31:54Z</time>
</trkpt>
<trkpt lat="48.80038063041866" lon="9.92266360670328">
<ele>432.4</ele>
<time>2024-05-12T15:31:55Z</time>
</trkpt>
<trkpt lat="48.80037685856223" lon="9.922724710777402">
<ele>432.4</ele>
<time>2024-05-12T15:31:56Z</time>
</trkpt>
<trkpt lat="48.80038063041866" lon="9.92278472520411">
<ele>432.6</ele>
<time>2024-05-12T15:31:57Z</time>
</trkpt>
<trkpt lat="48.80038063041866" lon="9.92284482344985">
<ele>432.6</ele>
<time>2024-05-12T15:31:58Z</time>
</trkpt>
<trkpt lat="48.80038063041866" lon="9.92290684953332">
<ele>432.8</ele>
<time>2024-05-12T15:31:59Z</time>
</trkpt>
<trkpt lat="48.80038448609412" lon="9.92296694777906">
<ele>433</ele>
<time>2024-05-12T15:32:00Z</time>
</trkpt>
<trkpt lat="48.800388257950544" lon="9.923026962205768">
<ele>433.2</ele>
<time>2024-05-12T15:32:01Z</time>
</trkpt>
<trkpt lat="48.800392113626" lon="9.92308613844216">
<ele>433.4</ele>
<time>2024-05-12T15:32:02Z</time>
</trkpt>
<trkpt lat="48.80039974115789" lon="9.9231462366879">
<ele>433.6</ele>
<time>2024-05-12T15:32:03Z</time>
</trkpt>
<trkpt lat="48.80040351301432" lon="9.923208178952336">
<ele>433.6</ele>
<time>2024-05-12T15:32:04Z</time>
</trkpt>
<trkpt lat="48.800411224365234" lon="9.923270205035806">
<ele>433.8</ele>
<time>2024-05-12T15:32:05Z</time>
</trkpt>
<trkpt lat="48.80041499622166" lon="9.923333153128624">
<ele>433.8</ele>
<time>2024-05-12T15:32:06Z</time>
</trkpt>
<trkpt lat="48.80042262375355" lon="9.923395095393062">
<ele>434</ele>
<time>2024-05-12T15:32:07Z</time>
</trkpt>
<trkpt lat="48.80042647942901" lon="9.92345611564815">
<ele>434</ele>
<time>2024-05-12T15:32:08Z</time>
</trkpt>
<trkpt lat="48.800430251285434" lon="9.92351814173162">
<ele>434</ele>
<time>2024-05-12T15:32:09Z</time>
</trkpt>
<trkpt lat="48.80043787881732" lon="9.92357631213963">
<ele>434</ele>
<time>2024-05-12T15:32:10Z</time>
</trkpt>
<trkpt lat="48.800445506349206" lon="9.92363641038537">
<ele>434</ele>
<time>2024-05-12T15:32:11Z</time>
</trkpt>
<trkpt lat="48.80045313388109" lon="9.92369458079338">
<ele>434.2</ele>
<time>2024-05-12T15:32:12Z</time>
</trkpt>
<trkpt lat="48.80045313388109" lon="9.92375367321074">
<ele>434.2</ele>
<time>2024-05-12T15:32:13Z</time>
</trkpt>
<trkpt lat="48.80045313388109" lon="9.923812849447131">
<ele>434.2</ele>
<time>2024-05-12T15:32:14Z</time>
</trkpt>
<trkpt lat="48.80043410696089" lon="9.923863392323256">
<ele>434.2</ele>
<time>2024-05-12T15:32:15Z</time>
</trkpt>
<trkpt lat="48.800407368689775" lon="9.923903457820415">
<ele>434.2</ele>
<time>2024-05-12T15:32:16Z</time>
</trkpt>
<trkpt lat="48.80037685856223" lon="9.92393204011023">
<ele>434</ele>
<time>2024-05-12T15:32:17Z</time>
</trkpt>
<trkpt lat="48.80033486522734" lon="9.923948217183352">
<ele>434</ele>
<time>2024-05-12T15:32:18Z</time>
</trkpt>
<trkpt lat="48.80029672756791" lon="9.923965400084851">
<ele>434</ele>
<time>2024-05-12T15:32:19Z</time>
</trkpt>
<trkpt lat="48.800250962376595" lon="9.923981660977006">
<ele>434</ele>
<time>2024-05-12T15:32:20Z</time>
</trkpt>
<trkpt lat="48.80020519718528" lon="9.923996916040778">
<ele>433.8</ele>
<time>2024-05-12T15:32:21Z</time>
</trkpt>
<trkpt lat="48.80016320385039" lon="9.92401116527617">
<ele>433.6</ele>
<time>2024-05-12T15:32:22Z</time>
</trkpt>
<trkpt lat="48.80012506619096" lon="9.924028348177671">
<ele>433.6</ele>
<time>2024-05-12T15:32:23Z</time>
</trkpt>
<trkpt lat="48.8000831566751" lon="9.924039831385016">
<ele>433.4</ele>
<time>2024-05-12T15:32:24Z</time>
</trkpt>
<trkpt lat="48.80004493519664" lon="9.924048380926251">
<ele>433.4</ele>
<time>2024-05-12T15:32:25Z</time>
</trkpt>
<trkpt lat="48.80000302568078" lon="9.924056930467486">
<ele>433.2</ele>
<time>2024-05-12T15:32:26Z</time>
</trkpt>
<trkpt lat="48.79996103234589" lon="9.924068413674831">
<ele>433.2</ele>
<time>2024-05-12T15:32:27Z</time>
</trkpt>
<trkpt lat="48.79992289468646" lon="9.924084590747952">
<ele>433.2</ele>
<time>2024-05-12T15:32:28Z</time>
</trkpt>
<trkpt lat="48.79988090135157" lon="9.924098001793029">
<ele>433.4</ele>
<time>2024-05-12T15:32:29Z</time>
</trkpt>
<trkpt lat="48.79983899183571" lon="9.92411132901907">
<ele>433.4</ele>
<time>2024-05-12T15:32:30Z</time>
</trkpt>
<trkpt lat="48.799796998500824" lon="9.924123734235764">
<ele>433.4</ele>
<time>2024-05-12T15:32:31Z</time>
</trkpt>
<trkpt lat="48.799755088984966" lon="9.924137061461806">
<ele>433.4</ele>
<time>2024-05-12T15:32:32Z</time>
</trkpt>
<trkpt lat="48.79970923997462" lon="9.924150388687847">
<ele>433.4</ele>
<time>2024-05-12T15:32:33Z</time>
</trkpt>
<trkpt lat="48.7996634747833" lon="9.924163799732924">
<ele>433.2</ele>
<time>2024-05-12T15:32:34Z</time>
</trkpt>
<trkpt lat="48.79962156526744" lon="9.924177126958966">
<ele>433.2</ele>
<time>2024-05-12T15:32:35Z</time>
</trkpt>
<trkpt lat="48.79957580007613" lon="9.924188610166311">
<ele>433.4</ele>
<time>2024-05-12T15:32:36Z</time>
</trkpt>
<trkpt lat="48.79952995106578" lon="9.924201937392354">
<ele>433.4</ele>
<time>2024-05-12T15:32:37Z</time>
</trkpt>
<trkpt lat="48.79948804154992" lon="9.924218114465477">
<ele>433.6</ele>
<time>2024-05-12T15:32:38Z</time>
</trkpt>
<trkpt lat="48.79944227635861" lon="9.924240075051785">
<ele>433.8</ele>
<time>2024-05-12T15:32:39Z</time>
</trkpt>
<trkpt lat="48.79939651116729" lon="9.924262957647445">
<ele>434</ele>
<time>2024-05-12T15:32:40Z</time>
</trkpt>
<trkpt lat="48.79935066215694" lon="9.924284918233752">
<ele>434</ele>
<time>2024-05-12T15:32:41Z</time>
</trkpt>
<trkpt lat="48.79930489696562" lon="9.92430972866714">
<ele>434.2</ele>
<time>2024-05-12T15:32:42Z</time>
</trkpt>
<trkpt lat="48.79926675930619" lon="9.924338310956957">
<ele>434.2</ele>
<time>2024-05-12T15:32:43Z</time>
</trkpt>
<trkpt lat="48.799224849790335" lon="9.92436789907515">
<ele>434.4</ele>
<time>2024-05-12T15:32:44Z</time>
</trkpt>
<trkpt lat="48.799179000779986" lon="9.924396481364964">
<ele>434.6</ele>
<time>2024-05-12T15:32:45Z</time>
</trkpt>
<trkpt lat="48.79913709126413" lon="9.92442506365478">
<ele>434.8</ele>
<time>2024-05-12T15:32:46Z</time>
</trkpt>
<trkpt lat="48.79909509792924" lon="9.924456579610704">
<ele>435</ele>
<time>2024-05-12T15:32:47Z</time>
</trkpt>
<trkpt lat="48.79905318841338" lon="9.924493711441755">
<ele>435</ele>
<time>2024-05-12T15:32:48Z</time>
</trkpt>
<trkpt lat="48.79901496693492" lon="9.924532854929566">
<ele>435</ele>
<time>2024-05-12T15:32:49Z</time>
</trkpt>
<trkpt lat="48.79897305741906" lon="9.924572920426726">
<ele>435.2</ele>
<time>2024-05-12T15:32:50Z</time>
</trkpt>
<trkpt lat="48.79893869161606" lon="9.924612985923886">
<ele>435.2</ele>
<time>2024-05-12T15:32:51Z</time>
</trkpt>
<trkpt lat="48.79890440963209" lon="9.924654895439744">
<ele>435.2</ele>
<time>2024-05-12T15:32:52Z</time>
</trkpt>
<trkpt lat="48.79887004382908" lon="9.924696888774632">
<ele>435.4</ele>
<time>2024-05-12T15:32:53Z</time>
</trkpt>
<trkpt lat="48.79883567802608" lon="9.924735026434064">
<ele>435.4</ele>
<time>2024-05-12T15:32:54Z</time>
</trkpt>
<trkpt lat="48.798805167898536" lon="9.924770314246416">
<ele>435.4</ele>
<time>2024-05-12T15:32:55Z</time>
</trkpt>
<trkpt lat="48.79877465777099" lon="9.924806524068115">
<ele>435.6</ele>
<time>2024-05-12T15:32:56Z</time>
</trkpt>
<trkpt lat="48.79874037578702" lon="9.924844661727548">
<ele>435.6</ele>
<time>2024-05-12T15:32:57Z</time>
</trkpt>
<trkpt lat="48.798709865659475" lon="9.9248799495399">
<ele>435.8</ele>
<time>2024-05-12T15:32:58Z</time>
</trkpt>
<trkpt lat="48.7986792717129" lon="9.924913393333554">
<ele>436</ele>
<time>2024-05-12T15:32:59Z</time>
</trkpt>
<trkpt lat="48.79864498972893" lon="9.924948681145906">
<ele>436.2</ele>
<time>2024-05-12T15:33:00Z</time>
</trkpt>
<trkpt lat="48.79861825145781" lon="9.924982963129878">
<ele>436.4</ele>
<time>2024-05-12T15:33:01Z</time>
</trkpt>
<trkpt lat="48.798587741330266" lon="9.9250163231045">
<ele>436.6</ele>
<time>2024-05-12T15:33:02Z</time>
</trkpt>
<trkpt lat="48.798553459346294" lon="9.925049766898155">
<ele>436.8</ele>
<time>2024-05-12T15:33:03Z</time>
</trkpt>
<trkpt lat="48.79852672107518" lon="9.925083126872778">
<ele>437</ele>
<time>2024-05-12T15:33:04Z</time>
</trkpt>
<trkpt lat="48.79849998280406" lon="9.92511841468513">
<ele>437.2</ele>
<time>2024-05-12T15:33:05Z</time>
</trkpt>
<trkpt lat="48.79846947267651" lon="9.925151774659753">
<ele>437.2</ele>
<time>2024-05-12T15:33:06Z</time>
</trkpt>
<trkpt lat="48.79844659008086" lon="9.925187984481454">
<ele>437.4</ele>
<time>2024-05-12T15:33:07Z</time>
</trkpt>
<trkpt lat="48.79841993562877" lon="9.925228049978614">
<ele>437.6</ele>
<time>2024-05-12T15:33:08Z</time>
</trkpt>
<trkpt lat="48.79840082488954" lon="9.925272893160582">
<ele>438</ele>
<time>2024-05-12T15:33:09Z</time>
</trkpt>
<trkpt lat="48.79838179796934" lon="9.925318658351898">
<ele>438.2</ele>
<time>2024-05-12T15:33:11Z</time>
</trkpt>
<trkpt lat="48.79833594895899" lon="9.925411194562912">
<ele>438.6</ele>
<time>2024-05-12T15:33:12Z</time>
</trkpt>
<trkpt lat="48.798313066363335" lon="9.925456959754229">
<ele>438.8</ele>
<time>2024-05-12T15:33:13Z</time>
</trkpt>
<trkpt lat="48.79829018376768" lon="9.925503730773926">
<ele>439</ele>
<time>2024-05-12T15:33:14Z</time>
</trkpt>
<trkpt lat="48.79827115684748" lon="9.925548490136862">
<ele>439.2</ele>
<time>2024-05-12T15:33:15Z</time>
</trkpt>
<trkpt lat="48.79824827425182" lon="9.9255914054811">
<ele>439.4</ele>
<time>2024-05-12T15:33:16Z</time>
</trkpt>
<trkpt lat="48.79822916351259" lon="9.92563339881599">
<ele>439.6</ele>
<time>2024-05-12T15:33:17Z</time>
</trkpt>
<trkpt lat="48.79821013659239" lon="9.92567539215088">
<ele>439.6</ele>
<time>2024-05-12T15:33:18Z</time>
</trkpt>
<trkpt lat="48.79818725399673" lon="9.925715373829007">
<ele>439.8</ele>
<time>2024-05-12T15:33:19Z</time>
</trkpt>
<trkpt lat="48.7981681432575" lon="9.925753511488438">
<ele>439.8</ele>
<time>2024-05-12T15:33:20Z</time>
</trkpt>
<trkpt lat="48.79814526066184" lon="9.9257917329669">
<ele>440</ele>
<time>2024-05-12T15:33:21Z</time>
</trkpt>
<trkpt lat="48.79812237806618" lon="9.9258279427886">
<ele>440.2</ele>
<time>2024-05-12T15:33:22Z</time>
</trkpt>
<trkpt lat="48.798095639795065" lon="9.925863230600951">
<ele>440.4</ele>
<time>2024-05-12T15:33:23Z</time>
</trkpt>
<trkpt lat="48.79806898534298" lon="9.925893740728498">
<ele>440.6</ele>
<time>2024-05-12T15:33:24Z</time>
</trkpt>
<trkpt lat="48.79804224707186" lon="9.925923328846691">
<ele>440.8</ele>
<time>2024-05-12T15:33:25Z</time>
</trkpt>
<trkpt lat="48.79801559261978" lon="9.925951911136508">
<ele>440.8</ele>
<time>2024-05-12T15:33:26Z</time>
</trkpt>
<trkpt lat="48.79798885434866" lon="9.925979571416974">
<ele>441</ele>
<time>2024-05-12T15:33:27Z</time>
</trkpt>
<trkpt lat="48.797958344221115" lon="9.926006309688091">
<ele>441.4</ele>
<time>2024-05-12T15:33:28Z</time>
</trkpt>
<trkpt lat="48.79793160595" lon="9.926032042130828">
<ele>441.6</ele>
<time>2024-05-12T15:33:29Z</time>
</trkpt>
<trkpt lat="48.79790495149791" lon="9.926056852564216">
<ele>441.8</ele>
<time>2024-05-12T15:33:30Z</time>
</trkpt>
<trkpt lat="48.797878213226795" lon="9.926084512844682">
<ele>441.8</ele>
<time>2024-05-12T15:33:31Z</time>
</trkpt>
<trkpt lat="48.79785155877471" lon="9.926115022972226">
<ele>442</ele>
<time>2024-05-12T15:33:32Z</time>
</trkpt>
<trkpt lat="48.79782482050359" lon="9.92614360526204">
<ele>442.2</ele>
<time>2024-05-12T15:33:33Z</time>
</trkpt>
<trkpt lat="48.797798082232475" lon="9.926171265542507">
<ele>442.4</ele>
<time>2024-05-12T15:33:34Z</time>
</trkpt>
<trkpt lat="48.79777142778039" lon="9.926196997985244">
<ele>442.6</ele>
<time>2024-05-12T15:33:35Z</time>
</trkpt>
<trkpt lat="48.79774468950927" lon="9.926221808418632">
<ele>442.6</ele>
<time>2024-05-12T15:33:36Z</time>
</trkpt>
<trkpt lat="48.79771803505719" lon="9.92624661885202">
<ele>442.8</ele>
<time>2024-05-12T15:33:37Z</time>
</trkpt>
<trkpt lat="48.79769129678607" lon="9.926273273304105">
<ele>443</ele>
<time>2024-05-12T15:33:38Z</time>
</trkpt>
<trkpt lat="48.797664642333984" lon="9.926300011575222">
<ele>443.2</ele>
<time>2024-05-12T15:33:39Z</time>
</trkpt>
<trkpt lat="48.79763790406287" lon="9.926329599693418">
<ele>443.2</ele>
<time>2024-05-12T15:33:40Z</time>
</trkpt>
<trkpt lat="48.79761116579175" lon="9.926358181983232">
<ele>443.4</ele>
<time>2024-05-12T15:33:41Z</time>
</trkpt>
<trkpt lat="48.797580655664206" lon="9.926386764273047">
<ele>443.6</ele>
<time>2024-05-12T15:33:42Z</time>
</trkpt>
<trkpt lat="48.79755400121212" lon="9.926415430381894">
<ele>443.8</ele>
<time>2024-05-12T15:33:43Z</time>
</trkpt>
<trkpt lat="48.797523491084576" lon="9.926444934681058">
<ele>444</ele>
<time>2024-05-12T15:33:44Z</time>
</trkpt>
<trkpt lat="48.79749675281346" lon="9.926474522799252">
<ele>444</ele>
<time>2024-05-12T15:33:45Z</time>
</trkpt>
<trkpt lat="48.79747001454234" lon="9.926506960764527">
<ele>444.2</ele>
<time>2024-05-12T15:33:46Z</time>
</trkpt>
<trkpt lat="48.797443360090256" lon="9.92654032073915">
<ele>444.4</ele>
<time>2024-05-12T15:33:47Z</time>
</trkpt>
<trkpt lat="48.7974204774946" lon="9.926576614379885">
<ele>444.6</ele>
<time>2024-05-12T15:33:48Z</time>
</trkpt>
<trkpt lat="48.797401366755366" lon="9.926616596058013">
<ele>444.8</ele>
<time>2024-05-12T15:33:49Z</time>
</trkpt>
<trkpt lat="48.79737848415971" lon="9.9266585893929">
<ele>445</ele>
<time>2024-05-12T15:33:50Z</time>
</trkpt>
<trkpt lat="48.797363229095936" lon="9.926705360412598">
<ele>445.2</ele>
<time>2024-05-12T15:33:51Z</time>
</trkpt>
<trkpt lat="48.79735182970762" lon="9.926752969622612">
<ele>445.2</ele>
<time>2024-05-12T15:33:52Z</time>
</trkpt>
<trkpt lat="48.79734797403216" lon="9.926806446164846">
<ele>445.4</ele>
<time>2024-05-12T15:33:53Z</time>
</trkpt>
<trkpt lat="48.79734797403216" lon="9.92685983888805">
<ele>445.4</ele>
<time>2024-05-12T15:33:54Z</time>
</trkpt>
<trkpt lat="48.79734797403216" lon="9.92691515944898">
<ele>445.6</ele>
<time>2024-05-12T15:33:55Z</time>
</trkpt>
<trkpt lat="48.79735182970762" lon="9.926971402019262">
<ele>445.6</ele>
<time>2024-05-12T15:33:56Z</time>
</trkpt>
<trkpt lat="48.79735560156405" lon="9.927028650417924">
<ele>445.8</ele>
<time>2024-05-12T15:33:57Z</time>
</trkpt>
<trkpt lat="48.797363229095936" lon="9.927084892988203">
<ele>445.8</ele>
<time>2024-05-12T15:33:58Z</time>
</trkpt>
<trkpt lat="48.79737085662782" lon="9.927140213549135">
<ele>446</ele>
<time>2024-05-12T15:33:59Z</time>
</trkpt>
<trkpt lat="48.79737848415971" lon="9.927194528281689">
<ele>446</ele>
<time>2024-05-12T15:34:00Z</time>
</trkpt>
<trkpt lat="48.797386111691594" lon="9.927247921004891">
<ele>446.2</ele>
<time>2024-05-12T15:34:01Z</time>
</trkpt>
<trkpt lat="48.79739373922348" lon="9.927301397547126">
<ele>446.6</ele>
<time>2024-05-12T15:34:02Z</time>
</trkpt>
<trkpt lat="48.797405222430825" lon="9.927356718108058">
<ele>446.8</ele>
<time>2024-05-12T15:34:03Z</time>
</trkpt>
<trkpt lat="48.79741662181914" lon="9.92741011083126">
<ele>447.2</ele>
<time>2024-05-12T15:34:04Z</time>
</trkpt>
<trkpt lat="48.79742810502648" lon="9.927461575716734">
<ele>447.4</ele>
<time>2024-05-12T15:34:05Z</time>
</trkpt>
<trkpt lat="48.79744713194668" lon="9.927510190755129">
<ele>447.6</ele>
<time>2024-05-12T15:34:06Z</time>
</trkpt>
<trkpt lat="48.797466242685914" lon="9.927557883784177">
<ele>447.8</ele>
<time>2024-05-12T15:34:07Z</time>
</trkpt>
<trkpt lat="48.797481497749686" lon="9.927606582641602">
<ele>448</ele>
<time>2024-05-12T15:34:08Z</time>
</trkpt>
<trkpt lat="48.79750060848892" lon="9.927655197679996">
<ele>448.2</ele>
<time>2024-05-12T15:34:09Z</time>
</trkpt>
<trkpt lat="48.79751963540912" lon="9.927700040861964">
<ele>448.4</ele>
<time>2024-05-12T15:34:10Z</time>
</trkpt>
<trkpt lat="48.79753874614835" lon="9.92774865590036">
<ele>448.4</ele>
<time>2024-05-12T15:34:11Z</time>
</trkpt>
<trkpt lat="48.797561628744006" lon="9.927793499082329">
<ele>448.6</ele>
<time>2024-05-12T15:34:12Z</time>
</trkpt>
<trkpt lat="48.797584511339664" lon="9.927840186282992">
<ele>448.6</ele>
<time>2024-05-12T15:34:13Z</time>
</trkpt>
<trkpt lat="48.79760739393532" lon="9.927887879312038">
<ele>448.6</ele>
<time>2024-05-12T15:34:14Z</time>
</trkpt>
<trkpt lat="48.79763027653098" lon="9.927934566512704">
<ele>448.8</ele>
<time>2024-05-12T15:34:15Z</time>
</trkpt>
<trkpt lat="48.79765693098307" lon="9.927978487685325">
<ele>448.8</ele>
<time>2024-05-12T15:34:16Z</time>
</trkpt>
<trkpt lat="48.79767989739776" lon="9.928025174885988">
<ele>448.8</ele>
<time>2024-05-12T15:34:17Z</time>
</trkpt>
<trkpt lat="48.797702779993415" lon="9.928074795752764">
<ele>448.8</ele>
<time>2024-05-12T15:34:18Z</time>
</trkpt>
<trkpt lat="48.797721806913614" lon="9.928125338628888">
<ele>448.8</ele>
<time>2024-05-12T15:34:19Z</time>
</trkpt>
<trkpt lat="48.79774468950927" lon="9.928173031657934">
<ele>448.6</ele>
<time>2024-05-12T15:34:20Z</time>
</trkpt>
<trkpt lat="48.79776757210493" lon="9.92822164669633">
<ele>448.6</ele>
<time>2024-05-12T15:34:21Z</time>
</trkpt>
<trkpt lat="48.79778668284416" lon="9.928270261734724">
<ele>448.6</ele>
<time>2024-05-12T15:34:22Z</time>
</trkpt>
<trkpt lat="48.79780570976436" lon="9.92831795476377">
<ele>448.8</ele>
<time>2024-05-12T15:34:23Z</time>
</trkpt>
<trkpt lat="48.79782482050359" lon="9.928366653621197">
<ele>448.8</ele>
<time>2024-05-12T15:34:24Z</time>
</trkpt>
<trkpt lat="48.79784770309925" lon="9.928415268659592">
<ele>448.8</ele>
<time>2024-05-12T15:34:25Z</time>
</trkpt>
<trkpt lat="48.79787058569491" lon="9.928466733545063">
<ele>449</ele>
<time>2024-05-12T15:34:26Z</time>
</trkpt>
<trkpt lat="48.79789346829057" lon="9.92851828224957">
<ele>449.2</ele>
<time>2024-05-12T15:34:27Z</time>
</trkpt>
<trkpt lat="48.7979125790298" lon="9.928571674972773">
<ele>449.2</ele>
<time>2024-05-12T15:34:28Z</time>
</trkpt>
<trkpt lat="48.79793546162546" lon="9.928623139858246">
<ele>449.4</ele>
<time>2024-05-12T15:34:29Z</time>
</trkpt>
<trkpt lat="48.797958344221115" lon="9.928678460419178">
<ele>449.4</ele>
<time>2024-05-12T15:34:30Z</time>
</trkpt>
<trkpt lat="48.7979849986732" lon="9.92873378098011">
<ele>449.4</ele>
<time>2024-05-12T15:34:31Z</time>
</trkpt>
<trkpt lat="48.79800025373697" lon="9.928790023550391">
<ele>449.6</ele>
<time>2024-05-12T15:34:32Z</time>
</trkpt>
<trkpt lat="48.79801936447621" lon="9.928850121796131">
<ele>449.6</ele>
<time>2024-05-12T15:34:33Z</time>
</trkpt>
<trkpt lat="48.79803084768355" lon="9.928910220041873">
<ele>449.6</ele>
<time>2024-05-12T15:34:34Z</time>
</trkpt>
<trkpt lat="48.79804610274732" lon="9.92897124029696">
<ele>449.6</ele>
<time>2024-05-12T15:34:35Z</time>
</trkpt>
<trkpt lat="48.798057502135634" lon="9.92903326638043">
<ele>449.6</ele>
<time>2024-05-12T15:34:36Z</time>
</trkpt>
<trkpt lat="48.79806898534298" lon="9.929095208644869">
<ele>449.6</ele>
<time>2024-05-12T15:34:37Z</time>
</trkpt>
<trkpt lat="48.79808038473129" lon="9.929156228899956">
<ele>449.4</ele>
<time>2024-05-12T15:34:38Z</time>
</trkpt>
<trkpt lat="48.79808801226318" lon="9.929222026839852">
<ele>449.4</ele>
<time>2024-05-12T15:34:39Z</time>
</trkpt>
<trkpt lat="48.79809186793864" lon="9.92928497493267">
<ele>449.4</ele>
<time>2024-05-12T15:34:40Z</time>
</trkpt>
<trkpt lat="48.79809949547053" lon="9.92934700101614">
<ele>449.4</ele>
<time>2024-05-12T15:34:41Z</time>
</trkpt>
<trkpt lat="48.79809949547053" lon="9.929409949108958">
<ele>449.4</ele>
<time>2024-05-12T15:34:42Z</time>
</trkpt>
<trkpt lat="48.798095639795065" lon="9.929472897201777">
<ele>449.2</ele>
<time>2024-05-12T15:34:43Z</time>
</trkpt>
<trkpt lat="48.79808801226318" lon="9.929534839466214">
<ele>449.2</ele>
<time>2024-05-12T15:34:44Z</time>
</trkpt>
<trkpt lat="48.79808038473129" lon="9.929592087864876">
<ele>449</ele>
<time>2024-05-12T15:34:45Z</time>
</trkpt>
<trkpt lat="48.79807275719941" lon="9.929651180282235">
<ele>449</ele>
<time>2024-05-12T15:34:46Z</time>
</trkpt>
<trkpt lat="48.798057502135634" lon="9.929710356518626">
<ele>449</ele>
<time>2024-05-12T15:34:47Z</time>
</trkpt>
<trkpt lat="48.79804610274732" lon="9.929766599088907">
<ele>449.2</ele>
<time>2024-05-12T15:34:48Z</time>
</trkpt>
<trkpt lat="48.79802699200809" lon="9.92982191964984">
<ele>449.2</ele>
<time>2024-05-12T15:34:49Z</time>
</trkpt>
<trkpt lat="48.79801173694432" lon="9.929876318201424">
<ele>449.2</ele>
<time>2024-05-12T15:34:50Z</time>
</trkpt>
<trkpt lat="48.797996481880546" lon="9.929931638762357">
<ele>449</ele>
<time>2024-05-12T15:34:51Z</time>
</trkpt>
<trkpt lat="48.79798122681677" lon="9.929989809170364">
<ele>449</ele>
<time>2024-05-12T15:34:52Z</time>
</trkpt>
<trkpt lat="48.797965971753" lon="9.930045045912266">
<ele>449</ele>
<time>2024-05-12T15:34:53Z</time>
</trkpt>
<trkpt lat="48.79794686101377" lon="9.93009659461677">
<ele>449</ele>
<time>2024-05-12T15:34:54Z</time>
</trkpt>
<trkpt lat="48.79793160595" lon="9.930148059502244">
<ele>449</ele>
<time>2024-05-12T15:34:55Z</time>
</trkpt>
<trkpt lat="48.797916350886226" lon="9.93019675835967">
<ele>449</ele>
<time>2024-05-12T15:34:56Z</time>
</trkpt>
<trkpt lat="48.79790109582245" lon="9.930245373398066">
<ele>448.8</ele>
<time>2024-05-12T15:34:57Z</time>
</trkpt>
<trkpt lat="48.79788584075868" lon="9.93029491044581">
<ele>448.8</ele>
<time>2024-05-12T15:34:58Z</time>
</trkpt>
<trkpt lat="48.79787058569491" lon="9.930344531312585">
<ele>448.8</ele>
<time>2024-05-12T15:34:59Z</time>
</trkpt>
<trkpt lat="48.79785155877471" lon="9.93039314635098">
<ele>448.8</ele>
<time>2024-05-12T15:35:00Z</time>
</trkpt>
<trkpt lat="48.79783630371094" lon="9.930441845208406">
<ele>448.8</ele>
<time>2024-05-12T15:35:01Z</time>
</trkpt>
<trkpt lat="48.797817192971706" lon="9.9304904602468">
<ele>448.8</ele>
<time>2024-05-12T15:35:02Z</time>
</trkpt>
<trkpt lat="48.79779431037605" lon="9.930536225438118">
<ele>449</ele>
<time>2024-05-12T15:35:03Z</time>
</trkpt>
<trkpt lat="48.79777142778039" lon="9.930580062791703">
<ele>449</ele>
<time>2024-05-12T15:35:04Z</time>
</trkpt>
<trkpt lat="48.79774468950927" lon="9.930620128288863">
<ele>449</ele>
<time>2024-05-12T15:35:05Z</time>
</trkpt>
<trkpt lat="48.79771417938173" lon="9.930654494091868">
<ele>449.2</ele>
<time>2024-05-12T15:35:06Z</time>
</trkpt>
<trkpt lat="48.797683669254184" lon="9.930687854066491">
<ele>449.4</ele>
<time>2024-05-12T15:35:07Z</time>
</trkpt>
<trkpt lat="48.79765315912664" lon="9.930723141878843">
<ele>449.6</ele>
<time>2024-05-12T15:35:08Z</time>
</trkpt>
<trkpt lat="48.797622648999095" lon="9.930761279538274">
<ele>449.6</ele>
<time>2024-05-12T15:35:09Z</time>
</trkpt>
<trkpt lat="48.79758828319609" lon="9.930805200710893">
<ele>449.8</ele>
<time>2024-05-12T15:35:10Z</time>
</trkpt>
<trkpt lat="48.79755777306855" lon="9.93084518238902">
<ele>450</ele>
<time>2024-05-12T15:35:11Z</time>
</trkpt>
<trkpt lat="48.797523491084576" lon="9.930881476029754">
<ele>450.2</ele>
<time>2024-05-12T15:35:12Z</time>
</trkpt>
<trkpt lat="48.79748912528157" lon="9.930918691679835">
<ele>450.4</ele>
<time>2024-05-12T15:35:13Z</time>
</trkpt>
<trkpt lat="48.79745861515403" lon="9.930952051654458">
<ele>450.4</ele>
<time>2024-05-12T15:35:14Z</time>
</trkpt>
<trkpt lat="48.79742810502648" lon="9.930984489619732">
<ele>450.6</ele>
<time>2024-05-12T15:35:15Z</time>
</trkpt>
<trkpt lat="48.79739373922348" lon="9.931016843765974">
<ele>450.8</ele>
<time>2024-05-12T15:35:16Z</time>
</trkpt>
<trkpt lat="48.797363229095936" lon="9.93104643188417">
<ele>450.8</ele>
<time>2024-05-12T15:35:17Z</time>
</trkpt>
<trkpt lat="48.79733271896839" lon="9.931076942011714">
<ele>450.8</ele>
<time>2024-05-12T15:35:18Z</time>
</trkpt>
<trkpt lat="48.79730220884085" lon="9.93110653012991">
<ele>450.8</ele>
<time>2024-05-12T15:35:19Z</time>
</trkpt>
<trkpt lat="48.7972716987133" lon="9.931137962266805">
<ele>450.8</ele>
<time>2024-05-12T15:35:20Z</time>
</trkpt>
<trkpt lat="48.79724118858576" lon="9.931175177916884">
<ele>450.8</ele>
<time>2024-05-12T15:35:21Z</time>
</trkpt>
<trkpt lat="48.797210678458214" lon="9.931211471557615">
<ele>450.8</ele>
<time>2024-05-12T15:35:22Z</time>
</trkpt>
<trkpt lat="48.7971839401871" lon="9.931249609217048">
<ele>450.8</ele>
<time>2024-05-12T15:35:23Z</time>
</trkpt>
<trkpt lat="48.79715728573501" lon="9.931288668885829">
<ele>450.8</ele>
<time>2024-05-12T15:35:24Z</time>
</trkpt>
<trkpt lat="48.797126691788435" lon="9.931324878707528">
<ele>450.8</ele>
<time>2024-05-12T15:35:25Z</time>
</trkpt>
<trkpt lat="48.79709618166089" lon="9.93136209435761">
<ele>450.8</ele>
<time>2024-05-12T15:35:26Z</time>
</trkpt>
<trkpt lat="48.797065671533346" lon="9.931394532322884">
<ele>450.8</ele>
<time>2024-05-12T15:35:27Z</time>
</trkpt>
<trkpt lat="48.7970351614058" lon="9.931427892297506">
<ele>450.8</ele>
<time>2024-05-12T15:35:28Z</time>
</trkpt>
<trkpt lat="48.79700465127826" lon="9.93146033026278">
<ele>450.8</ele>
<time>2024-05-12T15:35:29Z</time>
</trkpt>
<trkpt lat="48.79697799682617" lon="9.93149846792221">
<ele>450.8</ele>
<time>2024-05-12T15:35:30Z</time>
</trkpt>
<trkpt lat="48.796951258555055" lon="9.93153945542872">
<ele>450.8</ele>
<time>2024-05-12T15:35:31Z</time>
</trkpt>
<trkpt lat="48.79692452028394" lon="9.931583376601338">
<ele>450.8</ele>
<time>2024-05-12T15:35:32Z</time>
</trkpt>
<trkpt lat="48.79690163768828" lon="9.931625286117196">
<ele>450.8</ele>
<time>2024-05-12T15:35:33Z</time>
</trkpt>
<trkpt lat="48.796871127560735" lon="9.931663507595658">
<ele>450.8</ele>
<time>2024-05-12T15:35:34Z</time>
</trkpt>
<trkpt lat="48.79683684557676" lon="9.931694939732552">
<ele>450.8</ele>
<time>2024-05-12T15:35:35Z</time>
</trkpt>
<trkpt lat="48.79680633544922" lon="9.931730227544904">
<ele>450.8</ele>
<time>2024-05-12T15:35:36Z</time>
</trkpt>
<trkpt lat="48.79677574150264" lon="9.931768365204334">
<ele>450.8</ele>
<time>2024-05-12T15:35:37Z</time>
</trkpt>
<trkpt lat="48.7967452313751" lon="9.931810358539224">
<ele>450.6</ele>
<time>2024-05-12T15:35:38Z</time>
</trkpt>
<trkpt lat="48.79672234877944" lon="9.931855201721191">
<ele>450.6</ele>
<time>2024-05-12T15:35:39Z</time>
</trkpt>
<trkpt lat="48.796695694327354" lon="9.931899961084127">
<ele>450.4</ele>
<time>2024-05-12T15:35:40Z</time>
</trkpt>
<trkpt lat="48.79666895605624" lon="9.931944804266095">
<ele>450.2</ele>
<time>2024-05-12T15:35:41Z</time>
</trkpt>
<trkpt lat="48.79663844592869" lon="9.93199341930449">
<ele>450.2</ele>
<time>2024-05-12T15:35:42Z</time>
</trkpt>
<trkpt lat="48.796611707657576" lon="9.932046812027693">
<ele>450</ele>
<time>2024-05-12T15:35:43Z</time>
</trkpt>
<trkpt lat="48.79658505320549" lon="9.932101210579276">
<ele>449.8</ele>
<time>2024-05-12T15:35:44Z</time>
</trkpt>
<trkpt lat="48.79655831493437" lon="9.932156531140208">
<ele>449.8</ele>
<time>2024-05-12T15:35:45Z</time>
</trkpt>
<trkpt lat="48.79653166048229" lon="9.932207074016333">
<ele>449.6</ele>
<time>2024-05-12T15:35:46Z</time>
</trkpt>
<trkpt lat="48.796512549743056" lon="9.932247139513493">
<ele>449.6</ele>
<time>2024-05-12T15:35:47Z</time>
</trkpt>
<trkpt lat="48.79649352282286" lon="9.932281421497464">
<ele>449.6</ele>
<time>2024-05-12T15:35:48Z</time>
</trkpt>
<trkpt lat="48.796474412083626" lon="9.932316709309816">
<ele>449.4</ele>
<time>2024-05-12T15:35:49Z</time>
</trkpt>
<trkpt lat="48.796455301344395" lon="9.932356774806976">
<ele>449.4</ele>
<time>2024-05-12T15:35:50Z</time>
</trkpt>
<trkpt lat="48.79644004628062" lon="9.932399690151216">
<ele>449.4</ele>
<time>2024-05-12T15:35:51Z</time>
</trkpt>
<trkpt lat="48.79642101936042" lon="9.932446461170912">
<ele>449.4</ele>
<time>2024-05-12T15:35:52Z</time>
</trkpt>
<trkpt lat="48.796398136764765" lon="9.932495076209308">
<ele>449.2</ele>
<time>2024-05-12T15:35:53Z</time>
</trkpt>
<trkpt lat="48.79638288170099" lon="9.932544697076082">
<ele>449.2</ele>
<time>2024-05-12T15:35:54Z</time>
</trkpt>
<trkpt lat="48.796359999105334" lon="9.932593312114475">
<ele>449</ele>
<time>2024-05-12T15:35:55Z</time>
</trkpt>
<trkpt lat="48.79633711650968" lon="9.932642932981253">
<ele>448.8</ele>
<time>2024-05-12T15:35:56Z</time>
</trkpt>
<trkpt lat="48.796318005770445" lon="9.932695319876077">
<ele>448.4</ele>
<time>2024-05-12T15:35:57Z</time>
</trkpt>
<trkpt lat="48.796298978850245" lon="9.93274686858058">
<ele>448.2</ele>
<time>2024-05-12T15:35:58Z</time>
</trkpt>
<trkpt lat="48.796279868111014" lon="9.932798333466051">
<ele>448</ele>
<time>2024-05-12T15:35:59Z</time>
</trkpt>
<trkpt lat="48.79626075737178" lon="9.932849882170558">
<ele>447.8</ele>
<time>2024-05-12T15:36:00Z</time>
</trkpt>
<trkpt lat="48.796241730451584" lon="9.93290327489376">
<ele>447.6</ele>
<time>2024-05-12T15:36:01Z</time>
</trkpt>
<trkpt lat="48.79622261971235" lon="9.932952811941504">
<ele>447.4</ele>
<time>2024-05-12T15:36:02Z</time>
</trkpt>
<trkpt lat="48.79620359279215" lon="9.933001510798931">
<ele>447.2</ele>
<time>2024-05-12T15:36:03Z</time>
</trkpt>
<trkpt lat="48.79618448205292" lon="9.933052053675056">
<ele>447</ele>
<time>2024-05-12T15:36:04Z</time>
</trkpt>
<trkpt lat="48.796161599457264" lon="9.933099746704102">
<ele>446.8</ele>
<time>2024-05-12T15:36:05Z</time>
</trkpt>
<trkpt lat="48.796142572537065" lon="9.933153139427304">
<ele>446.6</ele>
<time>2024-05-12T15:36:06Z</time>
</trkpt>
<trkpt lat="48.79612346179783" lon="9.933210304006934">
<ele>446.4</ele>
<time>2024-05-12T15:36:07Z</time>
</trkpt>
<trkpt lat="48.7961043510586" lon="9.933264702558516">
<ele>446.4</ele>
<time>2024-05-12T15:36:08Z</time>
</trkpt>
<trkpt lat="48.796081468462944" lon="9.93332002311945">
<ele>446.2</ele>
<time>2024-05-12T15:36:09Z</time>
</trkpt>
<trkpt lat="48.796058585867286" lon="9.93337819352746">
<ele>446</ele>
<time>2024-05-12T15:36:10Z</time>
</trkpt>
<trkpt lat="48.7960319314152" lon="9.93343636393547">
<ele>446</ele>
<time>2024-05-12T15:36:11Z</time>
</trkpt>
<trkpt lat="48.79600904881954" lon="9.933493612334132">
<ele>446</ele>
<time>2024-05-12T15:36:12Z</time>
</trkpt>
<trkpt lat="48.79598616622389" lon="9.933547927066684">
<ele>445.8</ele>
<time>2024-05-12T15:36:13Z</time>
</trkpt>
<trkpt lat="48.79595565609634" lon="9.933601319789886">
<ele>445.6</ele>
<time>2024-05-12T15:36:14Z</time>
</trkpt>
<trkpt lat="48.79592891782522" lon="9.93365471251309">
<ele>445.4</ele>
<time>2024-05-12T15:36:15Z</time>
</trkpt>
<trkpt lat="48.79589840769768" lon="9.93371003307402">
<ele>445.2</ele>
<time>2024-05-12T15:36:16Z</time>
</trkpt>
<trkpt lat="48.79587166942656" lon="9.933765353634952">
<ele>445.2</ele>
<time>2024-05-12T15:36:17Z</time>
</trkpt>
<trkpt lat="48.795845014974475" lon="9.933821596205236">
<ele>445</ele>
<time>2024-05-12T15:36:18Z</time>
</trkpt>
<trkpt lat="48.79581827670336" lon="9.93387314490974">
<ele>445</ele>
<time>2024-05-12T15:36:19Z</time>
</trkpt>
<trkpt lat="48.795783994719386" lon="9.93391128256917">
<ele>444.8</ele>
<time>2024-05-12T15:36:20Z</time>
</trkpt>
<trkpt lat="48.7957420013845" lon="9.93393131531775">
<ele>444.8</ele>
<time>2024-05-12T15:36:21Z</time>
</trkpt>
<trkpt lat="48.79570000804961" lon="9.933926537632942">
<ele>444.8</ele>
<time>2024-05-12T15:36:23Z</time>
</trkpt>
<trkpt lat="48.79561233334243" lon="9.933888399973512">
<ele>444.2</ele>
<time>2024-05-12T15:36:24Z</time>
</trkpt>
<trkpt lat="48.795566484332085" lon="9.933868367224932">
<ele>444</ele>
<time>2024-05-12T15:36:25Z</time>
</trkpt>
<trkpt lat="48.79552071914077" lon="9.93385026231408">
<ele>443.8</ele>
<time>2024-05-12T15:36:26Z</time>
</trkpt>
<trkpt lat="48.79547495394945" lon="9.93383215740323">
<ele>443.6</ele>
<time>2024-05-12T15:36:27Z</time>
</trkpt>
<trkpt lat="48.79542156122625" lon="9.933814974501727">
<ele>443.6</ele>
<time>2024-05-12T15:36:28Z</time>
</trkpt>
<trkpt lat="48.795368168503046" lon="9.933797791600227">
<ele>443.6</ele>
<time>2024-05-12T15:36:29Z</time>
</trkpt>
<trkpt lat="48.79531854763627" lon="9.933781614527106">
<ele>443.8</ele>
<time>2024-05-12T15:36:30Z</time>
</trkpt>
<trkpt lat="48.79526138305664" lon="9.93377013131976">
<ele>443.8</ele>
<time>2024-05-12T15:36:31Z</time>
</trkpt>
<trkpt lat="48.795207906514406" lon="9.933759653940797">
<ele>444</ele>
<time>2024-05-12T15:36:32Z</time>
</trkpt>
<trkpt lat="48.7951545137912" lon="9.93375009857118">
<ele>444</ele>
<time>2024-05-12T15:36:33Z</time>
</trkpt>
<trkpt lat="48.795097349211574" lon="9.933738699182868">
<ele>444.2</ele>
<time>2024-05-12T15:36:34Z</time>
</trkpt>
<trkpt lat="48.79504387266934" lon="9.9337300658226">
<ele>444.4</ele>
<time>2024-05-12T15:36:35Z</time>
</trkpt>
<trkpt lat="48.79498670808971" lon="9.933721516281366">
<ele>444.4</ele>
<time>2024-05-12T15:36:36Z</time>
</trkpt>
<trkpt lat="48.79493331536651" lon="9.93371196091175">
<ele>444.6</ele>
<time>2024-05-12T15:36:37Z</time>
</trkpt>
<trkpt lat="48.79487983882427" lon="9.933703411370516">
<ele>444.8</ele>
<time>2024-05-12T15:36:38Z</time>
</trkpt>
<trkpt lat="48.79482644610107" lon="9.933698633685708">
<ele>445</ele>
<time>2024-05-12T15:36:39Z</time>
</trkpt>
<trkpt lat="48.794776909053326" lon="9.93369192816317">
<ele>445</ele>
<time>2024-05-12T15:36:40Z</time>
</trkpt>
<trkpt lat="48.79472728818655" lon="9.933686228469014">
<ele>445.2</ele>
<time>2024-05-12T15:36:41Z</time>
</trkpt>
<trkpt lat="48.794677667319775" lon="9.933678600937128">
<ele>445.4</ele>
<time>2024-05-12T15:36:42Z</time>
</trkpt>
<trkpt lat="48.79462813027203" lon="9.933672901242971">
<ele>445.6</ele>
<time>2024-05-12T15:36:43Z</time>
</trkpt>
<trkpt lat="48.79458613693714" lon="9.933668123558164">
<ele>445.8</ele>
<time>2024-05-12T15:36:44Z</time>
</trkpt>
<trkpt lat="48.79454414360225" lon="9.933661418035626">
<ele>446</ele>
<time>2024-05-12T15:36:45Z</time>
</trkpt>
<trkpt lat="48.794502234086394" lon="9.933652868494391">
<ele>446.2</ele>
<time>2024-05-12T15:36:46Z</time>
</trkpt>
<trkpt lat="48.79446409642696" lon="9.933647084981205">
<ele>446.4</ele>
<time>2024-05-12T15:36:47Z</time>
</trkpt>
<trkpt lat="48.79442973062396" lon="9.933641385287046">
<ele>446.6</ele>
<time>2024-05-12T15:36:48Z</time>
</trkpt>
<trkpt lat="48.79439159296453" lon="9.93363660760224">
<ele>446.8</ele>
<time>2024-05-12T15:36:49Z</time>
</trkpt>
<trkpt lat="48.7943534553051" lon="9.933638535439968">
<ele>447</ele>
<time>2024-05-12T15:36:50Z</time>
</trkpt>
<trkpt lat="48.794319089502096" lon="9.93363467976451">
<ele>447.2</ele>
<time>2024-05-12T15:36:51Z</time>
</trkpt>
<trkpt lat="48.794284807518125" lon="9.933628058061004">
<ele>447.4</ele>
<time>2024-05-12T15:36:52Z</time>
</trkpt>
<trkpt lat="48.79425044171512" lon="9.933623280376196">
<ele>447.6</ele>
<time>2024-05-12T15:36:53Z</time>
</trkpt>
<trkpt lat="48.79421993158758" lon="9.933620430529118">
<ele>448</ele>
<time>2024-05-12T15:36:54Z</time>
</trkpt>
<trkpt lat="48.794181793928146" lon="9.933618502691388">
<ele>448.2</ele>
<time>2024-05-12T15:36:55Z</time>
</trkpt>
<trkpt lat="48.79414742812514" lon="9.93361473083496">
<ele>448.4</ele>
<time>2024-05-12T15:36:56Z</time>
</trkpt>
<trkpt lat="48.79411314614117" lon="9.933611797168853">
<ele>448.6</ele>
<time>2024-05-12T15:36:57Z</time>
</trkpt>
<trkpt lat="48.79407500848174" lon="9.933611797168853">
<ele>449</ele>
<time>2024-05-12T15:36:58Z</time>
</trkpt>
<trkpt lat="48.794044414535165" lon="9.933611797168853">
<ele>449.2</ele>
<time>2024-05-12T15:36:59Z</time>
</trkpt>
<trkpt lat="48.794006276875734" lon="9.93361473083496">
<ele>449.2</ele>
<time>2024-05-12T15:37:00Z</time>
</trkpt>
<trkpt lat="48.79397199489176" lon="9.933618502691388">
<ele>449.6</ele>
<time>2024-05-12T15:37:01Z</time>
</trkpt>
<trkpt lat="48.79393762908876" lon="9.933621352538466">
<ele>449.8</ele>
<time>2024-05-12T15:37:02Z</time>
</trkpt>
<trkpt lat="48.79390334710479" lon="9.933623280376196">
<ele>450</ele>
<time>2024-05-12T15:37:03Z</time>
</trkpt>
<trkpt lat="48.793865125626326" lon="9.933628058061004">
<ele>450.2</ele>
<time>2024-05-12T15:37:04Z</time>
</trkpt>
<trkpt lat="48.793830843642354" lon="9.93363467976451">
<ele>450.4</ele>
<time>2024-05-12T15:37:05Z</time>
</trkpt>
<trkpt lat="48.79379647783935" lon="9.933643313124776">
<ele>450.6</ele>
<time>2024-05-12T15:37:06Z</time>
</trkpt>
<trkpt lat="48.79376219585538" lon="9.93365186266601">
<ele>450.8</ele>
<time>2024-05-12T15:37:07Z</time>
</trkpt>
<trkpt lat="48.79372405819595" lon="9.933659490197895">
<ele>450.8</ele>
<time>2024-05-12T15:37:08Z</time>
</trkpt>
<trkpt lat="48.793689692392945" lon="9.93366996757686">
<ele>451</ele>
<time>2024-05-12T15:37:09Z</time>
</trkpt>
<trkpt lat="48.79365532658994" lon="9.933679522946475">
<ele>451</ele>
<time>2024-05-12T15:37:10Z</time>
</trkpt>
<trkpt lat="48.79362104460597" lon="9.93369477801025">
<ele>451.2</ele>
<time>2024-05-12T15:37:11Z</time>
</trkpt>
<trkpt lat="48.79358667880297" lon="9.9337128829211">
<ele>451.4</ele>
<time>2024-05-12T15:37:12Z</time>
</trkpt>
<trkpt lat="48.793552396818995" lon="9.93373199366033">
<ele>451.6</ele>
<time>2024-05-12T15:37:13Z</time>
</trkpt>
<trkpt lat="48.79351803101599" lon="9.93375202640891">
<ele>451.8</ele>
<time>2024-05-12T15:37:14Z</time>
</trkpt>
<trkpt lat="48.79348366521299" lon="9.93377013131976">
<ele>452</ele>
<time>2024-05-12T15:37:15Z</time>
</trkpt>
<trkpt lat="48.79345315508544" lon="9.93379301391542">
<ele>452.2</ele>
<time>2024-05-12T15:37:16Z</time>
</trkpt>
<trkpt lat="48.79341887310147" lon="9.933814974501727">
<ele>452.4</ele>
<time>2024-05-12T15:37:17Z</time>
</trkpt>
<trkpt lat="48.79338450729847" lon="9.93383307941258">
<ele>452.6</ele>
<time>2024-05-12T15:37:18Z</time>
</trkpt>
<trkpt lat="48.793350141495466" lon="9.93385118432343">
<ele>452.8</ele>
<time>2024-05-12T15:37:19Z</time>
</trkpt>
<trkpt lat="48.79331963136792" lon="9.933866439387202">
<ele>452.8</ele>
<time>2024-05-12T15:37:20Z</time>
</trkpt>
<trkpt lat="48.79328912124038" lon="9.933879850432277">
<ele>453</ele>
<time>2024-05-12T15:37:21Z</time>
</trkpt>
<trkpt lat="48.79325861111283" lon="9.93389317765832">
<ele>453.2</ele>
<time>2024-05-12T15:37:22Z</time>
</trkpt>
<trkpt lat="48.79322810098529" lon="9.933904577046633">
<ele>453.2</ele>
<time>2024-05-12T15:37:23Z</time>
</trkpt>
<trkpt lat="48.793197590857744" lon="9.933917988091707">
<ele>453.2</ele>
<time>2024-05-12T15:37:24Z</time>
</trkpt>
<trkpt lat="48.7931670807302" lon="9.93393324315548">
<ele>453.2</ele>
<time>2024-05-12T15:37:25Z</time>
</trkpt>
<trkpt lat="48.793136570602655" lon="9.933946570381522">
<ele>453.4</ele>
<time>2024-05-12T15:37:26Z</time>
</trkpt>
<trkpt lat="48.79310606047511" lon="9.933966603130102">
<ele>453.4</ele>
<time>2024-05-12T15:37:27Z</time>
</trkpt>
<trkpt lat="48.79307555034757" lon="9.933993257582188">
<ele>453.4</ele>
<time>2024-05-12T15:37:28Z</time>
</trkpt>
<trkpt lat="48.79304504022002" lon="9.934022845700383">
<ele>453.6</ele>
<time>2024-05-12T15:37:29Z</time>
</trkpt>
<trkpt lat="48.793014446273446" lon="9.934053355827928">
<ele>453.6</ele>
<time>2024-05-12T15:37:30Z</time>
</trkpt>
<trkpt lat="48.792980164289474" lon="9.934080094099045">
<ele>453.8</ele>
<time>2024-05-12T15:37:31Z</time>
</trkpt>
<trkpt lat="48.79295342601836" lon="9.934102054685354">
<ele>454</ele>
<time>2024-05-12T15:37:32Z</time>
</trkpt>
<trkpt lat="48.792919144034386" lon="9.93410674855113">
<ele>454</ele>
<time>2024-05-12T15:37:33Z</time>
</trkpt>
<trkpt lat="48.79288863390684" lon="9.934098199009895">
<ele>454.2</ele>
<time>2024-05-12T15:37:34Z</time>
</trkpt>
<trkpt lat="48.79285426810384" lon="9.934082943946123">
<ele>454.4</ele>
<time>2024-05-12T15:37:35Z</time>
</trkpt>
<trkpt lat="48.792823757976294" lon="9.934062911197543">
<ele>454.6</ele>
<time>2024-05-12T15:37:36Z</time>
</trkpt>
<trkpt lat="48.79278939217329" lon="9.934041956439614">
<ele>454.6</ele>
<time>2024-05-12T15:37:37Z</time>
</trkpt>
<trkpt lat="48.792758882045746" lon="9.934018068015575">
<ele>454.8</ele>
<time>2024-05-12T15:37:38Z</time>
</trkpt>
<trkpt lat="48.7927283719182" lon="9.93399141356349">
<ele>455</ele>
<time>2024-05-12T15:37:39Z</time>
</trkpt>
<trkpt lat="48.79269786179066" lon="9.933968530967832">
<ele>455.2</ele>
<time>2024-05-12T15:37:40Z</time>
</trkpt>
<trkpt lat="48.792663495987654" lon="9.93395034223795">
<ele>455.4</ele>
<time>2024-05-12T15:37:41Z</time>
</trkpt>
<trkpt lat="48.79262921400368" lon="9.93393324315548">
<ele>455.4</ele>
<time>2024-05-12T15:37:42Z</time>
</trkpt>
<trkpt lat="48.79259484820068" lon="9.933923687785864">
<ele>455.6</ele>
<time>2024-05-12T15:37:43Z</time>
</trkpt>
<trkpt lat="48.79255671054125" lon="9.933939864858983">
<ele>455.6</ele>
<time>2024-05-12T15:37:44Z</time>
</trkpt>
<trkpt lat="48.792526200413704" lon="9.93397330865264">
<ele>455.6</ele>
<time>2024-05-12T15:37:45Z</time>
</trkpt>
<trkpt lat="48.79249569028616" lon="9.934013290330768">
<ele>455.8</ele>
<time>2024-05-12T15:37:46Z</time>
</trkpt>
<trkpt lat="48.792465180158615" lon="9.934053355827928">
<ele>455.8</ele>
<time>2024-05-12T15:37:47Z</time>
</trkpt>
<trkpt lat="48.792427042499185" lon="9.93408864364028">
<ele>455.8</ele>
<time>2024-05-12T15:37:48Z</time>
</trkpt>
<trkpt lat="48.792388904839754" lon="9.93410968221724">
<ele>455.8</ele>
<time>2024-05-12T15:37:49Z</time>
</trkpt>
<trkpt lat="48.792346911504865" lon="9.93412678129971">
<ele>455.8</ele>
<time>2024-05-12T15:37:50Z</time>
</trkpt>
<trkpt lat="48.79230114631355" lon="9.93414874188602">
<ele>455.8</ele>
<time>2024-05-12T15:37:51Z</time>
</trkpt>
<trkpt lat="48.79225915297866" lon="9.934169696643949">
<ele>455.8</ele>
<time>2024-05-12T15:37:52Z</time>
</trkpt>
<trkpt lat="48.79222101531923" lon="9.93418788537383">
<ele>455.8</ele>
<time>2024-05-12T15:37:53Z</time>
</trkpt>
<trkpt lat="48.7921828776598" lon="9.934203140437605">
<ele>455.8</ele>
<time>2024-05-12T15:37:54Z</time>
</trkpt>
<trkpt lat="48.79214474000037" lon="9.934216467663646">
<ele>455.8</ele>
<time>2024-05-12T15:37:55Z</time>
</trkpt>
<trkpt lat="48.79210274666548" lon="9.934229794889688">
<ele>455.8</ele>
<time>2024-05-12T15:37:56Z</time>
</trkpt>
<trkpt lat="48.79206460900605" lon="9.93424504995346">
<ele>456</ele>
<time>2024-05-12T15:37:57Z</time>
</trkpt>
<trkpt lat="48.79202269949019" lon="9.934261310845612">
<ele>456</ele>
<time>2024-05-12T15:37:58Z</time>
</trkpt>
<trkpt lat="48.79198447801173" lon="9.934273716062307">
<ele>456.2</ele>
<time>2024-05-12T15:37:59Z</time>
</trkpt>
<trkpt lat="48.79194256849587" lon="9.9342879652977">
<ele>456.4</ele>
<time>2024-05-12T15:38:00Z</time>
</trkpt>
<trkpt lat="48.79190443083644" lon="9.934300370514393">
<ele>456.4</ele>
<time>2024-05-12T15:38:01Z</time>
</trkpt>
<trkpt lat="48.79186629317701" lon="9.934313697740436">
<ele>456.8</ele>
<time>2024-05-12T15:38:02Z</time>
</trkpt>
<trkpt lat="48.79182815551758" lon="9.93432803079486">
<ele>457</ele>
<time>2024-05-12T15:38:03Z</time>
</trkpt>
<trkpt lat="48.79178993403912" lon="9.934343285858631">
<ele>457.2</ele>
<time>2024-05-12T15:38:04Z</time>
</trkpt>
<trkpt lat="48.791751796379685" lon="9.934358540922403">
<ele>457.4</ele>
<time>2024-05-12T15:38:05Z</time>
</trkpt>
<trkpt lat="48.791717514395714" lon="9.93436809629202">
<ele>457.6</ele>
<time>2024-05-12T15:38:06Z</time>
</trkpt>
<trkpt lat="48.791675521060824" lon="9.934381423518062">
<ele>457.8</ele>
<time>2024-05-12T15:38:07Z</time>
</trkpt>
<trkpt lat="48.79164115525782" lon="9.934396678581834">
<ele>457.8</ele>
<time>2024-05-12T15:38:08Z</time>
</trkpt>
<trkpt lat="48.79160301759839" lon="9.934410089626908">
<ele>458</ele>
<time>2024-05-12T15:38:09Z</time>
</trkpt>
<trkpt lat="48.79156487993896" lon="9.934419561177492">
<ele>458</ele>
<time>2024-05-12T15:38:10Z</time>
</trkpt>
<trkpt lat="48.79152674227953" lon="9.93442534469068">
<ele>458.2</ele>
<time>2024-05-12T15:38:11Z</time>
</trkpt>
<trkpt lat="48.7914886046201" lon="9.934434816241264">
<ele>458.4</ele>
<time>2024-05-12T15:38:12Z</time>
</trkpt>
<trkpt lat="48.79145046696067" lon="9.93444537743926">
<ele>458.4</ele>
<time>2024-05-12T15:38:13Z</time>
</trkpt>
<trkpt lat="48.79141232930124" lon="9.934458704665303">
<ele>458.4</ele>
<time>2024-05-12T15:38:14Z</time>
</trkpt>
<trkpt lat="48.79137419164181" lon="9.934470104053617">
<ele>458.4</ele>
<time>2024-05-12T15:38:15Z</time>
</trkpt>
<trkpt lat="48.79133605398238" lon="9.934478737413883">
<ele>458.6</ele>
<time>2024-05-12T15:38:16Z</time>
</trkpt>
<trkpt lat="48.791301688179374" lon="9.934492986649277">
<ele>458.8</ele>
<time>2024-05-12T15:38:17Z</time>
</trkpt>
<trkpt lat="48.79125969484448" lon="9.934505391865969">
<ele>459</ele>
<time>2024-05-12T15:38:18Z</time>
</trkpt>
<trkpt lat="48.791221557185054" lon="9.934518802911043">
<ele>459</ele>
<time>2024-05-12T15:38:19Z</time>
</trkpt>
<trkpt lat="48.79118727520108" lon="9.934528274461629">
<ele>459.2</ele>
<time>2024-05-12T15:38:20Z</time>
</trkpt>
<trkpt lat="48.79115290939808" lon="9.9345416855067">
<ele>459.4</ele>
<time>2024-05-12T15:38:21Z</time>
</trkpt>
<trkpt lat="48.79111477173865" lon="9.934556940570474">
<ele>459.4</ele>
<time>2024-05-12T15:38:22Z</time>
</trkpt>
<trkpt lat="48.791080405935645" lon="9.934568339958789">
<ele>459.6</ele>
<time>2024-05-12T15:38:23Z</time>
</trkpt>
<trkpt lat="48.791042268276215" lon="9.934579823166132">
<ele>459.8</ele>
<time>2024-05-12T15:38:24Z</time>
</trkpt>
<trkpt lat="48.791004130616784" lon="9.934595078229904">
<ele>459.8</ele>
<time>2024-05-12T15:38:25Z</time>
</trkpt>
<trkpt lat="48.790965992957354" lon="9.934611255303023">
<ele>460</ele>
<time>2024-05-12T15:38:26Z</time>
</trkpt>
<trkpt lat="48.79093162715435" lon="9.9346246663481">
<ele>460</ele>
<time>2024-05-12T15:38:27Z</time>
</trkpt>
<trkpt lat="48.79089734517038" lon="9.93464469909668">
<ele>460.2</ele>
<time>2024-05-12T15:38:28Z</time>
</trkpt>
<trkpt lat="48.790862979367375" lon="9.934664648026228">
<ele>460.4</ele>
<time>2024-05-12T15:38:29Z</time>
</trkpt>
<trkpt lat="48.79083246923983" lon="9.934684680774808">
<ele>460.6</ele>
<time>2024-05-12T15:38:30Z</time>
</trkpt>
<trkpt lat="48.79079818725586" lon="9.93470186367631">
<ele>460.8</ele>
<time>2024-05-12T15:38:31Z</time>
</trkpt>
<trkpt lat="48.79076759330928" lon="9.934713346883656">
<ele>461</ele>
<time>2024-05-12T15:38:32Z</time>
</trkpt>
<trkpt lat="48.79072945564985" lon="9.934729523956776">
<ele>461</ele>
<time>2024-05-12T15:38:33Z</time>
</trkpt>
<trkpt lat="48.79069517366588" lon="9.934744779020548">
<ele>461.2</ele>
<time>2024-05-12T15:38:34Z</time>
</trkpt>
<trkpt lat="48.79066080786288" lon="9.93476003408432">
<ele>461.2</ele>
<time>2024-05-12T15:38:35Z</time>
</trkpt>
<trkpt lat="48.79062267020345" lon="9.93477813899517">
<ele>461.4</ele>
<time>2024-05-12T15:38:36Z</time>
</trkpt>
<trkpt lat="48.79058830440045" lon="9.934796327725053">
<ele>461.4</ele>
<time>2024-05-12T15:38:37Z</time>
</trkpt>
<trkpt lat="48.7905577942729" lon="9.934815354645252">
<ele>461.6</ele>
<time>2024-05-12T15:38:38Z</time>
</trkpt>
<trkpt lat="48.79052351228893" lon="9.934831615537403">
<ele>461.6</ele>
<time>2024-05-12T15:38:39Z</time>
</trkpt>
<trkpt lat="48.7904853746295" lon="9.934848714619877">
<ele>461.8</ele>
<time>2024-05-12T15:38:40Z</time>
</trkpt>
<trkpt lat="48.79045486450195" lon="9.934863047674298">
<ele>462</ele>
<time>2024-05-12T15:38:41Z</time>
</trkpt>
<trkpt lat="48.79041664302349" lon="9.934873525053264">
<ele>462.4</ele>
<time>2024-05-12T15:38:42Z</time>
</trkpt>
<trkpt lat="48.79038236103952" lon="9.934883080422878">
<ele>462.6</ele>
<time>2024-05-12T15:38:43Z</time>
</trkpt>
<trkpt lat="48.79034799523651" lon="9.934893557801844">
<ele>462.8</ele>
<time>2024-05-12T15:38:44Z</time>
</trkpt>
<trkpt lat="48.790313713252544" lon="9.93490026332438">
<ele>463</ele>
<time>2024-05-12T15:38:45Z</time>
</trkpt>
<trkpt lat="48.79027934744954" lon="9.934907890856266">
<ele>463</ele>
<time>2024-05-12T15:38:46Z</time>
</trkpt>
<trkpt lat="48.79024498164654" lon="9.93492029607296">
<ele>463.2</ele>
<time>2024-05-12T15:38:47Z</time>
</trkpt>
<trkpt lat="48.790210699662566" lon="9.934926917776464">
<ele>463.4</ele>
<time>2024-05-12T15:38:48Z</time>
</trkpt>
<trkpt lat="48.79017633385956" lon="9.934933623299004">
<ele>463.6</ele>
<time>2024-05-12T15:38:49Z</time>
</trkpt>
<trkpt lat="48.79013819620013" lon="9.93494032882154">
<ele>463.8</ele>
<time>2024-05-12T15:38:50Z</time>
</trkpt>
<trkpt lat="48.79010383039713" lon="9.934945106506348">
<ele>464</ele>
<time>2024-05-12T15:38:51Z</time>
</trkpt>
<trkpt lat="48.79006954841316" lon="9.934947956353426">
<ele>464.2</ele>
<time>2024-05-12T15:38:52Z</time>
</trkpt>
<trkpt lat="48.790035182610154" lon="9.934949800372124">
<ele>464.4</ele>
<time>2024-05-12T15:38:53Z</time>
</trkpt>
<trkpt lat="48.79000467248261" lon="9.934947956353426">
<ele>464.6</ele>
<time>2024-05-12T15:38:54Z</time>
</trkpt>
<trkpt lat="48.78997039049864" lon="9.934945106506348">
<ele>464.8</ele>
<time>2024-05-12T15:38:55Z</time>
</trkpt>
<trkpt lat="48.789939880371094" lon="9.934941250830889">
<ele>465</ele>
<time>2024-05-12T15:38:56Z</time>
</trkpt>
<trkpt lat="48.78990928642452" lon="9.93493647314608">
<ele>465.2</ele>
<time>2024-05-12T15:38:57Z</time>
</trkpt>
<trkpt lat="48.789875004440546" lon="9.934933623299004">
<ele>465.4</ele>
<time>2024-05-12T15:38:58Z</time>
</trkpt>
<trkpt lat="48.78984063863754" lon="9.934933623299004">
<ele>465.6</ele>
<time>2024-05-12T15:38:59Z</time>
</trkpt>
<trkpt lat="48.78980635665357" lon="9.934931695461271">
<ele>465.8</ele>
<time>2024-05-12T15:39:00Z</time>
</trkpt>
<trkpt lat="48.78977199085057" lon="9.934926917776464">
<ele>466</ele>
<time>2024-05-12T15:39:01Z</time>
</trkpt>
<trkpt lat="48.789737625047565" lon="9.934921218082309">
<ele>466</ele>
<time>2024-05-12T15:39:02Z</time>
</trkpt>
<trkpt lat="48.78970334306359" lon="9.934914512559772">
<ele>466.2</ele>
<time>2024-05-12T15:39:03Z</time>
</trkpt>
<trkpt lat="48.78966520540416" lon="9.934913590550424">
<ele>466.2</ele>
<time>2024-05-12T15:39:04Z</time>
</trkpt>
<trkpt lat="48.78962706774473" lon="9.934906885027884">
<ele>466.4</ele>
<time>2024-05-12T15:39:05Z</time>
</trkpt>
<trkpt lat="48.78958884626627" lon="9.934903113171458">
<ele>466.4</ele>
<time>2024-05-12T15:39:06Z</time>
</trkpt>
<trkpt lat="48.78954693675041" lon="9.934903113171458">
<ele>466.4</ele>
<time>2024-05-12T15:39:07Z</time>
</trkpt>
<trkpt lat="48.78950494341552" lon="9.934903113171458">
<ele>466.4</ele>
<time>2024-05-12T15:39:08Z</time>
</trkpt>
<trkpt lat="48.78947066143155" lon="9.934889785945415">
<ele>466.6</ele>
<time>2024-05-12T15:39:09Z</time>
</trkpt>
<trkpt lat="48.78943629562855" lon="9.93487830273807">
<ele>466.6</ele>
<time>2024-05-12T15:39:10Z</time>
</trkpt>
<trkpt lat="48.78939815796912" lon="9.934871597215531">
<ele>466.8</ele>
<time>2024-05-12T15:39:11Z</time>
</trkpt>
<trkpt lat="48.78936002030969" lon="9.934864975512028">
<ele>466.8</ele>
<time>2024-05-12T15:39:12Z</time>
</trkpt>
<trkpt lat="48.789321882650256" lon="9.93485826998949">
<ele>467</ele>
<time>2024-05-12T15:39:13Z</time>
</trkpt>
<trkpt lat="48.78928751684725" lon="9.934851564466952">
<ele>467.2</ele>
<time>2024-05-12T15:39:14Z</time>
</trkpt>
<trkpt lat="48.78925323486328" lon="9.934843014925718">
<ele>467.4</ele>
<time>2024-05-12T15:39:15Z</time>
</trkpt>
<trkpt lat="48.789222640916705" lon="9.93483630940318">
<ele>467.6</ele>
<time>2024-05-12T15:39:16Z</time>
</trkpt>
<trkpt lat="48.78918835893273" lon="9.934824910014868">
<ele>467.8</ele>
<time>2024-05-12T15:39:17Z</time>
</trkpt>
<trkpt lat="48.789161620661616" lon="9.934811582788823">
<ele>467.8</ele>
<time>2024-05-12T15:39:18Z</time>
</trkpt>
<trkpt lat="48.78913111053407" lon="9.93480009958148">
<ele>468</ele>
<time>2024-05-12T15:39:19Z</time>
</trkpt>
<trkpt lat="48.7890968285501" lon="9.934791550040243">
<ele>468</ele>
<time>2024-05-12T15:39:20Z</time>
</trkpt>
<trkpt lat="48.78907009027898" lon="9.93478199467063">
<ele>468.2</ele>
<time>2024-05-12T15:39:21Z</time>
</trkpt>
<trkpt lat="48.789043352007866" lon="9.934769589453936">
<ele>468.2</ele>
<time>2024-05-12T15:39:22Z</time>
</trkpt>
<trkpt lat="48.78901669755578" lon="9.934756262227893">
<ele>468.2</ele>
<time>2024-05-12T15:39:23Z</time>
</trkpt>
<trkpt lat="48.78899758681655" lon="9.93474192917347">
<ele>468.4</ele>
<time>2024-05-12T15:39:24Z</time>
</trkpt>
<trkpt lat="48.78897855989635" lon="9.934733379632236">
<ele>468.4</ele>
<time>2024-05-12T15:39:25Z</time>
</trkpt>
<trkpt lat="48.78895944915712" lon="9.934724746271968">
<ele>468.4</ele>
<time>2024-05-12T15:39:26Z</time>
</trkpt>
<trkpt lat="48.78894042223692" lon="9.934713346883656">
<ele>468.4</ele>
<time>2024-05-12T15:39:27Z</time>
</trkpt>
<trkpt lat="48.78892516717315" lon="9.934698091819882">
<ele>468.6</ele>
<time>2024-05-12T15:39:28Z</time>
</trkpt>
<trkpt lat="48.788909912109375" lon="9.934684680774808">
<ele>468.6</ele>
<time>2024-05-12T15:39:29Z</time>
</trkpt>
<trkpt lat="48.788890801370144" lon="9.934669425711036">
<ele>468.8</ele>
<time>2024-05-12T15:39:30Z</time>
</trkpt>
<trkpt lat="48.78887554630637" lon="9.934659954160452">
<ele>468.8</ele>
<time>2024-05-12T15:39:31Z</time>
</trkpt>
<trkpt lat="48.78885643556714" lon="9.934651320800183">
<ele>469</ele>
<time>2024-05-12T15:39:32Z</time>
</trkpt>
<trkpt lat="48.78884503617883" lon="9.934636987745762">
<ele>469</ele>
<time>2024-05-12T15:39:33Z</time>
</trkpt>
<trkpt lat="48.78883355297148" lon="9.934617960825562">
<ele>469</ele>
<time>2024-05-12T15:39:34Z</time>
</trkpt>
<trkpt lat="48.788829781115055" lon="9.934606477618216">
<ele>469.2</ele>
<time>2024-05-12T15:39:35Z</time>
</trkpt>
<trkpt lat="48.788829781115055" lon="9.93460463359952">
<ele>469.2</ele>
<time>2024-05-12T15:39:36Z</time>
</trkpt>
<trkpt lat="48.788829781115055" lon="9.93460362777114">
<ele>469.2</ele>
<time>2024-05-12T15:39:38Z</time>
</trkpt>
<trkpt lat="48.788829781115055" lon="9.93460178375244">
<ele>469.2</ele>
<time>2024-05-12T15:39:39Z</time>
</trkpt>
<trkpt lat="48.788829781115055" lon="9.93460362777114">
<ele>469.2</ele>
<time>2024-05-12T15:39:40Z</time>
</trkpt>
<trkpt lat="48.788829781115055" lon="9.934606477618216">
<ele>469.2</ele>
<time>2024-05-12T15:39:42Z</time>
</trkpt>
<trkpt lat="48.78883355297148" lon="9.934608405455949">
<ele>469.2</ele>
<time>2024-05-12T15:39:43Z</time>
</trkpt>
<trkpt lat="48.78884503617883" lon="9.934606477618216">
<ele>469.2</ele>
<time>2024-05-12T15:39:44Z</time>
</trkpt>
<trkpt lat="48.78884118050337" lon="9.934608405455949">
<ele>469.2</ele>
<time>2024-05-12T15:39:45Z</time>
</trkpt>
<trkpt lat="48.78884503617883" lon="9.934611255303023">
<ele>469.2</ele>
<time>2024-05-12T15:39:46Z</time>
</trkpt>
<trkpt lat="48.78885266371071" lon="9.934617960825562">
<ele>469.2</ele>
<time>2024-05-12T15:39:47Z</time>
</trkpt>
<trkpt lat="48.7888602912426" lon="9.934626510366796">
<ele>469.2</ele>
<time>2024-05-12T15:39:48Z</time>
</trkpt>
<trkpt lat="48.7888602912426" lon="9.934628438204529">
<ele>469</ele>
<time>2024-05-12T15:39:49Z</time>
</trkpt>
<trkpt lat="48.78886406309903" lon="9.934631288051603">
<ele>469</ele>
<time>2024-05-12T15:39:50Z</time>
</trkpt>
<trkpt lat="48.78886406309903" lon="9.934633215889336">
<ele>468.8</ele>
<time>2024-05-12T15:39:51Z</time>
</trkpt>
<trkpt lat="48.78887169063091" lon="9.934636987745762">
<ele>468.8</ele>
<time>2024-05-12T15:39:52Z</time>
</trkpt>
<trkpt lat="48.78887169063091" lon="9.934637993574142">
<ele>468.6</ele>
<time>2024-05-12T15:39:54Z</time>
</trkpt>
<trkpt lat="48.78887169063091" lon="9.934639921411872">
<ele>468.6</ele>
<time>2024-05-12T15:39:55Z</time>
</trkpt>
<trkpt lat="48.78887554630637" lon="9.93464176543057">
<ele>468.6</ele>
<time>2024-05-12T15:39:56Z</time>
</trkpt>
<trkpt lat="48.78887554630637" lon="9.934639921411872">
<ele>468.6</ele>
<time>2024-05-12T15:40:00Z</time>
</trkpt>
<trkpt lat="48.78887554630637" lon="9.93464176543057">
<ele>468.6</ele>
<time>2024-05-12T15:40:02Z</time>
</trkpt>
<trkpt lat="48.7888793181628" lon="9.9346436932683">
<ele>468.6</ele>
<time>2024-05-12T15:40:05Z</time>
</trkpt>
<trkpt lat="48.78887554630637" lon="9.9346436932683">
<ele>468.6</ele>
<time>2024-05-12T15:40:06Z</time>
</trkpt>
<trkpt lat="48.7888793181628" lon="9.9346436932683">
<ele>468.8</ele>
<time>2024-05-12T15:40:07Z</time>
</trkpt>
<trkpt lat="48.78887554630637" lon="9.9346436932683">
<ele>468.8</ele>
<time>2024-05-12T15:40:08Z</time>
</trkpt>
<trkpt lat="48.78887554630637" lon="9.93464469909668">
<ele>468.8</ele>
<time>2024-05-12T15:40:09Z</time>
</trkpt>
<trkpt lat="48.7888793181628" lon="9.93464469909668">
<ele>468.8</ele>
<time>2024-05-12T15:40:10Z</time>
</trkpt>
<trkpt lat="48.7888793181628" lon="9.934646543115376">
<ele>469</ele>
<time>2024-05-12T15:40:12Z</time>
</trkpt>
<trkpt lat="48.7888793181628" lon="9.934648470953109">
<ele>469</ele>
<time>2024-05-12T15:40:14Z</time>
</trkpt>
<trkpt lat="48.7888793181628" lon="9.934650398790836">
<ele>469.2</ele>
<time>2024-05-12T15:40:16Z</time>
</trkpt>
<trkpt lat="48.7888793181628" lon="9.934651320800183">
<ele>469.2</ele>
<time>2024-05-12T15:40:25Z</time>
</trkpt>
<trkpt lat="48.7888793181628" lon="9.934653248637916">
<ele>469.2</ele>
<time>2024-05-12T15:40:28Z</time>
</trkpt>
<trkpt lat="48.7888793181628" lon="9.934655176475644">
<ele>469.4</ele>
<time>2024-05-12T15:40:30Z</time>
</trkpt>
<trkpt lat="48.7888793181628" lon="9.934657020494342">
<ele>469.2</ele>
<time>2024-05-12T15:40:33Z</time>
</trkpt>
<trkpt lat="48.7888793181628" lon="9.934658026322722">
<ele>469.2</ele>
<time>2024-05-12T15:40:34Z</time>
</trkpt>
<trkpt lat="48.78888317383826" lon="9.934658026322722">
<ele>469.2</ele>
<time>2024-05-12T15:40:35Z</time>
</trkpt>
<trkpt lat="48.78888317383826" lon="9.934659954160452">
<ele>469</ele>
<time>2024-05-12T15:40:36Z</time>
</trkpt>
<trkpt lat="48.78888317383826" lon="9.93466179817915">
<ele>469</ele>
<time>2024-05-12T15:40:37Z</time>
</trkpt>
<trkpt lat="48.78888317383826" lon="9.93466372601688">
<ele>468.8</ele>
<time>2024-05-12T15:40:38Z</time>
</trkpt>
<trkpt lat="48.78888317383826" lon="9.934664648026228">
<ele>468.8</ele>
<time>2024-05-12T15:40:39Z</time>
</trkpt>
<trkpt lat="48.78888317383826" lon="9.934666575863956">
<ele>468.8</ele>
<time>2024-05-12T15:40:40Z</time>
</trkpt>
<trkpt lat="48.78888317383826" lon="9.934668503701689">
<ele>468.8</ele>
<time>2024-05-12T15:40:41Z</time>
</trkpt>
<trkpt lat="48.78888317383826" lon="9.934669425711036">
<ele>468.8</ele>
<time>2024-05-12T15:40:43Z</time>
</trkpt>
<trkpt lat="48.78888317383826" lon="9.934671353548763">
<ele>468.8</ele>
<time>2024-05-12T15:40:45Z</time>
</trkpt>
<trkpt lat="48.78888317383826" lon="9.934673281386496">
<ele>469</ele>
<time>2024-05-12T15:40:47Z</time>
</trkpt>
<trkpt lat="48.78888317383826" lon="9.934675209224224">
<ele>469</ele>
<time>2024-05-12T15:40:49Z</time>
</trkpt>
<trkpt lat="48.78888317383826" lon="9.934677053242922">
<ele>469</ele>
<time>2024-05-12T15:40:50Z</time>
</trkpt>
<trkpt lat="48.788886945694685" lon="9.934677053242922">
<ele>469.2</ele>
<time>2024-05-12T15:40:51Z</time>
</trkpt>
<trkpt lat="48.788886945694685" lon="9.934678059071302">
<ele>469.2</ele>
<time>2024-05-12T15:40:52Z</time>
</trkpt>
<trkpt lat="48.788886945694685" lon="9.93467990309">
<ele>469.2</ele>
<time>2024-05-12T15:40:54Z</time>
</trkpt>
<trkpt lat="48.788886945694685" lon="9.934678059071302">
<ele>469.2</ele>
<time>2024-05-12T15:41:01Z</time>
</trkpt>
<trkpt lat="48.788886945694685" lon="9.934677053242922">
<ele>469.4</ele>
<time>2024-05-12T15:41:05Z</time>
</trkpt>
<trkpt lat="48.788886945694685" lon="9.934675209224224">
<ele>469.2</ele>
<time>2024-05-12T15:41:12Z</time>
</trkpt>
<trkpt lat="48.788886945694685" lon="9.934673281386496">
<ele>469.2</ele>
<time>2024-05-12T15:41:15Z</time>
</trkpt>
<trkpt lat="48.788886945694685" lon="9.934675209224224">
<ele>469.2</ele>
<time>2024-05-12T15:41:21Z</time>
</trkpt>
<trkpt lat="48.788886945694685" lon="9.934677053242922">
<ele>469.2</ele>
<time>2024-05-12T15:41:30Z</time>
</trkpt>
<trkpt lat="48.788886945694685" lon="9.934678059071302">
<ele>469.2</ele>
<time>2024-05-12T15:41:36Z</time>
</trkpt>
<trkpt lat="48.788886945694685" lon="9.934677053242922">
<ele>469.2</ele>
<time>2024-05-12T15:41:40Z</time>
</trkpt>
<trkpt lat="48.788886945694685" lon="9.934678059071302">
<ele>469.2</ele>
<time>2024-05-12T15:41:44Z</time>
</trkpt>
<trkpt lat="48.788886945694685" lon="9.934677053242922">
<ele>469.2</ele>
<time>2024-05-12T15:41:46Z</time>
</trkpt>
<trkpt lat="48.788886945694685" lon="9.934678059071302">
<ele>469.2</ele>
<time>2024-05-12T15:41:47Z</time>
</trkpt>
<trkpt lat="48.788886945694685" lon="9.934677053242922">
<ele>469.2</ele>
<time>2024-05-12T15:41:48Z</time>
</trkpt>
<trkpt lat="48.788886945694685" lon="9.934675209224224">
<ele>469.2</ele>
<time>2024-05-12T15:41:51Z</time>
</trkpt>
<trkpt lat="48.788890801370144" lon="9.934675209224224">
<ele>469.2</ele>
<time>2024-05-12T15:41:52Z</time>
</trkpt>
<trkpt lat="48.788890801370144" lon="9.934673281386496">
<ele>469.2</ele>
<time>2024-05-12T15:41:55Z</time>
</trkpt>
<trkpt lat="48.788890801370144" lon="9.934671353548763">
<ele>469.4</ele>
<time>2024-05-12T15:41:57Z</time>
</trkpt>
<trkpt lat="48.788890801370144" lon="9.934669425711036">
<ele>469.4</ele>
<time>2024-05-12T15:41:59Z</time>
</trkpt>
<trkpt lat="48.788890801370144" lon="9.934668503701689">
<ele>469.4</ele>
<time>2024-05-12T15:42:01Z</time>
</trkpt>
<trkpt lat="48.788890801370144" lon="9.934666575863956">
<ele>469.6</ele>
<time>2024-05-12T15:42:02Z</time>
</trkpt>
<trkpt lat="48.788890801370144" lon="9.934664648026228">
<ele>469.6</ele>
<time>2024-05-12T15:42:04Z</time>
</trkpt>
<trkpt lat="48.788890801370144" lon="9.93466372601688">
<ele>469.8</ele>
<time>2024-05-12T15:42:05Z</time>
</trkpt>
<trkpt lat="48.788890801370144" lon="9.93466179817915">
<ele>469.8</ele>
<time>2024-05-12T15:42:07Z</time>
</trkpt>
<trkpt lat="48.788890801370144" lon="9.934659954160452">
<ele>469.8</ele>
<time>2024-05-12T15:42:09Z</time>
</trkpt>
<trkpt lat="48.788890801370144" lon="9.934658026322722">
<ele>469.8</ele>
<time>2024-05-12T15:42:11Z</time>
</trkpt>
<trkpt lat="48.788890801370144" lon="9.934657020494342">
<ele>469.8</ele>
<time>2024-05-12T15:42:12Z</time>
</trkpt>
<trkpt lat="48.788890801370144" lon="9.934655176475644">
<ele>470</ele>
<time>2024-05-12T15:42:14Z</time>
</trkpt>
<trkpt lat="48.788886945694685" lon="9.934655176475644">
<ele>470</ele>
<time>2024-05-12T15:42:17Z</time>
</trkpt>
<trkpt lat="48.788886945694685" lon="9.934657020494342">
<ele>470</ele>
<time>2024-05-12T15:42:19Z</time>
</trkpt>
<trkpt lat="48.788886945694685" lon="9.934658026322722">
<ele>470</ele>
<time>2024-05-12T15:42:23Z</time>
</trkpt>
<trkpt lat="48.788890801370144" lon="9.934658026322722">
<ele>470</ele>
<time>2024-05-12T15:42:24Z</time>
</trkpt>
<trkpt lat="48.78889457322657" lon="9.934658026322722">
<ele>470</ele>
<time>2024-05-12T15:42:28Z</time>
</trkpt>
<trkpt lat="48.78889457322657" lon="9.934659954160452">
<ele>470</ele>
<time>2024-05-12T15:42:31Z</time>
</trkpt>
<trkpt lat="48.78889842890203" lon="9.93466179817915">
<ele>470</ele>
<time>2024-05-12T15:42:33Z</time>
</trkpt>
<trkpt lat="48.78889842890203" lon="9.93466372601688">
<ele>470</ele>
<time>2024-05-12T15:42:34Z</time>
</trkpt>
<trkpt lat="48.78889842890203" lon="9.934664648026228">
<ele>470</ele>
<time>2024-05-12T15:42:37Z</time>
</trkpt>
<trkpt lat="48.78890220075846" lon="9.934664648026228">
<ele>470</ele>
<time>2024-05-12T15:42:40Z</time>
</trkpt>
<trkpt lat="48.78890220075846" lon="9.934666575863956">
<ele>469.8</ele>
<time>2024-05-12T15:42:43Z</time>
</trkpt>
<trkpt lat="48.78890605643392" lon="9.934666575863956">
<ele>469.8</ele>
<time>2024-05-12T15:42:47Z</time>
</trkpt>
<trkpt lat="48.78890605643392" lon="9.934664648026228">
<ele>469.6</ele>
<time>2024-05-12T15:42:51Z</time>
</trkpt>
<trkpt lat="48.78890605643392" lon="9.93466372601688">
<ele>469.6</ele>
<time>2024-05-12T15:42:54Z</time>
</trkpt>
<trkpt lat="48.78890220075846" lon="9.93466179817915">
<ele>469.4</ele>
<time>2024-05-12T15:42:56Z</time>
</trkpt>
<trkpt lat="48.78890220075846" lon="9.934659954160452">
<ele>469.4</ele>
<time>2024-05-12T15:42:58Z</time>
</trkpt>
<trkpt lat="48.78890220075846" lon="9.934658026322722">
<ele>469.2</ele>
<time>2024-05-12T15:42:59Z</time>
</trkpt>
<trkpt lat="48.78890220075846" lon="9.934657020494342">
<ele>469.2</ele>
<time>2024-05-12T15:43:02Z</time>
</trkpt>
<trkpt lat="48.78890220075846" lon="9.934655176475644">
<ele>469.2</ele>
<time>2024-05-12T15:43:10Z</time>
</trkpt>
<trkpt lat="48.78890220075846" lon="9.934653248637916">
<ele>469.2</ele>
<time>2024-05-12T15:43:16Z</time>
</trkpt>
<trkpt lat="48.78890220075846" lon="9.934651320800183">
<ele>469.2</ele>
<time>2024-05-12T15:43:22Z</time>
</trkpt>
<trkpt lat="48.78890220075846" lon="9.934650398790836">
<ele>469.2</ele>
<time>2024-05-12T15:43:25Z</time>
</trkpt>
<trkpt lat="48.78890220075846" lon="9.934648470953109">
<ele>469.2</ele>
<time>2024-05-12T15:43:27Z</time>
</trkpt>
<trkpt lat="48.78890220075846" lon="9.934646543115376">
<ele>469.2</ele>
<time>2024-05-12T15:43:29Z</time>
</trkpt>
<trkpt lat="48.78890220075846" lon="9.93464469909668">
<ele>469.4</ele>
<time>2024-05-12T15:43:31Z</time>
</trkpt>
<trkpt lat="48.78890220075846" lon="9.9346436932683">
<ele>469.4</ele>
<time>2024-05-12T15:43:33Z</time>
</trkpt>
<trkpt lat="48.78890220075846" lon="9.93464176543057">
<ele>469.6</ele>
<time>2024-05-12T15:43:44Z</time>
</trkpt>
<trkpt lat="48.78890220075846" lon="9.934639921411872">
<ele>469.6</ele>
<time>2024-05-12T15:43:49Z</time>
</trkpt>
<trkpt lat="48.78890605643392" lon="9.934637993574142">
<ele>469.6</ele>
<time>2024-05-12T15:43:52Z</time>
</trkpt>
<trkpt lat="48.78890605643392" lon="9.934636987745762">
<ele>469.8</ele>
<time>2024-05-12T15:43:54Z</time>
</trkpt>
<trkpt lat="48.788909912109375" lon="9.934635143727064">
<ele>469.8</ele>
<time>2024-05-12T15:43:56Z</time>
</trkpt>
<trkpt lat="48.788909912109375" lon="9.934633215889336">
<ele>469.8</ele>
<time>2024-05-12T15:43:57Z</time>
</trkpt>
<trkpt lat="48.788909912109375" lon="9.934631288051603">
<ele>470</ele>
<time>2024-05-12T15:43:59Z</time>
</trkpt>
<trkpt lat="48.7889136839658" lon="9.934630366042256">
<ele>470</ele>
<time>2024-05-12T15:44:01Z</time>
</trkpt>
<trkpt lat="48.7889136839658" lon="9.934628438204529">
<ele>470</ele>
<time>2024-05-12T15:44:03Z</time>
</trkpt>
<trkpt lat="48.7889136839658" lon="9.934626510366796">
<ele>470</ele>
<time>2024-05-12T15:44:06Z</time>
</trkpt>
<trkpt lat="48.7889136839658" lon="9.9346246663481">
<ele>470</ele>
<time>2024-05-12T15:44:07Z</time>
</trkpt>
<trkpt lat="48.78891753964126" lon="9.9346246663481">
<ele>470.2</ele>
<time>2024-05-12T15:44:08Z</time>
</trkpt>
<trkpt lat="48.78891753964126" lon="9.93462366051972">
<ele>470.2</ele>
<time>2024-05-12T15:44:11Z</time>
</trkpt>
<trkpt lat="48.78891753964126" lon="9.93462173268199">
<ele>470.2</ele>
<time>2024-05-12T15:44:12Z</time>
</trkpt>
<trkpt lat="48.78891753964126" lon="9.934619888663292">
<ele>470.2</ele>
<time>2024-05-12T15:44:15Z</time>
</trkpt>
<trkpt lat="48.78891753964126" lon="9.934617960825562">
<ele>470.2</ele>
<time>2024-05-12T15:44:19Z</time>
</trkpt>
<trkpt lat="48.78891753964126" lon="9.934617038816214">
<ele>470.2</ele>
<time>2024-05-12T15:44:25Z</time>
</trkpt>
<trkpt lat="48.78891753964126" lon="9.934615110978484">
<ele>470.2</ele>
<time>2024-05-12T15:44:31Z</time>
</trkpt>
<trkpt lat="48.78891753964126" lon="9.934613183140756">
<ele>470.2</ele>
<time>2024-05-12T15:44:33Z</time>
</trkpt>
<trkpt lat="48.78891753964126" lon="9.934611255303023">
<ele>470.2</ele>
<time>2024-05-12T15:44:36Z</time>
</trkpt>
<trkpt lat="48.78891753964126" lon="9.934610333293676">
<ele>470.2</ele>
<time>2024-05-12T15:44:38Z</time>
</trkpt>
<trkpt lat="48.7889136839658" lon="9.934610333293676">
<ele>470.2</ele>
<time>2024-05-12T15:44:39Z</time>
</trkpt>
<trkpt lat="48.7889136839658" lon="9.934608405455949">
<ele>470.2</ele>
<time>2024-05-12T15:44:43Z</time>
</trkpt>
<trkpt lat="48.7889136839658" lon="9.934606477618216">
<ele>470.2</ele>
<time>2024-05-12T15:44:44Z</time>
</trkpt>
<trkpt lat="48.7889136839658" lon="9.93460463359952">
<ele>470.2</ele>
<time>2024-05-12T15:44:46Z</time>
</trkpt>
<trkpt lat="48.788909912109375" lon="9.93460362777114">
<ele>470.2</ele>
<time>2024-05-12T15:44:49Z</time>
</trkpt>
<trkpt lat="48.788909912109375" lon="9.93460178375244">
<ele>470.2</ele>
<time>2024-05-12T15:44:51Z</time>
</trkpt>
<trkpt lat="48.788909912109375" lon="9.934599855914712">
<ele>470.2</ele>
<time>2024-05-12T15:44:55Z</time>
</trkpt>
<trkpt lat="48.788909912109375" lon="9.93460178375244">
<ele>470.2</ele>
<time>2024-05-12T15:44:56Z</time>
</trkpt>
<trkpt lat="48.788909912109375" lon="9.934599855914712">
<ele>470.2</ele>
<time>2024-05-12T15:44:57Z</time>
</trkpt>
<trkpt lat="48.788909912109375" lon="9.93460178375244">
<ele>470.2</ele>
<time>2024-05-12T15:44:58Z</time>
</trkpt>
<trkpt lat="48.78890605643392" lon="9.934599855914712">
<ele>470.2</ele>
<time>2024-05-12T15:44:59Z</time>
</trkpt>
<trkpt lat="48.78890605643392" lon="9.93460178375244">
<ele>470.2</ele>
<time>2024-05-12T15:45:01Z</time>
</trkpt>
<trkpt lat="48.78890605643392" lon="9.934599855914712">
<ele>470.2</ele>
<time>2024-05-12T15:45:02Z</time>
</trkpt>
<trkpt lat="48.78890220075846" lon="9.934599855914712">
<ele>470.2</ele>
<time>2024-05-12T15:45:05Z</time>
</trkpt>
<trkpt lat="48.78890220075846" lon="9.934597928076982">
<ele>470</ele>
<time>2024-05-12T15:45:06Z</time>
</trkpt>
<trkpt lat="48.78890220075846" lon="9.934597006067634">
<ele>470</ele>
<time>2024-05-12T15:45:08Z</time>
</trkpt>
<trkpt lat="48.78889842890203" lon="9.934597006067634">
<ele>470</ele>
<time>2024-05-12T15:45:10Z</time>
</trkpt>
<trkpt lat="48.78889842890203" lon="9.934595078229904">
<ele>470</ele>
<time>2024-05-12T15:45:14Z</time>
</trkpt>
<trkpt lat="48.78889842890203" lon="9.934593150392176">
<ele>470</ele>
<time>2024-05-12T15:45:17Z</time>
</trkpt>
<trkpt lat="48.78889457322657" lon="9.934593150392176">
<ele>470</ele>
<time>2024-05-12T15:45:18Z</time>
</trkpt>
<trkpt lat="48.78889457322657" lon="9.934595078229904">
<ele>470</ele>
<time>2024-05-12T15:45:20Z</time>
</trkpt>
<trkpt lat="48.78889457322657" lon="9.934597006067634">
<ele>470</ele>
<time>2024-05-12T15:45:24Z</time>
</trkpt>
<trkpt lat="48.78889457322657" lon="9.934597928076982">
<ele>470</ele>
<time>2024-05-12T15:45:27Z</time>
</trkpt>
<trkpt lat="48.788890801370144" lon="9.934599855914712">
<ele>470</ele>
<time>2024-05-12T15:45:30Z</time>
</trkpt>
<trkpt lat="48.788890801370144" lon="9.93460178375244">
<ele>470</ele>
<time>2024-05-12T15:45:33Z</time>
</trkpt>
<trkpt lat="48.788890801370144" lon="9.93460362777114">
<ele>470</ele>
<time>2024-05-12T15:45:36Z</time>
</trkpt>
<trkpt lat="48.788890801370144" lon="9.93460463359952">
<ele>470</ele>
<time>2024-05-12T15:45:40Z</time>
</trkpt>
<trkpt lat="48.788886945694685" lon="9.934606477618216">
<ele>470</ele>
<time>2024-05-12T15:45:41Z</time>
</trkpt>
<trkpt lat="48.788886945694685" lon="9.934608405455949">
<ele>470</ele>
<time>2024-05-12T15:45:42Z</time>
</trkpt>
<trkpt lat="48.788886945694685" lon="9.934610333293676">
<ele>470</ele>
<time>2024-05-12T15:45:43Z</time>
</trkpt>
<trkpt lat="48.788886945694685" lon="9.934611255303023">
<ele>470</ele>
<time>2024-05-12T15:45:45Z</time>
</trkpt>
<trkpt lat="48.788886945694685" lon="9.934613183140756">
<ele>470</ele>
<time>2024-05-12T15:45:47Z</time>
</trkpt>
<trkpt lat="48.788886945694685" lon="9.934615110978484">
<ele>470</ele>
<time>2024-05-12T15:45:49Z</time>
</trkpt>
<trkpt lat="48.788890801370144" lon="9.934617038816214">
<ele>470</ele>
<time>2024-05-12T15:45:51Z</time>
</trkpt>
<trkpt lat="48.788890801370144" lon="9.934617960825562">
<ele>470</ele>
<time>2024-05-12T15:45:59Z</time>
</trkpt>
<trkpt lat="48.788890801370144" lon="9.934619888663292">
<ele>470</ele>
<time>2024-05-12T15:46:06Z</time>
</trkpt>
<trkpt lat="48.78889457322657" lon="9.934619888663292">
<ele>470</ele>
<time>2024-05-12T15:46:08Z</time>
</trkpt>
<trkpt lat="48.78889457322657" lon="9.934617960825562">
<ele>470</ele>
<time>2024-05-12T15:46:09Z</time>
</trkpt>
<trkpt lat="48.78889457322657" lon="9.934619888663292">
<ele>470</ele>
<time>2024-05-12T15:46:10Z</time>
</trkpt>
<trkpt lat="48.78889457322657" lon="9.934617960825562">
<ele>470</ele>
<time>2024-05-12T15:46:11Z</time>
</trkpt>
<trkpt lat="48.78889457322657" lon="9.934619888663292">
<ele>470</ele>
<time>2024-05-12T15:46:14Z</time>
</trkpt>
<trkpt lat="48.78889842890203" lon="9.934619888663292">
<ele>470</ele>
<time>2024-05-12T15:46:15Z</time>
</trkpt>
<trkpt lat="48.78889842890203" lon="9.93462173268199">
<ele>470</ele>
<time>2024-05-12T15:46:17Z</time>
</trkpt>
<trkpt lat="48.78889842890203" lon="9.93462366051972">
<ele>470</ele>
<time>2024-05-12T15:46:18Z</time>
</trkpt>
<trkpt lat="48.78890220075846" lon="9.9346246663481">
<ele>470</ele>
<time>2024-05-12T15:46:21Z</time>
</trkpt>
<trkpt lat="48.78890220075846" lon="9.934626510366796">
<ele>470</ele>
<time>2024-05-12T15:46:24Z</time>
</trkpt>
<trkpt lat="48.78890220075846" lon="9.934628438204529">
<ele>470</ele>
<time>2024-05-12T15:46:28Z</time>
</trkpt>
<trkpt lat="48.78890605643392" lon="9.934628438204529">
<ele>470</ele>
<time>2024-05-12T15:46:29Z</time>
</trkpt>
<trkpt lat="48.788909912109375" lon="9.934628438204529">
<ele>470</ele>
<time>2024-05-12T15:46:35Z</time>
</trkpt>
<trkpt lat="48.788909912109375" lon="9.934626510366796">
<ele>470</ele>
<time>2024-05-12T15:46:40Z</time>
</trkpt>
<trkpt lat="48.788909912109375" lon="9.934628438204529">
<ele>470</ele>
<time>2024-05-12T15:46:42Z</time>
</trkpt>
<trkpt lat="48.7889136839658" lon="9.934628438204529">
<ele>470</ele>
<time>2024-05-12T15:46:46Z</time>
</trkpt>
<trkpt lat="48.7889136839658" lon="9.934630366042256">
<ele>470</ele>
<time>2024-05-12T15:47:06Z</time>
</trkpt>
<trkpt lat="48.7889136839658" lon="9.934631288051603">
<ele>470</ele>
<time>2024-05-12T15:47:14Z</time>
</trkpt>
<trkpt lat="48.78891753964126" lon="9.934631288051603">
<ele>470</ele>
<time>2024-05-12T15:47:16Z</time>
</trkpt>
<trkpt lat="48.78891753964126" lon="9.934630366042256">
<ele>470</ele>
<time>2024-05-12T15:47:29Z</time>
</trkpt>
<trkpt lat="48.7889136839658" lon="9.934630366042256">
<ele>470</ele>
<time>2024-05-12T15:47:32Z</time>
</trkpt>
<trkpt lat="48.7889136839658" lon="9.934628438204529">
<ele>470</ele>
<time>2024-05-12T15:47:36Z</time>
</trkpt>
<trkpt lat="48.7889136839658" lon="9.934626510366796">
<ele>470</ele>
<time>2024-05-12T15:47:37Z</time>
</trkpt>
<trkpt lat="48.7889136839658" lon="9.9346246663481">
<ele>470</ele>
<time>2024-05-12T15:47:39Z</time>
</trkpt>
<trkpt lat="48.7889136839658" lon="9.93462366051972">
<ele>470</ele>
<time>2024-05-12T15:47:41Z</time>
</trkpt>
<trkpt lat="48.7889136839658" lon="9.9346246663481">
<ele>470</ele>
<time>2024-05-12T15:47:51Z</time>
</trkpt>
<trkpt lat="48.78891753964126" lon="9.934626510366796">
<ele>470</ele>
<time>2024-05-12T15:47:54Z</time>
</trkpt>
<trkpt lat="48.78891753964126" lon="9.9346246663481">
<ele>470</ele>
<time>2024-05-12T15:47:55Z</time>
</trkpt>
<trkpt lat="48.78891753964126" lon="9.934626510366796">
<ele>470</ele>
<time>2024-05-12T15:47:56Z</time>
</trkpt>
<trkpt lat="48.78891753964126" lon="9.934628438204529">
<ele>470</ele>
<time>2024-05-12T15:47:58Z</time>
</trkpt>
<trkpt lat="48.78892131149769" lon="9.934628438204529">
<ele>470</ele>
<time>2024-05-12T15:47:59Z</time>
</trkpt>
<trkpt lat="48.78892131149769" lon="9.934630366042256">
<ele>470</ele>
<time>2024-05-12T15:48:00Z</time>
</trkpt>
<trkpt lat="48.78892131149769" lon="9.934631288051603">
<ele>470</ele>
<time>2024-05-12T15:48:03Z</time>
</trkpt>
<trkpt lat="48.78892131149769" lon="9.934633215889336">
<ele>470</ele>
<time>2024-05-12T15:48:05Z</time>
</trkpt>
<trkpt lat="48.78892131149769" lon="9.934635143727064">
<ele>470</ele>
<time>2024-05-12T15:48:11Z</time>
</trkpt>
<trkpt lat="48.78892131149769" lon="9.934636987745762">
<ele>470</ele>
<time>2024-05-12T15:48:15Z</time>
</trkpt>
<trkpt lat="48.78892131149769" lon="9.934637993574142">
<ele>470</ele>
<time>2024-05-12T15:48:16Z</time>
</trkpt>
<trkpt lat="48.78891753964126" lon="9.934637993574142">
<ele>470</ele>
<time>2024-05-12T15:48:17Z</time>
</trkpt>
<trkpt lat="48.78891753964126" lon="9.934639921411872">
<ele>470</ele>
<time>2024-05-12T15:48:20Z</time>
</trkpt>
<trkpt lat="48.78892131149769" lon="9.93464176543057">
<ele>470</ele>
<time>2024-05-12T15:48:27Z</time>
</trkpt>
<trkpt lat="48.78892131149769" lon="9.934639921411872">
<ele>470</ele>
<time>2024-05-12T15:48:29Z</time>
</trkpt>
<trkpt lat="48.78892131149769" lon="9.93464176543057">
<ele>470</ele>
<time>2024-05-12T15:48:31Z</time>
</trkpt>
<trkpt lat="48.78892131149769" lon="9.934639921411872">
<ele>470</ele>
<time>2024-05-12T15:48:32Z</time>
</trkpt>
<trkpt lat="48.78892131149769" lon="9.934637993574142">
<ele>470</ele>
<time>2024-05-12T15:48:35Z</time>
</trkpt>
<trkpt lat="48.78891753964126" lon="9.934637993574142">
<ele>470</ele>
<time>2024-05-12T15:48:36Z</time>
</trkpt>
<trkpt lat="48.78891753964126" lon="9.934636987745762">
<ele>470</ele>
<time>2024-05-12T15:48:37Z</time>
</trkpt>
<trkpt lat="48.78891753964126" lon="9.934635143727064">
<ele>470</ele>
<time>2024-05-12T15:48:39Z</time>
</trkpt>
<trkpt lat="48.78891753964126" lon="9.934633215889336">
<ele>470</ele>
<time>2024-05-12T15:48:40Z</time>
</trkpt>
<trkpt lat="48.78891753964126" lon="9.934631288051603">
<ele>470</ele>
<time>2024-05-12T15:48:42Z</time>
</trkpt>
<trkpt lat="48.78891753964126" lon="9.934630366042256">
<ele>470</ele>
<time>2024-05-12T15:48:44Z</time>
</trkpt>
<trkpt lat="48.78891753964126" lon="9.934628438204529">
<ele>470</ele>
<time>2024-05-12T15:48:46Z</time>
</trkpt>
<trkpt lat="48.78891753964126" lon="9.934626510366796">
<ele>470</ele>
<time>2024-05-12T15:48:48Z</time>
</trkpt>
<trkpt lat="48.7889136839658" lon="9.934626510366796">
<ele>470</ele>
<time>2024-05-12T15:48:49Z</time>
</trkpt>
<trkpt lat="48.7889136839658" lon="9.9346246663481">
<ele>470</ele>
<time>2024-05-12T15:48:50Z</time>
</trkpt>
<trkpt lat="48.7889136839658" lon="9.93462366051972">
<ele>470</ele>
<time>2024-05-12T15:48:52Z</time>
</trkpt>
<trkpt lat="48.7889136839658" lon="9.93462173268199">
<ele>470</ele>
<time>2024-05-12T15:48:54Z</time>
</trkpt>
<trkpt lat="48.788909912109375" lon="9.93462173268199">
<ele>470</ele>
<time>2024-05-12T15:48:55Z</time>
</trkpt>
<trkpt lat="48.7889136839658" lon="9.93462173268199">
<ele>470</ele>
<time>2024-05-12T15:48:56Z</time>
</trkpt>
<trkpt lat="48.7889136839658" lon="9.934619888663292">
<ele>470</ele>
<time>2024-05-12T15:48:57Z</time>
</trkpt>
<trkpt lat="48.7889136839658" lon="9.934617960825562">
<ele>470</ele>
<time>2024-05-12T15:48:59Z</time>
</trkpt>
<trkpt lat="48.7889136839658" lon="9.934617038816214">
<ele>470</ele>
<time>2024-05-12T15:49:01Z</time>
</trkpt>
<trkpt lat="48.78891753964126" lon="9.934615110978484">
<ele>470</ele>
<time>2024-05-12T15:49:05Z</time>
</trkpt>
<trkpt lat="48.78892131149769" lon="9.934615110978484">
<ele>470</ele>
<time>2024-05-12T15:49:09Z</time>
</trkpt>
<trkpt lat="48.78892131149769" lon="9.934613183140756">
<ele>470</ele>
<time>2024-05-12T15:49:11Z</time>
</trkpt>
<trkpt lat="48.78892131149769" lon="9.934615110978484">
<ele>470</ele>
<time>2024-05-12T15:49:12Z</time>
</trkpt>
<trkpt lat="48.78892516717315" lon="9.934615110978484">
<ele>470</ele>
<time>2024-05-12T15:49:13Z</time>
</trkpt>
<trkpt lat="48.78892516717315" lon="9.934617038816214">
<ele>470</ele>
<time>2024-05-12T15:49:15Z</time>
</trkpt>
<trkpt lat="48.78892516717315" lon="9.934617960825562">
<ele>470</ele>
<time>2024-05-12T15:49:26Z</time>
</trkpt>
<trkpt lat="48.78892516717315" lon="9.934619888663292">
<ele>470</ele>
<time>2024-05-12T15:49:31Z</time>
</trkpt>
<trkpt lat="48.78892516717315" lon="9.93462173268199">
<ele>470</ele>
<time>2024-05-12T15:49:33Z</time>
</trkpt>
<trkpt lat="48.78892516717315" lon="9.93462366051972">
<ele>470</ele>
<time>2024-05-12T15:49:37Z</time>
</trkpt>
<trkpt lat="48.78892516717315" lon="9.9346246663481">
<ele>470</ele>
<time>2024-05-12T15:49:40Z</time>
</trkpt>
<trkpt lat="48.78892516717315" lon="9.934626510366796">
<ele>470</ele>
<time>2024-05-12T15:49:49Z</time>
</trkpt>
<trkpt lat="48.78892516717315" lon="9.9346246663481">
<ele>470</ele>
<time>2024-05-12T15:49:52Z</time>
</trkpt>
<trkpt lat="48.78892516717315" lon="9.934626510366796">
<ele>470</ele>
<time>2024-05-12T15:49:53Z</time>
</trkpt>
<trkpt lat="48.78892516717315" lon="9.9346246663481">
<ele>470</ele>
<time>2024-05-12T15:49:55Z</time>
</trkpt>
<trkpt lat="48.78892516717315" lon="9.93462366051972">
<ele>470</ele>
<time>2024-05-12T15:50:03Z</time>
</trkpt>
<trkpt lat="48.78892516717315" lon="9.93462173268199">
<ele>470</ele>
<time>2024-05-12T15:50:05Z</time>
</trkpt>
<trkpt lat="48.788928939029574" lon="9.93462173268199">
<ele>470</ele>
<time>2024-05-12T15:50:08Z</time>
</trkpt>
<trkpt lat="48.78892516717315" lon="9.934619888663292">
<ele>470</ele>
<time>2024-05-12T15:50:12Z</time>
</trkpt>
<trkpt lat="48.788928939029574" lon="9.93462173268199">
<ele>470</ele>
<time>2024-05-12T15:50:13Z</time>
</trkpt>
<trkpt lat="48.788928939029574" lon="9.93462366051972">
<ele>470</ele>
<time>2024-05-12T15:50:16Z</time>
</trkpt>
<trkpt lat="48.78892516717315" lon="9.93462366051972">
<ele>470</ele>
<time>2024-05-12T15:50:20Z</time>
</trkpt>
<trkpt lat="48.78892516717315" lon="9.9346246663481">
<ele>470</ele>
<time>2024-05-12T15:50:21Z</time>
</trkpt>
<trkpt lat="48.78892516717315" lon="9.934626510366796">
<ele>470</ele>
<time>2024-05-12T15:50:25Z</time>
</trkpt>
<trkpt lat="48.78892516717315" lon="9.934628438204529">
<ele>470</ele>
<time>2024-05-12T15:50:28Z</time>
</trkpt>
<trkpt lat="48.78892516717315" lon="9.934630366042256">
<ele>470</ele>
<time>2024-05-12T15:50:34Z</time>
</trkpt>
<trkpt lat="48.78892516717315" lon="9.934631288051603">
<ele>470</ele>
<time>2024-05-12T15:50:36Z</time>
</trkpt>
<trkpt lat="48.78892131149769" lon="9.934631288051603">
<ele>470</ele>
<time>2024-05-12T15:50:38Z</time>
</trkpt>
<trkpt lat="48.78892131149769" lon="9.934633215889336">
<ele>470</ele>
<time>2024-05-12T15:50:43Z</time>
</trkpt>
<trkpt lat="48.78891753964126" lon="9.934635143727064">
<ele>470</ele>
<time>2024-05-12T15:50:48Z</time>
</trkpt>
<trkpt lat="48.78891753964126" lon="9.934636987745762">
<ele>470</ele>
<time>2024-05-12T15:50:51Z</time>
</trkpt>
<trkpt lat="48.78891753964126" lon="9.934637993574142">
<ele>470</ele>
<time>2024-05-12T15:50:55Z</time>
</trkpt>
<trkpt lat="48.7889136839658" lon="9.934637993574142">
<ele>470</ele>
<time>2024-05-12T15:50:56Z</time>
</trkpt>
<trkpt lat="48.7889136839658" lon="9.934636987745762">
<ele>470</ele>
<time>2024-05-12T15:50:58Z</time>
</trkpt>
<trkpt lat="48.78891753964126" lon="9.934636987745762">
<ele>470</ele>
<time>2024-05-12T15:50:59Z</time>
</trkpt>
<trkpt lat="48.78891753964126" lon="9.934635143727064">
<ele>470</ele>
<time>2024-05-12T15:51:07Z</time>
</trkpt>
<trkpt lat="48.78891753964126" lon="9.934633215889336">
<ele>470</ele>
<time>2024-05-12T15:51:13Z</time>
</trkpt>
<trkpt lat="48.78892131149769" lon="9.934631288051603">
<ele>470</ele>
<time>2024-05-12T15:51:15Z</time>
</trkpt>
<trkpt lat="48.78892131149769" lon="9.934630366042256">
<ele>470</ele>
<time>2024-05-12T15:51:16Z</time>
</trkpt>
<trkpt lat="48.78892131149769" lon="9.934628438204529">
<ele>470</ele>
<time>2024-05-12T15:51:18Z</time>
</trkpt>
<trkpt lat="48.78892131149769" lon="9.934626510366796">
<ele>470</ele>
<time>2024-05-12T15:51:20Z</time>
</trkpt>
<trkpt lat="48.78892131149769" lon="9.9346246663481">
<ele>470</ele>
<time>2024-05-12T15:51:22Z</time>
</trkpt>
<trkpt lat="48.78892131149769" lon="9.93462366051972">
<ele>470</ele>
<time>2024-05-12T15:51:25Z</time>
</trkpt>
<trkpt lat="48.78892131149769" lon="9.93462173268199">
<ele>470</ele>
<time>2024-05-12T15:51:28Z</time>
</trkpt>
<trkpt lat="48.78892131149769" lon="9.934619888663292">
<ele>470</ele>
<time>2024-05-12T15:51:31Z</time>
</trkpt>
<trkpt lat="48.78892131149769" lon="9.934617960825562">
<ele>470</ele>
<time>2024-05-12T15:51:33Z</time>
</trkpt>
<trkpt lat="48.78892131149769" lon="9.934617038816214">
<ele>470</ele>
<time>2024-05-12T15:51:36Z</time>
</trkpt>
<trkpt lat="48.78891753964126" lon="9.934617038816214">
<ele>470</ele>
<time>2024-05-12T15:51:39Z</time>
</trkpt>
<trkpt lat="48.78891753964126" lon="9.934615110978484">
<ele>470</ele>
<time>2024-05-12T15:51:44Z</time>
</trkpt>
<trkpt lat="48.78891753964126" lon="9.934613183140756">
<ele>470</ele>
<time>2024-05-12T15:51:54Z</time>
</trkpt>
<trkpt lat="48.7889136839658" lon="9.934613183140756">
<ele>470</ele>
<time>2024-05-12T15:51:56Z</time>
</trkpt>
<trkpt lat="48.7889136839658" lon="9.934611255303023">
<ele>470</ele>
<time>2024-05-12T15:51:58Z</time>
</trkpt>
<trkpt lat="48.788909912109375" lon="9.934611255303023">
<ele>470</ele>
<time>2024-05-12T15:52:05Z</time>
</trkpt>
<trkpt lat="48.788909912109375" lon="9.934613183140756">
<ele>470</ele>
<time>2024-05-12T15:52:11Z</time>
</trkpt>
<trkpt lat="48.788909912109375" lon="9.934611255303023">
<ele>470</ele>
<time>2024-05-12T15:52:17Z</time>
</trkpt>
<trkpt lat="48.788909912109375" lon="9.934610333293676">
<ele>470</ele>
<time>2024-05-12T15:52:21Z</time>
</trkpt>
<trkpt lat="48.788909912109375" lon="9.934608405455949">
<ele>470</ele>
<time>2024-05-12T15:52:25Z</time>
</trkpt>
<trkpt lat="48.78890605643392" lon="9.934608405455949">
<ele>470</ele>
<time>2024-05-12T15:52:27Z</time>
</trkpt>
<trkpt lat="48.78890605643392" lon="9.934606477618216">
<ele>470</ele>
<time>2024-05-12T15:52:31Z</time>
</trkpt>
<trkpt lat="48.78890605643392" lon="9.93460463359952">
<ele>470</ele>
<time>2024-05-12T15:52:34Z</time>
</trkpt>
<trkpt lat="48.78890605643392" lon="9.93460362777114">
<ele>470</ele>
<time>2024-05-12T15:52:36Z</time>
</trkpt>
<trkpt lat="48.78890220075846" lon="9.93460178375244">
<ele>470</ele>
<time>2024-05-12T15:52:39Z</time>
</trkpt>
<trkpt lat="48.78890220075846" lon="9.934599855914712">
<ele>470</ele>
<time>2024-05-12T15:52:45Z</time>
</trkpt>
<trkpt lat="48.78890220075846" lon="9.934597928076982">
<ele>470</ele>
<time>2024-05-12T15:52:49Z</time>
</trkpt>
<trkpt lat="48.78889842890203" lon="9.934597928076982">
<ele>470</ele>
<time>2024-05-12T15:52:50Z</time>
</trkpt>
<trkpt lat="48.78889842890203" lon="9.934597006067634">
<ele>470</ele>
<time>2024-05-12T15:52:52Z</time>
</trkpt>
<trkpt lat="48.78889842890203" lon="9.934595078229904">
<ele>470</ele>
<time>2024-05-12T15:52:55Z</time>
</trkpt>
<trkpt lat="48.78889842890203" lon="9.934593150392176">
<ele>470</ele>
<time>2024-05-12T15:52:57Z</time>
</trkpt>
<trkpt lat="48.78889457322657" lon="9.934593150392176">
<ele>470</ele>
<time>2024-05-12T15:52:59Z</time>
</trkpt>
<trkpt lat="48.78889457322657" lon="9.934591222554443">
<ele>470</ele>
<time>2024-05-12T15:53:01Z</time>
</trkpt>
<trkpt lat="48.78889457322657" lon="9.934590300545096">
<ele>470</ele>
<time>2024-05-12T15:53:05Z</time>
</trkpt>
<trkpt lat="48.788890801370144" lon="9.934590300545096">
<ele>470</ele>
<time>2024-05-12T15:53:06Z</time>
</trkpt>
<trkpt lat="48.788886945694685" lon="9.934590300545096">
<ele>470</ele>
<time>2024-05-12T15:53:12Z</time>
</trkpt>
<trkpt lat="48.788886945694685" lon="9.934588372707369">
<ele>470</ele>
<time>2024-05-12T15:53:13Z</time>
</trkpt>
<trkpt lat="48.788886945694685" lon="9.934586444869636">
<ele>470</ele>
<time>2024-05-12T15:53:17Z</time>
</trkpt>
<trkpt lat="48.78888317383826" lon="9.934586444869636">
<ele>470</ele>
<time>2024-05-12T15:53:20Z</time>
</trkpt>
<trkpt lat="48.78888317383826" lon="9.93458460085094">
<ele>470</ele>
<time>2024-05-12T15:53:33Z</time>
</trkpt>
<trkpt lat="48.7888793181628" lon="9.93458460085094">
<ele>470</ele>
<time>2024-05-12T15:53:34Z</time>
</trkpt>
<trkpt lat="48.7888793181628" lon="9.934586444869636">
<ele>470</ele>
<time>2024-05-12T15:53:44Z</time>
</trkpt>
<trkpt lat="48.7888793181628" lon="9.93458460085094">
<ele>470</ele>
<time>2024-05-12T15:53:49Z</time>
</trkpt>
<trkpt lat="48.78887554630637" lon="9.93458460085094">
<ele>470</ele>
<time>2024-05-12T15:53:51Z</time>
</trkpt>
<trkpt lat="48.78887554630637" lon="9.93458359502256">
<ele>470</ele>
<time>2024-05-12T15:53:54Z</time>
</trkpt>
<trkpt lat="48.78887554630637" lon="9.93458175100386">
<ele>470</ele>
<time>2024-05-12T15:53:58Z</time>
</trkpt>
<trkpt lat="48.78887554630637" lon="9.934579823166132">
<ele>470</ele>
<time>2024-05-12T15:54:04Z</time>
</trkpt>
<trkpt lat="48.78887554630637" lon="9.934577895328404">
<ele>470</ele>
<time>2024-05-12T15:54:09Z</time>
</trkpt>
<trkpt lat="48.78887554630637" lon="9.934576973319054">
<ele>470</ele>
<time>2024-05-12T15:54:12Z</time>
</trkpt>
<trkpt lat="48.78887554630637" lon="9.934575045481324">
<ele>470</ele>
<time>2024-05-12T15:54:15Z</time>
</trkpt>
<trkpt lat="48.7888793181628" lon="9.934575045481324">
<ele>470</ele>
<time>2024-05-12T15:54:28Z</time>
</trkpt>
<trkpt lat="48.7888793181628" lon="9.934576973319054">
<ele>470</ele>
<time>2024-05-12T15:54:30Z</time>
</trkpt>
<trkpt lat="48.7888793181628" lon="9.934577895328404">
<ele>470</ele>
<time>2024-05-12T15:54:31Z</time>
</trkpt>
<trkpt lat="48.78888317383826" lon="9.934577895328404">
<ele>470</ele>
<time>2024-05-12T15:54:34Z</time>
</trkpt>
<trkpt lat="48.78888317383826" lon="9.934579823166132">
<ele>470</ele>
<time>2024-05-12T15:54:36Z</time>
</trkpt>
<trkpt lat="48.788886945694685" lon="9.934577895328404">
<ele>470</ele>
<time>2024-05-12T15:54:38Z</time>
</trkpt>
<trkpt lat="48.788890801370144" lon="9.934577895328404">
<ele>470</ele>
<time>2024-05-12T15:54:42Z</time>
</trkpt>
<trkpt lat="48.788890801370144" lon="9.934576973319054">
<ele>470</ele>
<time>2024-05-12T15:54:43Z</time>
</trkpt>
<trkpt lat="48.788890801370144" lon="9.934575045481324">
<ele>470</ele>
<time>2024-05-12T15:54:51Z</time>
</trkpt>
<trkpt lat="48.788890801370144" lon="9.934576973319054">
<ele>470</ele>
<time>2024-05-12T15:54:52Z</time>
</trkpt>
<trkpt lat="48.788886945694685" lon="9.934576973319054">
<ele>470</ele>
<time>2024-05-12T15:54:53Z</time>
</trkpt>
<trkpt lat="48.788886945694685" lon="9.934575045481324">
<ele>470</ele>
<time>2024-05-12T15:54:54Z</time>
</trkpt>
<trkpt lat="48.788886945694685" lon="9.934573117643597">
<ele>470</ele>
<time>2024-05-12T15:54:57Z</time>
</trkpt>
<trkpt lat="48.78888317383826" lon="9.934571189805864">
<ele>470</ele>
<time>2024-05-12T15:54:59Z</time>
</trkpt>
<trkpt lat="48.78888317383826" lon="9.934570267796516">
<ele>470</ele>
<time>2024-05-12T15:55:01Z</time>
</trkpt>
<trkpt lat="48.78888317383826" lon="9.934568339958789">
<ele>470</ele>
<time>2024-05-12T15:55:03Z</time>
</trkpt>
<trkpt lat="48.78888317383826" lon="9.93456649594009">
<ele>470</ele>
<time>2024-05-12T15:55:05Z</time>
</trkpt>
<trkpt lat="48.78888317383826" lon="9.93456456810236">
<ele>470</ele>
<time>2024-05-12T15:55:07Z</time>
</trkpt>
<trkpt lat="48.78888317383826" lon="9.93456356227398">
<ele>470</ele>
<time>2024-05-12T15:55:10Z</time>
</trkpt>
<trkpt lat="48.78888317383826" lon="9.93456171825528">
<ele>470</ele>
<time>2024-05-12T15:55:12Z</time>
</trkpt>
<trkpt lat="48.78888317383826" lon="9.934559790417552">
<ele>470</ele>
<time>2024-05-12T15:55:15Z</time>
</trkpt>
<trkpt lat="48.7888793181628" lon="9.934559790417552">
<ele>470</ele>
<time>2024-05-12T15:55:16Z</time>
</trkpt>
<trkpt lat="48.7888793181628" lon="9.934557862579824">
<ele>470</ele>
<time>2024-05-12T15:55:19Z</time>
</trkpt>
<trkpt lat="48.78887554630637" lon="9.934557862579824">
<ele>470</ele>
<time>2024-05-12T15:55:23Z</time>
</trkpt>
<trkpt lat="48.78887169063091" lon="9.934556940570474">
<ele>470</ele>
<time>2024-05-12T15:55:30Z</time>
</trkpt>
<trkpt lat="48.78887169063091" lon="9.934555012732744">
<ele>470</ele>
<time>2024-05-12T15:55:34Z</time>
</trkpt>
<trkpt lat="48.78887169063091" lon="9.934553084895017">
<ele>470</ele>
<time>2024-05-12T15:55:39Z</time>
</trkpt>
<trkpt lat="48.788867918774486" lon="9.934553084895017">
<ele>470</ele>
<time>2024-05-12T15:55:42Z</time>
</trkpt>
<trkpt lat="48.788867918774486" lon="9.934551157057284">
<ele>470</ele>
<time>2024-05-12T15:55:51Z</time>
</trkpt>
<trkpt lat="48.78887169063091" lon="9.934553084895017">
<ele>470</ele>
<time>2024-05-12T15:56:05Z</time>
</trkpt>
<trkpt lat="48.78887169063091" lon="9.934555012732744">
<ele>470</ele>
<time>2024-05-12T15:56:08Z</time>
</trkpt>
<trkpt lat="48.78887169063091" lon="9.934556940570474">
<ele>470</ele>
<time>2024-05-12T15:56:10Z</time>
</trkpt>
<trkpt lat="48.78887554630637" lon="9.934556940570474">
<ele>470</ele>
<time>2024-05-12T15:56:21Z</time>
</trkpt>
<trkpt lat="48.78887554630637" lon="9.934555012732744">
<ele>470</ele>
<time>2024-05-12T15:56:29Z</time>
</trkpt>
<trkpt lat="48.78887554630637" lon="9.934553084895017">
<ele>470</ele>
<time>2024-05-12T15:56:34Z</time>
</trkpt>
<trkpt lat="48.78887169063091" lon="9.934551157057284">
<ele>470</ele>
<time>2024-05-12T15:56:40Z</time>
</trkpt>
<trkpt lat="48.78887169063091" lon="9.934550235047936">
<ele>470</ele>
<time>2024-05-12T15:56:47Z</time>
</trkpt>
<trkpt lat="48.78887169063091" lon="9.934548307210209">
<ele>470</ele>
<time>2024-05-12T15:56:57Z</time>
</trkpt>
<trkpt lat="48.788867918774486" lon="9.934548307210209">
<ele>470</ele>
<time>2024-05-12T15:56:58Z</time>
</trkpt>
<trkpt lat="48.788867918774486" lon="9.93454646319151">
<ele>470</ele>
<time>2024-05-12T15:57:00Z</time>
</trkpt>
<trkpt lat="48.788867918774486" lon="9.93454453535378">
<ele>470</ele>
<time>2024-05-12T15:57:02Z</time>
</trkpt>
<trkpt lat="48.788867918774486" lon="9.9345435295254">
<ele>470</ele>
<time>2024-05-12T15:57:04Z</time>
</trkpt>
<trkpt lat="48.788867918774486" lon="9.9345416855067">
<ele>470</ele>
<time>2024-05-12T15:57:10Z</time>
</trkpt>
<trkpt lat="48.78886406309903" lon="9.9345416855067">
<ele>470</ele>
<time>2024-05-12T15:57:13Z</time>
</trkpt>
<trkpt lat="48.78886406309903" lon="9.9345435295254">
<ele>470</ele>
<time>2024-05-12T15:57:14Z</time>
</trkpt>
<trkpt lat="48.78886406309903" lon="9.9345416855067">
<ele>470</ele>
<time>2024-05-12T15:57:17Z</time>
</trkpt>
<trkpt lat="48.78886406309903" lon="9.934539757668972">
<ele>470</ele>
<time>2024-05-12T15:57:27Z</time>
</trkpt>
<trkpt lat="48.78886406309903" lon="9.934537829831244">
<ele>470</ele>
<time>2024-05-12T15:57:31Z</time>
</trkpt>
<trkpt lat="48.788867918774486" lon="9.934537829831244">
<ele>470</ele>
<time>2024-05-12T15:57:34Z</time>
</trkpt>
<trkpt lat="48.788867918774486" lon="9.934536907821894">
<ele>470</ele>
<time>2024-05-12T15:57:38Z</time>
</trkpt>
<trkpt lat="48.788867918774486" lon="9.934537829831244">
<ele>470</ele>
<time>2024-05-12T15:57:46Z</time>
</trkpt>
<trkpt lat="48.788867918774486" lon="9.934536907821894">
<ele>470</ele>
<time>2024-05-12T15:57:47Z</time>
</trkpt>
<trkpt lat="48.788867918774486" lon="9.934537829831244">
<ele>470</ele>
<time>2024-05-12T15:57:48Z</time>
</trkpt>
<trkpt lat="48.788867918774486" lon="9.934536907821894">
<ele>470</ele>
<time>2024-05-12T15:57:50Z</time>
</trkpt>
<trkpt lat="48.78886406309903" lon="9.934537829831244">
<ele>470</ele>
<time>2024-05-12T15:57:57Z</time>
</trkpt>
<trkpt lat="48.78886406309903" lon="9.934539757668972">
<ele>470</ele>
<time>2024-05-12T15:57:59Z</time>
</trkpt>
<trkpt lat="48.78886406309903" lon="9.9345416855067">
<ele>470</ele>
<time>2024-05-12T15:58:02Z</time>
</trkpt>
<trkpt lat="48.78886406309903" lon="9.9345435295254">
<ele>470</ele>
<time>2024-05-12T15:58:05Z</time>
</trkpt>
<trkpt lat="48.78886406309903" lon="9.93454453535378">
<ele>470</ele>
<time>2024-05-12T15:58:14Z</time>
</trkpt>
<trkpt lat="48.788867918774486" lon="9.9345435295254">
<ele>470</ele>
<time>2024-05-12T15:58:17Z</time>
</trkpt>
<trkpt lat="48.788867918774486" lon="9.93454453535378">
<ele>470</ele>
<time>2024-05-12T15:58:19Z</time>
</trkpt>
<trkpt lat="48.788867918774486" lon="9.9345435295254">
<ele>470</ele>
<time>2024-05-12T15:58:30Z</time>
</trkpt>
<trkpt lat="48.78886406309903" lon="9.9345416855067">
<ele>470</ele>
<time>2024-05-12T15:58:32Z</time>
</trkpt>
<trkpt lat="48.78886406309903" lon="9.9345435295254">
<ele>470</ele>
<time>2024-05-12T15:58:39Z</time>
</trkpt>
<trkpt lat="48.78886406309903" lon="9.93454453535378">
<ele>470</ele>
<time>2024-05-12T15:58:47Z</time>
</trkpt>
<trkpt lat="48.78886406309903" lon="9.93454646319151">
<ele>470</ele>
<time>2024-05-12T15:58:54Z</time>
</trkpt>
<trkpt lat="48.78886406309903" lon="9.934548307210209">
<ele>470</ele>
<time>2024-05-12T15:59:00Z</time>
</trkpt>
<trkpt lat="48.78886406309903" lon="9.934550235047936">
<ele>470</ele>
<time>2024-05-12T15:59:12Z</time>
</trkpt>
<trkpt lat="48.78886406309903" lon="9.934551157057284">
<ele>470</ele>
<time>2024-05-12T15:59:17Z</time>
</trkpt>
<trkpt lat="48.78886406309903" lon="9.934553084895017">
<ele>470</ele>
<time>2024-05-12T15:59:21Z</time>
</trkpt>
<trkpt lat="48.78886406309903" lon="9.934555012732744">
<ele>470</ele>
<time>2024-05-12T15:59:25Z</time>
</trkpt>
<trkpt lat="48.788867918774486" lon="9.934555012732744">
<ele>470</ele>
<time>2024-05-12T15:59:28Z</time>
</trkpt>
<trkpt lat="48.78887169063091" lon="9.934555012732744">
<ele>470</ele>
<time>2024-05-12T15:59:35Z</time>
</trkpt>
<trkpt lat="48.78887169063091" lon="9.934556940570474">
<ele>470</ele>
<time>2024-05-12T15:59:36Z</time>
</trkpt>
<trkpt lat="48.78887169063091" lon="9.934555012732744">
<ele>470</ele>
<time>2024-05-12T15:59:41Z</time>
</trkpt>
<trkpt lat="48.78887554630637" lon="9.934555012732744">
<ele>470</ele>
<time>2024-05-12T15:59:42Z</time>
</trkpt>
<trkpt lat="48.78887554630637" lon="9.934553084895017">
<ele>470</ele>
<time>2024-05-12T15:59:44Z</time>
</trkpt>
<trkpt lat="48.7888793181628" lon="9.934553084895017">
<ele>470</ele>
<time>2024-05-12T15:59:45Z</time>
</trkpt>
<trkpt lat="48.7888793181628" lon="9.934555012732744">
<ele>470</ele>
<time>2024-05-12T15:59:51Z</time>
</trkpt>
<trkpt lat="48.7888793181628" lon="9.934556940570474">
<ele>470</ele>
<time>2024-05-12T15:59:57Z</time>
</trkpt>
<trkpt lat="48.7888793181628" lon="9.934557862579824">
<ele>470</ele>
<time>2024-05-12T16:00:02Z</time>
</trkpt>
<trkpt lat="48.78887554630637" lon="9.934557862579824">
<ele>470</ele>
<time>2024-05-12T16:00:03Z</time>
</trkpt>
<trkpt lat="48.78887554630637" lon="9.934559790417552">
<ele>470</ele>
<time>2024-05-12T16:00:05Z</time>
</trkpt>
<trkpt lat="48.78887554630637" lon="9.93456171825528">
<ele>470</ele>
<time>2024-05-12T16:00:08Z</time>
</trkpt>
<trkpt lat="48.78887169063091" lon="9.93456171825528">
<ele>470</ele>
<time>2024-05-12T16:00:10Z</time>
</trkpt>
<trkpt lat="48.78887169063091" lon="9.93456356227398">
<ele>470</ele>
<time>2024-05-12T16:00:13Z</time>
</trkpt>
<trkpt lat="48.78887169063091" lon="9.93456171825528">
<ele>470</ele>
<time>2024-05-12T16:00:19Z</time>
</trkpt>
<trkpt lat="48.78887554630637" lon="9.93456171825528">
<ele>470</ele>
<time>2024-05-12T16:00:22Z</time>
</trkpt>
<trkpt lat="48.78887554630637" lon="9.934559790417552">
<ele>470</ele>
<time>2024-05-12T16:00:23Z</time>
</trkpt>
<trkpt lat="48.78887554630637" lon="9.934557862579824">
<ele>470</ele>
<time>2024-05-12T16:00:25Z</time>
</trkpt>
<trkpt lat="48.78887554630637" lon="9.934556940570474">
<ele>470</ele>
<time>2024-05-12T16:00:27Z</time>
</trkpt>
<trkpt lat="48.78887554630637" lon="9.934555012732744">
<ele>470</ele>
<time>2024-05-12T16:00:30Z</time>
</trkpt>
<trkpt lat="48.78887554630637" lon="9.934553084895017">
<ele>470</ele>
<time>2024-05-12T16:00:33Z</time>
</trkpt>
<trkpt lat="48.78887554630637" lon="9.934555012732744">
<ele>470</ele>
<time>2024-05-12T16:00:40Z</time>
</trkpt>
<trkpt lat="48.78887169063091" lon="9.934555012732744">
<ele>470</ele>
<time>2024-05-12T16:00:43Z</time>
</trkpt>
<trkpt lat="48.78887169063091" lon="9.934556940570474">
<ele>470</ele>
<time>2024-05-12T16:00:47Z</time>
</trkpt>
<trkpt lat="48.78887169063091" lon="9.934557862579824">
<ele>470</ele>
<time>2024-05-12T16:00:51Z</time>
</trkpt>
<trkpt lat="48.78887169063091" lon="9.934559790417552">
<ele>470</ele>
<time>2024-05-12T16:00:54Z</time>
</trkpt>
<trkpt lat="48.78887169063091" lon="9.93456171825528">
<ele>470</ele>
<time>2024-05-12T16:00:56Z</time>
</trkpt>
<trkpt lat="48.78887169063091" lon="9.93456356227398">
<ele>470</ele>
<time>2024-05-12T16:00:59Z</time>
</trkpt>
<trkpt lat="48.78887169063091" lon="9.93456456810236">
<ele>470</ele>
<time>2024-05-12T16:01:01Z</time>
</trkpt>
<trkpt lat="48.78887169063091" lon="9.93456649594009">
<ele>470</ele>
<time>2024-05-12T16:01:02Z</time>
</trkpt>
<trkpt lat="48.78887169063091" lon="9.934568339958789">
<ele>470</ele>
<time>2024-05-12T16:01:04Z</time>
</trkpt>
<trkpt lat="48.78887169063091" lon="9.934570267796516">
<ele>470</ele>
<time>2024-05-12T16:01:06Z</time>
</trkpt>
<trkpt lat="48.78887169063091" lon="9.934571189805864">
<ele>470</ele>
<time>2024-05-12T16:01:07Z</time>
</trkpt>
<trkpt lat="48.78887169063091" lon="9.934573117643597">
<ele>470</ele>
<time>2024-05-12T16:01:09Z</time>
</trkpt>
<trkpt lat="48.78887554630637" lon="9.934573117643597">
<ele>470</ele>
<time>2024-05-12T16:01:12Z</time>
</trkpt>
<trkpt lat="48.78887554630637" lon="9.934575045481324">
<ele>470</ele>
<time>2024-05-12T16:01:15Z</time>
</trkpt>
<trkpt lat="48.78887554630637" lon="9.934573117643597">
<ele>470</ele>
<time>2024-05-12T16:01:16Z</time>
</trkpt>
<trkpt lat="48.78887554630637" lon="9.934575045481324">
<ele>470</ele>
<time>2024-05-12T16:01:26Z</time>
</trkpt>
<trkpt lat="48.78887554630637" lon="9.934576973319054">
<ele>470</ele>
<time>2024-05-12T16:01:28Z</time>
</trkpt>
<trkpt lat="48.78887554630637" lon="9.934577895328404">
<ele>470</ele>
<time>2024-05-12T16:01:31Z</time>
</trkpt>
<trkpt lat="48.78887554630637" lon="9.934579823166132">
<ele>470</ele>
<time>2024-05-12T16:01:35Z</time>
</trkpt>
<trkpt lat="48.78887554630637" lon="9.93458175100386">
<ele>470</ele>
<time>2024-05-12T16:01:39Z</time>
</trkpt>
<trkpt lat="48.78887554630637" lon="9.93458359502256">
<ele>470</ele>
<time>2024-05-12T16:01:45Z</time>
</trkpt>
<trkpt lat="48.78887169063091" lon="9.93458359502256">
<ele>470</ele>
<time>2024-05-12T16:01:46Z</time>
</trkpt>
<trkpt lat="48.78887169063091" lon="9.93458460085094">
<ele>470</ele>
<time>2024-05-12T16:01:49Z</time>
</trkpt>
<trkpt lat="48.78887169063091" lon="9.934586444869636">
<ele>470</ele>
<time>2024-05-12T16:01:51Z</time>
</trkpt>
<trkpt lat="48.78887169063091" lon="9.934588372707369">
<ele>470</ele>
<time>2024-05-12T16:01:54Z</time>
</trkpt>
<trkpt lat="48.78887554630637" lon="9.934590300545096">
<ele>470</ele>
<time>2024-05-12T16:01:56Z</time>
</trkpt>
<trkpt lat="48.78887554630637" lon="9.934591222554443">
<ele>470</ele>
<time>2024-05-12T16:01:59Z</time>
</trkpt>
<trkpt lat="48.78887554630637" lon="9.934593150392176">
<ele>470</ele>
<time>2024-05-12T16:02:01Z</time>
</trkpt>
<trkpt lat="48.78887554630637" lon="9.934595078229904">
<ele>470</ele>
<time>2024-05-12T16:02:11Z</time>
</trkpt>
<trkpt lat="48.7888793181628" lon="9.934595078229904">
<ele>470</ele>
<time>2024-05-12T16:02:15Z</time>
</trkpt>
<trkpt lat="48.7888793181628" lon="9.934597006067634">
<ele>470</ele>
<time>2024-05-12T16:02:28Z</time>
</trkpt>
<trkpt lat="48.7888793181628" lon="9.934595078229904">
<ele>470</ele>
<time>2024-05-12T16:02:35Z</time>
</trkpt>
<trkpt lat="48.78888317383826" lon="9.934595078229904">
<ele>470</ele>
<time>2024-05-12T16:02:37Z</time>
</trkpt>
<trkpt lat="48.78888317383826" lon="9.934593150392176">
<ele>470</ele>
<time>2024-05-12T16:02:40Z</time>
</trkpt>
<trkpt lat="48.78888317383826" lon="9.934591222554443">
<ele>470</ele>
<time>2024-05-12T16:02:43Z</time>
</trkpt>
<trkpt lat="48.7888793181628" lon="9.934591222554443">
<ele>470</ele>
<time>2024-05-12T16:02:45Z</time>
</trkpt>
<trkpt lat="48.7888793181628" lon="9.934590300545096">
<ele>470</ele>
<time>2024-05-12T16:02:46Z</time>
</trkpt>
<trkpt lat="48.7888793181628" lon="9.934588372707369">
<ele>470</ele>
<time>2024-05-12T16:02:47Z</time>
</trkpt>
<trkpt lat="48.7888793181628" lon="9.934586444869636">
<ele>470</ele>
<time>2024-05-12T16:02:49Z</time>
</trkpt>
<trkpt lat="48.7888793181628" lon="9.93458460085094">
<ele>470</ele>
<time>2024-05-12T16:02:51Z</time>
</trkpt>
<trkpt lat="48.7888793181628" lon="9.93458359502256">
<ele>470</ele>
<time>2024-05-12T16:02:53Z</time>
</trkpt>
<trkpt lat="48.7888793181628" lon="9.93458175100386">
<ele>470</ele>
<time>2024-05-12T16:02:55Z</time>
</trkpt>
<trkpt lat="48.7888793181628" lon="9.934579823166132">
<ele>470</ele>
<time>2024-05-12T16:02:56Z</time>
</trkpt>
<trkpt lat="48.78887554630637" lon="9.934579823166132">
<ele>470</ele>
<time>2024-05-12T16:02:57Z</time>
</trkpt>
<trkpt lat="48.78887554630637" lon="9.934577895328404">
<ele>470</ele>
<time>2024-05-12T16:02:58Z</time>
</trkpt>
<trkpt lat="48.78887554630637" lon="9.934576973319054">
<ele>470</ele>
<time>2024-05-12T16:02:59Z</time>
</trkpt>
<trkpt lat="48.78887554630637" lon="9.934575045481324">
<ele>470</ele>
<time>2024-05-12T16:03:00Z</time>
</trkpt>
<trkpt lat="48.78887554630637" lon="9.934573117643597">
<ele>470</ele>
<time>2024-05-12T16:03:03Z</time>
</trkpt>
<trkpt lat="48.78887554630637" lon="9.934575045481324">
<ele>470</ele>
<time>2024-05-12T16:03:05Z</time>
</trkpt>
<trkpt lat="48.7888793181628" lon="9.934576973319054">
<ele>470</ele>
<time>2024-05-12T16:03:08Z</time>
</trkpt>
<trkpt lat="48.7888793181628" lon="9.934575045481324">
<ele>470</ele>
<time>2024-05-12T16:03:11Z</time>
</trkpt>
<trkpt lat="48.7888793181628" lon="9.934576973319054">
<ele>470</ele>
<time>2024-05-12T16:03:12Z</time>
</trkpt>
<trkpt lat="48.78888317383826" lon="9.934576973319054">
<ele>470</ele>
<time>2024-05-12T16:03:14Z</time>
</trkpt>
<trkpt lat="48.78888317383826" lon="9.934575045481324">
<ele>470</ele>
<time>2024-05-12T16:03:17Z</time>
</trkpt>
<trkpt lat="48.78888317383826" lon="9.934576973319054">
<ele>470</ele>
<time>2024-05-12T16:03:20Z</time>
</trkpt>
<trkpt lat="48.78888317383826" lon="9.934577895328404">
<ele>470</ele>
<time>2024-05-12T16:03:24Z</time>
</trkpt>
<trkpt lat="48.78888317383826" lon="9.934576973319054">
<ele>470</ele>
<time>2024-05-12T16:03:28Z</time>
</trkpt>
<trkpt lat="48.78888317383826" lon="9.934575045481324">
<ele>470</ele>
<time>2024-05-12T16:03:31Z</time>
</trkpt>
<trkpt lat="48.7888793181628" lon="9.934575045481324">
<ele>470</ele>
<time>2024-05-12T16:03:43Z</time>
</trkpt>
<trkpt lat="48.78888317383826" lon="9.934575045481324">
<ele>470</ele>
<time>2024-05-12T16:03:44Z</time>
</trkpt>
<trkpt lat="48.78888317383826" lon="9.934576973319054">
<ele>470</ele>
<time>2024-05-12T16:04:16Z</time>
</trkpt>
<trkpt lat="48.78888317383826" lon="9.934577895328404">
<ele>470</ele>
<time>2024-05-12T16:04:32Z</time>
</trkpt>
<trkpt lat="48.78888317383826" lon="9.934579823166132">
<ele>470</ele>
<time>2024-05-12T16:04:42Z</time>
</trkpt>
<trkpt lat="48.78888317383826" lon="9.93458175100386">
<ele>470</ele>
<time>2024-05-12T16:04:55Z</time>
</trkpt>
<trkpt lat="48.78888317383826" lon="9.93458359502256">
<ele>470</ele>
<time>2024-05-12T16:04:57Z</time>
</trkpt>
<trkpt lat="48.78888317383826" lon="9.93458460085094">
<ele>470</ele>
<time>2024-05-12T16:04:59Z</time>
</trkpt>
<trkpt lat="48.788886945694685" lon="9.93458460085094">
<ele>470</ele>
<time>2024-05-12T16:05:02Z</time>
</trkpt>
<trkpt lat="48.788886945694685" lon="9.934586444869636">
<ele>470</ele>
<time>2024-05-12T16:05:03Z</time>
</trkpt>
<trkpt lat="48.788886945694685" lon="9.934588372707369">
<ele>470</ele>
<time>2024-05-12T16:05:05Z</time>
</trkpt>
<trkpt lat="48.788890801370144" lon="9.934590300545096">
<ele>470</ele>
<time>2024-05-12T16:05:06Z</time>
</trkpt>
<trkpt lat="48.788890801370144" lon="9.934591222554443">
<ele>470</ele>
<time>2024-05-12T16:05:07Z</time>
</trkpt>
<trkpt lat="48.788890801370144" lon="9.934593150392176">
<ele>470</ele>
<time>2024-05-12T16:05:08Z</time>
</trkpt>
<trkpt lat="48.78889457322657" lon="9.934595078229904">
<ele>470</ele>
<time>2024-05-12T16:05:09Z</time>
</trkpt>
<trkpt lat="48.78889457322657" lon="9.934597006067634">
<ele>470</ele>
<time>2024-05-12T16:05:10Z</time>
</trkpt>
<trkpt lat="48.78889457322657" lon="9.934599855914712">
<ele>470</ele>
<time>2024-05-12T16:05:12Z</time>
</trkpt>
<trkpt lat="48.78889842890203" lon="9.93460178375244">
<ele>470</ele>
<time>2024-05-12T16:05:13Z</time>
</trkpt>
<trkpt lat="48.78889842890203" lon="9.93460362777114">
<ele>470</ele>
<time>2024-05-12T16:05:15Z</time>
</trkpt>
<trkpt lat="48.78889842890203" lon="9.93460463359952">
<ele>470</ele>
<time>2024-05-12T16:05:16Z</time>
</trkpt>
<trkpt lat="48.78889842890203" lon="9.934606477618216">
<ele>470</ele>
<time>2024-05-12T16:05:19Z</time>
</trkpt>
<trkpt lat="48.78889842890203" lon="9.93460463359952">
<ele>470</ele>
<time>2024-05-12T16:05:23Z</time>
</trkpt>
<trkpt lat="48.78889842890203" lon="9.93460362777114">
<ele>470</ele>
<time>2024-05-12T16:05:31Z</time>
</trkpt>
<trkpt lat="48.78889842890203" lon="9.93460178375244">
<ele>470</ele>
<time>2024-05-12T16:05:36Z</time>
</trkpt>
<trkpt lat="48.78889842890203" lon="9.934599855914712">
<ele>470</ele>
<time>2024-05-12T16:05:40Z</time>
</trkpt>
<trkpt lat="48.78889842890203" lon="9.934597928076982">
<ele>470</ele>
<time>2024-05-12T16:05:46Z</time>
</trkpt>
<trkpt lat="48.78889457322657" lon="9.934597928076982">
<ele>470</ele>
<time>2024-05-12T16:05:50Z</time>
</trkpt>
<trkpt lat="48.78889457322657" lon="9.934597006067634">
<ele>470</ele>
<time>2024-05-12T16:05:54Z</time>
</trkpt>
<trkpt lat="48.78889457322657" lon="9.934595078229904">
<ele>470</ele>
<time>2024-05-12T16:05:59Z</time>
</trkpt>
<trkpt lat="48.78889457322657" lon="9.934593150392176">
<ele>470</ele>
<time>2024-05-12T16:06:03Z</time>
</trkpt>
<trkpt lat="48.788890801370144" lon="9.934593150392176">
<ele>470</ele>
<time>2024-05-12T16:06:10Z</time>
</trkpt>
<trkpt lat="48.788890801370144" lon="9.934595078229904">
<ele>470</ele>
<time>2024-05-12T16:06:19Z</time>
</trkpt>
<trkpt lat="48.788890801370144" lon="9.934597006067634">
<ele>470</ele>
<time>2024-05-12T16:06:22Z</time>
</trkpt>
<trkpt lat="48.788890801370144" lon="9.934597928076982">
<ele>470</ele>
<time>2024-05-12T16:06:28Z</time>
</trkpt>
<trkpt lat="48.788890801370144" lon="9.934599855914712">
<ele>470</ele>
<time>2024-05-12T16:06:46Z</time>
</trkpt>
<trkpt lat="48.78889457322657" lon="9.934599855914712">
<ele>470</ele>
<time>2024-05-12T16:06:55Z</time>
</trkpt>
<trkpt lat="48.78889457322657" lon="9.93460178375244">
<ele>470</ele>
<time>2024-05-12T16:06:56Z</time>
</trkpt>
<trkpt lat="48.78889457322657" lon="9.93460362777114">
<ele>470</ele>
<time>2024-05-12T16:07:00Z</time>
</trkpt>
<trkpt lat="48.78889457322657" lon="9.93460463359952">
<ele>470</ele>
<time>2024-05-12T16:07:02Z</time>
</trkpt>
<trkpt lat="48.78889842890203" lon="9.93460463359952">
<ele>470</ele>
<time>2024-05-12T16:07:03Z</time>
</trkpt>
<trkpt lat="48.78889842890203" lon="9.934606477618216">
<ele>470</ele>
<time>2024-05-12T16:07:04Z</time>
</trkpt>
<trkpt lat="48.78889842890203" lon="9.934608405455949">
<ele>470</ele>
<time>2024-05-12T16:07:06Z</time>
</trkpt>
<trkpt lat="48.78889842890203" lon="9.934610333293676">
<ele>470</ele>
<time>2024-05-12T16:07:08Z</time>
</trkpt>
<trkpt lat="48.78889842890203" lon="9.934611255303023">
<ele>470</ele>
<time>2024-05-12T16:07:12Z</time>
</trkpt>
<trkpt lat="48.78889457322657" lon="9.934611255303023">
<ele>470</ele>
<time>2024-05-12T16:07:14Z</time>
</trkpt>
<trkpt lat="48.78889457322657" lon="9.934613183140756">
<ele>470</ele>
<time>2024-05-12T16:07:26Z</time>
</trkpt>
<trkpt lat="48.78889457322657" lon="9.934615110978484">
<ele>470</ele>
<time>2024-05-12T16:07:29Z</time>
</trkpt>
<trkpt lat="48.78889457322657" lon="9.934617038816214">
<ele>470</ele>
<time>2024-05-12T16:07:32Z</time>
</trkpt>
<trkpt lat="48.78889457322657" lon="9.934615110978484">
<ele>470</ele>
<time>2024-05-12T16:07:42Z</time>
</trkpt>
<trkpt lat="48.78889842890203" lon="9.934615110978484">
<ele>470</ele>
<time>2024-05-12T16:07:49Z</time>
</trkpt>
<trkpt lat="48.78889842890203" lon="9.934613183140756">
<ele>470</ele>
<time>2024-05-12T16:07:52Z</time>
</trkpt>
<trkpt lat="48.78889842890203" lon="9.934611255303023">
<ele>470</ele>
<time>2024-05-12T16:07:57Z</time>
</trkpt>
<trkpt lat="48.78889842890203" lon="9.934610333293676">
<ele>470</ele>
<time>2024-05-12T16:08:00Z</time>
</trkpt>
<trkpt lat="48.78889842890203" lon="9.934608405455949">
<ele>470</ele>
<time>2024-05-12T16:08:01Z</time>
</trkpt>
<trkpt lat="48.78889842890203" lon="9.934606477618216">
<ele>470</ele>
<time>2024-05-12T16:08:03Z</time>
</trkpt>
<trkpt lat="48.78889842890203" lon="9.93460463359952">
<ele>470</ele>
<time>2024-05-12T16:08:05Z</time>
</trkpt>
<trkpt lat="48.78889842890203" lon="9.93460362777114">
<ele>470</ele>
<time>2024-05-12T16:08:07Z</time>
</trkpt>
<trkpt lat="48.78889842890203" lon="9.93460178375244">
<ele>470</ele>
<time>2024-05-12T16:08:10Z</time>
</trkpt>
<trkpt lat="48.78889842890203" lon="9.934599855914712">
<ele>470</ele>
<time>2024-05-12T16:08:12Z</time>
</trkpt>
<trkpt lat="48.78889842890203" lon="9.934597928076982">
<ele>470</ele>
<time>2024-05-12T16:08:15Z</time>
</trkpt>
<trkpt lat="48.78890220075846" lon="9.934597928076982">
<ele>470</ele>
<time>2024-05-12T16:08:17Z</time>
</trkpt>
<trkpt lat="48.78890220075846" lon="9.934597006067634">
<ele>470</ele>
<time>2024-05-12T16:08:22Z</time>
</trkpt>
<trkpt lat="48.78890220075846" lon="9.934595078229904">
<ele>470</ele>
<time>2024-05-12T16:08:27Z</time>
</trkpt>
<trkpt lat="48.78890220075846" lon="9.934593150392176">
<ele>470</ele>
<time>2024-05-12T16:08:32Z</time>
</trkpt>
<trkpt lat="48.78890220075846" lon="9.934591222554443">
<ele>470</ele>
<time>2024-05-12T16:08:35Z</time>
</trkpt>
<trkpt lat="48.78890220075846" lon="9.934590300545096">
<ele>470</ele>
<time>2024-05-12T16:08:38Z</time>
</trkpt>
<trkpt lat="48.78890220075846" lon="9.934588372707369">
<ele>470</ele>
<time>2024-05-12T16:08:41Z</time>
</trkpt>
<trkpt lat="48.78890220075846" lon="9.934586444869636">
<ele>470</ele>
<time>2024-05-12T16:08:44Z</time>
</trkpt>
<trkpt lat="48.78890605643392" lon="9.934586444869636">
<ele>470</ele>
<time>2024-05-12T16:08:45Z</time>
</trkpt>
<trkpt lat="48.78890605643392" lon="9.93458460085094">
<ele>470</ele>
<time>2024-05-12T16:08:48Z</time>
</trkpt>
<trkpt lat="48.788909912109375" lon="9.93458460085094">
<ele>470</ele>
<time>2024-05-12T16:08:53Z</time>
</trkpt>
<trkpt lat="48.788909912109375" lon="9.934586444869636">
<ele>470</ele>
<time>2024-05-12T16:08:55Z</time>
</trkpt>
<trkpt lat="48.788909912109375" lon="9.934588372707369">
<ele>470</ele>
<time>2024-05-12T16:09:01Z</time>
</trkpt>
<trkpt lat="48.7889136839658" lon="9.934590300545096">
<ele>470</ele>
<time>2024-05-12T16:09:04Z</time>
</trkpt>
<trkpt lat="48.7889136839658" lon="9.934591222554443">
<ele>470</ele>
<time>2024-05-12T16:09:06Z</time>
</trkpt>
<trkpt lat="48.7889136839658" lon="9.934593150392176">
<ele>470</ele>
<time>2024-05-12T16:09:09Z</time>
</trkpt>
<trkpt lat="48.78891753964126" lon="9.934593150392176">
<ele>470</ele>
<time>2024-05-12T16:09:10Z</time>
</trkpt>
<trkpt lat="48.78891753964126" lon="9.934595078229904">
<ele>470</ele>
<time>2024-05-12T16:09:11Z</time>
</trkpt>
<trkpt lat="48.78892131149769" lon="9.934597006067634">
<ele>470</ele>
<time>2024-05-12T16:09:12Z</time>
</trkpt>
<trkpt lat="48.78892131149769" lon="9.934597928076982">
<ele>470</ele>
<time>2024-05-12T16:09:13Z</time>
</trkpt>
<trkpt lat="48.78892131149769" lon="9.93460178375244">
<ele>470</ele>
<time>2024-05-12T16:09:14Z</time>
</trkpt>
<trkpt lat="48.78892516717315" lon="9.93460362777114">
<ele>470</ele>
<time>2024-05-12T16:09:15Z</time>
</trkpt>
<trkpt lat="48.78892516717315" lon="9.93460463359952">
<ele>470</ele>
<time>2024-05-12T16:09:16Z</time>
</trkpt>
<trkpt lat="48.78892516717315" lon="9.934606477618216">
<ele>470</ele>
<time>2024-05-12T16:09:17Z</time>
</trkpt>
<trkpt lat="48.78892516717315" lon="9.934610333293676">
<ele>470</ele>
<time>2024-05-12T16:09:18Z</time>
</trkpt>
<trkpt lat="48.788928939029574" lon="9.934611255303023">
<ele>470</ele>
<time>2024-05-12T16:09:19Z</time>
</trkpt>
<trkpt lat="48.788928939029574" lon="9.934615110978484">
<ele>470</ele>
<time>2024-05-12T16:09:20Z</time>
</trkpt>
<trkpt lat="48.788928939029574" lon="9.934617038816214">
<ele>470</ele>
<time>2024-05-12T16:09:21Z</time>
</trkpt>
<trkpt lat="48.788928939029574" lon="9.934617960825562">
<ele>470</ele>
<time>2024-05-12T16:09:22Z</time>
</trkpt>
<trkpt lat="48.788928939029574" lon="9.934619888663292">
<ele>470</ele>
<time>2024-05-12T16:09:23Z</time>
</trkpt>
<trkpt lat="48.788928939029574" lon="9.93462173268199">
<ele>470</ele>
<time>2024-05-12T16:09:24Z</time>
</trkpt>
<trkpt lat="48.788928939029574" lon="9.93462366051972">
<ele>470</ele>
<time>2024-05-12T16:09:25Z</time>
</trkpt>
<trkpt lat="48.788928939029574" lon="9.934626510366796">
<ele>470</ele>
<time>2024-05-12T16:09:26Z</time>
</trkpt>
<trkpt lat="48.788928939029574" lon="9.934628438204529">
<ele>470</ele>
<time>2024-05-12T16:09:28Z</time>
</trkpt>
<trkpt lat="48.788928939029574" lon="9.934630366042256">
<ele>470</ele>
<time>2024-05-12T16:09:29Z</time>
</trkpt>
<trkpt lat="48.788928939029574" lon="9.934631288051603">
<ele>470</ele>
<time>2024-05-12T16:09:30Z</time>
</trkpt>
<trkpt lat="48.788928939029574" lon="9.934633215889336">
<ele>470</ele>
<time>2024-05-12T16:09:32Z</time>
</trkpt>
<trkpt lat="48.788928939029574" lon="9.934631288051603">
<ele>470</ele>
<time>2024-05-12T16:09:40Z</time>
</trkpt>
<trkpt lat="48.788928939029574" lon="9.934630366042256">
<ele>470</ele>
<time>2024-05-12T16:09:42Z</time>
</trkpt>
<trkpt lat="48.788928939029574" lon="9.934628438204529">
<ele>470</ele>
<time>2024-05-12T16:09:46Z</time>
</trkpt>
<trkpt lat="48.788928939029574" lon="9.934626510366796">
<ele>470</ele>
<time>2024-05-12T16:09:48Z</time>
</trkpt>
<trkpt lat="48.788928939029574" lon="9.9346246663481">
<ele>470</ele>
<time>2024-05-12T16:09:51Z</time>
</trkpt>
<trkpt lat="48.78893279470503" lon="9.93462366051972">
<ele>470</ele>
<time>2024-05-12T16:09:53Z</time>
</trkpt>
<trkpt lat="48.78893279470503" lon="9.93462173268199">
<ele>470</ele>
<time>2024-05-12T16:09:57Z</time>
</trkpt>
<trkpt lat="48.78893279470503" lon="9.93462366051972">
<ele>470</ele>
<time>2024-05-12T16:10:03Z</time>
</trkpt>
<trkpt lat="48.788928939029574" lon="9.93462366051972">
<ele>470</ele>
<time>2024-05-12T16:10:05Z</time>
</trkpt>
<trkpt lat="48.788928939029574" lon="9.93462173268199">
<ele>470</ele>
<time>2024-05-12T16:10:06Z</time>
</trkpt>
<trkpt lat="48.788928939029574" lon="9.934619888663292">
<ele>470</ele>
<time>2024-05-12T16:10:10Z</time>
</trkpt>
<trkpt lat="48.788928939029574" lon="9.934617960825562">
<ele>470</ele>
<time>2024-05-12T16:10:13Z</time>
</trkpt>
<trkpt lat="48.788928939029574" lon="9.934619888663292">
<ele>470</ele>
<time>2024-05-12T16:10:22Z</time>
</trkpt>
<trkpt lat="48.78892516717315" lon="9.934619888663292">
<ele>470</ele>
<time>2024-05-12T16:10:23Z</time>
</trkpt>
<trkpt lat="48.78892516717315" lon="9.934617960825562">
<ele>470</ele>
<time>2024-05-12T16:10:33Z</time>
</trkpt>
<trkpt lat="48.78892516717315" lon="9.934619888663292">
<ele>470</ele>
<time>2024-05-12T16:10:34Z</time>
</trkpt>
<trkpt lat="48.78892516717315" lon="9.934617960825562">
<ele>470</ele>
<time>2024-05-12T16:10:35Z</time>
</trkpt>
<trkpt lat="48.78892516717315" lon="9.934619888663292">
<ele>470</ele>
<time>2024-05-12T16:10:36Z</time>
</trkpt>
<trkpt lat="48.78892516717315" lon="9.93462173268199">
<ele>470</ele>
<time>2024-05-12T16:10:44Z</time>
</trkpt>
<trkpt lat="48.78892516717315" lon="9.934619888663292">
<ele>470</ele>
<time>2024-05-12T16:10:46Z</time>
</trkpt>
<trkpt lat="48.78892131149769" lon="9.934619888663292">
<ele>470</ele>
<time>2024-05-12T16:10:47Z</time>
</trkpt>
<trkpt lat="48.78892131149769" lon="9.934617960825562">
<ele>470</ele>
<time>2024-05-12T16:10:54Z</time>
</trkpt>
<trkpt lat="48.78892131149769" lon="9.934617038816214">
<ele>470</ele>
<time>2024-05-12T16:10:57Z</time>
</trkpt>
<trkpt lat="48.78892131149769" lon="9.934615110978484">
<ele>470</ele>
<time>2024-05-12T16:11:01Z</time>
</trkpt>
<trkpt lat="48.78891753964126" lon="9.934615110978484">
<ele>470</ele>
<time>2024-05-12T16:11:04Z</time>
</trkpt>
<trkpt lat="48.78891753964126" lon="9.934613183140756">
<ele>470</ele>
<time>2024-05-12T16:11:05Z</time>
</trkpt>
<trkpt lat="48.78891753964126" lon="9.934611255303023">
<ele>470</ele>
<time>2024-05-12T16:11:10Z</time>
</trkpt>
<trkpt lat="48.78891753964126" lon="9.934610333293676">
<ele>470</ele>
<time>2024-05-12T16:11:12Z</time>
</trkpt>
<trkpt lat="48.78891753964126" lon="9.934608405455949">
<ele>470</ele>
<time>2024-05-12T16:11:14Z</time>
</trkpt>
<trkpt lat="48.78891753964126" lon="9.934606477618216">
<ele>470</ele>
<time>2024-05-12T16:11:17Z</time>
</trkpt>
<trkpt lat="48.78891753964126" lon="9.93460463359952">
<ele>470</ele>
<time>2024-05-12T16:11:21Z</time>
</trkpt>
<trkpt lat="48.78891753964126" lon="9.934606477618216">
<ele>470</ele>
<time>2024-05-12T16:11:23Z</time>
</trkpt>
<trkpt lat="48.7889136839658" lon="9.934606477618216">
<ele>470</ele>
<time>2024-05-12T16:11:27Z</time>
</trkpt>
<trkpt lat="48.7889136839658" lon="9.934608405455949">
<ele>470</ele>
<time>2024-05-12T16:11:29Z</time>
</trkpt>
<trkpt lat="48.788909912109375" lon="9.934608405455949">
<ele>470</ele>
<time>2024-05-12T16:11:33Z</time>
</trkpt>
<trkpt lat="48.788909912109375" lon="9.934606477618216">
<ele>470</ele>
<time>2024-05-12T16:11:34Z</time>
</trkpt>
<trkpt lat="48.788909912109375" lon="9.934608405455949">
<ele>470</ele>
<time>2024-05-12T16:11:37Z</time>
</trkpt>
<trkpt lat="48.788909912109375" lon="9.934606477618216">
<ele>470</ele>
<time>2024-05-12T16:11:38Z</time>
</trkpt>
<trkpt lat="48.788909912109375" lon="9.934608405455949">
<ele>470</ele>
<time>2024-05-12T16:11:39Z</time>
</trkpt>
<trkpt lat="48.788909912109375" lon="9.934610333293676">
<ele>470</ele>
<time>2024-05-12T16:11:49Z</time>
</trkpt>
<trkpt lat="48.788909912109375" lon="9.934611255303023">
<ele>470</ele>
<time>2024-05-12T16:12:04Z</time>
</trkpt>
<trkpt lat="48.788909912109375" lon="9.934610333293676">
<ele>470</ele>
<time>2024-05-12T16:12:05Z</time>
</trkpt>
<trkpt lat="48.788909912109375" lon="9.934608405455949">
<ele>470</ele>
<time>2024-05-12T16:12:11Z</time>
</trkpt>
<trkpt lat="48.788909912109375" lon="9.934606477618216">
<ele>470</ele>
<time>2024-05-12T16:12:15Z</time>
</trkpt>
<trkpt lat="48.788909912109375" lon="9.93460463359952">
<ele>470</ele>
<time>2024-05-12T16:12:19Z</time>
</trkpt>
<trkpt lat="48.7889136839658" lon="9.93460463359952">
<ele>470</ele>
<time>2024-05-12T16:12:20Z</time>
</trkpt>
<trkpt lat="48.7889136839658" lon="9.93460362777114">
<ele>470</ele>
<time>2024-05-12T16:12:26Z</time>
</trkpt>
<trkpt lat="48.7889136839658" lon="9.93460178375244">
<ele>470</ele>
<time>2024-05-12T16:12:29Z</time>
</trkpt>
<trkpt lat="48.7889136839658" lon="9.934599855914712">
<ele>470</ele>
<time>2024-05-12T16:12:36Z</time>
</trkpt>
<trkpt lat="48.78891753964126" lon="9.934599855914712">
<ele>470</ele>
<time>2024-05-12T16:12:37Z</time>
</trkpt>
<trkpt lat="48.78891753964126" lon="9.93460178375244">
<ele>470</ele>
<time>2024-05-12T16:12:39Z</time>
</trkpt>
<trkpt lat="48.78891753964126" lon="9.934599855914712">
<ele>470</ele>
<time>2024-05-12T16:12:43Z</time>
</trkpt>
<trkpt lat="48.78891753964126" lon="9.93460178375244">
<ele>470</ele>
<time>2024-05-12T16:12:49Z</time>
</trkpt>
<trkpt lat="48.78891753964126" lon="9.93460362777114">
<ele>470</ele>
<time>2024-05-12T16:12:52Z</time>
</trkpt>
<trkpt lat="48.78891753964126" lon="9.93460463359952">
<ele>470</ele>
<time>2024-05-12T16:12:54Z</time>
</trkpt>
<trkpt lat="48.78892131149769" lon="9.93460463359952">
<ele>470</ele>
<time>2024-05-12T16:12:55Z</time>
</trkpt>
<trkpt lat="48.78892131149769" lon="9.934606477618216">
<ele>470</ele>
<time>2024-05-12T16:12:56Z</time>
</trkpt>
<trkpt lat="48.78892131149769" lon="9.934608405455949">
<ele>470</ele>
<time>2024-05-12T16:13:00Z</time>
</trkpt>
<trkpt lat="48.78892131149769" lon="9.934610333293676">
<ele>470</ele>
<time>2024-05-12T16:13:04Z</time>
</trkpt>
<trkpt lat="48.78892516717315" lon="9.934610333293676">
<ele>470</ele>
<time>2024-05-12T16:13:06Z</time>
</trkpt>
<trkpt lat="48.78892516717315" lon="9.934611255303023">
<ele>470</ele>
<time>2024-05-12T16:13:07Z</time>
</trkpt>
<trkpt lat="48.78892131149769" lon="9.934611255303023">
<ele>470</ele>
<time>2024-05-12T16:13:09Z</time>
</trkpt>
<trkpt lat="48.78892516717315" lon="9.934611255303023">
<ele>470</ele>
<time>2024-05-12T16:13:10Z</time>
</trkpt>
<trkpt lat="48.78892516717315" lon="9.934613183140756">
<ele>470</ele>
<time>2024-05-12T16:13:11Z</time>
</trkpt>
<trkpt lat="48.78892516717315" lon="9.934611255303023">
<ele>470</ele>
<time>2024-05-12T16:13:19Z</time>
</trkpt>
<trkpt lat="48.78892131149769" lon="9.934611255303023">
<ele>470</ele>
<time>2024-05-12T16:13:21Z</time>
</trkpt>
<trkpt lat="48.78892131149769" lon="9.934610333293676">
<ele>470</ele>
<time>2024-05-12T16:13:24Z</time>
</trkpt>
<trkpt lat="48.78892131149769" lon="9.934608405455949">
<ele>470</ele>
<time>2024-05-12T16:13:25Z</time>
</trkpt>
<trkpt lat="48.78892131149769" lon="9.934606477618216">
<ele>470</ele>
<time>2024-05-12T16:13:26Z</time>
</trkpt>
<trkpt lat="48.78892131149769" lon="9.93460463359952">
<ele>470</ele>
<time>2024-05-12T16:13:27Z</time>
</trkpt>
<trkpt lat="48.78892131149769" lon="9.93460362777114">
<ele>470</ele>
<time>2024-05-12T16:13:28Z</time>
</trkpt>
<trkpt lat="48.78892131149769" lon="9.93460178375244">
<ele>470</ele>
<time>2024-05-12T16:13:31Z</time>
</trkpt>
<trkpt lat="48.78891753964126" lon="9.93460178375244">
<ele>470</ele>
<time>2024-05-12T16:13:32Z</time>
</trkpt>
<trkpt lat="48.78891753964126" lon="9.934599855914712">
<ele>470</ele>
<time>2024-05-12T16:13:33Z</time>
</trkpt>
<trkpt lat="48.78891753964126" lon="9.934597928076982">
<ele>470</ele>
<time>2024-05-12T16:13:35Z</time>
</trkpt>
<trkpt lat="48.78891753964126" lon="9.934597006067634">
<ele>470</ele>
<time>2024-05-12T16:13:37Z</time>
</trkpt>
<trkpt lat="48.78891753964126" lon="9.934595078229904">
<ele>470</ele>
<time>2024-05-12T16:13:39Z</time>
</trkpt>
<trkpt lat="48.78891753964126" lon="9.934593150392176">
<ele>470</ele>
<time>2024-05-12T16:13:41Z</time>
</trkpt>
<trkpt lat="48.78891753964126" lon="9.934591222554443">
<ele>470</ele>
<time>2024-05-12T16:13:42Z</time>
</trkpt>
<trkpt lat="48.78891753964126" lon="9.934590300545096">
<ele>470</ele>
<time>2024-05-12T16:13:43Z</time>
</trkpt>
<trkpt lat="48.78891753964126" lon="9.934588372707369">
<ele>470</ele>
<time>2024-05-12T16:13:44Z</time>
</trkpt>
<trkpt lat="48.78891753964126" lon="9.934586444869636">
<ele>470</ele>
<time>2024-05-12T16:13:45Z</time>
</trkpt>
<trkpt lat="48.7889136839658" lon="9.934586444869636">
<ele>470</ele>
<time>2024-05-12T16:13:46Z</time>
</trkpt>
<trkpt lat="48.7889136839658" lon="9.93458460085094">
<ele>470</ele>
<time>2024-05-12T16:13:47Z</time>
</trkpt>
<trkpt lat="48.7889136839658" lon="9.93458359502256">
<ele>470</ele>
<time>2024-05-12T16:13:49Z</time>
</trkpt>
<trkpt lat="48.7889136839658" lon="9.93458175100386">
<ele>470</ele>
<time>2024-05-12T16:13:51Z</time>
</trkpt>
<trkpt lat="48.788909912109375" lon="9.934579823166132">
<ele>470</ele>
<time>2024-05-12T16:13:52Z</time>
</trkpt>
<trkpt lat="48.788909912109375" lon="9.934577895328404">
<ele>470</ele>
<time>2024-05-12T16:13:54Z</time>
</trkpt>
<trkpt lat="48.788909912109375" lon="9.934576973319054">
<ele>470</ele>
<time>2024-05-12T16:13:56Z</time>
</trkpt>
<trkpt lat="48.788909912109375" lon="9.934575045481324">
<ele>470</ele>
<time>2024-05-12T16:13:57Z</time>
</trkpt>
<trkpt lat="48.788909912109375" lon="9.934573117643597">
<ele>470</ele>
<time>2024-05-12T16:13:58Z</time>
</trkpt>
<trkpt lat="48.788909912109375" lon="9.934575045481324">
<ele>470</ele>
<time>2024-05-12T16:14:02Z</time>
</trkpt>
<trkpt lat="48.78890605643392" lon="9.934575045481324">
<ele>470</ele>
<time>2024-05-12T16:14:14Z</time>
</trkpt>
<trkpt lat="48.78890605643392" lon="9.934576973319054">
<ele>470</ele>
<time>2024-05-12T16:14:15Z</time>
</trkpt>
<trkpt lat="48.78890220075846" lon="9.934577895328404">
<ele>470</ele>
<time>2024-05-12T16:14:24Z</time>
</trkpt>
<trkpt lat="48.78890220075846" lon="9.934579823166132">
<ele>470</ele>
<time>2024-05-12T16:14:29Z</time>
</trkpt>
<trkpt lat="48.78890220075846" lon="9.93458175100386">
<ele>470</ele>
<time>2024-05-12T16:14:31Z</time>
</trkpt>
<trkpt lat="48.78890220075846" lon="9.93458359502256">
<ele>470</ele>
<time>2024-05-12T16:14:34Z</time>
</trkpt>
<trkpt lat="48.78890220075846" lon="9.93458460085094">
<ele>470</ele>
<time>2024-05-12T16:14:38Z</time>
</trkpt>
<trkpt lat="48.78890220075846" lon="9.934586444869636">
<ele>470</ele>
<time>2024-05-12T16:14:44Z</time>
</trkpt>
<trkpt lat="48.78889842890203" lon="9.934586444869636">
<ele>470</ele>
<time>2024-05-12T16:14:45Z</time>
</trkpt>
<trkpt lat="48.78889842890203" lon="9.934588372707369">
<ele>470</ele>
<time>2024-05-12T16:14:46Z</time>
</trkpt>
<trkpt lat="48.78889842890203" lon="9.934590300545096">
<ele>470</ele>
<time>2024-05-12T16:14:52Z</time>
</trkpt>
<trkpt lat="48.78889842890203" lon="9.934588372707369">
<ele>470</ele>
<time>2024-05-12T16:15:05Z</time>
</trkpt>
<trkpt lat="48.78889842890203" lon="9.934586444869636">
<ele>470</ele>
<time>2024-05-12T16:15:11Z</time>
</trkpt>
<trkpt lat="48.78889457322657" lon="9.934586444869636">
<ele>470</ele>
<time>2024-05-12T16:15:12Z</time>
</trkpt>
<trkpt lat="48.78889457322657" lon="9.93458460085094">
<ele>470</ele>
<time>2024-05-12T16:15:18Z</time>
</trkpt>
<trkpt lat="48.78889457322657" lon="9.93458359502256">
<ele>470</ele>
<time>2024-05-12T16:15:20Z</time>
</trkpt>
<trkpt lat="48.78889842890203" lon="9.93458359502256">
<ele>470</ele>
<time>2024-05-12T16:15:22Z</time>
</trkpt>
<trkpt lat="48.78889457322657" lon="9.93458359502256">
<ele>470</ele>
<time>2024-05-12T16:15:24Z</time>
</trkpt>
<trkpt lat="48.78889457322657" lon="9.93458175100386">
<ele>470</ele>
<time>2024-05-12T16:15:25Z</time>
</trkpt>
<trkpt lat="48.78889457322657" lon="9.93458359502256">
<ele>470</ele>
<time>2024-05-12T16:15:35Z</time>
</trkpt>
<trkpt lat="48.78889457322657" lon="9.93458460085094">
<ele>470</ele>
<time>2024-05-12T16:15:40Z</time>
</trkpt>
<trkpt lat="48.78889457322657" lon="9.934586444869636">
<ele>470</ele>
<time>2024-05-12T16:15:57Z</time>
</trkpt>
<trkpt lat="48.78889457322657" lon="9.934588372707369">
<ele>470</ele>
<time>2024-05-12T16:15:59Z</time>
</trkpt>
<trkpt lat="48.78889457322657" lon="9.934590300545096">
<ele>470</ele>
<time>2024-05-12T16:16:00Z</time>
</trkpt>
<trkpt lat="48.78889842890203" lon="9.934591222554443">
<ele>470</ele>
<time>2024-05-12T16:16:01Z</time>
</trkpt>
<trkpt lat="48.78889842890203" lon="9.934593150392176">
<ele>470</ele>
<time>2024-05-12T16:16:03Z</time>
</trkpt>
<trkpt lat="48.78889842890203" lon="9.934595078229904">
<ele>470</ele>
<time>2024-05-12T16:16:05Z</time>
</trkpt>
<trkpt lat="48.78889842890203" lon="9.934593150392176">
<ele>470</ele>
<time>2024-05-12T16:16:16Z</time>
</trkpt>
<trkpt lat="48.78890220075846" lon="9.934591222554443">
<ele>470</ele>
<time>2024-05-12T16:16:18Z</time>
</trkpt>
<trkpt lat="48.78890220075846" lon="9.934590300545096">
<ele>470</ele>
<time>2024-05-12T16:16:21Z</time>
</trkpt>
<trkpt lat="48.78890220075846" lon="9.934588372707369">
<ele>470</ele>
<time>2024-05-12T16:16:23Z</time>
</trkpt>
<trkpt lat="48.78890220075846" lon="9.934590300545096">
<ele>470</ele>
<time>2024-05-12T16:16:24Z</time>
</trkpt>
<trkpt lat="48.78890605643392" lon="9.934590300545096">
<ele>470</ele>
<time>2024-05-12T16:16:27Z</time>
</trkpt>
<trkpt lat="48.78890605643392" lon="9.934591222554443">
<ele>470</ele>
<time>2024-05-12T16:16:32Z</time>
</trkpt>
<trkpt lat="48.788909912109375" lon="9.934591222554443">
<ele>470</ele>
<time>2024-05-12T16:16:34Z</time>
</trkpt>
<trkpt lat="48.788909912109375" lon="9.934593150392176">
<ele>470</ele>
<time>2024-05-12T16:16:39Z</time>
</trkpt>
<trkpt lat="48.788909912109375" lon="9.934595078229904">
<ele>470</ele>
<time>2024-05-12T16:16:45Z</time>
</trkpt>
<trkpt lat="48.788909912109375" lon="9.934597006067634">
<ele>470</ele>
<time>2024-05-12T16:16:48Z</time>
</trkpt>
<trkpt lat="48.788909912109375" lon="9.934597928076982">
<ele>470</ele>
<time>2024-05-12T16:16:50Z</time>
</trkpt>
<trkpt lat="48.788909912109375" lon="9.934599855914712">
<ele>470</ele>
<time>2024-05-12T16:16:51Z</time>
</trkpt>
<trkpt lat="48.788909912109375" lon="9.93460178375244">
<ele>470</ele>
<time>2024-05-12T16:16:53Z</time>
</trkpt>
<trkpt lat="48.788909912109375" lon="9.93460362777114">
<ele>470</ele>
<time>2024-05-12T16:16:55Z</time>
</trkpt>
<trkpt lat="48.788909912109375" lon="9.93460463359952">
<ele>470</ele>
<time>2024-05-12T16:16:57Z</time>
</trkpt>
<trkpt lat="48.7889136839658" lon="9.93460463359952">
<ele>470</ele>
<time>2024-05-12T16:17:00Z</time>
</trkpt>
<trkpt lat="48.7889136839658" lon="9.934606477618216">
<ele>470</ele>
<time>2024-05-12T16:17:01Z</time>
</trkpt>
<trkpt lat="48.7889136839658" lon="9.93460463359952">
<ele>470</ele>
<time>2024-05-12T16:17:02Z</time>
</trkpt>
<trkpt lat="48.7889136839658" lon="9.934606477618216">
<ele>470</ele>
<time>2024-05-12T16:17:03Z</time>
</trkpt>
<trkpt lat="48.7889136839658" lon="9.934608405455949">
<ele>470</ele>
<time>2024-05-12T16:17:06Z</time>
</trkpt>
<trkpt lat="48.7889136839658" lon="9.934610333293676">
<ele>470</ele>
<time>2024-05-12T16:17:08Z</time>
</trkpt>
<trkpt lat="48.7889136839658" lon="9.934611255303023">
<ele>470</ele>
<time>2024-05-12T16:17:10Z</time>
</trkpt>
<trkpt lat="48.7889136839658" lon="9.934613183140756">
<ele>470</ele>
<time>2024-05-12T16:17:15Z</time>
</trkpt>
<trkpt lat="48.7889136839658" lon="9.934611255303023">
<ele>470</ele>
<time>2024-05-12T16:17:21Z</time>
</trkpt>
<trkpt lat="48.7889136839658" lon="9.934610333293676">
<ele>470</ele>
<time>2024-05-12T16:17:24Z</time>
</trkpt>
<trkpt lat="48.7889136839658" lon="9.934608405455949">
<ele>470</ele>
<time>2024-05-12T16:17:29Z</time>
</trkpt>
<trkpt lat="48.7889136839658" lon="9.934606477618216">
<ele>470</ele>
<time>2024-05-12T16:17:34Z</time>
</trkpt>
<trkpt lat="48.7889136839658" lon="9.93460463359952">
<ele>470</ele>
<time>2024-05-12T16:17:38Z</time>
</trkpt>
<trkpt lat="48.7889136839658" lon="9.93460362777114">
<ele>470</ele>
<time>2024-05-12T16:17:42Z</time>
</trkpt>
<trkpt lat="48.7889136839658" lon="9.93460178375244">
<ele>470</ele>
<time>2024-05-12T16:17:47Z</time>
</trkpt>
<trkpt lat="48.7889136839658" lon="9.934599855914712">
<ele>470</ele>
<time>2024-05-12T16:17:51Z</time>
</trkpt>
<trkpt lat="48.7889136839658" lon="9.934597928076982">
<ele>470</ele>
<time>2024-05-12T16:17:53Z</time>
</trkpt>
<trkpt lat="48.78891753964126" lon="9.934597928076982">
<ele>470</ele>
<time>2024-05-12T16:18:10Z</time>
</trkpt>
<trkpt lat="48.78891753964126" lon="9.934597006067634">
<ele>470</ele>
<time>2024-05-12T16:18:13Z</time>
</trkpt>
<trkpt lat="48.78891753964126" lon="9.934595078229904">
<ele>470</ele>
<time>2024-05-12T16:18:21Z</time>
</trkpt>
<trkpt lat="48.78891753964126" lon="9.934593150392176">
<ele>470</ele>
<time>2024-05-12T16:18:25Z</time>
</trkpt>
<trkpt lat="48.78891753964126" lon="9.934591222554443">
<ele>470</ele>
<time>2024-05-12T16:18:31Z</time>
</trkpt>
<trkpt lat="48.78891753964126" lon="9.934590300545096">
<ele>470</ele>
<time>2024-05-12T16:18:35Z</time>
</trkpt>
<trkpt lat="48.78891753964126" lon="9.934588372707369">
<ele>470</ele>
<time>2024-05-12T16:18:47Z</time>
</trkpt>
<trkpt lat="48.78891753964126" lon="9.934590300545096">
<ele>470</ele>
<time>2024-05-12T16:18:48Z</time>
</trkpt>
<trkpt lat="48.78891753964126" lon="9.934591222554443">
<ele>470</ele>
<time>2024-05-12T16:18:54Z</time>
</trkpt>
<trkpt lat="48.7889136839658" lon="9.934591222554443">
<ele>470</ele>
<time>2024-05-12T16:19:03Z</time>
</trkpt>
<trkpt lat="48.788909912109375" lon="9.934591222554443">
<ele>470</ele>
<time>2024-05-12T16:19:10Z</time>
</trkpt>
<trkpt lat="48.788909912109375" lon="9.934593150392176">
<ele>470</ele>
<time>2024-05-12T16:19:13Z</time>
</trkpt>
<trkpt lat="48.78890605643392" lon="9.934593150392176">
<ele>470</ele>
<time>2024-05-12T16:19:21Z</time>
</trkpt>
<trkpt lat="48.78890605643392" lon="9.934591222554443">
<ele>470</ele>
<time>2024-05-12T16:19:26Z</time>
</trkpt>
<trkpt lat="48.78890220075846" lon="9.934591222554443">
<ele>470</ele>
<time>2024-05-12T16:19:28Z</time>
</trkpt>
<trkpt lat="48.78890220075846" lon="9.934590300545096">
<ele>470</ele>
<time>2024-05-12T16:19:32Z</time>
</trkpt>
<trkpt lat="48.78889842890203" lon="9.934588372707369">
<ele>470</ele>
<time>2024-05-12T16:19:34Z</time>
</trkpt>
<trkpt lat="48.78889842890203" lon="9.934586444869636">
<ele>470</ele>
<time>2024-05-12T16:19:37Z</time>
</trkpt>
<trkpt lat="48.78889842890203" lon="9.93458460085094">
<ele>470</ele>
<time>2024-05-12T16:19:39Z</time>
</trkpt>
<trkpt lat="48.78889842890203" lon="9.93458359502256">
<ele>470</ele>
<time>2024-05-12T16:19:41Z</time>
</trkpt>
<trkpt lat="48.78889842890203" lon="9.93458175100386">
<ele>470</ele>
<time>2024-05-12T16:19:43Z</time>
</trkpt>
<trkpt lat="48.78889457322657" lon="9.93458175100386">
<ele>470</ele>
<time>2024-05-12T16:19:44Z</time>
</trkpt>
<trkpt lat="48.78889457322657" lon="9.934579823166132">
<ele>470</ele>
<time>2024-05-12T16:19:45Z</time>
</trkpt>
<trkpt lat="48.78889457322657" lon="9.934577895328404">
<ele>470</ele>
<time>2024-05-12T16:19:48Z</time>
</trkpt>
<trkpt lat="48.78889457322657" lon="9.934579823166132">
<ele>470</ele>
<time>2024-05-12T16:20:00Z</time>
</trkpt>
<trkpt lat="48.78889457322657" lon="9.93458175100386">
<ele>470</ele>
<time>2024-05-12T16:20:03Z</time>
</trkpt>
<trkpt lat="48.78889457322657" lon="9.93458359502256">
<ele>470</ele>
<time>2024-05-12T16:20:06Z</time>
</trkpt>
<trkpt lat="48.78889842890203" lon="9.93458359502256">
<ele>470</ele>
<time>2024-05-12T16:20:07Z</time>
</trkpt>
<trkpt lat="48.78889842890203" lon="9.93458175100386">
<ele>470</ele>
<time>2024-05-12T16:20:08Z</time>
</trkpt>
<trkpt lat="48.78889842890203" lon="9.93458359502256">
<ele>470</ele>
<time>2024-05-12T16:20:09Z</time>
</trkpt>
<trkpt lat="48.78890220075846" lon="9.93458359502256">
<ele>470</ele>
<time>2024-05-12T16:20:14Z</time>
</trkpt>
<trkpt lat="48.78890605643392" lon="9.93458359502256">
<ele>470</ele>
<time>2024-05-12T16:20:19Z</time>
</trkpt>
<trkpt lat="48.78890605643392" lon="9.93458460085094">
<ele>470</ele>
<time>2024-05-12T16:20:20Z</time>
</trkpt>
<trkpt lat="48.788909912109375" lon="9.93458359502256">
<ele>470</ele>
<time>2024-05-12T16:20:23Z</time>
</trkpt>
<trkpt lat="48.788909912109375" lon="9.93458175100386">
<ele>470</ele>
<time>2024-05-12T16:20:25Z</time>
</trkpt>
<trkpt lat="48.788909912109375" lon="9.93458359502256">
<ele>470</ele>
<time>2024-05-12T16:20:34Z</time>
</trkpt>
<trkpt lat="48.7889136839658" lon="9.93458359502256">
<ele>470</ele>
<time>2024-05-12T16:20:43Z</time>
</trkpt>
<trkpt lat="48.7889136839658" lon="9.93458460085094">
<ele>470</ele>
<time>2024-05-12T16:20:48Z</time>
</trkpt>
<trkpt lat="48.7889136839658" lon="9.934586444869636">
<ele>470</ele>
<time>2024-05-12T16:21:03Z</time>
</trkpt>
<trkpt lat="48.7889136839658" lon="9.934588372707369">
<ele>470</ele>
<time>2024-05-12T16:21:06Z</time>
</trkpt>
<trkpt lat="48.7889136839658" lon="9.934590300545096">
<ele>470</ele>
<time>2024-05-12T16:21:09Z</time>
</trkpt>
<trkpt lat="48.7889136839658" lon="9.934591222554443">
<ele>470</ele>
<time>2024-05-12T16:21:12Z</time>
</trkpt>
<trkpt lat="48.7889136839658" lon="9.934593150392176">
<ele>470</ele>
<time>2024-05-12T16:21:14Z</time>
</trkpt>
<trkpt lat="48.788909912109375" lon="9.934593150392176">
<ele>470</ele>
<time>2024-05-12T16:21:15Z</time>
</trkpt>
<trkpt lat="48.788909912109375" lon="9.934595078229904">
<ele>470</ele>
<time>2024-05-12T16:21:16Z</time>
</trkpt>
<trkpt lat="48.788909912109375" lon="9.934597006067634">
<ele>470</ele>
<time>2024-05-12T16:21:19Z</time>
</trkpt>
<trkpt lat="48.788909912109375" lon="9.934597928076982">
<ele>470</ele>
<time>2024-05-12T16:21:25Z</time>
</trkpt>
<trkpt lat="48.788909912109375" lon="9.934597006067634">
<ele>470</ele>
<time>2024-05-12T16:21:29Z</time>
</trkpt>
<trkpt lat="48.788909912109375" lon="9.934597928076982">
<ele>470</ele>
<time>2024-05-12T16:21:30Z</time>
</trkpt>
<trkpt lat="48.788909912109375" lon="9.934597006067634">
<ele>470</ele>
<time>2024-05-12T16:21:32Z</time>
</trkpt>
<trkpt lat="48.788909912109375" lon="9.934595078229904">
<ele>470</ele>
<time>2024-05-12T16:21:39Z</time>
</trkpt>
<trkpt lat="48.788909912109375" lon="9.934593150392176">
<ele>470</ele>
<time>2024-05-12T16:21:42Z</time>
</trkpt>
<trkpt lat="48.788909912109375" lon="9.934591222554443">
<ele>470</ele>
<time>2024-05-12T16:21:45Z</time>
</trkpt>
<trkpt lat="48.788909912109375" lon="9.934590300545096">
<ele>470</ele>
<time>2024-05-12T16:21:48Z</time>
</trkpt>
<trkpt lat="48.788909912109375" lon="9.934588372707369">
<ele>470</ele>
<time>2024-05-12T16:21:51Z</time>
</trkpt>
<trkpt lat="48.788909912109375" lon="9.934586444869636">
<ele>470</ele>
<time>2024-05-12T16:21:55Z</time>
</trkpt>
<trkpt lat="48.788909912109375" lon="9.93458460085094">
<ele>470</ele>
<time>2024-05-12T16:21:59Z</time>
</trkpt>
<trkpt lat="48.78890605643392" lon="9.93458460085094">
<ele>470</ele>
<time>2024-05-12T16:22:00Z</time>
</trkpt>
<trkpt lat="48.78890220075846" lon="9.93458460085094">
<ele>470</ele>
<time>2024-05-12T16:22:08Z</time>
</trkpt>
<trkpt lat="48.78890220075846" lon="9.934586444869636">
<ele>470</ele>
<time>2024-05-12T16:22:16Z</time>
</trkpt>
<trkpt lat="48.78889842890203" lon="9.934586444869636">
<ele>470</ele>
<time>2024-05-12T16:22:19Z</time>
</trkpt>
<trkpt lat="48.78889842890203" lon="9.934588372707369">
<ele>470</ele>
<time>2024-05-12T16:22:22Z</time>
</trkpt>
<trkpt lat="48.78889842890203" lon="9.934590300545096">
<ele>470</ele>
<time>2024-05-12T16:22:25Z</time>
</trkpt>
<trkpt lat="48.78889842890203" lon="9.934591222554443">
<ele>470</ele>
<time>2024-05-12T16:22:29Z</time>
</trkpt>
<trkpt lat="48.78889457322657" lon="9.934591222554443">
<ele>470</ele>
<time>2024-05-12T16:22:32Z</time>
</trkpt>
<trkpt lat="48.78889457322657" lon="9.934593150392176">
<ele>470</ele>
<time>2024-05-12T16:22:35Z</time>
</trkpt>
<trkpt lat="48.78889457322657" lon="9.934591222554443">
<ele>470</ele>
<time>2024-05-12T16:22:43Z</time>
</trkpt>
<trkpt lat="48.788890801370144" lon="9.934591222554443">
<ele>470</ele>
<time>2024-05-12T16:22:44Z</time>
</trkpt>
<trkpt lat="48.78889457322657" lon="9.934591222554443">
<ele>470</ele>
<time>2024-05-12T16:22:45Z</time>
</trkpt>
<trkpt lat="48.78889457322657" lon="9.934590300545096">
<ele>470</ele>
<time>2024-05-12T16:22:46Z</time>
</trkpt>
<trkpt lat="48.78889457322657" lon="9.934588372707369">
<ele>470</ele>
<time>2024-05-12T16:22:49Z</time>
</trkpt>
<trkpt lat="48.78889457322657" lon="9.934586444869636">
<ele>470</ele>
<time>2024-05-12T16:22:53Z</time>
</trkpt>
<trkpt lat="48.78889457322657" lon="9.934588372707369">
<ele>470</ele>
<time>2024-05-12T16:23:00Z</time>
</trkpt>
<trkpt lat="48.78889842890203" lon="9.934588372707369">
<ele>470</ele>
<time>2024-05-12T16:23:01Z</time>
</trkpt>
<trkpt lat="48.78889842890203" lon="9.934590300545096">
<ele>470</ele>
<time>2024-05-12T16:23:02Z</time>
</trkpt>
<trkpt lat="48.78889842890203" lon="9.934588372707369">
<ele>470</ele>
<time>2024-05-12T16:23:11Z</time>
</trkpt>
<trkpt lat="48.78890220075846" lon="9.934588372707369">
<ele>470</ele>
<time>2024-05-12T16:23:13Z</time>
</trkpt>
<trkpt lat="48.78890220075846" lon="9.934586444869636">
<ele>470</ele>
<time>2024-05-12T16:23:14Z</time>
</trkpt>
<trkpt lat="48.78890605643392" lon="9.93458460085094">
<ele>470</ele>
<time>2024-05-12T16:23:21Z</time>
</trkpt>
<trkpt lat="48.78890605643392" lon="9.93458359502256">
<ele>470</ele>
<time>2024-05-12T16:23:24Z</time>
</trkpt>
<trkpt lat="48.78890220075846" lon="9.93458359502256">
<ele>470</ele>
<time>2024-05-12T16:23:25Z</time>
</trkpt>
<trkpt lat="48.78890220075846" lon="9.93458175100386">
<ele>470</ele>
<time>2024-05-12T16:23:27Z</time>
</trkpt>
<trkpt lat="48.78890605643392" lon="9.93458175100386">
<ele>470</ele>
<time>2024-05-12T16:23:28Z</time>
</trkpt>
<trkpt lat="48.78890605643392" lon="9.934579823166132">
<ele>470</ele>
<time>2024-05-12T16:23:30Z</time>
</trkpt>
<trkpt lat="48.78890605643392" lon="9.934577895328404">
<ele>470</ele>
<time>2024-05-12T16:23:32Z</time>
</trkpt>
<trkpt lat="48.78890605643392" lon="9.934576973319054">
<ele>470</ele>
<time>2024-05-12T16:23:35Z</time>
</trkpt>
<trkpt lat="48.78890605643392" lon="9.934575045481324">
<ele>470</ele>
<time>2024-05-12T16:23:36Z</time>
</trkpt>
<trkpt lat="48.78890605643392" lon="9.934573117643597">
<ele>470</ele>
<time>2024-05-12T16:23:38Z</time>
</trkpt>
<trkpt lat="48.78890220075846" lon="9.934571189805864">
<ele>470</ele>
<time>2024-05-12T16:23:39Z</time>
</trkpt>
<trkpt lat="48.78890220075846" lon="9.934570267796516">
<ele>470</ele>
<time>2024-05-12T16:23:40Z</time>
</trkpt>
<trkpt lat="48.78890220075846" lon="9.934568339958789">
<ele>470</ele>
<time>2024-05-12T16:23:42Z</time>
</trkpt>
<trkpt lat="48.78890220075846" lon="9.93456649594009">
<ele>470</ele>
<time>2024-05-12T16:23:43Z</time>
</trkpt>
<trkpt lat="48.78890220075846" lon="9.93456456810236">
<ele>470</ele>
<time>2024-05-12T16:23:45Z</time>
</trkpt>
<trkpt lat="48.78890220075846" lon="9.93456356227398">
<ele>470</ele>
<time>2024-05-12T16:23:46Z</time>
</trkpt>
<trkpt lat="48.78889842890203" lon="9.93456356227398">
<ele>470</ele>
<time>2024-05-12T16:23:47Z</time>
</trkpt>
<trkpt lat="48.78890220075846" lon="9.93456171825528">
<ele>470</ele>
<time>2024-05-12T16:23:48Z</time>
</trkpt>
<trkpt lat="48.78889842890203" lon="9.93456171825528">
<ele>470</ele>
<time>2024-05-12T16:23:50Z</time>
</trkpt>
<trkpt lat="48.78889842890203" lon="9.934559790417552">
<ele>470</ele>
<time>2024-05-12T16:23:53Z</time>
</trkpt>
<trkpt lat="48.78889842890203" lon="9.934557862579824">
<ele>470</ele>
<time>2024-05-12T16:23:54Z</time>
</trkpt>
<trkpt lat="48.78889842890203" lon="9.934556940570474">
<ele>470</ele>
<time>2024-05-12T16:23:56Z</time>
</trkpt>
<trkpt lat="48.78889842890203" lon="9.934555012732744">
<ele>470</ele>
<time>2024-05-12T16:24:00Z</time>
</trkpt>
<trkpt lat="48.78889457322657" lon="9.934555012732744">
<ele>470</ele>
<time>2024-05-12T16:24:02Z</time>
</trkpt>
<trkpt lat="48.788890801370144" lon="9.934555012732744">
<ele>470</ele>
<time>2024-05-12T16:24:11Z</time>
</trkpt>
<trkpt lat="48.788890801370144" lon="9.934556940570474">
<ele>470</ele>
<time>2024-05-12T16:24:15Z</time>
</trkpt>
<trkpt lat="48.788890801370144" lon="9.934555012732744">
<ele>470</ele>
<time>2024-05-12T16:24:16Z</time>
</trkpt>
<trkpt lat="48.788886945694685" lon="9.934556940570474">
<ele>470</ele>
<time>2024-05-12T16:24:21Z</time>
</trkpt>
<trkpt lat="48.788890801370144" lon="9.934556940570474">
<ele>470</ele>
<time>2024-05-12T16:24:24Z</time>
</trkpt>
<trkpt lat="48.788886945694685" lon="9.934556940570474">
<ele>470</ele>
<time>2024-05-12T16:24:25Z</time>
</trkpt>
<trkpt lat="48.788886945694685" lon="9.934557862579824">
<ele>470</ele>
<time>2024-05-12T16:24:26Z</time>
</trkpt>
<trkpt lat="48.788890801370144" lon="9.934559790417552">
<ele>470</ele>
<time>2024-05-12T16:24:29Z</time>
</trkpt>
<trkpt lat="48.788890801370144" lon="9.93456171825528">
<ele>470</ele>
<time>2024-05-12T16:24:34Z</time>
</trkpt>
<trkpt lat="48.788890801370144" lon="9.93456356227398">
<ele>470</ele>
<time>2024-05-12T16:24:37Z</time>
</trkpt>
<trkpt lat="48.788886945694685" lon="9.93456356227398">
<ele>470</ele>
<time>2024-05-12T16:24:55Z</time>
</trkpt>
<trkpt lat="48.788886945694685" lon="9.93456171825528">
<ele>470</ele>
<time>2024-05-12T16:24:56Z</time>
</trkpt>
<trkpt lat="48.788886945694685" lon="9.93456356227398">
<ele>470</ele>
<time>2024-05-12T16:25:12Z</time>
</trkpt>
<trkpt lat="48.788886945694685" lon="9.93456456810236">
<ele>470</ele>
<time>2024-05-12T16:25:17Z</time>
</trkpt>
<trkpt lat="48.788886945694685" lon="9.93456356227398">
<ele>470</ele>
<time>2024-05-12T16:25:21Z</time>
</trkpt>
<trkpt lat="48.788886945694685" lon="9.93456171825528">
<ele>470</ele>
<time>2024-05-12T16:25:32Z</time>
</trkpt>
<trkpt lat="48.78888317383826" lon="9.93456171825528">
<ele>470</ele>
<time>2024-05-12T16:25:34Z</time>
</trkpt>
<trkpt lat="48.788886945694685" lon="9.934559790417552">
<ele>470</ele>
<time>2024-05-12T16:25:35Z</time>
</trkpt>
<trkpt lat="48.78888317383826" lon="9.934559790417552">
<ele>470</ele>
<time>2024-05-12T16:25:37Z</time>
</trkpt>
<trkpt lat="48.78888317383826" lon="9.934557862579824">
<ele>470</ele>
<time>2024-05-12T16:25:40Z</time>
</trkpt>
<trkpt lat="48.78888317383826" lon="9.934559790417552">
<ele>470</ele>
<time>2024-05-12T16:25:48Z</time>
</trkpt>
<trkpt lat="48.78888317383826" lon="9.93456171825528">
<ele>470</ele>
<time>2024-05-12T16:26:02Z</time>
</trkpt>
<trkpt lat="48.78888317383826" lon="9.93456356227398">
<ele>470</ele>
<time>2024-05-12T16:26:07Z</time>
</trkpt>
<trkpt lat="48.78888317383826" lon="9.93456171825528">
<ele>470</ele>
<time>2024-05-12T16:26:14Z</time>
</trkpt>
<trkpt lat="48.78888317383826" lon="9.93456356227398">
<ele>470</ele>
<time>2024-05-12T16:26:16Z</time>
</trkpt>
<trkpt lat="48.78888317383826" lon="9.93456456810236">
<ele>470</ele>
<time>2024-05-12T16:26:22Z</time>
</trkpt>
<trkpt lat="48.788886945694685" lon="9.93456649594009">
<ele>470</ele>
<time>2024-05-12T16:26:38Z</time>
</trkpt>
<trkpt lat="48.788886945694685" lon="9.934568339958789">
<ele>470</ele>
<time>2024-05-12T16:26:42Z</time>
</trkpt>
<trkpt lat="48.788886945694685" lon="9.934570267796516">
<ele>470</ele>
<time>2024-05-12T16:26:47Z</time>
</trkpt>
<trkpt lat="48.788886945694685" lon="9.934571189805864">
<ele>470</ele>
<time>2024-05-12T16:26:53Z</time>
</trkpt>
<trkpt lat="48.788886945694685" lon="9.934573117643597">
<ele>470</ele>
<time>2024-05-12T16:26:58Z</time>
</trkpt>
<trkpt lat="48.788890801370144" lon="9.934573117643597">
<ele>470</ele>
<time>2024-05-12T16:27:04Z</time>
</trkpt>
<trkpt lat="48.788890801370144" lon="9.934575045481324">
<ele>470</ele>
<time>2024-05-12T16:27:05Z</time>
</trkpt>
<trkpt lat="48.788890801370144" lon="9.934576973319054">
<ele>470</ele>
<time>2024-05-12T16:27:08Z</time>
</trkpt>
<trkpt lat="48.788890801370144" lon="9.934577895328404">
<ele>470</ele>
<time>2024-05-12T16:27:10Z</time>
</trkpt>
<trkpt lat="48.78889457322657" lon="9.934577895328404">
<ele>470</ele>
<time>2024-05-12T16:27:11Z</time>
</trkpt>
<trkpt lat="48.78889457322657" lon="9.934579823166132">
<ele>470</ele>
<time>2024-05-12T16:27:12Z</time>
</trkpt>
<trkpt lat="48.78889457322657" lon="9.93458175100386">
<ele>470</ele>
<time>2024-05-12T16:27:13Z</time>
</trkpt>
<trkpt lat="48.78889842890203" lon="9.93458359502256">
<ele>470</ele>
<time>2024-05-12T16:27:15Z</time>
</trkpt>
<trkpt lat="48.78889842890203" lon="9.93458460085094">
<ele>470</ele>
<time>2024-05-12T16:27:16Z</time>
</trkpt>
<trkpt lat="48.78889842890203" lon="9.934586444869636">
<ele>470</ele>
<time>2024-05-12T16:27:17Z</time>
</trkpt>
<trkpt lat="48.78889842890203" lon="9.934588372707369">
<ele>470</ele>
<time>2024-05-12T16:27:18Z</time>
</trkpt>
<trkpt lat="48.78889842890203" lon="9.934590300545096">
<ele>470</ele>
<time>2024-05-12T16:27:20Z</time>
</trkpt>
<trkpt lat="48.78890220075846" lon="9.934590300545096">
<ele>470</ele>
<time>2024-05-12T16:27:21Z</time>
</trkpt>
<trkpt lat="48.78890220075846" lon="9.934591222554443">
<ele>470</ele>
<time>2024-05-12T16:27:22Z</time>
</trkpt>
<trkpt lat="48.78890220075846" lon="9.934593150392176">
<ele>470</ele>
<time>2024-05-12T16:27:23Z</time>
</trkpt>
<trkpt lat="48.78890605643392" lon="9.934593150392176">
<ele>470</ele>
<time>2024-05-12T16:27:24Z</time>
</trkpt>
<trkpt lat="48.78890605643392" lon="9.934595078229904">
<ele>470</ele>
<time>2024-05-12T16:27:25Z</time>
</trkpt>
<trkpt lat="48.788909912109375" lon="9.934597006067634">
<ele>470</ele>
<time>2024-05-12T16:27:27Z</time>
</trkpt>
<trkpt lat="48.788909912109375" lon="9.934597928076982">
<ele>470</ele>
<time>2024-05-12T16:27:29Z</time>
</trkpt>
<trkpt lat="48.788909912109375" lon="9.934599855914712">
<ele>470</ele>
<time>2024-05-12T16:27:31Z</time>
</trkpt>
<trkpt lat="48.7889136839658" lon="9.934599855914712">
<ele>470</ele>
<time>2024-05-12T16:27:32Z</time>
</trkpt>
<trkpt lat="48.7889136839658" lon="9.93460178375244">
<ele>470</ele>
<time>2024-05-12T16:27:34Z</time>
</trkpt>
<trkpt lat="48.7889136839658" lon="9.93460362777114">
<ele>470</ele>
<time>2024-05-12T16:27:35Z</time>
</trkpt>
<trkpt lat="48.7889136839658" lon="9.93460463359952">
<ele>470</ele>
<time>2024-05-12T16:27:37Z</time>
</trkpt>
<trkpt lat="48.78891753964126" lon="9.93460463359952">
<ele>470</ele>
<time>2024-05-12T16:27:39Z</time>
</trkpt>
<trkpt lat="48.78891753964126" lon="9.934606477618216">
<ele>470</ele>
<time>2024-05-12T16:27:40Z</time>
</trkpt>
<trkpt lat="48.78892131149769" lon="9.93460463359952">
<ele>470</ele>
<time>2024-05-12T16:27:46Z</time>
</trkpt>
<trkpt lat="48.78892131149769" lon="9.93460362777114">
<ele>470</ele>
<time>2024-05-12T16:27:49Z</time>
</trkpt>
<trkpt lat="48.78892131149769" lon="9.93460178375244">
<ele>470</ele>
<time>2024-05-12T16:27:52Z</time>
</trkpt>
<trkpt lat="48.78892516717315" lon="9.93460178375244">
<ele>470</ele>
<time>2024-05-12T16:27:53Z</time>
</trkpt>
<trkpt lat="48.78892516717315" lon="9.934599855914712">
<ele>470</ele>
<time>2024-05-12T16:27:54Z</time>
</trkpt>
<trkpt lat="48.78892516717315" lon="9.934597928076982">
<ele>470</ele>
<time>2024-05-12T16:27:57Z</time>
</trkpt>
<trkpt lat="48.78892516717315" lon="9.934597006067634">
<ele>470</ele>
<time>2024-05-12T16:28:01Z</time>
</trkpt>
<trkpt lat="48.78892516717315" lon="9.934595078229904">
<ele>470</ele>
<time>2024-05-12T16:28:03Z</time>
</trkpt>
<trkpt lat="48.78892131149769" lon="9.934595078229904">
<ele>470</ele>
<time>2024-05-12T16:28:04Z</time>
</trkpt>
<trkpt lat="48.78892131149769" lon="9.934593150392176">
<ele>470</ele>
<time>2024-05-12T16:28:06Z</time>
</trkpt>
<trkpt lat="48.78892131149769" lon="9.934591222554443">
<ele>470</ele>
<time>2024-05-12T16:28:09Z</time>
</trkpt>
<trkpt lat="48.78892131149769" lon="9.934590300545096">
<ele>470</ele>
<time>2024-05-12T16:28:12Z</time>
</trkpt>
<trkpt lat="48.78892131149769" lon="9.934588372707369">
<ele>470</ele>
<time>2024-05-12T16:28:14Z</time>
</trkpt>
<trkpt lat="48.78891753964126" lon="9.934588372707369">
<ele>470</ele>
<time>2024-05-12T16:28:16Z</time>
</trkpt>
<trkpt lat="48.78891753964126" lon="9.934586444869636">
<ele>470</ele>
<time>2024-05-12T16:28:17Z</time>
</trkpt>
<trkpt lat="48.78891753964126" lon="9.93458460085094">
<ele>470</ele>
<time>2024-05-12T16:28:22Z</time>
</trkpt>
<trkpt lat="48.78891753964126" lon="9.93458359502256">
<ele>470</ele>
<time>2024-05-12T16:28:28Z</time>
</trkpt>
<trkpt lat="48.7889136839658" lon="9.93458359502256">
<ele>470</ele>
<time>2024-05-12T16:28:34Z</time>
</trkpt>
<trkpt lat="48.7889136839658" lon="9.93458175100386">
<ele>470</ele>
<time>2024-05-12T16:28:38Z</time>
</trkpt>
<trkpt lat="48.7889136839658" lon="9.934579823166132">
<ele>470</ele>
<time>2024-05-12T16:28:44Z</time>
</trkpt>
<trkpt lat="48.7889136839658" lon="9.934577895328404">
<ele>470</ele>
<time>2024-05-12T16:28:54Z</time>
</trkpt>
<trkpt lat="48.7889136839658" lon="9.934579823166132">
<ele>470</ele>
<time>2024-05-12T16:28:55Z</time>
</trkpt>
<trkpt lat="48.788909912109375" lon="9.934579823166132">
<ele>470</ele>
<time>2024-05-12T16:28:57Z</time>
</trkpt>
<trkpt lat="48.788909912109375" lon="9.934577895328404">
<ele>470</ele>
<time>2024-05-12T16:28:58Z</time>
</trkpt>
<trkpt lat="48.788909912109375" lon="9.934576973319054">
<ele>470</ele>
<time>2024-05-12T16:29:00Z</time>
</trkpt>
<trkpt lat="48.788909912109375" lon="9.934575045481324">
<ele>470</ele>
<time>2024-05-12T16:29:04Z</time>
</trkpt>
<trkpt lat="48.788909912109375" lon="9.934576973319054">
<ele>470</ele>
<time>2024-05-12T16:29:07Z</time>
</trkpt>
<trkpt lat="48.788909912109375" lon="9.934577895328404">
<ele>470</ele>
<time>2024-05-12T16:29:11Z</time>
</trkpt>
<trkpt lat="48.78890605643392" lon="9.934577895328404">
<ele>470</ele>
<time>2024-05-12T16:29:22Z</time>
</trkpt>
<trkpt lat="48.78890605643392" lon="9.934579823166132">
<ele>470</ele>
<time>2024-05-12T16:29:31Z</time>
</trkpt>
<trkpt lat="48.78890220075846" lon="9.934579823166132">
<ele>470</ele>
<time>2024-05-12T16:29:34Z</time>
</trkpt>
<trkpt lat="48.78890220075846" lon="9.93458175100386">
<ele>470</ele>
<time>2024-05-12T16:29:36Z</time>
</trkpt>
<trkpt lat="48.78890220075846" lon="9.93458359502256">
<ele>470</ele>
<time>2024-05-12T16:29:40Z</time>
</trkpt>
<trkpt lat="48.78890220075846" lon="9.93458460085094">
<ele>470</ele>
<time>2024-05-12T16:29:46Z</time>
</trkpt>
<trkpt lat="48.78890220075846" lon="9.934586444869636">
<ele>470</ele>
<time>2024-05-12T16:29:49Z</time>
</trkpt>
<trkpt lat="48.78890220075846" lon="9.934588372707369">
<ele>470</ele>
<time>2024-05-12T16:29:51Z</time>
</trkpt>
<trkpt lat="48.78890220075846" lon="9.934590300545096">
<ele>470</ele>
<time>2024-05-12T16:29:52Z</time>
</trkpt>
<trkpt lat="48.78889842890203" lon="9.934591222554443">
<ele>470</ele>
<time>2024-05-12T16:29:54Z</time>
</trkpt>
<trkpt lat="48.78889842890203" lon="9.934593150392176">
<ele>470</ele>
<time>2024-05-12T16:29:55Z</time>
</trkpt>
<trkpt lat="48.78889842890203" lon="9.934595078229904">
<ele>470</ele>
<time>2024-05-12T16:29:57Z</time>
</trkpt>
<trkpt lat="48.78890220075846" lon="9.934597006067634">
<ele>470</ele>
<time>2024-05-12T16:29:58Z</time>
</trkpt>
<trkpt lat="48.78890220075846" lon="9.934597928076982">
<ele>470</ele>
<time>2024-05-12T16:29:59Z</time>
</trkpt>
<trkpt lat="48.78890220075846" lon="9.934599855914712">
<ele>470</ele>
<time>2024-05-12T16:30:00Z</time>
</trkpt>
<trkpt lat="48.78890220075846" lon="9.93460178375244">
<ele>470</ele>
<time>2024-05-12T16:30:01Z</time>
</trkpt>
<trkpt lat="48.78890220075846" lon="9.93460362777114">
<ele>470</ele>
<time>2024-05-12T16:30:02Z</time>
</trkpt>
<trkpt lat="48.78890220075846" lon="9.93460463359952">
<ele>470</ele>
<time>2024-05-12T16:30:03Z</time>
</trkpt>
<trkpt lat="48.78890220075846" lon="9.934606477618216">
<ele>470</ele>
<time>2024-05-12T16:30:04Z</time>
</trkpt>
<trkpt lat="48.78890605643392" lon="9.934608405455949">
<ele>470</ele>
<time>2024-05-12T16:30:05Z</time>
</trkpt>
<trkpt lat="48.78890605643392" lon="9.934610333293676">
<ele>470</ele>
<time>2024-05-12T16:30:06Z</time>
</trkpt>
<trkpt lat="48.78890605643392" lon="9.934611255303023">
<ele>470</ele>
<time>2024-05-12T16:30:07Z</time>
</trkpt>
<trkpt lat="48.788909912109375" lon="9.934613183140756">
<ele>470</ele>
<time>2024-05-12T16:30:08Z</time>
</trkpt>
<trkpt lat="48.788909912109375" lon="9.934615110978484">
<ele>470</ele>
<time>2024-05-12T16:30:09Z</time>
</trkpt>
<trkpt lat="48.788909912109375" lon="9.934617038816214">
<ele>470</ele>
<time>2024-05-12T16:30:10Z</time>
</trkpt>
<trkpt lat="48.788909912109375" lon="9.934617960825562">
<ele>470</ele>
<time>2024-05-12T16:30:11Z</time>
</trkpt>
<trkpt lat="48.7889136839658" lon="9.934619888663292">
<ele>470</ele>
<time>2024-05-12T16:30:13Z</time>
</trkpt>
<trkpt lat="48.7889136839658" lon="9.93462173268199">
<ele>470</ele>
<time>2024-05-12T16:30:16Z</time>
</trkpt>
<trkpt lat="48.78891753964126" lon="9.93462173268199">
<ele>470</ele>
<time>2024-05-12T16:30:18Z</time>
</trkpt>
<trkpt lat="48.78891753964126" lon="9.93462366051972">
<ele>470</ele>
<time>2024-05-12T16:30:19Z</time>
</trkpt>
<trkpt lat="48.78891753964126" lon="9.9346246663481">
<ele>470</ele>
<time>2024-05-12T16:30:23Z</time>
</trkpt>
<trkpt lat="48.78892131149769" lon="9.9346246663481">
<ele>470</ele>
<time>2024-05-12T16:30:25Z</time>
</trkpt>
<trkpt lat="48.78892131149769" lon="9.934626510366796">
<ele>470</ele>
<time>2024-05-12T16:30:33Z</time>
</trkpt>
<trkpt lat="48.78892516717315" lon="9.934626510366796">
<ele>470</ele>
<time>2024-05-12T16:30:36Z</time>
</trkpt>
<trkpt lat="48.78892516717315" lon="9.9346246663481">
<ele>470</ele>
<time>2024-05-12T16:30:37Z</time>
</trkpt>
<trkpt lat="48.78892516717315" lon="9.934626510366796">
<ele>470</ele>
<time>2024-05-12T16:30:39Z</time>
</trkpt>
<trkpt lat="48.78892516717315" lon="9.934628438204529">
<ele>470</ele>
<time>2024-05-12T16:30:40Z</time>
</trkpt>
<trkpt lat="48.78892516717315" lon="9.934630366042256">
<ele>470</ele>
<time>2024-05-12T16:30:43Z</time>
</trkpt>
<trkpt lat="48.78892516717315" lon="9.934631288051603">
<ele>470</ele>
<time>2024-05-12T16:30:47Z</time>
</trkpt>
<trkpt lat="48.78892516717315" lon="9.934633215889336">
<ele>470</ele>
<time>2024-05-12T16:30:53Z</time>
</trkpt>
<trkpt lat="48.78892516717315" lon="9.934635143727064">
<ele>470</ele>
<time>2024-05-12T16:30:57Z</time>
</trkpt>
<trkpt lat="48.78892516717315" lon="9.934636987745762">
<ele>470</ele>
<time>2024-05-12T16:31:01Z</time>
</trkpt>
<trkpt lat="48.78892516717315" lon="9.934637993574142">
<ele>470</ele>
<time>2024-05-12T16:31:09Z</time>
</trkpt>
<trkpt lat="48.788928939029574" lon="9.934637993574142">
<ele>470</ele>
<time>2024-05-12T16:31:10Z</time>
</trkpt>
<trkpt lat="48.788928939029574" lon="9.934639921411872">
<ele>470</ele>
<time>2024-05-12T16:31:13Z</time>
</trkpt>
<trkpt lat="48.78893279470503" lon="9.934639921411872">
<ele>470</ele>
<time>2024-05-12T16:31:15Z</time>
</trkpt>
<trkpt lat="48.78893656656146" lon="9.93464176543057">
<ele>470</ele>
<time>2024-05-12T16:31:22Z</time>
</trkpt>
<trkpt lat="48.78893656656146" lon="9.9346436932683">
<ele>470</ele>
<time>2024-05-12T16:31:28Z</time>
</trkpt>
<trkpt lat="48.78893656656146" lon="9.93464176543057">
<ele>470</ele>
<time>2024-05-12T16:31:32Z</time>
</trkpt>
<trkpt lat="48.78893656656146" lon="9.934639921411872">
<ele>470</ele>
<time>2024-05-12T16:31:38Z</time>
</trkpt>
<trkpt lat="48.78893656656146" lon="9.934637993574142">
<ele>470</ele>
<time>2024-05-12T16:31:44Z</time>
</trkpt>
<trkpt lat="48.78893656656146" lon="9.934639921411872">
<ele>470</ele>
<time>2024-05-12T16:31:45Z</time>
</trkpt>
<trkpt lat="48.78893656656146" lon="9.934637993574142">
<ele>470</ele>
<time>2024-05-12T16:31:47Z</time>
</trkpt>
<trkpt lat="48.78893656656146" lon="9.934639921411872">
<ele>470</ele>
<time>2024-05-12T16:31:53Z</time>
</trkpt>
<trkpt lat="48.78893656656146" lon="9.934637993574142">
<ele>470</ele>
<time>2024-05-12T16:31:55Z</time>
</trkpt>
<trkpt lat="48.78893656656146" lon="9.934639921411872">
<ele>470</ele>
<time>2024-05-12T16:31:56Z</time>
</trkpt>
<trkpt lat="48.78893656656146" lon="9.934637993574142">
<ele>470</ele>
<time>2024-05-12T16:31:57Z</time>
</trkpt>
<trkpt lat="48.78893656656146" lon="9.934639921411872">
<ele>470</ele>
<time>2024-05-12T16:31:58Z</time>
</trkpt>
<trkpt lat="48.78893279470503" lon="9.934637993574142">
<ele>470</ele>
<time>2024-05-12T16:32:02Z</time>
</trkpt>
<trkpt lat="48.78893279470503" lon="9.934636987745762">
<ele>470</ele>
<time>2024-05-12T16:32:04Z</time>
</trkpt>
<trkpt lat="48.78893279470503" lon="9.934635143727064">
<ele>470</ele>
<time>2024-05-12T16:32:08Z</time>
</trkpt>
<trkpt lat="48.788928939029574" lon="9.934635143727064">
<ele>470</ele>
<time>2024-05-12T16:32:11Z</time>
</trkpt>
<trkpt lat="48.78892516717315" lon="9.934635143727064">
<ele>470</ele>
<time>2024-05-12T16:32:21Z</time>
</trkpt>
<trkpt lat="48.78892516717315" lon="9.934636987745762">
<ele>470</ele>
<time>2024-05-12T16:32:25Z</time>
</trkpt>
<trkpt lat="48.788928939029574" lon="9.934636987745762">
<ele>470</ele>
<time>2024-05-12T16:32:27Z</time>
</trkpt>
<trkpt lat="48.78892516717315" lon="9.934636987745762">
<ele>470</ele>
<time>2024-05-12T16:32:28Z</time>
</trkpt>
<trkpt lat="48.78892516717315" lon="9.934637993574142">
<ele>470</ele>
<time>2024-05-12T16:32:29Z</time>
</trkpt>
<trkpt lat="48.788928939029574" lon="9.934636987745762">
<ele>470</ele>
<time>2024-05-12T16:32:30Z</time>
</trkpt>
<trkpt lat="48.788928939029574" lon="9.934637993574142">
<ele>470</ele>
<time>2024-05-12T16:32:31Z</time>
</trkpt>
<trkpt lat="48.788928939029574" lon="9.934636987745762">
<ele>470</ele>
<time>2024-05-12T16:32:36Z</time>
</trkpt>
<trkpt lat="48.78892516717315" lon="9.934636987745762">
<ele>470</ele>
<time>2024-05-12T16:32:42Z</time>
</trkpt>
<trkpt lat="48.788928939029574" lon="9.934636987745762">
<ele>470</ele>
<time>2024-05-12T16:32:47Z</time>
</trkpt>
<trkpt lat="48.788928939029574" lon="9.934635143727064">
<ele>470</ele>
<time>2024-05-12T16:32:51Z</time>
</trkpt>
<trkpt lat="48.788928939029574" lon="9.934633215889336">
<ele>470</ele>
<time>2024-05-12T16:32:53Z</time>
</trkpt>
<trkpt lat="48.788928939029574" lon="9.934631288051603">
<ele>470</ele>
<time>2024-05-12T16:32:57Z</time>
</trkpt>
<trkpt lat="48.788928939029574" lon="9.934630366042256">
<ele>470</ele>
<time>2024-05-12T16:32:59Z</time>
</trkpt>
<trkpt lat="48.78893279470503" lon="9.934630366042256">
<ele>470</ele>
<time>2024-05-12T16:33:01Z</time>
</trkpt>
<trkpt lat="48.78893279470503" lon="9.934628438204529">
<ele>470</ele>
<time>2024-05-12T16:33:04Z</time>
</trkpt>
<trkpt lat="48.78893279470503" lon="9.934626510366796">
<ele>470</ele>
<time>2024-05-12T16:33:11Z</time>
</trkpt>
<trkpt lat="48.78893279470503" lon="9.934628438204529">
<ele>470</ele>
<time>2024-05-12T16:33:14Z</time>
</trkpt>
<trkpt lat="48.78893279470503" lon="9.934626510366796">
<ele>470</ele>
<time>2024-05-12T16:33:15Z</time>
</trkpt>
<trkpt lat="48.78893279470503" lon="9.934628438204529">
<ele>470</ele>
<time>2024-05-12T16:33:16Z</time>
</trkpt>
<trkpt lat="48.78893656656146" lon="9.934630366042256">
<ele>470</ele>
<time>2024-05-12T16:33:24Z</time>
</trkpt>
<trkpt lat="48.78893656656146" lon="9.934631288051603">
<ele>470</ele>
<time>2024-05-12T16:33:26Z</time>
</trkpt>
<trkpt lat="48.78893656656146" lon="9.934633215889336">
<ele>470</ele>
<time>2024-05-12T16:33:28Z</time>
</trkpt>
<trkpt lat="48.78893656656146" lon="9.934635143727064">
<ele>470</ele>
<time>2024-05-12T16:33:31Z</time>
</trkpt>
<trkpt lat="48.78894042223692" lon="9.934635143727064">
<ele>470</ele>
<time>2024-05-12T16:33:32Z</time>
</trkpt>
<trkpt lat="48.78894042223692" lon="9.934636987745762">
<ele>470</ele>
<time>2024-05-12T16:33:36Z</time>
</trkpt>
<trkpt lat="48.78894419409335" lon="9.934636987745762">
<ele>470</ele>
<time>2024-05-12T16:33:38Z</time>
</trkpt>
<trkpt lat="48.78894419409335" lon="9.934637993574142">
<ele>470</ele>
<time>2024-05-12T16:33:41Z</time>
</trkpt>
<trkpt lat="48.788948049768806" lon="9.934637993574142">
<ele>470</ele>
<time>2024-05-12T16:33:45Z</time>
</trkpt>
<trkpt lat="48.788948049768806" lon="9.934635143727064">
<ele>470</ele>
<time>2024-05-12T16:33:46Z</time>
</trkpt>
<trkpt lat="48.78895182162523" lon="9.934631288051603">
<ele>470</ele>
<time>2024-05-12T16:33:47Z</time>
</trkpt>
<trkpt lat="48.78895182162523" lon="9.9346246663481">
<ele>470</ele>
<time>2024-05-12T16:33:48Z</time>
</trkpt>
<trkpt lat="48.788948049768806" lon="9.934619888663292">
<ele>470</ele>
<time>2024-05-12T16:33:49Z</time>
</trkpt>
<trkpt lat="48.78894419409335" lon="9.934617038816214">
<ele>470</ele>
<time>2024-05-12T16:33:50Z</time>
</trkpt>
<trkpt lat="48.788948049768806" lon="9.934615110978484">
<ele>470</ele>
<time>2024-05-12T16:33:51Z</time>
</trkpt>
<trkpt lat="48.788948049768806" lon="9.934608405455949">
<ele>470</ele>
<time>2024-05-12T16:33:53Z</time>
</trkpt>
<trkpt lat="48.78894419409335" lon="9.934608405455949">
<ele>470</ele>
<time>2024-05-12T16:33:54Z</time>
</trkpt>
<trkpt lat="48.78894419409335" lon="9.934606477618216">
<ele>470</ele>
<time>2024-05-12T16:33:55Z</time>
</trkpt>
<trkpt lat="48.78894042223692" lon="9.934606477618216">
<ele>470</ele>
<time>2024-05-12T16:33:58Z</time>
</trkpt>
<trkpt lat="48.78894042223692" lon="9.934608405455949">
<ele>470</ele>
<time>2024-05-12T16:34:01Z</time>
</trkpt>
<trkpt lat="48.78894042223692" lon="9.934610333293676">
<ele>470</ele>
<time>2024-05-12T16:34:03Z</time>
</trkpt>
<trkpt lat="48.78893656656146" lon="9.934611255303023">
<ele>470</ele>
<time>2024-05-12T16:34:04Z</time>
</trkpt>
<trkpt lat="48.78893656656146" lon="9.934613183140756">
<ele>470</ele>
<time>2024-05-12T16:34:08Z</time>
</trkpt>
<trkpt lat="48.78893656656146" lon="9.934615110978484">
<ele>470</ele>
<time>2024-05-12T16:34:11Z</time>
</trkpt>
<trkpt lat="48.78893279470503" lon="9.934615110978484">
<ele>470</ele>
<time>2024-05-12T16:34:12Z</time>
</trkpt>
<trkpt lat="48.78893279470503" lon="9.934617038816214">
<ele>470</ele>
<time>2024-05-12T16:34:14Z</time>
</trkpt>
<trkpt lat="48.788928939029574" lon="9.934617038816214">
<ele>470</ele>
<time>2024-05-12T16:34:18Z</time>
</trkpt>
<trkpt lat="48.78892516717315" lon="9.934617038816214">
<ele>470</ele>
<time>2024-05-12T16:34:26Z</time>
</trkpt>
<trkpt lat="48.78892516717315" lon="9.934615110978484">
<ele>470</ele>
<time>2024-05-12T16:34:34Z</time>
</trkpt>
<trkpt lat="48.78892131149769" lon="9.934615110978484">
<ele>470</ele>
<time>2024-05-12T16:34:37Z</time>
</trkpt>
<trkpt lat="48.78891753964126" lon="9.934615110978484">
<ele>470</ele>
<time>2024-05-12T16:34:41Z</time>
</trkpt>
<trkpt lat="48.78891753964126" lon="9.934617038816214">
<ele>470</ele>
<time>2024-05-12T16:34:44Z</time>
</trkpt>
<trkpt lat="48.78891753964126" lon="9.934617960825562">
<ele>470</ele>
<time>2024-05-12T16:34:46Z</time>
</trkpt>
<trkpt lat="48.7889136839658" lon="9.934619888663292">
<ele>470</ele>
<time>2024-05-12T16:34:48Z</time>
</trkpt>
<trkpt lat="48.78891753964126" lon="9.934619888663292">
<ele>470</ele>
<time>2024-05-12T16:34:49Z</time>
</trkpt>
<trkpt lat="48.78891753964126" lon="9.93462173268199">
<ele>470</ele>
<time>2024-05-12T16:34:50Z</time>
</trkpt>
<trkpt lat="48.7889136839658" lon="9.93462366051972">
<ele>470</ele>
<time>2024-05-12T16:34:51Z</time>
</trkpt>
<trkpt lat="48.7889136839658" lon="9.9346246663481">
<ele>470</ele>
<time>2024-05-12T16:34:55Z</time>
</trkpt>
<trkpt lat="48.788909912109375" lon="9.9346246663481">
<ele>470</ele>
<time>2024-05-12T16:35:01Z</time>
</trkpt>
<trkpt lat="48.788909912109375" lon="9.934626510366796">
<ele>470</ele>
<time>2024-05-12T16:35:05Z</time>
</trkpt>
<trkpt lat="48.788909912109375" lon="9.934628438204529">
<ele>470</ele>
<time>2024-05-12T16:35:07Z</time>
</trkpt>
<trkpt lat="48.788909912109375" lon="9.934630366042256">
<ele>470</ele>
<time>2024-05-12T16:35:09Z</time>
</trkpt>
<trkpt lat="48.788909912109375" lon="9.934631288051603">
<ele>470</ele>
<time>2024-05-12T16:35:10Z</time>
</trkpt>
<trkpt lat="48.78890605643392" lon="9.934633215889336">
<ele>470</ele>
<time>2024-05-12T16:35:12Z</time>
</trkpt>
<trkpt lat="48.78890605643392" lon="9.934635143727064">
<ele>470</ele>
<time>2024-05-12T16:35:15Z</time>
</trkpt>
<trkpt lat="48.78890605643392" lon="9.934636987745762">
<ele>470</ele>
<time>2024-05-12T16:35:19Z</time>
</trkpt>
<trkpt lat="48.78890605643392" lon="9.934637993574142">
<ele>470</ele>
<time>2024-05-12T16:35:30Z</time>
</trkpt>
<trkpt lat="48.78890605643392" lon="9.934636987745762">
<ele>470</ele>
<time>2024-05-12T16:35:31Z</time>
</trkpt>
<trkpt lat="48.78890605643392" lon="9.934637993574142">
<ele>470</ele>
<time>2024-05-12T16:35:32Z</time>
</trkpt>
<trkpt lat="48.78890605643392" lon="9.934636987745762">
<ele>470</ele>
<time>2024-05-12T16:35:33Z</time>
</trkpt>
<trkpt lat="48.78890605643392" lon="9.934637993574142">
<ele>470</ele>
<time>2024-05-12T16:35:34Z</time>
</trkpt>
<trkpt lat="48.78890220075846" lon="9.934637993574142">
<ele>470</ele>
<time>2024-05-12T16:35:36Z</time>
</trkpt>
<trkpt lat="48.78890220075846" lon="9.934639921411872">
<ele>470</ele>
<time>2024-05-12T16:35:44Z</time>
</trkpt>
<trkpt lat="48.78890220075846" lon="9.93464176543057">
<ele>470</ele>
<time>2024-05-12T16:35:52Z</time>
</trkpt>
<trkpt lat="48.78890605643392" lon="9.93464176543057">
<ele>470</ele>
<time>2024-05-12T16:35:57Z</time>
</trkpt>
<trkpt lat="48.78890220075846" lon="9.93464176543057">
<ele>470</ele>
<time>2024-05-12T16:35:58Z</time>
</trkpt>
<trkpt lat="48.78890220075846" lon="9.9346436932683">
<ele>470</ele>
<time>2024-05-12T16:36:01Z</time>
</trkpt>
<trkpt lat="48.78890220075846" lon="9.93464469909668">
<ele>470</ele>
<time>2024-05-12T16:36:04Z</time>
</trkpt>
<trkpt lat="48.78890220075846" lon="9.934646543115376">
<ele>470</ele>
<time>2024-05-12T16:36:07Z</time>
</trkpt>
<trkpt lat="48.78890220075846" lon="9.934648470953109">
<ele>470</ele>
<time>2024-05-12T16:36:10Z</time>
</trkpt>
<trkpt lat="48.78890220075846" lon="9.934650398790836">
<ele>470</ele>
<time>2024-05-12T16:36:12Z</time>
</trkpt>
<trkpt lat="48.78890220075846" lon="9.934651320800183">
<ele>470</ele>
<time>2024-05-12T16:36:15Z</time>
</trkpt>
<trkpt lat="48.78890220075846" lon="9.934653248637916">
<ele>470</ele>
<time>2024-05-12T16:36:19Z</time>
</trkpt>
<trkpt lat="48.78890220075846" lon="9.934655176475644">
<ele>470</ele>
<time>2024-05-12T16:36:21Z</time>
</trkpt>
<trkpt lat="48.78890220075846" lon="9.934657020494342">
<ele>470</ele>
<time>2024-05-12T16:36:31Z</time>
</trkpt>
<trkpt lat="48.78889842890203" lon="9.934657020494342">
<ele>470</ele>
<time>2024-05-12T16:36:32Z</time>
</trkpt>
<trkpt lat="48.78889842890203" lon="9.934655176475644">
<ele>470</ele>
<time>2024-05-12T16:36:36Z</time>
</trkpt>
<trkpt lat="48.78889842890203" lon="9.934657020494342">
<ele>470</ele>
<time>2024-05-12T16:36:37Z</time>
</trkpt>
<trkpt lat="48.78889457322657" lon="9.934657020494342">
<ele>470</ele>
<time>2024-05-12T16:36:41Z</time>
</trkpt>
<trkpt lat="48.78889457322657" lon="9.934655176475644">
<ele>470</ele>
<time>2024-05-12T16:36:43Z</time>
</trkpt>
<trkpt lat="48.78889457322657" lon="9.934657020494342">
<ele>470</ele>
<time>2024-05-12T16:36:44Z</time>
</trkpt>
<trkpt lat="48.78889457322657" lon="9.934658026322722">
<ele>470</ele>
<time>2024-05-12T16:36:48Z</time>
</trkpt>
<trkpt lat="48.78889457322657" lon="9.934659954160452">
<ele>470</ele>
<time>2024-05-12T16:36:51Z</time>
</trkpt>
<trkpt lat="48.78889842890203" lon="9.934659954160452">
<ele>470</ele>
<time>2024-05-12T16:36:59Z</time>
</trkpt>
<trkpt lat="48.78889842890203" lon="9.93466179817915">
<ele>470</ele>
<time>2024-05-12T16:37:03Z</time>
</trkpt>
<trkpt lat="48.78889842890203" lon="9.93466372601688">
<ele>470</ele>
<time>2024-05-12T16:37:06Z</time>
</trkpt>
<trkpt lat="48.78889842890203" lon="9.934664648026228">
<ele>470</ele>
<time>2024-05-12T16:37:09Z</time>
</trkpt>
<trkpt lat="48.78889457322657" lon="9.934664648026228">
<ele>470</ele>
<time>2024-05-12T16:37:11Z</time>
</trkpt>
<trkpt lat="48.78889457322657" lon="9.93466372601688">
<ele>470</ele>
<time>2024-05-12T16:37:15Z</time>
</trkpt>
<trkpt lat="48.78889457322657" lon="9.93466179817915">
<ele>470</ele>
<time>2024-05-12T16:37:18Z</time>
</trkpt>
<trkpt lat="48.788890801370144" lon="9.934659954160452">
<ele>470</ele>
<time>2024-05-12T16:37:34Z</time>
</trkpt>
<trkpt lat="48.788890801370144" lon="9.934658026322722">
<ele>470</ele>
<time>2024-05-12T16:37:36Z</time>
</trkpt>
<trkpt lat="48.788890801370144" lon="9.934659954160452">
<ele>470</ele>
<time>2024-05-12T16:37:40Z</time>
</trkpt>
<trkpt lat="48.788886945694685" lon="9.934658026322722">
<ele>470</ele>
<time>2024-05-12T16:37:41Z</time>
</trkpt>
<trkpt lat="48.788886945694685" lon="9.934659954160452">
<ele>470</ele>
<time>2024-05-12T16:37:44Z</time>
</trkpt>
<trkpt lat="48.788886945694685" lon="9.934658026322722">
<ele>470</ele>
<time>2024-05-12T16:37:48Z</time>
</trkpt>
<trkpt lat="48.78888317383826" lon="9.934658026322722">
<ele>470</ele>
<time>2024-05-12T16:37:49Z</time>
</trkpt>
<trkpt lat="48.78888317383826" lon="9.934657020494342">
<ele>470</ele>
<time>2024-05-12T16:37:52Z</time>
</trkpt>
<trkpt lat="48.78888317383826" lon="9.934655176475644">
<ele>470</ele>
<time>2024-05-12T16:37:53Z</time>
</trkpt>
<trkpt lat="48.78888317383826" lon="9.934653248637916">
<ele>470</ele>
<time>2024-05-12T16:37:58Z</time>
</trkpt>
<trkpt lat="48.78888317383826" lon="9.934655176475644">
<ele>470</ele>
<time>2024-05-12T16:37:59Z</time>
</trkpt>
<trkpt lat="48.78888317383826" lon="9.934653248637916">
<ele>470</ele>
<time>2024-05-12T16:38:00Z</time>
</trkpt>
<trkpt lat="48.7888793181628" lon="9.934655176475644">
<ele>470</ele>
<time>2024-05-12T16:38:08Z</time>
</trkpt>
<trkpt lat="48.7888793181628" lon="9.934657020494342">
<ele>470</ele>
<time>2024-05-12T16:38:12Z</time>
</trkpt>
<trkpt lat="48.7888793181628" lon="9.934658026322722">
<ele>470</ele>
<time>2024-05-12T16:38:17Z</time>
</trkpt>
<trkpt lat="48.78887554630637" lon="9.934658026322722">
<ele>470</ele>
<time>2024-05-12T16:38:31Z</time>
</trkpt>
<trkpt lat="48.78887554630637" lon="9.934657020494342">
<ele>470</ele>
<time>2024-05-12T16:38:33Z</time>
</trkpt>
<trkpt lat="48.78887169063091" lon="9.934657020494342">
<ele>470</ele>
<time>2024-05-12T16:38:42Z</time>
</trkpt>
<trkpt lat="48.78887169063091" lon="9.934655176475644">
<ele>470</ele>
<time>2024-05-12T16:38:43Z</time>
</trkpt>
<trkpt lat="48.78887169063091" lon="9.934657020494342">
<ele>470</ele>
<time>2024-05-12T16:38:49Z</time>
</trkpt>
<trkpt lat="48.78887554630637" lon="9.934657020494342">
<ele>470</ele>
<time>2024-05-12T16:38:53Z</time>
</trkpt>
<trkpt lat="48.78887554630637" lon="9.934658026322722">
<ele>470</ele>
<time>2024-05-12T16:38:55Z</time>
</trkpt>
<trkpt lat="48.78887554630637" lon="9.934657020494342">
<ele>470</ele>
<time>2024-05-12T16:38:56Z</time>
</trkpt>
<trkpt lat="48.78887554630637" lon="9.934658026322722">
<ele>470</ele>
<time>2024-05-12T16:38:57Z</time>
</trkpt>
<trkpt lat="48.78887554630637" lon="9.934659954160452">
<ele>470</ele>
<time>2024-05-12T16:39:01Z</time>
</trkpt>
<trkpt lat="48.7888793181628" lon="9.934659954160452">
<ele>470</ele>
<time>2024-05-12T16:39:02Z</time>
</trkpt>
<trkpt lat="48.7888793181628" lon="9.93466179817915">
<ele>470</ele>
<time>2024-05-12T16:39:03Z</time>
</trkpt>
<trkpt lat="48.7888793181628" lon="9.93466372601688">
<ele>470</ele>
<time>2024-05-12T16:39:07Z</time>
</trkpt>
<trkpt lat="48.7888793181628" lon="9.93466179817915">
<ele>470</ele>
<time>2024-05-12T16:39:09Z</time>
</trkpt>
<trkpt lat="48.7888793181628" lon="9.934659954160452">
<ele>470</ele>
<time>2024-05-12T16:39:20Z</time>
</trkpt>
<trkpt lat="48.7888793181628" lon="9.93466179817915">
<ele>470</ele>
<time>2024-05-12T16:39:22Z</time>
</trkpt>
<trkpt lat="48.7888793181628" lon="9.93466372601688">
<ele>470</ele>
<time>2024-05-12T16:39:23Z</time>
</trkpt>
<trkpt lat="48.7888793181628" lon="9.934664648026228">
<ele>470</ele>
<time>2024-05-12T16:39:25Z</time>
</trkpt>
<trkpt lat="48.7888793181628" lon="9.934666575863956">
<ele>470</ele>
<time>2024-05-12T16:39:26Z</time>
</trkpt>
<trkpt lat="48.7888793181628" lon="9.934668503701689">
<ele>470</ele>
<time>2024-05-12T16:39:28Z</time>
</trkpt>
<trkpt lat="48.7888793181628" lon="9.934669425711036">
<ele>470</ele>
<time>2024-05-12T16:39:29Z</time>
</trkpt>
<trkpt lat="48.7888793181628" lon="9.934671353548763">
<ele>470</ele>
<time>2024-05-12T16:39:32Z</time>
</trkpt>
<trkpt lat="48.7888793181628" lon="9.934673281386496">
<ele>470</ele>
<time>2024-05-12T16:39:37Z</time>
</trkpt>
<trkpt lat="48.78888317383826" lon="9.934673281386496">
<ele>470</ele>
<time>2024-05-12T16:39:39Z</time>
</trkpt>
<trkpt lat="48.7888793181628" lon="9.934675209224224">
<ele>470</ele>
<time>2024-05-12T16:39:41Z</time>
</trkpt>
<trkpt lat="48.7888793181628" lon="9.934673281386496">
<ele>470</ele>
<time>2024-05-12T16:39:42Z</time>
</trkpt>
<trkpt lat="48.78888317383826" lon="9.934673281386496">
<ele>470</ele>
<time>2024-05-12T16:39:46Z</time>
</trkpt>
<trkpt lat="48.78888317383826" lon="9.934671353548763">
<ele>470</ele>
<time>2024-05-12T16:39:47Z</time>
</trkpt>
<trkpt lat="48.78888317383826" lon="9.934673281386496">
<ele>470</ele>
<time>2024-05-12T16:39:48Z</time>
</trkpt>
<trkpt lat="48.78888317383826" lon="9.934675209224224">
<ele>470</ele>
<time>2024-05-12T16:39:55Z</time>
</trkpt>
<trkpt lat="48.78888317383826" lon="9.934673281386496">
<ele>470</ele>
<time>2024-05-12T16:40:06Z</time>
</trkpt>
<trkpt lat="48.78888317383826" lon="9.934675209224224">
<ele>470</ele>
<time>2024-05-12T16:40:07Z</time>
</trkpt>
<trkpt lat="48.78888317383826" lon="9.934677053242922">
<ele>470</ele>
<time>2024-05-12T16:40:17Z</time>
</trkpt>
<trkpt lat="48.788886945694685" lon="9.934678059071302">
<ele>470</ele>
<time>2024-05-12T16:40:21Z</time>
</trkpt>
<trkpt lat="48.788886945694685" lon="9.93467990309">
<ele>470</ele>
<time>2024-05-12T16:40:28Z</time>
</trkpt>
<trkpt lat="48.788890801370144" lon="9.93467990309">
<ele>470</ele>
<time>2024-05-12T16:40:31Z</time>
</trkpt>
<trkpt lat="48.788890801370144" lon="9.93468183092773">
<ele>470</ele>
<time>2024-05-12T16:40:36Z</time>
</trkpt>
<trkpt lat="48.788890801370144" lon="9.93468283675611">
<ele>470</ele>
<time>2024-05-12T16:40:40Z</time>
</trkpt>
<trkpt lat="48.788890801370144" lon="9.934684680774808">
<ele>470</ele>
<time>2024-05-12T16:40:42Z</time>
</trkpt>
<trkpt lat="48.788890801370144" lon="9.93468283675611">
<ele>470</ele>
<time>2024-05-12T16:40:48Z</time>
</trkpt>
<trkpt lat="48.788890801370144" lon="9.93468183092773">
<ele>470</ele>
<time>2024-05-12T16:40:51Z</time>
</trkpt>
<trkpt lat="48.788890801370144" lon="9.93467990309">
<ele>470</ele>
<time>2024-05-12T16:40:52Z</time>
</trkpt>
<trkpt lat="48.788886945694685" lon="9.93467990309">
<ele>470</ele>
<time>2024-05-12T16:40:53Z</time>
</trkpt>
<trkpt lat="48.78888317383826" lon="9.93468183092773">
<ele>470</ele>
<time>2024-05-12T16:40:54Z</time>
</trkpt>
<trkpt lat="48.78888317383826" lon="9.934677053242922">
<ele>470</ele>
<time>2024-05-12T16:40:55Z</time>
</trkpt>
<trkpt lat="48.78887169063091" lon="9.934671353548763">
<ele>470</ele>
<time>2024-05-12T16:40:56Z</time>
</trkpt>
<trkpt lat="48.78885643556714" lon="9.934664648026228">
<ele>470</ele>
<time>2024-05-12T16:40:57Z</time>
</trkpt>
<trkpt lat="48.78884118050337" lon="9.93466372601688">
<ele>470</ele>
<time>2024-05-12T16:40:58Z</time>
</trkpt>
<trkpt lat="48.78881452605128" lon="9.934664648026228">
<ele>470</ele>
<time>2024-05-12T16:40:59Z</time>
</trkpt>
<trkpt lat="48.788791643455625" lon="9.934664648026228">
<ele>470</ele>
<time>2024-05-12T16:41:00Z</time>
</trkpt>
<trkpt lat="48.78876490518451" lon="9.934666575863956">
<ele>470</ele>
<time>2024-05-12T16:41:01Z</time>
</trkpt>
<trkpt lat="48.78874587826431" lon="9.934668503701689">
<ele>470</ele>
<time>2024-05-12T16:41:02Z</time>
</trkpt>
<trkpt lat="48.78872676752508" lon="9.934671353548763">
<ele>470</ele>
<time>2024-05-12T16:41:03Z</time>
</trkpt>
<trkpt lat="48.78870388492942" lon="9.93468183092773">
<ele>470</ele>
<time>2024-05-12T16:41:04Z</time>
</trkpt>
<trkpt lat="48.78868477419019" lon="9.934693314135076">
<ele>470</ele>
<time>2024-05-12T16:41:05Z</time>
</trkpt>
<trkpt lat="48.78866574726999" lon="9.934704713523388">
<ele>470</ele>
<time>2024-05-12T16:41:06Z</time>
</trkpt>
<trkpt lat="48.78864663653076" lon="9.934718124568462">
<ele>470</ele>
<time>2024-05-12T16:41:07Z</time>
</trkpt>
<trkpt lat="48.78862760961056" lon="9.934735223650932">
<ele>470</ele>
<time>2024-05-12T16:41:08Z</time>
</trkpt>
<trkpt lat="48.788612354546785" lon="9.934755256399512">
<ele>470.2</ele>
<time>2024-05-12T16:41:09Z</time>
</trkpt>
<trkpt lat="48.788593243807554" lon="9.934775289148092">
<ele>470.2</ele>
<time>2024-05-12T16:41:10Z</time>
</trkpt>
<trkpt lat="48.788574216887355" lon="9.934791550040243">
<ele>470.2</ele>
<time>2024-05-12T16:41:11Z</time>
</trkpt>
<trkpt lat="48.788551250472665" lon="9.934813426807525">
<ele>470.4</ele>
<time>2024-05-12T16:41:12Z</time>
</trkpt>
<trkpt lat="48.78852836787701" lon="9.93483630940318">
<ele>470.4</ele>
<time>2024-05-12T16:41:13Z</time>
</trkpt>
<trkpt lat="48.78850934095681" lon="9.93486019782722">
<ele>470.4</ele>
<time>2024-05-12T16:41:14Z</time>
</trkpt>
<trkpt lat="48.788490230217576" lon="9.934883080422878">
<ele>470.6</ele>
<time>2024-05-12T16:41:15Z</time>
</trkpt>
<trkpt lat="48.78846734762192" lon="9.934909818693995">
<ele>470.6</ele>
<time>2024-05-12T16:41:16Z</time>
</trkpt>
<trkpt lat="48.78844069316983" lon="9.93493840098381">
<ele>470.6</ele>
<time>2024-05-12T16:41:17Z</time>
</trkpt>
<trkpt lat="48.78841018304229" lon="9.934966983273624">
<ele>470.6</ele>
<time>2024-05-12T16:41:18Z</time>
</trkpt>
<trkpt lat="48.78838344477117" lon="9.934993721544744">
<ele>470.6</ele>
<time>2024-05-12T16:41:19Z</time>
</trkpt>
<trkpt lat="48.78836056217551" lon="9.935021381825209">
<ele>470.6</ele>
<time>2024-05-12T16:41:20Z</time>
</trkpt>
<trkpt lat="48.788333823904395" lon="9.935051891952751">
<ele>470.6</ele>
<time>2024-05-12T16:41:21Z</time>
</trkpt>
<trkpt lat="48.78830331377685" lon="9.935081480070949">
<ele>470.8</ele>
<time>2024-05-12T16:41:22Z</time>
</trkpt>
<trkpt lat="48.788276659324765" lon="9.935111990198491">
<ele>470.8</ele>
<time>2024-05-12T16:41:23Z</time>
</trkpt>
<trkpt lat="48.78825377672911" lon="9.935143422335386">
<ele>471</ele>
<time>2024-05-12T16:41:24Z</time>
</trkpt>
<trkpt lat="48.78823089413345" lon="9.935173010453582">
<ele>471.2</ele>
<time>2024-05-12T16:41:25Z</time>
</trkpt>
<trkpt lat="48.78820415586233" lon="9.935201592743397">
<ele>471.2</ele>
<time>2024-05-12T16:41:26Z</time>
</trkpt>
<trkpt lat="48.78818127326667" lon="9.93523210287094">
<ele>471.4</ele>
<time>2024-05-12T16:41:27Z</time>
</trkpt>
<trkpt lat="48.788158390671015" lon="9.935259763151407">
<ele>471.6</ele>
<time>2024-05-12T16:41:28Z</time>
</trkpt>
<trkpt lat="48.7881316523999" lon="9.935288429260254">
<ele>471.6</ele>
<time>2024-05-12T16:41:29Z</time>
</trkpt>
<trkpt lat="48.7881126254797" lon="9.935317933559418">
<ele>471.8</ele>
<time>2024-05-12T16:41:30Z</time>
</trkpt>
<trkpt lat="48.78808974288404" lon="9.935346599668264">
<ele>471.8</ele>
<time>2024-05-12T16:41:31Z</time>
</trkpt>
<trkpt lat="48.78806686028838" lon="9.935381887480617">
<ele>472</ele>
<time>2024-05-12T16:41:32Z</time>
</trkpt>
<trkpt lat="48.78805160522461" lon="9.935420025140049">
<ele>472.2</ele>
<time>2024-05-12T16:41:33Z</time>
</trkpt>
<trkpt lat="48.78802863880992" lon="9.935458162799478">
<ele>472.4</ele>
<time>2024-05-12T16:41:34Z</time>
</trkpt>
<trkpt lat="48.78800961188972" lon="9.935495294630527">
<ele>472.4</ele>
<time>2024-05-12T16:41:35Z</time>
</trkpt>
<trkpt lat="48.78798672929406" lon="9.935535360127687">
<ele>472.6</ele>
<time>2024-05-12T16:41:36Z</time>
</trkpt>
<trkpt lat="48.787959991022944" lon="9.935573497787118">
<ele>472.6</ele>
<time>2024-05-12T16:41:37Z</time>
</trkpt>
<trkpt lat="48.787937108427286" lon="9.93561171926558">
<ele>472.8</ele>
<time>2024-05-12T16:41:38Z</time>
</trkpt>
<trkpt lat="48.78791422583163" lon="9.935651700943708">
<ele>472.8</ele>
<time>2024-05-12T16:41:39Z</time>
</trkpt>
<trkpt lat="48.78789134323597" lon="9.935698471963406">
<ele>472.8</ele>
<time>2024-05-12T16:41:40Z</time>
</trkpt>
<trkpt lat="48.78786846064031" lon="9.935741387307644">
<ele>473</ele>
<time>2024-05-12T16:41:41Z</time>
</trkpt>
<trkpt lat="48.78784557804465" lon="9.935786230489612">
<ele>473</ele>
<time>2024-05-12T16:41:42Z</time>
</trkpt>
<trkpt lat="48.787822695448995" lon="9.9358300678432">
<ele>473</ele>
<time>2024-05-12T16:41:43Z</time>
</trkpt>
<trkpt lat="48.787799812853336" lon="9.935872061178088">
<ele>473.2</ele>
<time>2024-05-12T16:41:44Z</time>
</trkpt>
<trkpt lat="48.78777693025768" lon="9.935913048684595">
<ele>473.4</ele>
<time>2024-05-12T16:41:45Z</time>
</trkpt>
<trkpt lat="48.78775404766202" lon="9.935955042019486">
<ele>473.2</ele>
<time>2024-05-12T16:41:46Z</time>
</trkpt>
<trkpt lat="48.78773493692279" lon="9.935996951535344">
<ele>473.2</ele>
<time>2024-05-12T16:41:47Z</time>
</trkpt>
<trkpt lat="48.7877082824707" lon="9.936030311509969">
<ele>473.4</ele>
<time>2024-05-12T16:41:48Z</time>
</trkpt>
<trkpt lat="48.78768531605601" lon="9.936068532988427">
<ele>473.4</ele>
<time>2024-05-12T16:41:49Z</time>
</trkpt>
<trkpt lat="48.787662433460355" lon="9.936111448332667">
<ele>473.4</ele>
<time>2024-05-12T16:41:50Z</time>
</trkpt>
<trkpt lat="48.787643406540155" lon="9.936155285686256">
<ele>473.6</ele>
<time>2024-05-12T16:41:51Z</time>
</trkpt>
<trkpt lat="48.78762815147638" lon="9.936200128868222">
<ele>473.6</ele>
<time>2024-05-12T16:41:52Z</time>
</trkpt>
<trkpt lat="48.78761289641261" lon="9.936244888231158">
<ele>473.6</ele>
<time>2024-05-12T16:41:53Z</time>
</trkpt>
<trkpt lat="48.78759378567338" lon="9.936289731413126">
<ele>473.8</ele>
<time>2024-05-12T16:41:54Z</time>
</trkpt>
<trkpt lat="48.78757475875318" lon="9.936333652585745">
<ele>473.8</ele>
<time>2024-05-12T16:41:55Z</time>
</trkpt>
<trkpt lat="48.78755187615752" lon="9.936376567929983">
<ele>474</ele>
<time>2024-05-12T16:41:56Z</time>
</trkpt>
<trkpt lat="48.78752890974283" lon="9.93641847744584">
<ele>474.2</ele>
<time>2024-05-12T16:41:57Z</time>
</trkpt>
<trkpt lat="48.78750988282263" lon="9.936456615105271">
<ele>474.6</ele>
<time>2024-05-12T16:41:58Z</time>
</trkpt>
<trkpt lat="48.787487000226974" lon="9.93649953044951">
<ele>474.8</ele>
<time>2024-05-12T16:41:59Z</time>
</trkpt>
<trkpt lat="48.78746788948774" lon="9.9365415237844">
<ele>475.2</ele>
<time>2024-05-12T16:42:00Z</time>
</trkpt>
<trkpt lat="48.787448862567544" lon="9.93658158928156">
<ele>475.4</ele>
<time>2024-05-12T16:42:01Z</time>
</trkpt>
<trkpt lat="48.78742975182831" lon="9.936623498797417">
<ele>475.6</ele>
<time>2024-05-12T16:42:02Z</time>
</trkpt>
<trkpt lat="48.78741072490811" lon="9.93666172027588">
<ele>475.8</ele>
<time>2024-05-12T16:42:03Z</time>
</trkpt>
<trkpt lat="48.78739161416888" lon="9.93669985793531">
<ele>476</ele>
<time>2024-05-12T16:42:04Z</time>
</trkpt>
<trkpt lat="48.787368731573224" lon="9.93673698976636">
<ele>476</ele>
<time>2024-05-12T16:42:05Z</time>
</trkpt>
<trkpt lat="48.787345848977566" lon="9.936773283407092">
<ele>476.2</ele>
<time>2024-05-12T16:42:06Z</time>
</trkpt>
<trkpt lat="48.787326738238335" lon="9.936808571219444">
<ele>476.4</ele>
<time>2024-05-12T16:42:07Z</time>
</trkpt>
<trkpt lat="48.78731148317456" lon="9.936842853203416">
<ele>476.6</ele>
<time>2024-05-12T16:42:08Z</time>
</trkpt>
<trkpt lat="48.78729245625436" lon="9.93687629699707">
<ele>477</ele>
<time>2024-05-12T16:42:09Z</time>
</trkpt>
<trkpt lat="48.787269573658705" lon="9.936908651143312">
<ele>477.4</ele>
<time>2024-05-12T16:42:10Z</time>
</trkpt>
<trkpt lat="48.78724669106305" lon="9.93693538941443">
<ele>477.8</ele>
<time>2024-05-12T16:42:11Z</time>
</trkpt>
<trkpt lat="48.78721995279193" lon="9.936958272010088">
<ele>478.2</ele>
<time>2024-05-12T16:42:12Z</time>
</trkpt>
<trkpt lat="48.78719329833984" lon="9.936983082443476">
<ele>478.6</ele>
<time>2024-05-12T16:42:13Z</time>
</trkpt>
<trkpt lat="48.78716656006873" lon="9.937006887048485">
<ele>478.8</ele>
<time>2024-05-12T16:42:14Z</time>
</trkpt>
<trkpt lat="48.78713982179761" lon="9.93702976964414">
<ele>479.2</ele>
<time>2024-05-12T16:42:15Z</time>
</trkpt>
<trkpt lat="48.78711693920195" lon="9.93705365806818">
<ele>479.4</ele>
<time>2024-05-12T16:42:16Z</time>
</trkpt>
<trkpt lat="48.787090284749866" lon="9.937076540663838">
<ele>479.6</ele>
<time>2024-05-12T16:42:17Z</time>
</trkpt>
<trkpt lat="48.78706740215421" lon="9.937100345268846">
<ele>479.8</ele>
<time>2024-05-12T16:42:18Z</time>
</trkpt>
<trkpt lat="48.78704066388309" lon="9.937118450179696">
<ele>480</ele>
<time>2024-05-12T16:42:19Z</time>
</trkpt>
<trkpt lat="48.78701778128743" lon="9.937139488756657">
<ele>480.2</ele>
<time>2024-05-12T16:42:20Z</time>
</trkpt>
<trkpt lat="48.786991043016315" lon="9.937158515676856">
<ele>480.6</ele>
<time>2024-05-12T16:42:21Z</time>
</trkpt>
<trkpt lat="48.786968160420656" lon="9.937176704406738">
<ele>480.8</ele>
<time>2024-05-12T16:42:22Z</time>
</trkpt>
<trkpt lat="48.78694150596857" lon="9.937194809317589">
<ele>481</ele>
<time>2024-05-12T16:42:23Z</time>
</trkpt>
<trkpt lat="48.78691476769745" lon="9.937208136543632">
<ele>481.2</ele>
<time>2024-05-12T16:42:24Z</time>
</trkpt>
<trkpt lat="48.786891885101795" lon="9.937219619750977">
<ele>481.4</ele>
<time>2024-05-12T16:42:25Z</time>
</trkpt>
<trkpt lat="48.78686900250614" lon="9.93723009712994">
<ele>481.6</ele>
<time>2024-05-12T16:42:26Z</time>
</trkpt>
<trkpt lat="48.78684611991048" lon="9.937236718833448">
<ele>481.8</ele>
<time>2024-05-12T16:42:27Z</time>
</trkpt>
<trkpt lat="48.78681938163936" lon="9.937246274203062">
<ele>482</ele>
<time>2024-05-12T16:42:28Z</time>
</trkpt>
<trkpt lat="48.78679272718728" lon="9.937254823744295">
<ele>482</ele>
<time>2024-05-12T16:42:29Z</time>
</trkpt>
<trkpt lat="48.78676598891616" lon="9.937266306951642">
<ele>482.2</ele>
<time>2024-05-12T16:42:30Z</time>
</trkpt>
<trkpt lat="48.78673933446407" lon="9.937276784330606">
<ele>482.6</ele>
<time>2024-05-12T16:42:31Z</time>
</trkpt>
<trkpt lat="48.786716451868415" lon="9.937286339700222">
<ele>482.8</ele>
<time>2024-05-12T16:42:32Z</time>
</trkpt>
<trkpt lat="48.7866897135973" lon="9.937294889241455">
<ele>483.2</ele>
<time>2024-05-12T16:42:33Z</time>
</trkpt>
<trkpt lat="48.78666297532618" lon="9.937303522601724">
<ele>483.6</ele>
<time>2024-05-12T16:42:34Z</time>
</trkpt>
<trkpt lat="48.786636320874095" lon="9.93731307797134">
<ele>483.8</ele>
<time>2024-05-12T16:42:35Z</time>
</trkpt>
<trkpt lat="48.786598183214664" lon="9.93731307797134">
<ele>484</ele>
<time>2024-05-12T16:42:36Z</time>
</trkpt>
<trkpt lat="48.78657144494355" lon="9.937324477359653">
<ele>484.2</ele>
<time>2024-05-12T16:42:37Z</time>
</trkpt>
<trkpt lat="48.78654856234789" lon="9.937343588098884">
<ele>484.4</ele>
<time>2024-05-12T16:42:38Z</time>
</trkpt>
<trkpt lat="48.78652953542769" lon="9.93737024255097">
<ele>484.8</ele>
<time>2024-05-12T16:42:39Z</time>
</trkpt>
<trkpt lat="48.78651042468846" lon="9.937401758506894">
<ele>485</ele>
<time>2024-05-12T16:42:40Z</time>
</trkpt>
<trkpt lat="48.78649894148111" lon="9.937437968328595">
<ele>485.2</ele>
<time>2024-05-12T16:42:41Z</time>
</trkpt>
<trkpt lat="48.786495169624686" lon="9.937475183978677">
<ele>485.4</ele>
<time>2024-05-12T16:42:42Z</time>
</trkpt>
<trkpt lat="48.786495169624686" lon="9.937515249475837">
<ele>485.8</ele>
<time>2024-05-12T16:42:43Z</time>
</trkpt>
<trkpt lat="48.78649131394923" lon="9.937551459297538">
<ele>486</ele>
<time>2024-05-12T16:42:44Z</time>
</trkpt>
<trkpt lat="48.78649131394923" lon="9.937591524794698">
<ele>486</ele>
<time>2024-05-12T16:42:45Z</time>
</trkpt>
<trkpt lat="48.7864875420928" lon="9.937631590291858">
<ele>486.4</ele>
<time>2024-05-12T16:42:46Z</time>
</trkpt>
<trkpt lat="48.7864875420928" lon="9.937675427645445">
<ele>486.6</ele>
<time>2024-05-12T16:42:47Z</time>
</trkpt>
<trkpt lat="48.78649131394923" lon="9.937720270827413">
<ele>486.8</ele>
<time>2024-05-12T16:42:48Z</time>
</trkpt>
<trkpt lat="48.786495169624686" lon="9.937766958028078">
<ele>487.2</ele>
<time>2024-05-12T16:42:49Z</time>
</trkpt>
<trkpt lat="48.786495169624686" lon="9.937814651057124">
<ele>487.4</ele>
<time>2024-05-12T16:42:50Z</time>
</trkpt>
<trkpt lat="48.786495169624686" lon="9.93786142207682">
<ele>487.6</ele>
<time>2024-05-12T16:42:51Z</time>
</trkpt>
<trkpt lat="48.78650279715657" lon="9.937906265258787">
<ele>487.8</ele>
<time>2024-05-12T16:42:52Z</time>
</trkpt>
<trkpt lat="48.78650665283203" lon="9.937952952459456">
<ele>488</ele>
<time>2024-05-12T16:42:53Z</time>
</trkpt>
<trkpt lat="48.78651042468846" lon="9.937999723479152">
<ele>488.2</ele>
<time>2024-05-12T16:42:54Z</time>
</trkpt>
<trkpt lat="48.786518052220345" lon="9.938050266355276">
<ele>488.4</ele>
<time>2024-05-12T16:42:55Z</time>
</trkpt>
<trkpt lat="48.7865219078958" lon="9.93809787556529">
<ele>488.6</ele>
<time>2024-05-12T16:42:56Z</time>
</trkpt>
<trkpt lat="48.78652567975223" lon="9.93814372457564">
<ele>488.8</ele>
<time>2024-05-12T16:42:57Z</time>
</trkpt>
<trkpt lat="48.78652953542769" lon="9.938193261623384">
<ele>489</ele>
<time>2024-05-12T16:42:58Z</time>
</trkpt>
<trkpt lat="48.78653330728412" lon="9.93824003264308">
<ele>489.2</ele>
<time>2024-05-12T16:42:59Z</time>
</trkpt>
<trkpt lat="48.786537162959576" lon="9.938289569690824">
<ele>489.4</ele>
<time>2024-05-12T16:43:00Z</time>
</trkpt>
<trkpt lat="48.78654479049146" lon="9.938342040404676">
<ele>489.4</ele>
<time>2024-05-12T16:43:01Z</time>
</trkpt>
<trkpt lat="48.78655241802335" lon="9.938393589109182">
<ele>489.6</ele>
<time>2024-05-12T16:43:02Z</time>
</trkpt>
<trkpt lat="48.78655241802335" lon="9.938446981832383">
<ele>489.6</ele>
<time>2024-05-12T16:43:03Z</time>
</trkpt>
<trkpt lat="48.78655241802335" lon="9.938503224402666">
<ele>489.6</ele>
<time>2024-05-12T16:43:04Z</time>
</trkpt>
<trkpt lat="48.78655241802335" lon="9.93855468928814">
<ele>489.8</ele>
<time>2024-05-12T16:43:05Z</time>
</trkpt>
<trkpt lat="48.786556189879775" lon="9.938606237992644">
<ele>489.8</ele>
<time>2024-05-12T16:43:06Z</time>
</trkpt>
<trkpt lat="48.786560045555234" lon="9.938659630715849">
<ele>490</ele>
<time>2024-05-12T16:43:07Z</time>
</trkpt>
<trkpt lat="48.78656381741166" lon="9.93871109560132">
<ele>490</ele>
<time>2024-05-12T16:43:08Z</time>
</trkpt>
<trkpt lat="48.78656767308712" lon="9.938763566315174">
<ele>490</ele>
<time>2024-05-12T16:43:09Z</time>
</trkpt>
<trkpt lat="48.78657144494355" lon="9.93881511501968">
<ele>490.2</ele>
<time>2024-05-12T16:43:10Z</time>
</trkpt>
<trkpt lat="48.78657144494355" lon="9.938866579905152">
<ele>490.2</ele>
<time>2024-05-12T16:43:11Z</time>
</trkpt>
<trkpt lat="48.786575300619006" lon="9.938917122781277">
<ele>490.4</ele>
<time>2024-05-12T16:43:12Z</time>
</trkpt>
<trkpt lat="48.78657907247543" lon="9.938966743648052">
<ele>490.6</ele>
<time>2024-05-12T16:43:13Z</time>
</trkpt>
<trkpt lat="48.78657907247543" lon="9.939018208533524">
<ele>490.6</ele>
<time>2024-05-12T16:43:14Z</time>
</trkpt>
<trkpt lat="48.78658292815089" lon="9.9390678294003">
<ele>490.8</ele>
<time>2024-05-12T16:43:15Z</time>
</trkpt>
<trkpt lat="48.78658292815089" lon="9.939120216295125">
<ele>491</ele>
<time>2024-05-12T16:43:16Z</time>
</trkpt>
<trkpt lat="48.78658670000732" lon="9.939171764999628">
<ele>491.2</ele>
<time>2024-05-12T16:43:17Z</time>
</trkpt>
<trkpt lat="48.78659055568278" lon="9.939221302047372">
<ele>491.2</ele>
<time>2024-05-12T16:43:18Z</time>
</trkpt>
<trkpt lat="48.786594327539206" lon="9.939273772761226">
<ele>491.4</ele>
<time>2024-05-12T16:43:19Z</time>
</trkpt>
<trkpt lat="48.78660195507109" lon="9.939323393628">
<ele>491.6</ele>
<time>2024-05-12T16:43:20Z</time>
</trkpt>
<trkpt lat="48.78660581074655" lon="9.939373014494777">
<ele>491.8</ele>
<time>2024-05-12T16:43:21Z</time>
</trkpt>
<trkpt lat="48.78660581074655" lon="9.93942447938025">
<ele>492</ele>
<time>2024-05-12T16:43:22Z</time>
</trkpt>
<trkpt lat="48.78660581074655" lon="9.939475022256374">
<ele>492.2</ele>
<time>2024-05-12T16:43:23Z</time>
</trkpt>
<trkpt lat="48.78660581074655" lon="9.93952464312315">
<ele>492.4</ele>
<time>2024-05-12T16:43:24Z</time>
</trkpt>
<trkpt lat="48.78660195507109" lon="9.939571330323815">
<ele>492.4</ele>
<time>2024-05-12T16:43:25Z</time>
</trkpt>
<trkpt lat="48.78660195507109" lon="9.939618101343513">
<ele>492.6</ele>
<time>2024-05-12T16:43:26Z</time>
</trkpt>
<trkpt lat="48.786598183214664" lon="9.939666716381907">
<ele>492.6</ele>
<time>2024-05-12T16:43:27Z</time>
</trkpt>
<trkpt lat="48.786598183214664" lon="9.939715331420302">
<ele>492.8</ele>
<time>2024-05-12T16:43:28Z</time>
</trkpt>
<trkpt lat="48.786598183214664" lon="9.939763024449348">
<ele>492.8</ele>
<time>2024-05-12T16:43:29Z</time>
</trkpt>
<trkpt lat="48.786594327539206" lon="9.939811639487743">
<ele>492.8</ele>
<time>2024-05-12T16:43:30Z</time>
</trkpt>
<trkpt lat="48.786594327539206" lon="9.939856482669711">
<ele>493</ele>
<time>2024-05-12T16:43:31Z</time>
</trkpt>
<trkpt lat="48.786594327539206" lon="9.939905097708106">
<ele>493</ele>
<time>2024-05-12T16:43:32Z</time>
</trkpt>
<trkpt lat="48.786594327539206" lon="9.939949940890074">
<ele>493.2</ele>
<time>2024-05-12T16:43:33Z</time>
</trkpt>
<trkpt lat="48.786594327539206" lon="9.939996711909773">
<ele>493.4</ele>
<time>2024-05-12T16:43:34Z</time>
</trkpt>
<trkpt lat="48.786594327539206" lon="9.940041471272709">
<ele>493.4</ele>
<time>2024-05-12T16:43:35Z</time>
</trkpt>
<trkpt lat="48.786594327539206" lon="9.940086314454676">
<ele>493.6</ele>
<time>2024-05-12T16:43:36Z</time>
</trkpt>
<trkpt lat="48.786594327539206" lon="9.940133085474372">
<ele>493.8</ele>
<time>2024-05-12T16:43:37Z</time>
</trkpt>
<trkpt lat="48.786594327539206" lon="9.940179772675036">
<ele>494</ele>
<time>2024-05-12T16:43:38Z</time>
</trkpt>
<trkpt lat="48.786594327539206" lon="9.940228387713432">
<ele>494.4</ele>
<time>2024-05-12T16:43:39Z</time>
</trkpt>
<trkpt lat="48.786594327539206" lon="9.9402732308954">
<ele>494.6</ele>
<time>2024-05-12T16:43:40Z</time>
</trkpt>
<trkpt lat="48.786594327539206" lon="9.94031715206802">
<ele>494.8</ele>
<time>2024-05-12T16:43:41Z</time>
</trkpt>
<trkpt lat="48.78659055568278" lon="9.940361911430957">
<ele>495</ele>
<time>2024-05-12T16:43:42Z</time>
</trkpt>
<trkpt lat="48.78658670000732" lon="9.940402982756495">
<ele>495.2</ele>
<time>2024-05-12T16:43:43Z</time>
</trkpt>
<trkpt lat="48.78658292815089" lon="9.94044966995716">
<ele>495.2</ele>
<time>2024-05-12T16:43:44Z</time>
</trkpt>
<trkpt lat="48.78658292815089" lon="9.940496440976858">
<ele>495.4</ele>
<time>2024-05-12T16:43:45Z</time>
</trkpt>
<trkpt lat="48.78658670000732" lon="9.940543128177524">
<ele>495.6</ele>
<time>2024-05-12T16:43:46Z</time>
</trkpt>
<trkpt lat="48.786594327539206" lon="9.94058696553111">
<ele>495.8</ele>
<time>2024-05-12T16:43:47Z</time>
</trkpt>
<trkpt lat="48.786598183214664" lon="9.940628036856651">
<ele>496</ele>
<time>2024-05-12T16:43:48Z</time>
</trkpt>
<trkpt lat="48.78660195507109" lon="9.940668102353811">
<ele>496.2</ele>
<time>2024-05-12T16:43:49Z</time>
</trkpt>
<trkpt lat="48.78660958260298" lon="9.94070808403194">
<ele>496.4</ele>
<time>2024-05-12T16:43:50Z</time>
</trkpt>
<trkpt lat="48.78661343827844" lon="9.9407481495291">
<ele>496.6</ele>
<time>2024-05-12T16:43:51Z</time>
</trkpt>
<trkpt lat="48.78662106581032" lon="9.94078821502626">
<ele>496.8</ele>
<time>2024-05-12T16:43:52Z</time>
</trkpt>
<trkpt lat="48.78662869334221" lon="9.94082828052342">
<ele>497</ele>
<time>2024-05-12T16:43:53Z</time>
</trkpt>
<trkpt lat="48.786636320874095" lon="9.94086641818285">
<ele>497</ele>
<time>2024-05-12T16:43:54Z</time>
</trkpt>
<trkpt lat="48.78664394840598" lon="9.94090648368001">
<ele>497.2</ele>
<time>2024-05-12T16:43:55Z</time>
</trkpt>
<trkpt lat="48.78665157593787" lon="9.940950321033595">
<ele>497.4</ele>
<time>2024-05-12T16:43:56Z</time>
</trkpt>
<trkpt lat="48.78666297532618" lon="9.940998014062645">
<ele>497.6</ele>
<time>2024-05-12T16:43:57Z</time>
</trkpt>
<trkpt lat="48.78667060285807" lon="9.941041935235262">
<ele>497.8</ele>
<time>2024-05-12T16:43:58Z</time>
</trkpt>
<trkpt lat="48.786674458533525" lon="9.941080072894692">
<ele>498.2</ele>
<time>2024-05-12T16:43:59Z</time>
</trkpt>
<trkpt lat="48.786678314208984" lon="9.941120138391852">
<ele>498.6</ele>
<time>2024-05-12T16:44:00Z</time>
</trkpt>
<trkpt lat="48.78668208606541" lon="9.94116204790771">
<ele>498.8</ele>
<time>2024-05-12T16:44:01Z</time>
</trkpt>
<trkpt lat="48.78668208606541" lon="9.94120303541422">
<ele>499.2</ele>
<time>2024-05-12T16:44:02Z</time>
</trkpt>
<trkpt lat="48.786678314208984" lon="9.941246956586838">
<ele>499.4</ele>
<time>2024-05-12T16:44:03Z</time>
</trkpt>
<trkpt lat="48.786678314208984" lon="9.941291799768806">
<ele>499.8</ele>
<time>2024-05-12T16:44:04Z</time>
</trkpt>
<trkpt lat="48.786678314208984" lon="9.941338486969473">
<ele>500</ele>
<time>2024-05-12T16:44:05Z</time>
</trkpt>
<trkpt lat="48.786678314208984" lon="9.941386179998515">
<ele>500.4</ele>
<time>2024-05-12T16:44:06Z</time>
</trkpt>
<trkpt lat="48.786674458533525" lon="9.941431945189834">
<ele>500.6</ele>
<time>2024-05-12T16:44:07Z</time>
</trkpt>
<trkpt lat="48.78666683100164" lon="9.94147871620953">
<ele>500.8</ele>
<time>2024-05-12T16:44:08Z</time>
</trkpt>
<trkpt lat="48.78665920346975" lon="9.941523475572469">
<ele>501.2</ele>
<time>2024-05-12T16:44:09Z</time>
</trkpt>
<trkpt lat="48.786655347794294" lon="9.941571168601511">
<ele>501.4</ele>
<time>2024-05-12T16:44:10Z</time>
</trkpt>
<trkpt lat="48.78665157593787" lon="9.94161986745894">
<ele>501.6</ele>
<time>2024-05-12T16:44:11Z</time>
</trkpt>
<trkpt lat="48.78665157593787" lon="9.941670410335064">
<ele>501.8</ele>
<time>2024-05-12T16:44:12Z</time>
</trkpt>
<trkpt lat="48.78664394840598" lon="9.941718019545078">
<ele>502</ele>
<time>2024-05-12T16:44:13Z</time>
</trkpt>
<trkpt lat="48.78664394840598" lon="9.941761940717695">
<ele>502.2</ele>
<time>2024-05-12T16:44:14Z</time>
</trkpt>
<trkpt lat="48.78664009273052" lon="9.941806783899665">
<ele>502.4</ele>
<time>2024-05-12T16:44:15Z</time>
</trkpt>
<trkpt lat="48.78664009273052" lon="9.941849699243903">
<ele>502.6</ele>
<time>2024-05-12T16:44:16Z</time>
</trkpt>
<trkpt lat="48.786636320874095" lon="9.941896386444569">
<ele>502.6</ele>
<time>2024-05-12T16:44:17Z</time>
</trkpt>
<trkpt lat="48.78663246519864" lon="9.941943157464266">
<ele>502.8</ele>
<time>2024-05-12T16:44:18Z</time>
</trkpt>
<trkpt lat="48.78662869334221" lon="9.941989844664931">
<ele>503</ele>
<time>2024-05-12T16:44:19Z</time>
</trkpt>
<trkpt lat="48.78662483766675" lon="9.942036615684628">
<ele>503.2</ele>
<time>2024-05-12T16:44:20Z</time>
</trkpt>
<trkpt lat="48.786617210134864" lon="9.942079531028869">
<ele>503.6</ele>
<time>2024-05-12T16:44:21Z</time>
</trkpt>
<trkpt lat="48.78660958260298" lon="9.942125296220183">
<ele>503.8</ele>
<time>2024-05-12T16:44:22Z</time>
</trkpt>
<trkpt lat="48.786598183214664" lon="9.942168211564422">
<ele>504.2</ele>
<time>2024-05-12T16:44:23Z</time>
</trkpt>
<trkpt lat="48.78659055568278" lon="9.942212048918009">
<ele>504.4</ele>
<time>2024-05-12T16:44:24Z</time>
</trkpt>
<trkpt lat="48.78658292815089" lon="9.942256892099977">
<ele>504.6</ele>
<time>2024-05-12T16:44:25Z</time>
</trkpt>
<trkpt lat="48.786575300619006" lon="9.942303579300642">
<ele>504.8</ele>
<time>2024-05-12T16:44:26Z</time>
</trkpt>
<trkpt lat="48.78656767308712" lon="9.94234649464488">
<ele>505</ele>
<time>2024-05-12T16:44:27Z</time>
</trkpt>
<trkpt lat="48.786556189879775" lon="9.942391337826848">
<ele>505.2</ele>
<time>2024-05-12T16:44:28Z</time>
</trkpt>
<trkpt lat="48.78654479049146" lon="9.942438108846543">
<ele>505.4</ele>
<time>2024-05-12T16:44:29Z</time>
</trkpt>
<trkpt lat="48.78653330728412" lon="9.942481946200132">
<ele>505.6</ele>
<time>2024-05-12T16:44:30Z</time>
</trkpt>
<trkpt lat="48.7865219078958" lon="9.94252486154437">
<ele>505.8</ele>
<time>2024-05-12T16:44:31Z</time>
</trkpt>
<trkpt lat="48.786518052220345" lon="9.942569704726338">
<ele>506</ele>
<time>2024-05-12T16:44:32Z</time>
</trkpt>
<trkpt lat="48.78650665283203" lon="9.942613542079926">
<ele>506</ele>
<time>2024-05-12T16:44:33Z</time>
</trkpt>
<trkpt lat="48.78649894148111" lon="9.942656457424164">
<ele>506.2</ele>
<time>2024-05-12T16:44:34Z</time>
</trkpt>
<trkpt lat="48.7864875420928" lon="9.942698450759051">
<ele>506.4</ele>
<time>2024-05-12T16:44:35Z</time>
</trkpt>
<trkpt lat="48.786476058885455" lon="9.942740360274913">
<ele>506.4</ele>
<time>2024-05-12T16:44:36Z</time>
</trkpt>
<trkpt lat="48.78646843135357" lon="9.942781431600451">
<ele>506.6</ele>
<time>2024-05-12T16:44:37Z</time>
</trkpt>
<trkpt lat="48.786457031965256" lon="9.94282526895404">
<ele>506.8</ele>
<time>2024-05-12T16:44:38Z</time>
</trkpt>
<trkpt lat="48.7864531762898" lon="9.942870112136006">
<ele>507</ele>
<time>2024-05-12T16:44:39Z</time>
</trkpt>
<trkpt lat="48.78644554875791" lon="9.942912021651864">
<ele>507.2</ele>
<time>2024-05-12T16:44:40Z</time>
</trkpt>
<trkpt lat="48.78644177690148" lon="9.942953092977405">
<ele>507.2</ele>
<time>2024-05-12T16:44:41Z</time>
</trkpt>
<trkpt lat="48.7864341493696" lon="9.94299785234034">
<ele>507.4</ele>
<time>2024-05-12T16:44:42Z</time>
</trkpt>
<trkpt lat="48.78642652183771" lon="9.94303984567523">
<ele>507.6</ele>
<time>2024-05-12T16:44:43Z</time>
</trkpt>
<trkpt lat="48.786418894305825" lon="9.94308183901012">
<ele>507.8</ele>
<time>2024-05-12T16:44:44Z</time>
</trkpt>
<trkpt lat="48.786415038630366" lon="9.94311997666955">
<ele>508</ele>
<time>2024-05-12T16:44:45Z</time>
</trkpt>
<trkpt lat="48.78641126677394" lon="9.943156186491253">
<ele>508.2</ele>
<time>2024-05-12T16:44:46Z</time>
</trkpt>
<trkpt lat="48.78640363924205" lon="9.943189546465874">
<ele>508.4</ele>
<time>2024-05-12T16:44:47Z</time>
</trkpt>
<trkpt lat="48.786399783566594" lon="9.943221984431148">
<ele>508.6</ele>
<time>2024-05-12T16:44:48Z</time>
</trkpt>
<trkpt lat="48.78639601171017" lon="9.94325534440577">
<ele>508.8</ele>
<time>2024-05-12T16:44:49Z</time>
</trkpt>
<trkpt lat="48.78639601171017" lon="9.943291638046505">
<ele>509</ele>
<time>2024-05-12T16:44:50Z</time>
</trkpt>
<trkpt lat="48.78639601171017" lon="9.943326925858855">
<ele>509.2</ele>
<time>2024-05-12T16:44:51Z</time>
</trkpt>
<trkpt lat="48.78639215603471" lon="9.94335651397705">
<ele>509.4</ele>
<time>2024-05-12T16:44:52Z</time>
</trkpt>
<trkpt lat="48.78639215603471" lon="9.943387946113944">
<ele>509.8</ele>
<time>2024-05-12T16:44:53Z</time>
</trkpt>
<trkpt lat="48.78639215603471" lon="9.943421306088569">
<ele>510</ele>
<time>2024-05-12T16:44:54Z</time>
</trkpt>
<trkpt lat="48.78638838417828" lon="9.943452822044492">
<ele>510.4</ele>
<time>2024-05-12T16:44:55Z</time>
</trkpt>
<trkpt lat="48.78639215603471" lon="9.94349665939808">
<ele>510.6</ele>
<time>2024-05-12T16:44:56Z</time>
</trkpt>
<trkpt lat="48.78639601171017" lon="9.943541502580048">
<ele>511</ele>
<time>2024-05-12T16:44:57Z</time>
</trkpt>
<trkpt lat="48.78639215603471" lon="9.943579640239475">
<ele>511.2</ele>
<time>2024-05-12T16:44:58Z</time>
</trkpt>
<trkpt lat="48.78639601171017" lon="9.943630183115602">
<ele>511.6</ele>
<time>2024-05-12T16:44:59Z</time>
</trkpt>
<trkpt lat="48.78640363924205" lon="9.943677876144648">
<ele>511.8</ele>
<time>2024-05-12T16:45:00Z</time>
</trkpt>
<trkpt lat="48.78641126677394" lon="9.94373126886785">
<ele>512.2</ele>
<time>2024-05-12T16:45:01Z</time>
</trkpt>
<trkpt lat="48.786415038630366" lon="9.943786589428782">
<ele>512.4</ele>
<time>2024-05-12T16:45:02Z</time>
</trkpt>
<trkpt lat="48.78642266616225" lon="9.94383042678237">
<ele>512.599</ele>
<time>2024-05-12T16:45:03Z</time>
</trkpt>
<trkpt lat="48.78642652183771" lon="9.94387149810791">
<ele>513</ele>
<time>2024-05-12T16:45:04Z</time>
</trkpt>
<trkpt lat="48.78642652183771" lon="9.943911479786038">
<ele>513.2</ele>
<time>2024-05-12T16:45:05Z</time>
</trkpt>
<trkpt lat="48.78642652183771" lon="9.943949617445467">
<ele>513.599</ele>
<time>2024-05-12T16:45:06Z</time>
</trkpt>
<trkpt lat="48.78643029369414" lon="9.943989682942629">
<ele>513.8</ele>
<time>2024-05-12T16:45:07Z</time>
</trkpt>
<trkpt lat="48.78643029369414" lon="9.94404693134129">
<ele>514.2</ele>
<time>2024-05-12T16:45:08Z</time>
</trkpt>
<trkpt lat="48.78642652183771" lon="9.944101329892874">
<ele>514.4</ele>
<time>2024-05-12T16:45:09Z</time>
</trkpt>
<trkpt lat="48.78642266616225" lon="9.94414709508419">
<ele>514.8</ele>
<time>2024-05-12T16:45:10Z</time>
</trkpt>
<trkpt lat="48.78642266616225" lon="9.944192860275509">
<ele>515</ele>
<time>2024-05-12T16:45:11Z</time>
</trkpt>
<trkpt lat="48.78642652183771" lon="9.944238625466824">
<ele>515.2</ele>
<time>2024-05-12T16:45:12Z</time>
</trkpt>
<trkpt lat="48.78642652183771" lon="9.944283468648791">
<ele>515.4</ele>
<time>2024-05-12T16:45:13Z</time>
</trkpt>
<trkpt lat="48.78642652183771" lon="9.944328228011727">
<ele>515.599</ele>
<time>2024-05-12T16:45:14Z</time>
</trkpt>
<trkpt lat="48.78642266616225" lon="9.944371143355966">
<ele>515.8</ele>
<time>2024-05-12T16:45:15Z</time>
</trkpt>
<trkpt lat="48.786418894305825" lon="9.944417914375665">
<ele>516</ele>
<time>2024-05-12T16:45:16Z</time>
</trkpt>
<trkpt lat="48.786415038630366" lon="9.944464601576328">
<ele>516.2</ele>
<time>2024-05-12T16:45:17Z</time>
</trkpt>
<trkpt lat="48.78641126677394" lon="9.944511372596024">
<ele>516.4</ele>
<time>2024-05-12T16:45:18Z</time>
</trkpt>
<trkpt lat="48.78640741109848" lon="9.944556215777991">
<ele>516.599</ele>
<time>2024-05-12T16:45:19Z</time>
</trkpt>
<trkpt lat="48.78640363924205" lon="9.94460198096931">
<ele>516.8</ele>
<time>2024-05-12T16:45:20Z</time>
</trkpt>
<trkpt lat="48.786399783566594" lon="9.944646824151278">
<ele>517</ele>
<time>2024-05-12T16:45:21Z</time>
</trkpt>
<trkpt lat="48.78639215603471" lon="9.944688733667135">
<ele>517</ele>
<time>2024-05-12T16:45:22Z</time>
</trkpt>
<trkpt lat="48.78638452850282" lon="9.944726871326566">
<ele>517.2</ele>
<time>2024-05-12T16:45:23Z</time>
</trkpt>
<trkpt lat="48.786380756646395" lon="9.944765008985996">
<ele>517.2</ele>
<time>2024-05-12T16:45:24Z</time>
</trkpt>
<trkpt lat="48.78637312911451" lon="9.944807924330236">
<ele>517.4</ele>
<time>2024-05-12T16:45:25Z</time>
</trkpt>
<trkpt lat="48.78636550158262" lon="9.944847989827394">
<ele>517.4</ele>
<time>2024-05-12T16:45:26Z</time>
</trkpt>
<trkpt lat="48.78636164590717" lon="9.944887133315206">
<ele>517.599</ele>
<time>2024-05-12T16:45:27Z</time>
</trkpt>
<trkpt lat="48.78635401837528" lon="9.944926192983983">
<ele>517.8</ele>
<time>2024-05-12T16:45:28Z</time>
</trkpt>
<trkpt lat="48.78634261898696" lon="9.944968186318874">
<ele>517.8</ele>
<time>2024-05-12T16:45:29Z</time>
</trkpt>
<trkpt lat="48.78633113577962" lon="9.945013029500842">
<ele>518</ele>
<time>2024-05-12T16:45:30Z</time>
</trkpt>
<trkpt lat="48.78631588071585" lon="9.94505879469216">
<ele>518.2</ele>
<time>2024-05-12T16:45:31Z</time>
</trkpt>
<trkpt lat="48.786300625652075" lon="9.945101710036395">
<ele>518.4</ele>
<time>2024-05-12T16:45:32Z</time>
</trkpt>
<trkpt lat="48.78628914244473" lon="9.945146553218365">
<ele>518.599</ele>
<time>2024-05-12T16:45:33Z</time>
</trkpt>
<trkpt lat="48.78627774305642" lon="9.945190390571952">
<ele>518.599</ele>
<time>2024-05-12T16:45:34Z</time>
</trkpt>
<trkpt lat="48.78626625984907" lon="9.945230456069112">
<ele>518.8</ele>
<time>2024-05-12T16:45:35Z</time>
</trkpt>
<trkpt lat="48.78625486046076" lon="9.945266665890813">
<ele>519</ele>
<time>2024-05-12T16:45:36Z</time>
</trkpt>
<trkpt lat="48.78624723292887" lon="9.945296254009008">
<ele>519</ele>
<time>2024-05-12T16:45:37Z</time>
</trkpt>
<trkpt lat="48.78624723292887" lon="9.945324836298823">
<ele>519.2</ele>
<time>2024-05-12T16:45:38Z</time>
</trkpt>
<trkpt lat="48.786239605396986" lon="9.94535350240767">
<ele>519.2</ele>
<time>2024-05-12T16:45:39Z</time>
</trkpt>
<trkpt lat="48.7862319778651" lon="9.945386862382293">
<ele>519.4</ele>
<time>2024-05-12T16:45:40Z</time>
</trkpt>
<trkpt lat="48.786220494657755" lon="9.945420222356915">
<ele>519.4</ele>
<time>2024-05-12T16:45:41Z</time>
</trkpt>
<trkpt lat="48.78621286712587" lon="9.94545458815992">
<ele>519.599</ele>
<time>2024-05-12T16:45:42Z</time>
</trkpt>
<trkpt lat="48.786201467737556" lon="9.94548694230616">
<ele>519.8</ele>
<time>2024-05-12T16:45:43Z</time>
</trkpt>
<trkpt lat="48.78618998453021" lon="9.945518458262086">
<ele>520.2</ele>
<time>2024-05-12T16:45:44Z</time>
</trkpt>
<trkpt lat="48.7861785851419" lon="9.945551818236709">
<ele>520.599</ele>
<time>2024-05-12T16:45:45Z</time>
</trkpt>
<trkpt lat="48.78616710193455" lon="9.94558811187744">
<ele>520.8</ele>
<time>2024-05-12T16:45:46Z</time>
</trkpt>
<trkpt lat="48.786159474402666" lon="9.945623315870762">
<ele>521.2</ele>
<time>2024-05-12T16:45:47Z</time>
</trkpt>
<trkpt lat="48.78614799119532" lon="9.945661537349224">
<ele>521.4</ele>
<time>2024-05-12T16:45:48Z</time>
</trkpt>
<trkpt lat="48.786140363663435" lon="9.945696825161576">
<ele>521.8</ele>
<time>2024-05-12T16:45:49Z</time>
</trkpt>
<trkpt lat="48.78612510859966" lon="9.94572632946074">
<ele>522</ele>
<time>2024-05-12T16:45:50Z</time>
</trkpt>
<trkpt lat="48.78610985353589" lon="9.945756839588284">
<ele>522.599</ele>
<time>2024-05-12T16:45:51Z</time>
</trkpt>
<trkpt lat="48.786102226004" lon="9.945794977247717">
<ele>523</ele>
<time>2024-05-12T16:45:52Z</time>
</trkpt>
<trkpt lat="48.78609845414758" lon="9.945836970582604">
<ele>523.4</ele>
<time>2024-05-12T16:45:53Z</time>
</trkpt>
<trkpt lat="48.78609459847212" lon="9.945875108242037">
<ele>523.599</ele>
<time>2024-05-12T16:45:54Z</time>
</trkpt>
<trkpt lat="48.78609459847212" lon="9.945915173739197">
<ele>524</ele>
<time>2024-05-12T16:45:55Z</time>
</trkpt>
<trkpt lat="48.78609459847212" lon="9.945961944758892">
<ele>524.6</ele>
<time>2024-05-12T16:45:56Z</time>
</trkpt>
<trkpt lat="48.78609082661569" lon="9.946008631959558">
<ele>525</ele>
<time>2024-05-12T16:45:57Z</time>
</trkpt>
<trkpt lat="48.78609459847212" lon="9.946056324988604">
<ele>525.4</ele>
<time>2024-05-12T16:45:58Z</time>
</trkpt>
<trkpt lat="48.78609459847212" lon="9.94610016234219">
<ele>525.8</ele>
<time>2024-05-12T16:45:59Z</time>
</trkpt>
<trkpt lat="48.78609459847212" lon="9.94613830000162">
<ele>526.2</ele>
<time>2024-05-12T16:46:00Z</time>
</trkpt>
<trkpt lat="48.78609845414758" lon="9.94618029333651">
<ele>526.8</ele>
<time>2024-05-12T16:46:01Z</time>
</trkpt>
<trkpt lat="48.78609845414758" lon="9.94622128084302">
<ele>527.2</ele>
<time>2024-05-12T16:46:02Z</time>
</trkpt>
<trkpt lat="48.78609845414758" lon="9.946265202015638">
<ele>527.8</ele>
<time>2024-05-12T16:46:03Z</time>
</trkpt>
<trkpt lat="48.78609845414758" lon="9.946306189522147">
<ele>528.2</ele>
<time>2024-05-12T16:46:04Z</time>
</trkpt>
<trkpt lat="48.78609845414758" lon="9.9463414773345">
<ele>528.8</ele>
<time>2024-05-12T16:46:05Z</time>
</trkpt>
<trkpt lat="48.78609082661569" lon="9.94637869298458">
<ele>529.4</ele>
<time>2024-05-12T16:46:06Z</time>
</trkpt>
<trkpt lat="48.78609082661569" lon="9.94641875848174">
<ele>529.8</ele>
<time>2024-05-12T16:46:07Z</time>
</trkpt>
<trkpt lat="48.786083199083805" lon="9.946456896141171">
<ele>530.2</ele>
<time>2024-05-12T16:46:08Z</time>
</trkpt>
<trkpt lat="48.786083199083805" lon="9.946493105962873">
<ele>530.6</ele>
<time>2024-05-12T16:46:09Z</time>
</trkpt>
<trkpt lat="48.786079343408346" lon="9.946528393775225">
<ele>531</ele>
<time>2024-05-12T16:46:10Z</time>
</trkpt>
<trkpt lat="48.78607557155192" lon="9.946559825912118">
<ele>531.4</ele>
<time>2024-05-12T16:46:11Z</time>
</trkpt>
<trkpt lat="48.78606794402003" lon="9.94659511372447">
<ele>531.8</ele>
<time>2024-05-12T16:46:12Z</time>
</trkpt>
<trkpt lat="48.78606031648815" lon="9.946639956906438">
<ele>532.2</ele>
<time>2024-05-12T16:46:13Z</time>
</trkpt>
<trkpt lat="48.7860488332808" lon="9.946682872250676">
<ele>532.6</ele>
<time>2024-05-12T16:46:14Z</time>
</trkpt>
<trkpt lat="48.786045061424375" lon="9.946724865585566">
<ele>532.8</ele>
<time>2024-05-12T16:46:15Z</time>
</trkpt>
<trkpt lat="48.78604120574891" lon="9.946763003244996">
<ele>533.4</ele>
<time>2024-05-12T16:46:16Z</time>
</trkpt>
<trkpt lat="48.78603357821703" lon="9.946800218895078">
<ele>533.8</ele>
<time>2024-05-12T16:46:17Z</time>
</trkpt>
<trkpt lat="48.7860298063606" lon="9.946840284392238">
<ele>534.2</ele>
<time>2024-05-12T16:46:18Z</time>
</trkpt>
<trkpt lat="48.78601832315326" lon="9.946878422051668">
<ele>534.6</ele>
<time>2024-05-12T16:46:19Z</time>
</trkpt>
<trkpt lat="48.786006923764944" lon="9.94691370986402">
<ele>535</ele>
<time>2024-05-12T16:46:20Z</time>
</trkpt>
<trkpt lat="48.786003068089485" lon="9.94695184752345">
<ele>535.4</ele>
<time>2024-05-12T16:46:21Z</time>
</trkpt>
<trkpt lat="48.7859954405576" lon="9.946988057345152">
<ele>535.8</ele>
<time>2024-05-12T16:46:22Z</time>
</trkpt>
<trkpt lat="48.7859954405576" lon="9.947026195004582">
<ele>536.2</ele>
<time>2024-05-12T16:46:23Z</time>
</trkpt>
<trkpt lat="48.7859954405576" lon="9.947068188339472">
<ele>536.4</ele>
<time>2024-05-12T16:46:24Z</time>
</trkpt>
<trkpt lat="48.78599166870117" lon="9.94711009785533">
<ele>536.8</ele>
<time>2024-05-12T16:46:25Z</time>
</trkpt>
<trkpt lat="48.78599166870117" lon="9.947148319333792">
<ele>537</ele>
<time>2024-05-12T16:46:26Z</time>
</trkpt>
<trkpt lat="48.785983957350254" lon="9.94719022884965">
<ele>537.4</ele>
<time>2024-05-12T16:46:27Z</time>
</trkpt>
<trkpt lat="48.785983957350254" lon="9.94723029434681">
<ele>537.8</ele>
<time>2024-05-12T16:46:28Z</time>
</trkpt>
<trkpt lat="48.785983957350254" lon="9.94727035984397">
<ele>538</ele>
<time>2024-05-12T16:46:29Z</time>
</trkpt>
<trkpt lat="48.78598018549383" lon="9.947303719818592">
<ele>538.4</ele>
<time>2024-05-12T16:46:30Z</time>
</trkpt>
<trkpt lat="48.78597632981837" lon="9.94733045808971">
<ele>538.6</ele>
<time>2024-05-12T16:46:31Z</time>
</trkpt>
<trkpt lat="48.78596870228648" lon="9.947359962388871">
<ele>539</ele>
<time>2024-05-12T16:46:32Z</time>
</trkpt>
<trkpt lat="48.785964930430055" lon="9.947395250201224">
<ele>539.2</ele>
<time>2024-05-12T16:46:33Z</time>
</trkpt>
<trkpt lat="48.785964930430055" lon="9.94742869399488">
<ele>539.6</ele>
<time>2024-05-12T16:46:34Z</time>
</trkpt>
<trkpt lat="48.78596107475459" lon="9.947462053969502">
<ele>540</ele>
<time>2024-05-12T16:46:35Z</time>
</trkpt>
<trkpt lat="48.785945819690824" lon="9.947491642087698">
<ele>540.4</ele>
<time>2024-05-12T16:46:36Z</time>
</trkpt>
<trkpt lat="48.78593442030251" lon="9.947521146386862">
<ele>540.8</ele>
<time>2024-05-12T16:46:37Z</time>
</trkpt>
<trkpt lat="48.785926792770624" lon="9.947554506361485">
<ele>541</ele>
<time>2024-05-12T16:46:38Z</time>
</trkpt>
<trkpt lat="48.78591916523874" lon="9.94758510030806">
<ele>541.4</ele>
<time>2024-05-12T16:46:39Z</time>
</trkpt>
<trkpt lat="48.78591530956328" lon="9.947611754760146">
<ele>541.6</ele>
<time>2024-05-12T16:46:40Z</time>
</trkpt>
<trkpt lat="48.785903910174966" lon="9.947634637355804">
<ele>542</ele>
<time>2024-05-12T16:46:41Z</time>
</trkpt>
<trkpt lat="48.78589628264308" lon="9.947656597942114">
<ele>542.4</ele>
<time>2024-05-12T16:46:42Z</time>
</trkpt>
<trkpt lat="48.78587717190385" lon="9.947679480537772">
<ele>542.6</ele>
<time>2024-05-12T16:46:43Z</time>
</trkpt>
<trkpt lat="48.78585814498365" lon="9.947716696187854">
<ele>543</ele>
<time>2024-05-12T16:46:44Z</time>
</trkpt>
<trkpt lat="48.78583903424442" lon="9.947751984000206">
<ele>543.4</ele>
<time>2024-05-12T16:46:45Z</time>
</trkpt>
<trkpt lat="48.785804668441415" lon="9.947792971506717">
<ele>543.8</ele>
<time>2024-05-12T16:46:46Z</time>
</trkpt>
<trkpt lat="48.78578178584576" lon="9.947832031175494">
<ele>544.2</ele>
<time>2024-05-12T16:46:47Z</time>
</trkpt>
<trkpt lat="48.785743648186326" lon="9.947866396978498">
<ele>544.4</ele>
<time>2024-05-12T16:46:48Z</time>
</trkpt>
<trkpt lat="48.78573224879801" lon="9.947904534637928">
<ele>544.8</ele>
<time>2024-05-12T16:46:49Z</time>
</trkpt>
<trkpt lat="48.78572076559067" lon="9.94793982245028">
<ele>545.2</ele>
<time>2024-05-12T16:46:50Z</time>
</trkpt>
<trkpt lat="48.78570173867047" lon="9.947973182424905">
<ele>545.6</ele>
<time>2024-05-12T16:46:51Z</time>
</trkpt>
<trkpt lat="48.78568262793124" lon="9.948004698380828">
<ele>546.2</ele>
<time>2024-05-12T16:46:52Z</time>
</trkpt>
<trkpt lat="48.785667372867465" lon="9.94803998619318">
<ele>546.6</ele>
<time>2024-05-12T16:46:53Z</time>
</trkpt>
<trkpt lat="48.78564449027181" lon="9.948071418330072">
<ele>547</ele>
<time>2024-05-12T16:46:54Z</time>
</trkpt>
<trkpt lat="48.78563300706446" lon="9.948104778304696">
<ele>547.2</ele>
<time>2024-05-12T16:46:55Z</time>
</trkpt>
<trkpt lat="48.78562160767615" lon="9.948146771639584">
<ele>547.6</ele>
<time>2024-05-12T16:46:56Z</time>
</trkpt>
<trkpt lat="48.785606352612376" lon="9.948182981461288">
<ele>548</ele>
<time>2024-05-12T16:46:57Z</time>
</trkpt>
<trkpt lat="48.78559486940503" lon="9.948220197111368">
<ele>548.2</ele>
<time>2024-05-12T16:46:58Z</time>
</trkpt>
<trkpt lat="48.78558347001672" lon="9.9482583347708">
<ele>548.6</ele>
<time>2024-05-12T16:46:59Z</time>
</trkpt>
<trkpt lat="48.785568214952946" lon="9.948291778564451">
<ele>548.8</ele>
<time>2024-05-12T16:47:00Z</time>
</trkpt>
<trkpt lat="48.785549104213715" lon="9.948327988386154">
<ele>549.2</ele>
<time>2024-05-12T16:47:01Z</time>
</trkpt>
<trkpt lat="48.785530077293515" lon="9.948363276198506">
<ele>549.4</ele>
<time>2024-05-12T16:47:02Z</time>
</trkpt>
<trkpt lat="48.78551482222974" lon="9.948400491848588">
<ele>549.8</ele>
<time>2024-05-12T16:47:03Z</time>
</trkpt>
<trkpt lat="48.78551096655429" lon="9.948441479355097">
<ele>550</ele>
<time>2024-05-12T16:47:04Z</time>
</trkpt>
<trkpt lat="48.7855033390224" lon="9.948478695005178">
<ele>550.4</ele>
<time>2024-05-12T16:47:05Z</time>
</trkpt>
<trkpt lat="48.7854843121022" lon="9.94851297698915">
<ele>550.6</ele>
<time>2024-05-12T16:47:06Z</time>
</trkpt>
<trkpt lat="48.785472828894854" lon="9.948550192639232">
<ele>551</ele>
<time>2024-05-12T16:47:07Z</time>
</trkpt>
<trkpt lat="48.78546134568751" lon="9.948584474623203">
<ele>551.2</ele>
<time>2024-05-12T16:47:08Z</time>
</trkpt>
<trkpt lat="48.78543846309185" lon="9.948619762435555">
<ele>551.6</ele>
<time>2024-05-12T16:47:09Z</time>
</trkpt>
<trkpt lat="48.78542706370354" lon="9.948659827932715">
<ele>552</ele>
<time>2024-05-12T16:47:10Z</time>
</trkpt>
<trkpt lat="48.78542320802808" lon="9.94869327172637">
<ele>552.4</ele>
<time>2024-05-12T16:47:11Z</time>
</trkpt>
<trkpt lat="48.785411808639765" lon="9.948726631700993">
<ele>552.8</ele>
<time>2024-05-12T16:47:12Z</time>
</trkpt>
<trkpt lat="48.78540032543242" lon="9.948757141828535">
<ele>553.2</ele>
<time>2024-05-12T16:47:13Z</time>
</trkpt>
<trkpt lat="48.78538892604411" lon="9.948791423812509">
<ele>553.6</ele>
<time>2024-05-12T16:47:14Z</time>
</trkpt>
<trkpt lat="48.785369815304875" lon="9.948822939768434">
<ele>554</ele>
<time>2024-05-12T16:47:15Z</time>
</trkpt>
<trkpt lat="48.7853545602411" lon="9.948851522058249">
<ele>554.4</ele>
<time>2024-05-12T16:47:16Z</time>
</trkpt>
<trkpt lat="48.78533930517733" lon="9.94888873770833">
<ele>554.8</ele>
<time>2024-05-12T16:47:17Z</time>
</trkpt>
<trkpt lat="48.785331677645445" lon="9.94892687536776">
<ele>555.2</ele>
<time>2024-05-12T16:47:18Z</time>
</trkpt>
<trkpt lat="48.78532405011356" lon="9.948963085189462">
<ele>555.6</ele>
<time>2024-05-12T16:47:19Z</time>
</trkpt>
<trkpt lat="48.785312650725245" lon="9.949003150686622">
<ele>556</ele>
<time>2024-05-12T16:47:20Z</time>
</trkpt>
<trkpt lat="48.78530502319336" lon="9.949038438498974">
<ele>556.4</ele>
<time>2024-05-12T16:47:21Z</time>
</trkpt>
<trkpt lat="48.78529731184244" lon="9.949074732139708">
<ele>556.8</ele>
<time>2024-05-12T16:47:22Z</time>
</trkpt>
<trkpt lat="48.78528591245413" lon="9.949103314429522">
<ele>557.2</ele>
<time>2024-05-12T16:47:23Z</time>
</trkpt>
<trkpt lat="48.78527828492224" lon="9.949134746566417">
<ele>557.4</ele>
<time>2024-05-12T16:47:24Z</time>
</trkpt>
<trkpt lat="48.78526302985847" lon="9.94916626252234">
<ele>557.8</ele>
<time>2024-05-12T16:47:25Z</time>
</trkpt>
<trkpt lat="48.785251546651125" lon="9.94920347817242">
<ele>558.2</ele>
<time>2024-05-12T16:47:26Z</time>
</trkpt>
<trkpt lat="48.78523629158735" lon="9.949236838147044">
<ele>558.4</ele>
<time>2024-05-12T16:47:27Z</time>
</trkpt>
<trkpt lat="48.785213408991694" lon="9.949276903644204">
<ele>558.8</ele>
<time>2024-05-12T16:47:28Z</time>
</trkpt>
<trkpt lat="48.78519815392792" lon="9.949317891150711">
<ele>559</ele>
<time>2024-05-12T16:47:29Z</time>
</trkpt>
<trkpt lat="48.78517912700772" lon="9.9493617285043">
<ele>559.2</ele>
<time>2024-05-12T16:47:30Z</time>
</trkpt>
<trkpt lat="48.78516001626849" lon="9.94940179400146">
<ele>559.6</ele>
<time>2024-05-12T16:47:31Z</time>
</trkpt>
<trkpt lat="48.78514098934829" lon="9.949444709345698">
<ele>559.8</ele>
<time>2024-05-12T16:47:32Z</time>
</trkpt>
<trkpt lat="48.78512950614095" lon="9.949491480365396">
<ele>560.2</ele>
<time>2024-05-12T16:47:33Z</time>
</trkpt>
<trkpt lat="48.785114251077175" lon="9.949536323547363">
<ele>560.4</ele>
<time>2024-05-12T16:47:34Z</time>
</trkpt>
<trkpt lat="48.7850989960134" lon="9.949576305225492">
<ele>560.8</ele>
<time>2024-05-12T16:47:35Z</time>
</trkpt>
<trkpt lat="48.78507988527417" lon="9.949607821181417">
<ele>561.2</ele>
<time>2024-05-12T16:47:36Z</time>
</trkpt>
<trkpt lat="48.7850646302104" lon="9.949643108993769">
<ele>561.6</ele>
<time>2024-05-12T16:47:37Z</time>
</trkpt>
<trkpt lat="48.78504174761474" lon="9.949676468968391">
<ele>562.2</ele>
<time>2024-05-12T16:47:38Z</time>
</trkpt>
<trkpt lat="48.78501886501908" lon="9.949706979095936">
<ele>562.4</ele>
<time>2024-05-12T16:47:39Z</time>
</trkpt>
<trkpt lat="48.78498835489154" lon="9.949734639376402">
<ele>562.8</ele>
<time>2024-05-12T16:47:40Z</time>
</trkpt>
<trkpt lat="48.784957844763994" lon="9.949767077341676">
<ele>563.2</ele>
<time>2024-05-12T16:47:41Z</time>
</trkpt>
<trkpt lat="48.78492733463645" lon="9.949789959937334">
<ele>563.6</ele>
<time>2024-05-12T16:47:42Z</time>
</trkpt>
<trkpt lat="48.78490059636533" lon="9.949816698208451">
<ele>564</ele>
<time>2024-05-12T16:47:43Z</time>
</trkpt>
<trkpt lat="48.78487008623779" lon="9.949841424822807">
<ele>564.4</ele>
<time>2024-05-12T16:47:45Z</time>
</trkpt>
<trkpt lat="48.78482817672193" lon="9.949905378744006">
<ele>565.4</ele>
<time>2024-05-12T16:47:46Z</time>
</trkpt>
<trkpt lat="48.78479381091893" lon="9.949938738718629">
<ele>566</ele>
<time>2024-05-12T16:47:47Z</time>
</trkpt>
<trkpt lat="48.78476330079138" lon="9.949970170855522">
<ele>566.4</ele>
<time>2024-05-12T16:47:48Z</time>
</trkpt>
<trkpt lat="48.78472893498838" lon="9.94999305345118">
<ele>567</ele>
<time>2024-05-12T16:47:49Z</time>
</trkpt>
<trkpt lat="48.78470605239272" lon="9.950019791722298">
<ele>567.6</ele>
<time>2024-05-12T16:47:50Z</time>
</trkpt>
<trkpt lat="48.78467177040875" lon="9.950041752308609">
<ele>568</ele>
<time>2024-05-12T16:47:51Z</time>
</trkpt>
<trkpt lat="48.784637404605746" lon="9.950064634904264">
<ele>568.6</ele>
<time>2024-05-12T16:47:52Z</time>
</trkpt>
<trkpt lat="48.78461066633463" lon="9.950088439509273">
<ele>569.2</ele>
<time>2024-05-12T16:47:53Z</time>
</trkpt>
<trkpt lat="48.784584011882544" lon="9.95011517778039">
<ele>569.4</ele>
<time>2024-05-12T16:47:54Z</time>
</trkpt>
<trkpt lat="48.784561129286885" lon="9.950141832232475">
<ele>570</ele>
<time>2024-05-12T16:47:55Z</time>
</trkpt>
<trkpt lat="48.784542018547654" lon="9.950168570503592">
<ele>570.4</ele>
<time>2024-05-12T16:47:56Z</time>
</trkpt>
<trkpt lat="48.784519135952" lon="9.95019530877471">
<ele>571</ele>
<time>2024-05-12T16:47:57Z</time>
</trkpt>
<trkpt lat="48.784503880888224" lon="9.950224813073874">
<ele>571.6</ele>
<time>2024-05-12T16:47:58Z</time>
</trkpt>
<trkpt lat="48.784484853968024" lon="9.9502563290298">
<ele>572</ele>
<time>2024-05-12T16:47:59Z</time>
</trkpt>
<trkpt lat="48.78446959890425" lon="9.95028968900442">
<ele>572.6</ele>
<time>2024-05-12T16:48:00Z</time>
</trkpt>
<trkpt lat="48.78445048816502" lon="9.950320199131966">
<ele>573</ele>
<time>2024-05-12T16:48:01Z</time>
</trkpt>
<trkpt lat="48.78443137742579" lon="9.950353559106588">
<ele>573.6</ele>
<time>2024-05-12T16:48:02Z</time>
</trkpt>
<trkpt lat="48.78440849483013" lon="9.950381219387054">
<ele>574</ele>
<time>2024-05-12T16:48:03Z</time>
</trkpt>
<trkpt lat="48.78438561223447" lon="9.950406951829793">
<ele>574.2</ele>
<time>2024-05-12T16:48:04Z</time>
</trkpt>
<trkpt lat="48.78435895778239" lon="9.950425140559672">
<ele>574.6</ele>
<time>2024-05-12T16:48:05Z</time>
</trkpt>
<trkpt lat="48.78433984704316" lon="9.950443245470524">
<ele>575</ele>
<time>2024-05-12T16:48:06Z</time>
</trkpt>
<trkpt lat="48.78431319259107" lon="9.950461350381374">
<ele>575.4</ele>
<time>2024-05-12T16:48:07Z</time>
</trkpt>
<trkpt lat="48.784286454319954" lon="9.95047182776034">
<ele>576</ele>
<time>2024-05-12T16:48:08Z</time>
</trkpt>
<trkpt lat="48.784263571724296" lon="9.950487082824113">
<ele>576.4</ele>
<time>2024-05-12T16:48:09Z</time>
</trkpt>
<trkpt lat="48.78424068912864" lon="9.950500410050154">
<ele>576.8</ele>
<time>2024-05-12T16:48:10Z</time>
</trkpt>
<trkpt lat="48.78421395085752" lon="9.950513821095228">
<ele>577.2</ele>
<time>2024-05-12T16:48:11Z</time>
</trkpt>
<trkpt lat="48.78417966887355" lon="9.95052522048354">
<ele>577.8</ele>
<time>2024-05-12T16:48:12Z</time>
</trkpt>
<trkpt lat="48.784149158746" lon="9.950534775853155">
<ele>578.2</ele>
<time>2024-05-12T16:48:13Z</time>
</trkpt>
<trkpt lat="48.78413004800677" lon="9.95055195875466">
<ele>578.6</ele>
<time>2024-05-12T16:48:14Z</time>
</trkpt>
<trkpt lat="48.784111021086574" lon="9.95057199150324">
<ele>579.2</ele>
<time>2024-05-12T16:48:15Z</time>
</trkpt>
<trkpt lat="48.78409191034734" lon="9.95059009641409">
<ele>579.6</ele>
<time>2024-05-12T16:48:16Z</time>
</trkpt>
<trkpt lat="48.78408042714" lon="9.95060627348721">
<ele>580</ele>
<time>2024-05-12T16:48:17Z</time>
</trkpt>
<trkpt lat="48.78407279960811" lon="9.95063016191125">
<ele>580.6</ele>
<time>2024-05-12T16:48:18Z</time>
</trkpt>
<trkpt lat="48.78404991701245" lon="9.950656816363336">
<ele>581</ele>
<time>2024-05-12T16:48:19Z</time>
</trkpt>
<trkpt lat="48.78402326256037" lon="9.950681626796722">
<ele>581.4</ele>
<time>2024-05-12T16:48:20Z</time>
</trkpt>
<trkpt lat="48.78399652428925" lon="9.95070450939238">
<ele>581.6</ele>
<time>2024-05-12T16:48:21Z</time>
</trkpt>
<trkpt lat="48.783966014161706" lon="9.950723620131612">
<ele>582</ele>
<time>2024-05-12T16:48:22Z</time>
</trkpt>
<trkpt lat="48.78393935970962" lon="9.950748430565">
<ele>582.4</ele>
<time>2024-05-12T16:48:23Z</time>
</trkpt>
<trkpt lat="48.78391639329493" lon="9.950777934864163">
<ele>582.8</ele>
<time>2024-05-12T16:48:24Z</time>
</trkpt>
<trkpt lat="48.78390113823116" lon="9.95080467313528">
<ele>583.2</ele>
<time>2024-05-12T16:48:25Z</time>
</trkpt>
<trkpt lat="48.783885883167386" lon="9.950822778046131">
<ele>583.4</ele>
<time>2024-05-12T16:48:26Z</time>
</trkpt>
<trkpt lat="48.783870628103614" lon="9.950833255425096">
<ele>583.8</ele>
<time>2024-05-12T16:48:27Z</time>
</trkpt>
<trkpt lat="48.78386300057173" lon="9.950835183262823">
<ele>584</ele>
<time>2024-05-12T16:48:28Z</time>
</trkpt>
<trkpt lat="48.7838592287153" lon="9.950831411406398">
<ele>584.4</ele>
<time>2024-05-12T16:48:29Z</time>
</trkpt>
<trkpt lat="48.78385537303984" lon="9.950831411406398">
<ele>584.6</ele>
<time>2024-05-12T16:48:30Z</time>
</trkpt>
<trkpt lat="48.783851601183414" lon="9.950831411406398">
<ele>584.8</ele>
<time>2024-05-12T16:48:31Z</time>
</trkpt>
<trkpt lat="48.78384397365153" lon="9.950836105272174">
<ele>585</ele>
<time>2024-05-12T16:48:33Z</time>
</trkpt>
<trkpt lat="48.78384011797607" lon="9.950838033109903">
<ele>585</ele>
<time>2024-05-12T16:48:35Z</time>
</trkpt>
<trkpt lat="48.78384011797607" lon="9.950841888785362">
<ele>585.2</ele>
<time>2024-05-12T16:48:36Z</time>
</trkpt>
<trkpt lat="48.78384397365153" lon="9.950857143849134">
<ele>585.2</ele>
<time>2024-05-12T16:48:37Z</time>
</trkpt>
<trkpt lat="48.78384011797607" lon="9.950868543237448">
<ele>585.4</ele>
<time>2024-05-12T16:48:38Z</time>
</trkpt>
<trkpt lat="48.78384011797607" lon="9.950869549065828">
<ele>585.4</ele>
<time>2024-05-12T16:48:39Z</time>
</trkpt>
<trkpt lat="48.78384011797607" lon="9.950871393084526">
<ele>585.4</ele>
<time>2024-05-12T16:48:40Z</time>
</trkpt>
<trkpt lat="48.78383634611964" lon="9.950869549065828">
<ele>585.6</ele>
<time>2024-05-12T16:48:42Z</time>
</trkpt>
<trkpt lat="48.78383634611964" lon="9.95086669921875">
<ele>585.6</ele>
<time>2024-05-12T16:48:43Z</time>
</trkpt>
<trkpt lat="48.78383634611964" lon="9.950861921533942">
<ele>585.6</ele>
<time>2024-05-12T16:48:45Z</time>
</trkpt>
<trkpt lat="48.78383249044418" lon="9.950859993696213">
<ele>585.6</ele>
<time>2024-05-12T16:48:46Z</time>
</trkpt>
<trkpt lat="48.78383249044418" lon="9.950857143849134">
<ele>585.6</ele>
<time>2024-05-12T16:48:47Z</time>
</trkpt>
<trkpt lat="48.78383249044418" lon="9.950855216011403">
<ele>585.4</ele>
<time>2024-05-12T16:48:48Z</time>
</trkpt>
<trkpt lat="48.78383634611964" lon="9.950851360335946">
<ele>585.4</ele>
<time>2024-05-12T16:48:49Z</time>
</trkpt>
<trkpt lat="48.78383634611964" lon="9.950848510488868">
<ele>585.4</ele>
<time>2024-05-12T16:48:50Z</time>
</trkpt>
<trkpt lat="48.78384011797607" lon="9.950848510488868">
<ele>585.2</ele>
<time>2024-05-12T16:48:52Z</time>
</trkpt>
<trkpt lat="48.78384011797607" lon="9.95084666647017">
<ele>585.2</ele>
<time>2024-05-12T16:48:53Z</time>
</trkpt>
<trkpt lat="48.78384011797607" lon="9.950841888785362">
<ele>585</ele>
<time>2024-05-12T16:48:54Z</time>
</trkpt>
<trkpt lat="48.78384011797607" lon="9.950839960947633">
<ele>585</ele>
<time>2024-05-12T16:48:55Z</time>
</trkpt>
<trkpt lat="48.78384397365153" lon="9.950838033109903">
<ele>585</ele>
<time>2024-05-12T16:48:58Z</time>
</trkpt>
<trkpt lat="48.78384011797607" lon="9.950836105272174">
<ele>584.8</ele>
<time>2024-05-12T16:48:59Z</time>
</trkpt>
<trkpt lat="48.78384011797607" lon="9.950835183262823">
<ele>584.8</ele>
<time>2024-05-12T16:49:00Z</time>
</trkpt>
<trkpt lat="48.78384011797607" lon="9.950833255425096">
<ele>584.8</ele>
<time>2024-05-12T16:49:01Z</time>
</trkpt>
<trkpt lat="48.78384011797607" lon="9.950835183262823">
<ele>584.6</ele>
<time>2024-05-12T16:49:02Z</time>
</trkpt>
<trkpt lat="48.78384011797607" lon="9.950836105272174">
<ele>584.6</ele>
<time>2024-05-12T16:49:03Z</time>
</trkpt>
<trkpt lat="48.78384011797607" lon="9.950838033109903">
<ele>584.4</ele>
<time>2024-05-12T16:49:04Z</time>
</trkpt>
<trkpt lat="48.78384397365153" lon="9.950838033109903">
<ele>584.4</ele>
<time>2024-05-12T16:49:08Z</time>
</trkpt>
<trkpt lat="48.78384397365153" lon="9.950836105272174">
<ele>584.2</ele>
<time>2024-05-12T16:49:11Z</time>
</trkpt>
<trkpt lat="48.783847745507956" lon="9.950838033109903">
<ele>584.2</ele>
<time>2024-05-12T16:49:13Z</time>
</trkpt>
<trkpt lat="48.783847745507956" lon="9.950836105272174">
<ele>584.2</ele>
<time>2024-05-12T16:49:14Z</time>
</trkpt>
<trkpt lat="48.78384397365153" lon="9.950836105272174">
<ele>584.2</ele>
<time>2024-05-12T16:49:16Z</time>
</trkpt>
<trkpt lat="48.783847745507956" lon="9.950836105272174">
<ele>584.4</ele>
<time>2024-05-12T16:49:17Z</time>
</trkpt>
<trkpt lat="48.783851601183414" lon="9.950835183262823">
<ele>584.4</ele>
<time>2024-05-12T16:49:18Z</time>
</trkpt>
<trkpt lat="48.783851601183414" lon="9.950833255425096">
<ele>584.4</ele>
<time>2024-05-12T16:49:21Z</time>
</trkpt>
<trkpt lat="48.78385537303984" lon="9.950831411406398">
<ele>584.4</ele>
<time>2024-05-12T16:49:22Z</time>
</trkpt>
<trkpt lat="48.78385537303984" lon="9.950830405578015">
<ele>584.2</ele>
<time>2024-05-12T16:49:23Z</time>
</trkpt>
<trkpt lat="48.7838592287153" lon="9.950830405578015">
<ele>584.2</ele>
<time>2024-05-12T16:49:25Z</time>
</trkpt>
<trkpt lat="48.7838592287153" lon="9.950828477740288">
<ele>584</ele>
<time>2024-05-12T16:49:26Z</time>
</trkpt>
<trkpt lat="48.78385537303984" lon="9.950828477740288">
<ele>584</ele>
<time>2024-05-12T16:49:27Z</time>
</trkpt>
<trkpt lat="48.7838592287153" lon="9.950828477740288">
<ele>583.8</ele>
<time>2024-05-12T16:49:28Z</time>
</trkpt>
<trkpt lat="48.7838592287153" lon="9.950830405578015">
<ele>583.8</ele>
<time>2024-05-12T16:49:31Z</time>
</trkpt>
<trkpt lat="48.78386300057173" lon="9.950831411406398">
<ele>583.8</ele>
<time>2024-05-12T16:49:34Z</time>
</trkpt>
<trkpt lat="48.7838592287153" lon="9.950831411406398">
<ele>583.8</ele>
<time>2024-05-12T16:49:36Z</time>
</trkpt>
<trkpt lat="48.7838592287153" lon="9.950830405578015">
<ele>583.8</ele>
<time>2024-05-12T16:49:37Z</time>
</trkpt>
<trkpt lat="48.7838592287153" lon="9.950828477740288">
<ele>583.8</ele>
<time>2024-05-12T16:49:40Z</time>
</trkpt>
<trkpt lat="48.78385537303984" lon="9.95082663372159">
<ele>583.8</ele>
<time>2024-05-12T16:49:42Z</time>
</trkpt>
<trkpt lat="48.783851601183414" lon="9.95082470588386">
<ele>583.8</ele>
<time>2024-05-12T16:49:44Z</time>
</trkpt>
<trkpt lat="48.783851601183414" lon="9.950822778046131">
<ele>583.8</ele>
<time>2024-05-12T16:49:45Z</time>
</trkpt>
<trkpt lat="48.783847745507956" lon="9.95082470588386">
<ele>583.8</ele>
<time>2024-05-12T16:49:47Z</time>
</trkpt>
<trkpt lat="48.783847745507956" lon="9.950822778046131">
<ele>583.8</ele>
<time>2024-05-12T16:49:48Z</time>
</trkpt>
<trkpt lat="48.78384397365153" lon="9.950821856036782">
<ele>583.6</ele>
<time>2024-05-12T16:49:49Z</time>
</trkpt>
<trkpt lat="48.78384011797607" lon="9.950819928199053">
<ele>583.6</ele>
<time>2024-05-12T16:49:50Z</time>
</trkpt>
<trkpt lat="48.78384011797607" lon="9.950821856036782">
<ele>583.6</ele>
<time>2024-05-12T16:49:51Z</time>
</trkpt>
<trkpt lat="48.78384011797607" lon="9.950819928199053">
<ele>583.6</ele>
<time>2024-05-12T16:49:53Z</time>
</trkpt>
<trkpt lat="48.78383634611964" lon="9.950819928199053">
<ele>583.6</ele>
<time>2024-05-12T16:49:54Z</time>
</trkpt>
<trkpt lat="48.78383634611964" lon="9.950818000361323">
<ele>583.4</ele>
<time>2024-05-12T16:49:57Z</time>
</trkpt>
<trkpt lat="48.78383634611964" lon="9.950815150514243">
<ele>583.4</ele>
<time>2024-05-12T16:49:58Z</time>
</trkpt>
<trkpt lat="48.78383249044418" lon="9.950813222676516">
<ele>583.4</ele>
<time>2024-05-12T16:49:59Z</time>
</trkpt>
<trkpt lat="48.78383249044418" lon="9.950811378657818">
<ele>583.4</ele>
<time>2024-05-12T16:50:00Z</time>
</trkpt>
<trkpt lat="48.78383634611964" lon="9.950811378657818">
<ele>583.6</ele>
<time>2024-05-12T16:50:03Z</time>
</trkpt>
<trkpt lat="48.78383634611964" lon="9.950813222676516">
<ele>583.6</ele>
<time>2024-05-12T16:50:04Z</time>
</trkpt>
<trkpt lat="48.78384011797607" lon="9.950815150514243">
<ele>583.6</ele>
<time>2024-05-12T16:50:05Z</time>
</trkpt>
<trkpt lat="48.78384011797607" lon="9.950817078351974">
<ele>583.6</ele>
<time>2024-05-12T16:50:06Z</time>
</trkpt>
<trkpt lat="48.78384011797607" lon="9.950813222676516">
<ele>583.6</ele>
<time>2024-05-12T16:50:12Z</time>
</trkpt>
<trkpt lat="48.78384011797607" lon="9.950818000361323">
<ele>583.6</ele>
<time>2024-05-12T16:50:13Z</time>
</trkpt>
<trkpt lat="48.78383249044418" lon="9.950822778046131">
<ele>583.6</ele>
<time>2024-05-12T16:50:14Z</time>
</trkpt>
<trkpt lat="48.78383249044418" lon="9.950819928199053">
<ele>583.6</ele>
<time>2024-05-12T16:50:15Z</time>
</trkpt>
<trkpt lat="48.78382871858776" lon="9.950821856036782">
<ele>583.6</ele>
<time>2024-05-12T16:50:16Z</time>
</trkpt>
<trkpt lat="48.78382871858776" lon="9.950819928199053">
<ele>583.6</ele>
<time>2024-05-12T16:50:17Z</time>
</trkpt>
<trkpt lat="48.7838248629123" lon="9.950819928199053">
<ele>583.6</ele>
<time>2024-05-12T16:50:20Z</time>
</trkpt>
<trkpt lat="48.7838248629123" lon="9.950821856036782">
<ele>583.8</ele>
<time>2024-05-12T16:50:23Z</time>
</trkpt>
<trkpt lat="48.78382871858776" lon="9.950822778046131">
<ele>583.8</ele>
<time>2024-05-12T16:50:25Z</time>
</trkpt>
<trkpt lat="48.7838248629123" lon="9.950821856036782">
<ele>584</ele>
<time>2024-05-12T16:50:26Z</time>
</trkpt>
<trkpt lat="48.7838248629123" lon="9.950822778046131">
<ele>584</ele>
<time>2024-05-12T16:50:27Z</time>
</trkpt>
<trkpt lat="48.78382871858776" lon="9.950821856036782">
<ele>584.2</ele>
<time>2024-05-12T16:50:28Z</time>
</trkpt>
<trkpt lat="48.7838248629123" lon="9.950822778046131">
<ele>584.2</ele>
<time>2024-05-12T16:50:29Z</time>
</trkpt>
<trkpt lat="48.78382871858776" lon="9.950822778046131">
<ele>584.4</ele>
<time>2024-05-12T16:50:30Z</time>
</trkpt>
<trkpt lat="48.78382871858776" lon="9.950821856036782">
<ele>584.4</ele>
<time>2024-05-12T16:50:32Z</time>
</trkpt>
<trkpt lat="48.78382871858776" lon="9.950819928199053">
<ele>584.2</ele>
<time>2024-05-12T16:50:36Z</time>
</trkpt>
<trkpt lat="48.78383249044418" lon="9.950819928199053">
<ele>584.2</ele>
<time>2024-05-12T16:50:38Z</time>
</trkpt>
<trkpt lat="48.78383249044418" lon="9.950818000361323">
<ele>584.2</ele>
<time>2024-05-12T16:50:39Z</time>
</trkpt>
<trkpt lat="48.78382871858776" lon="9.950817078351974">
<ele>584</ele>
<time>2024-05-12T16:50:40Z</time>
</trkpt>
<trkpt lat="48.78382871858776" lon="9.950815150514243">
<ele>584</ele>
<time>2024-05-12T16:50:41Z</time>
</trkpt>
<trkpt lat="48.78382871858776" lon="9.950813222676516">
<ele>583.8</ele>
<time>2024-05-12T16:50:42Z</time>
</trkpt>
<trkpt lat="48.78382871858776" lon="9.950815150514243">
<ele>583.8</ele>
<time>2024-05-12T16:50:43Z</time>
</trkpt>
<trkpt lat="48.78382871858776" lon="9.950817078351974">
<ele>583.8</ele>
<time>2024-05-12T16:50:44Z</time>
</trkpt>
<trkpt lat="48.78382871858776" lon="9.950815150514243">
<ele>583.6</ele>
<time>2024-05-12T16:50:45Z</time>
</trkpt>
<trkpt lat="48.78382871858776" lon="9.950813222676516">
<ele>583.6</ele>
<time>2024-05-12T16:50:46Z</time>
</trkpt>
<trkpt lat="48.7838248629123" lon="9.950815150514243">
<ele>583.6</ele>
<time>2024-05-12T16:50:47Z</time>
</trkpt>
<trkpt lat="48.7838248629123" lon="9.950813222676516">
<ele>583.6</ele>
<time>2024-05-12T16:50:53Z</time>
</trkpt>
<trkpt lat="48.7838248629123" lon="9.950810372829435">
<ele>583.4</ele>
<time>2024-05-12T16:50:57Z</time>
</trkpt>
<trkpt lat="48.78382871858776" lon="9.950808444991708">
<ele>583.4</ele>
<time>2024-05-12T16:51:00Z</time>
</trkpt>
<trkpt lat="48.78382871858776" lon="9.95080660097301">
<ele>583.4</ele>
<time>2024-05-12T16:51:01Z</time>
</trkpt>
<trkpt lat="48.78382871858776" lon="9.950810372829435">
<ele>583.6</ele>
<time>2024-05-12T16:51:03Z</time>
</trkpt>
<trkpt lat="48.78384011797607" lon="9.950833255425096">
<ele>583.6</ele>
<time>2024-05-12T16:51:04Z</time>
</trkpt>
<trkpt lat="48.783851601183414" lon="9.950849516317248">
<ele>583.8</ele>
<time>2024-05-12T16:51:05Z</time>
</trkpt>
<trkpt lat="48.783851601183414" lon="9.95086669921875">
<ele>583.8</ele>
<time>2024-05-12T16:51:06Z</time>
</trkpt>
<trkpt lat="48.7838592287153" lon="9.950882876291873">
<ele>583.8</ele>
<time>2024-05-12T16:51:07Z</time>
</trkpt>
<trkpt lat="48.78386300057173" lon="9.950889581814408">
<ele>584</ele>
<time>2024-05-12T16:51:08Z</time>
</trkpt>
<trkpt lat="48.78387448377907" lon="9.950898131355643">
<ele>584</ele>
<time>2024-05-12T16:51:09Z</time>
</trkpt>
<trkpt lat="48.78389736637473" lon="9.950911458581686">
<ele>584</ele>
<time>2024-05-12T16:51:10Z</time>
</trkpt>
<trkpt lat="48.783927876502275" lon="9.950931491330266">
<ele>584.2</ele>
<time>2024-05-12T16:51:11Z</time>
</trkpt>
<trkpt lat="48.78395838662982" lon="9.950938196852803">
<ele>584.2</ele>
<time>2024-05-12T16:51:12Z</time>
</trkpt>
<trkpt lat="48.78399275243282" lon="9.950935347005723">
<ele>584.4</ele>
<time>2024-05-12T16:51:13Z</time>
</trkpt>
<trkpt lat="48.784027034416795" lon="9.950938196852803">
<ele>584.6</ele>
<time>2024-05-12T16:51:14Z</time>
</trkpt>
<trkpt lat="48.784065172076225" lon="9.950942974537613">
<ele>584.6</ele>
<time>2024-05-12T16:51:15Z</time>
</trkpt>
<trkpt lat="48.78409191034734" lon="9.950944818556309">
<ele>584.8</ele>
<time>2024-05-12T16:51:16Z</time>
</trkpt>
<trkpt lat="48.78412242047489" lon="9.950948674231768">
<ele>584.8</ele>
<time>2024-05-12T16:51:17Z</time>
</trkpt>
<trkpt lat="48.784145303070545" lon="9.950949596241117">
<ele>585</ele>
<time>2024-05-12T16:51:18Z</time>
</trkpt>
<trkpt lat="48.78417581319809" lon="9.950951524078846">
<ele>585.4</ele>
<time>2024-05-12T16:51:19Z</time>
</trkpt>
<trkpt lat="48.784206323325634" lon="9.950946746394038">
<ele>585.6</ele>
<time>2024-05-12T16:51:20Z</time>
</trkpt>
<trkpt lat="48.78423683345318" lon="9.950940124690533">
<ele>585.8</ele>
<time>2024-05-12T16:51:21Z</time>
</trkpt>
<trkpt lat="48.78427505493164" lon="9.950938196852803">
<ele>586</ele>
<time>2024-05-12T16:51:22Z</time>
</trkpt>
<trkpt lat="48.784305565059185" lon="9.950933419167995">
<ele>586.2</ele>
<time>2024-05-12T16:51:23Z</time>
</trkpt>
<trkpt lat="48.78433607518673" lon="9.950938196852803">
<ele>586.6</ele>
<time>2024-05-12T16:51:24Z</time>
</trkpt>
<trkpt lat="48.7843703571707" lon="9.950931491330266">
<ele>587</ele>
<time>2024-05-12T16:51:25Z</time>
</trkpt>
<trkpt lat="48.784400867298245" lon="9.950922941789033">
<ele>587.4</ele>
<time>2024-05-12T16:51:26Z</time>
</trkpt>
<trkpt lat="48.78443900495768" lon="9.950911458581686">
<ele>587.8</ele>
<time>2024-05-12T16:51:27Z</time>
</trkpt>
<trkpt lat="48.78447337076068" lon="9.950896203517914">
<ele>588.2</ele>
<time>2024-05-12T16:51:28Z</time>
</trkpt>
<trkpt lat="48.78451150842011" lon="9.950881954282522">
<ele>588.6</ele>
<time>2024-05-12T16:51:29Z</time>
</trkpt>
<trkpt lat="48.78454587422311" lon="9.950861921533942">
<ele>589</ele>
<time>2024-05-12T16:51:30Z</time>
</trkpt>
<trkpt lat="48.784580156207085" lon="9.95084666647017">
<ele>589.2</ele>
<time>2024-05-12T16:51:31Z</time>
</trkpt>
<trkpt lat="48.78461837768555" lon="9.950836105272174">
<ele>589.6</ele>
<time>2024-05-12T16:51:32Z</time>
</trkpt>
<trkpt lat="48.78465651534498" lon="9.950828477740288">
<ele>590</ele>
<time>2024-05-12T16:51:33Z</time>
</trkpt>
<trkpt lat="48.78469079732895" lon="9.950818000361323">
<ele>590.4</ele>
<time>2024-05-12T16:51:34Z</time>
</trkpt>
<trkpt lat="48.78472130745649" lon="9.950803751125932">
<ele>591</ele>
<time>2024-05-12T16:51:35Z</time>
</trkpt>
<trkpt lat="48.7847556732595" lon="9.95078849606216">
<ele>591.4</ele>
<time>2024-05-12T16:51:36Z</time>
</trkpt>
<trkpt lat="48.78478618338704" lon="9.950771313160658">
<ele>591.8</ele>
<time>2024-05-12T16:51:37Z</time>
</trkpt>
<trkpt lat="48.78482054919005" lon="9.950756980106236">
<ele>592.4</ele>
<time>2024-05-12T16:51:38Z</time>
</trkpt>
<trkpt lat="48.784854831174016" lon="9.950748430565">
<ele>592.8</ele>
<time>2024-05-12T16:51:39Z</time>
</trkpt>
<trkpt lat="48.784896824508905" lon="9.950750274583696">
<ele>593.4</ele>
<time>2024-05-12T16:51:40Z</time>
</trkpt>
<trkpt lat="48.78492733463645" lon="9.950741725042462">
<ele>593.8</ele>
<time>2024-05-12T16:51:41Z</time>
</trkpt>
<trkpt lat="48.78496547229588" lon="9.950739797204731">
<ele>594.2</ele>
<time>2024-05-12T16:51:42Z</time>
</trkpt>
<trkpt lat="48.784995982423425" lon="9.950736947357656">
<ele>594.8</ele>
<time>2024-05-12T16:51:43Z</time>
</trkpt>
<trkpt lat="48.78502649255097" lon="9.950743652880192">
<ele>595.2</ele>
<time>2024-05-12T16:51:44Z</time>
</trkpt>
<trkpt lat="48.785072257742286" lon="9.950756980106236">
<ele>595.8</ele>
<time>2024-05-12T16:51:45Z</time>
</trkpt>
<trkpt lat="48.785114251077175" lon="9.950748430565">
<ele>596.4</ele>
<time>2024-05-12T16:51:46Z</time>
</trkpt>
<trkpt lat="48.78516001626849" lon="9.95074457488954">
<ele>596.8</ele>
<time>2024-05-12T16:51:47Z</time>
</trkpt>
<trkpt lat="48.78519052639603" lon="9.950743652880192">
<ele>597.4</ele>
<time>2024-05-12T16:51:48Z</time>
</trkpt>
<trkpt lat="48.78522489219904" lon="9.950733175501227">
<ele>598</ele>
<time>2024-05-12T16:51:49Z</time>
</trkpt>
<trkpt lat="48.78525917418301" lon="9.950733175501227">
<ele>598.4</ele>
<time>2024-05-12T16:51:50Z</time>
</trkpt>
<trkpt lat="48.78529731184244" lon="9.950731247663498">
<ele>599</ele>
<time>2024-05-12T16:51:51Z</time>
</trkpt>
<trkpt lat="48.785331677645445" lon="9.95072454214096">
<ele>599.4</ele>
<time>2024-05-12T16:51:52Z</time>
</trkpt>
<trkpt lat="48.78536604344845" lon="9.950719764456151">
<ele>599.8</ele>
<time>2024-05-12T16:51:53Z</time>
</trkpt>
<trkpt lat="48.78539655357599" lon="9.950714986771343">
<ele>600.2</ele>
<time>2024-05-12T16:51:54Z</time>
</trkpt>
<trkpt lat="48.78542706370354" lon="9.950710292905567">
<ele>600.6</ele>
<time>2024-05-12T16:51:55Z</time>
</trkpt>
<trkpt lat="48.78546134568751" lon="9.950703587383032">
<ele>601</ele>
<time>2024-05-12T16:51:56Z</time>
</trkpt>
<trkpt lat="48.785488083958626" lon="9.950696881860496">
<ele>601.4</ele>
<time>2024-05-12T16:51:57Z</time>
</trkpt>
<trkpt lat="48.785530077293515" lon="9.950695037841797">
<ele>601.8</ele>
<time>2024-05-12T16:51:58Z</time>
</trkpt>
<trkpt lat="48.78556058742106" lon="9.95068833231926">
<ele>602</ele>
<time>2024-05-12T16:51:59Z</time>
</trkpt>
<trkpt lat="48.785587241873145" lon="9.95068548247218">
<ele>602.4</ele>
<time>2024-05-12T16:52:00Z</time>
</trkpt>
<trkpt lat="48.78562160767615" lon="9.95068640448153">
<ele>602.8</ele>
<time>2024-05-12T16:52:01Z</time>
</trkpt>
<trkpt lat="48.78564449027181" lon="9.950683554634452">
<ele>603.2</ele>
<time>2024-05-12T16:52:02Z</time>
</trkpt>
<trkpt lat="48.78567500039935" lon="9.950681626796722">
<ele>603.6</ele>
<time>2024-05-12T16:52:03Z</time>
</trkpt>
<trkpt lat="48.785709366202354" lon="9.950679698958991">
<ele>604</ele>
<time>2024-05-12T16:52:04Z</time>
</trkpt>
<trkpt lat="48.78573602065444" lon="9.950672071427109">
<ele>604.4</ele>
<time>2024-05-12T16:52:05Z</time>
</trkpt>
<trkpt lat="48.78576275892556" lon="9.95066637173295">
<ele>604.8</ele>
<time>2024-05-12T16:52:06Z</time>
</trkpt>
<trkpt lat="48.7857932690531" lon="9.95066444389522">
<ele>605.2</ele>
<time>2024-05-12T16:52:07Z</time>
</trkpt>
<trkpt lat="48.78582000732422" lon="9.950658744201064">
<ele>605.4</ele>
<time>2024-05-12T16:52:08Z</time>
</trkpt>
<trkpt lat="48.78585428930819" lon="9.950656816363336">
<ele>605.8</ele>
<time>2024-05-12T16:52:09Z</time>
</trkpt>
<trkpt lat="48.78588102757931" lon="9.9506482668221">
<ele>606.2</ele>
<time>2024-05-12T16:52:10Z</time>
</trkpt>
<trkpt lat="48.78591916523874" lon="9.95064633898437">
<ele>606.6</ele>
<time>2024-05-12T16:52:11Z</time>
</trkpt>
<trkpt lat="48.78595344722271" lon="9.950658744201064">
<ele>607</ele>
<time>2024-05-12T16:52:12Z</time>
</trkpt>
<trkpt lat="48.78598018549383" lon="9.95066444389522">
<ele>607.4</ele>
<time>2024-05-12T16:52:13Z</time>
</trkpt>
<trkpt lat="48.78601455129683" lon="9.95066637173295">
<ele>608</ele>
<time>2024-05-12T16:52:14Z</time>
</trkpt>
<trkpt lat="48.7860298063606" lon="9.95066444389522">
<ele>608.4</ele>
<time>2024-05-12T16:52:15Z</time>
</trkpt>
<trkpt lat="48.78605268895626" lon="9.95066637173295">
<ele>608.8</ele>
<time>2024-05-12T16:52:16Z</time>
</trkpt>
<trkpt lat="48.78607557155192" lon="9.95066829957068">
<ele>609.4</ele>
<time>2024-05-12T16:52:17Z</time>
</trkpt>
<trkpt lat="48.78611370921135" lon="9.950676849111916">
<ele>609.8</ele>
<time>2024-05-12T16:52:18Z</time>
</trkpt>
<trkpt lat="48.78614799119532" lon="9.950681626796722">
<ele>610.2</ele>
<time>2024-05-12T16:52:19Z</time>
</trkpt>
<trkpt lat="48.78619384020567" lon="9.95068640448153">
<ele>610.8</ele>
<time>2024-05-12T16:52:20Z</time>
</trkpt>
<trkpt lat="48.78622812218964" lon="9.950691182166338">
<ele>611.2</ele>
<time>2024-05-12T16:52:21Z</time>
</trkpt>
<trkpt lat="48.78626625984907" lon="9.950697887688875">
<ele>611.6</ele>
<time>2024-05-12T16:52:22Z</time>
</trkpt>
<trkpt lat="48.78631202504039" lon="9.950711214914918">
<ele>612</ele>
<time>2024-05-12T16:52:23Z</time>
</trkpt>
<trkpt lat="48.78634261898696" lon="9.950716914609076">
<ele>612.4</ele>
<time>2024-05-12T16:52:24Z</time>
</trkpt>
<trkpt lat="48.78637312911451" lon="9.95072646997869">
<ele>612.8</ele>
<time>2024-05-12T16:52:25Z</time>
</trkpt>
<trkpt lat="48.78640741109848" lon="9.950735019519923">
<ele>613.2</ele>
<time>2024-05-12T16:52:26Z</time>
</trkpt>
<trkpt lat="48.7864341493696" lon="9.950737953186035">
<ele>613.6</ele>
<time>2024-05-12T16:52:27Z</time>
</trkpt>
<trkpt lat="48.78646465949714" lon="9.950757902115583">
<ele>614</ele>
<time>2024-05-12T16:52:28Z</time>
</trkpt>
<trkpt lat="48.7864875420928" lon="9.950771313160658">
<ele>614.4</ele>
<time>2024-05-12T16:52:29Z</time>
</trkpt>
<trkpt lat="48.786518052220345" lon="9.950783718377352">
<ele>614.8</ele>
<time>2024-05-12T16:52:30Z</time>
</trkpt>
<trkpt lat="48.786540934816" lon="9.950795117765663">
<ele>615.2</ele>
<time>2024-05-12T16:52:31Z</time>
</trkpt>
<trkpt lat="48.786556189879775" lon="9.950803751125932">
<ele>615.6</ele>
<time>2024-05-12T16:52:32Z</time>
</trkpt>
<trkpt lat="48.78658670000732" lon="9.95082470588386">
<ele>616</ele>
<time>2024-05-12T16:52:33Z</time>
</trkpt>
<trkpt lat="48.78661343827844" lon="9.950835183262823">
<ele>616.4</ele>
<time>2024-05-12T16:52:34Z</time>
</trkpt>
<trkpt lat="48.78665157593787" lon="9.950849516317248">
<ele>616.8</ele>
<time>2024-05-12T16:52:35Z</time>
</trkpt>
<trkpt lat="48.78668594174087" lon="9.950861921533942">
<ele>617.2</ele>
<time>2024-05-12T16:52:36Z</time>
</trkpt>
<trkpt lat="48.7867240794003" lon="9.950875248759983">
<ele>617.6</ele>
<time>2024-05-12T16:52:37Z</time>
</trkpt>
<trkpt lat="48.78675836138427" lon="9.950888575986028">
<ele>618</ele>
<time>2024-05-12T16:52:38Z</time>
</trkpt>
<trkpt lat="48.78678509965539" lon="9.950900059193373">
<ele>618.4</ele>
<time>2024-05-12T16:52:39Z</time>
</trkpt>
<trkpt lat="48.78680412657559" lon="9.950911458581686">
<ele>618.8</ele>
<time>2024-05-12T16:52:40Z</time>
</trkpt>
<trkpt lat="48.78683849237859" lon="9.95092486962676">
<ele>619.2</ele>
<time>2024-05-12T16:52:41Z</time>
</trkpt>
<trkpt lat="48.78686900250614" lon="9.950944818556309">
<ele>619.6</ele>
<time>2024-05-12T16:52:42Z</time>
</trkpt>
<trkpt lat="48.786891885101795" lon="9.950953451916575">
<ele>620</ele>
<time>2024-05-12T16:52:43Z</time>
</trkpt>
<trkpt lat="48.78691476769745" lon="9.950966779142618">
<ele>620.4</ele>
<time>2024-05-12T16:52:44Z</time>
</trkpt>
<trkpt lat="48.786933878436685" lon="9.950973484665155">
<ele>620.8</ele>
<time>2024-05-12T16:52:45Z</time>
</trkpt>
<trkpt lat="48.78695290535688" lon="9.95098010636866">
<ele>621.2</ele>
<time>2024-05-12T16:52:46Z</time>
</trkpt>
<trkpt lat="48.78698341548443" lon="9.950995445251465">
<ele>621.4</ele>
<time>2024-05-12T16:52:47Z</time>
</trkpt>
<trkpt lat="48.78701778128743" lon="9.951015394181011">
<ele>621.8</ele>
<time>2024-05-12T16:52:48Z</time>
</trkpt>
<trkpt lat="48.78704066388309" lon="9.951024949550629">
<ele>622.2</ele>
<time>2024-05-12T16:52:49Z</time>
</trkpt>
<trkpt lat="48.78706740215421" lon="9.951036432757974">
<ele>622.6</ele>
<time>2024-05-12T16:52:50Z</time>
</trkpt>
<trkpt lat="48.78708642907441" lon="9.951044982299209">
<ele>623</ele>
<time>2024-05-12T16:52:51Z</time>
</trkpt>
<trkpt lat="48.78710168413818" lon="9.951047832146289">
<ele>623.4</ele>
<time>2024-05-12T16:52:52Z</time>
</trkpt>
<trkpt lat="48.78712079487741" lon="9.951051687821746">
<ele>623.6</ele>
<time>2024-05-12T16:52:53Z</time>
</trkpt>
<trkpt lat="48.78713982179761" lon="9.951054537668824">
<ele>624</ele>
<time>2024-05-12T16:52:54Z</time>
</trkpt>
<trkpt lat="48.787151305004954" lon="9.951054537668824">
<ele>624.4</ele>
<time>2024-05-12T16:52:55Z</time>
</trkpt>
<trkpt lat="48.787185586988926" lon="9.951065015047789">
<ele>624.6</ele>
<time>2024-05-12T16:52:56Z</time>
</trkpt>
<trkpt lat="48.787208553403616" lon="9.95108127593994">
<ele>625</ele>
<time>2024-05-12T16:52:57Z</time>
</trkpt>
<trkpt lat="48.787227580323815" lon="9.951089825481176">
<ele>625.2</ele>
<time>2024-05-12T16:52:58Z</time>
</trkpt>
<trkpt lat="48.78724669106305" lon="9.951105080544949">
<ele>625.6</ele>
<time>2024-05-12T16:52:59Z</time>
</trkpt>
<trkpt lat="48.787265717983246" lon="9.951118407770991">
<ele>625.8</ele>
<time>2024-05-12T16:53:00Z</time>
</trkpt>
<trkpt lat="48.787288600578904" lon="9.951138440519571">
<ele>626.2</ele>
<time>2024-05-12T16:53:01Z</time>
</trkpt>
<trkpt lat="48.78731533885002" lon="9.951154701411724">
<ele>626.6</ele>
<time>2024-05-12T16:53:02Z</time>
</trkpt>
<trkpt lat="48.78734199330211" lon="9.951169956475496">
<ele>626.8</ele>
<time>2024-05-12T16:53:03Z</time>
</trkpt>
<trkpt lat="48.7873649597168" lon="9.95118135586381">
<ele>627.2</ele>
<time>2024-05-12T16:53:04Z</time>
</trkpt>
<trkpt lat="48.78738021478057" lon="9.951196610927582">
<ele>627.4</ele>
<time>2024-05-12T16:53:05Z</time>
</trkpt>
<trkpt lat="48.78739546984434" lon="9.951208094134929">
<ele>627.8</ele>
<time>2024-05-12T16:53:06Z</time>
</trkpt>
<trkpt lat="48.787425979971886" lon="9.951225277036428">
<ele>628</ele>
<time>2024-05-12T16:53:07Z</time>
</trkpt>
<trkpt lat="48.78745649009943" lon="9.951245225965977">
<ele>628.4</ele>
<time>2024-05-12T16:53:08Z</time>
</trkpt>
<trkpt lat="48.78747551701963" lon="9.951265258714557">
<ele>628.6</ele>
<time>2024-05-12T16:53:09Z</time>
</trkpt>
<trkpt lat="48.78749462775886" lon="9.951276741921902">
<ele>629</ele>
<time>2024-05-12T16:53:10Z</time>
</trkpt>
<trkpt lat="48.78751751035452" lon="9.951298702508211">
<ele>629.2</ele>
<time>2024-05-12T16:53:11Z</time>
</trkpt>
<trkpt lat="48.78754424862563" lon="9.95132158510387">
<ele>629.4</ele>
<time>2024-05-12T16:53:12Z</time>
</trkpt>
<trkpt lat="48.787567131221294" lon="9.951325356960297">
<ele>629.8</ele>
<time>2024-05-12T16:53:13Z</time>
</trkpt>
<trkpt lat="48.78759001381695" lon="9.951330134645104">
<ele>630.2</ele>
<time>2024-05-12T16:53:14Z</time>
</trkpt>
<trkpt lat="48.7876205239445" lon="9.951348239555957">
<ele>630.4</ele>
<time>2024-05-12T16:53:15Z</time>
</trkpt>
<trkpt lat="48.78765480592847" lon="9.951368272304537">
<ele>630.8</ele>
<time>2024-05-12T16:53:16Z</time>
</trkpt>
<trkpt lat="48.78768531605601" lon="9.951391154900191">
<ele>631</ele>
<time>2024-05-12T16:53:17Z</time>
</trkpt>
<trkpt lat="48.787719681859016" lon="9.951421665027738">
<ele>631.4</ele>
<time>2024-05-12T16:53:18Z</time>
</trkpt>
<trkpt lat="48.78773493692279" lon="9.95143985375762">
<ele>631.8</ele>
<time>2024-05-12T16:53:19Z</time>
</trkpt>
<trkpt lat="48.78775404766202" lon="9.951468436047437">
<ele>632</ele>
<time>2024-05-12T16:53:20Z</time>
</trkpt>
<trkpt lat="48.787780702114105" lon="9.95149701833725">
<ele>632.4</ele>
<time>2024-05-12T16:53:21Z</time>
</trkpt>
<trkpt lat="48.787799812853336" lon="9.951513279229404">
<ele>632.6</ele>
<time>2024-05-12T16:53:22Z</time>
</trkpt>
<trkpt lat="48.787822695448995" lon="9.951533311977984">
<ele>632.8</ele>
<time>2024-05-12T16:53:23Z</time>
</trkpt>
<trkpt lat="48.78784557804465" lon="9.95155803859234">
<ele>633.2</ele>
<time>2024-05-12T16:53:24Z</time>
</trkpt>
<trkpt lat="48.78786846064031" lon="9.951586704701183">
<ele>633.4</ele>
<time>2024-05-12T16:53:25Z</time>
</trkpt>
<trkpt lat="48.78789134323597" lon="9.951606737449763">
<ele>633.8</ele>
<time>2024-05-12T16:53:26Z</time>
</trkpt>
<trkpt lat="48.78791808150709" lon="9.95163339190185">
<ele>634</ele>
<time>2024-05-12T16:53:27Z</time>
</trkpt>
<trkpt lat="48.787937108427286" lon="9.951662058010696">
<ele>634.4</ele>
<time>2024-05-12T16:53:28Z</time>
</trkpt>
<trkpt lat="48.787959991022944" lon="9.951689718291163">
<ele>634.8</ele>
<time>2024-05-12T16:53:29Z</time>
</trkpt>
<trkpt lat="48.787979101762176" lon="9.951718300580978">
<ele>635.2</ele>
<time>2024-05-12T16:53:30Z</time>
</trkpt>
<trkpt lat="48.787998128682375" lon="9.951746882870792">
<ele>635.6</ele>
<time>2024-05-12T16:53:31Z</time>
</trkpt>
<trkpt lat="48.78803249448538" lon="9.951785020530224">
<ele>636</ele>
<time>2024-05-12T16:53:32Z</time>
</trkpt>
<trkpt lat="48.78805160522461" lon="9.95181175880134">
<ele>636.4</ele>
<time>2024-05-12T16:53:33Z</time>
</trkpt>
<trkpt lat="48.78807448782027" lon="9.951836569234729">
<ele>636.8</ele>
<time>2024-05-12T16:53:34Z</time>
</trkpt>
<trkpt lat="48.788097370415926" lon="9.951858446002008">
<ele>637</ele>
<time>2024-05-12T16:53:35Z</time>
</trkpt>
<trkpt lat="48.78812402486801" lon="9.951878478750588">
<ele>637.4</ele>
<time>2024-05-12T16:53:36Z</time>
</trkpt>
<trkpt lat="48.78814313560724" lon="9.95189281180501">
<ele>637.8</ele>
<time>2024-05-12T16:53:37Z</time>
</trkpt>
<trkpt lat="48.7881660182029" lon="9.95191192254424">
<ele>638.2</ele>
<time>2024-05-12T16:53:38Z</time>
</trkpt>
<trkpt lat="48.7881850451231" lon="9.951925249770284">
<ele>638.6</ele>
<time>2024-05-12T16:53:39Z</time>
</trkpt>
<trkpt lat="48.78820415586233" lon="9.951941426843405">
<ele>639</ele>
<time>2024-05-12T16:53:40Z</time>
</trkpt>
<trkpt lat="48.78822326660156" lon="9.951958609744906">
<ele>639.6</ele>
<time>2024-05-12T16:53:41Z</time>
</trkpt>
<trkpt lat="48.788238521665335" lon="9.951970092952251">
<ele>640</ele>
<time>2024-05-12T16:53:42Z</time>
</trkpt>
<trkpt lat="48.78824614919722" lon="9.951988197863102">
<ele>640.4</ele>
<time>2024-05-12T16:53:43Z</time>
</trkpt>
<trkpt lat="48.78825377672911" lon="9.95201300829649">
<ele>640.8</ele>
<time>2024-05-12T16:53:44Z</time>
</trkpt>
<trkpt lat="48.788272803649306" lon="9.952048296108842">
<ele>641.2</ele>
<time>2024-05-12T16:53:45Z</time>
</trkpt>
<trkpt lat="48.78828805871308" lon="9.952076878398657">
<ele>641.4</ele>
<time>2024-05-12T16:53:46Z</time>
</trkpt>
<trkpt lat="48.78831479698419" lon="9.952104538679125">
<ele>641.8</ele>
<time>2024-05-12T16:53:47Z</time>
</trkpt>
<trkpt lat="48.788352934643626" lon="9.952136976644397">
<ele>642</ele>
<time>2024-05-12T16:53:48Z</time>
</trkpt>
<trkpt lat="48.78839869983494" lon="9.952177042141557">
<ele>642.4</ele>
<time>2024-05-12T16:53:49Z</time>
</trkpt>
<trkpt lat="48.788433065637946" lon="9.952197074890137">
<ele>642.8</ele>
<time>2024-05-12T16:53:50Z</time>
</trkpt>
<trkpt lat="48.78846734762192" lon="9.952219957485797">
<ele>643.2</ele>
<time>2024-05-12T16:53:51Z</time>
</trkpt>
<trkpt lat="48.78850548528135" lon="9.952244684100153">
<ele>643.6</ele>
<time>2024-05-12T16:53:52Z</time>
</trkpt>
<trkpt lat="48.78853985108435" lon="9.952291455119848">
<ele>644</ele>
<time>2024-05-12T16:53:53Z</time>
</trkpt>
<trkpt lat="48.788574216887355" lon="9.952322887256742">
<ele>644.4</ele>
<time>2024-05-12T16:53:54Z</time>
</trkpt>
<trkpt lat="48.7886047270149" lon="9.952364880591633">
<ele>644.8</ele>
<time>2024-05-12T16:53:55Z</time>
</trkpt>
<trkpt lat="48.78863523714245" lon="9.952396312728524">
<ele>645.4</ele>
<time>2024-05-12T16:53:56Z</time>
</trkpt>
<trkpt lat="48.788669519126415" lon="9.952436378225684">
<ele>645.8</ele>
<time>2024-05-12T16:53:57Z</time>
</trkpt>
<trkpt lat="48.788711512461305" lon="9.952489770948889">
<ele>646.2</ele>
<time>2024-05-12T16:53:58Z</time>
</trkpt>
<trkpt lat="48.78874202258885" lon="9.95254509150982">
<ele>646.8</ele>
<time>2024-05-12T16:53:59Z</time>
</trkpt>
<trkpt lat="48.78877253271639" lon="9.95260326191783">
<ele>647.2</ele>
<time>2024-05-12T16:54:00Z</time>
</trkpt>
<trkpt lat="48.78879927098751" lon="9.95266143232584">
<ele>647.6</ele>
<time>2024-05-12T16:54:01Z</time>
</trkpt>
<trkpt lat="48.78884118050337" lon="9.952730163931848">
<ele>648.2</ele>
<time>2024-05-12T16:54:02Z</time>
</trkpt>
<trkpt lat="48.7888602912426" lon="9.952794956043364">
<ele>648.6</ele>
<time>2024-05-12T16:54:03Z</time>
</trkpt>
<trkpt lat="48.788886945694685" lon="9.952875087037684">
<ele>649</ele>
<time>2024-05-12T16:54:04Z</time>
</trkpt>
<trkpt lat="48.78890605643392" lon="9.95294189080596">
<ele>649.4</ele>
<time>2024-05-12T16:54:05Z</time>
</trkpt>
<trkpt lat="48.78891753964126" lon="9.952973322942851">
<ele>649.8</ele>
<time>2024-05-12T16:54:06Z</time>
</trkpt>
<trkpt lat="48.788928939029574" lon="9.953024787828326">
<ele>650.2</ele>
<time>2024-05-12T16:54:07Z</time>
</trkpt>
<trkpt lat="48.78893279470503" lon="9.95307533070445">
<ele>650.6</ele>
<time>2024-05-12T16:54:08Z</time>
</trkpt>
<trkpt lat="48.78894042223692" lon="9.953124951571226">
<ele>651</ele>
<time>2024-05-12T16:54:09Z</time>
</trkpt>
<trkpt lat="48.78894042223692" lon="9.95317356660962">
<ele>651.4</ele>
<time>2024-05-12T16:54:10Z</time>
</trkpt>
<trkpt lat="48.78894042223692" lon="9.953221259638669">
<ele>652</ele>
<time>2024-05-12T16:54:11Z</time>
</trkpt>
<trkpt lat="48.78893656656146" lon="9.953283285722136">
<ele>652.4</ele>
<time>2024-05-12T16:54:12Z</time>
</trkpt>
<trkpt lat="48.78893656656146" lon="9.953343383967876">
<ele>653</ele>
<time>2024-05-12T16:54:13Z</time>
</trkpt>
<trkpt lat="48.78894042223692" lon="9.95339677669108">
<ele>653.2</ele>
<time>2024-05-12T16:54:14Z</time>
</trkpt>
<trkpt lat="48.78894419409335" lon="9.95345687493682">
<ele>653.6</ele>
<time>2024-05-12T16:54:15Z</time>
</trkpt>
<trkpt lat="48.788948049768806" lon="9.953523594886065">
<ele>654</ele>
<time>2024-05-12T16:54:16Z</time>
</trkpt>
<trkpt lat="48.78895182162523" lon="9.95359132066369">
<ele>654.2</ele>
<time>2024-05-12T16:54:17Z</time>
</trkpt>
<trkpt lat="48.78895944915712" lon="9.953662818297744">
<ele>654.6</ele>
<time>2024-05-12T16:54:18Z</time>
</trkpt>
<trkpt lat="48.788970932364464" lon="9.95372861623764">
<ele>655.2</ele>
<time>2024-05-12T16:54:19Z</time>
</trkpt>
<trkpt lat="48.78898995928466" lon="9.953796342015266">
<ele>655.6</ele>
<time>2024-05-12T16:54:20Z</time>
</trkpt>
<trkpt lat="48.78903195261955" lon="9.95386498980224">
<ele>656</ele>
<time>2024-05-12T16:54:21Z</time>
</trkpt>
<trkpt lat="48.789047207683325" lon="9.953923160210252">
<ele>656.6</ele>
<time>2024-05-12T16:54:22Z</time>
</trkpt>
<trkpt lat="48.78907771781087" lon="9.953981330618262">
<ele>657</ele>
<time>2024-05-12T16:54:23Z</time>
</trkpt>
<trkpt lat="48.789108227938414" lon="9.954036651179194">
<ele>657.2</ele>
<time>2024-05-12T16:54:24Z</time>
</trkpt>
<trkpt lat="48.789127338677645" lon="9.954092977568507">
<ele>657.4</ele>
<time>2024-05-12T16:54:25Z</time>
</trkpt>
<trkpt lat="48.789161620661616" lon="9.954168247058988">
<ele>657.8</ele>
<time>2024-05-12T16:54:26Z</time>
</trkpt>
<trkpt lat="48.78917687572539" lon="9.954230273142455">
<ele>658.2</ele>
<time>2024-05-12T16:54:27Z</time>
</trkpt>
<trkpt lat="48.78919975832105" lon="9.95428366586566">
<ele>658.6</ele>
<time>2024-05-12T16:54:28Z</time>
</trkpt>
<trkpt lat="48.789222640916705" lon="9.954333286732435">
<ele>659</ele>
<time>2024-05-12T16:54:30Z</time>
</trkpt>
<trkpt lat="48.78923026844859" lon="9.95438282378018">
<ele>659.6</ele>
<time>2024-05-12T16:54:31Z</time>
</trkpt>
<trkpt lat="48.789264634251595" lon="9.954489693045616">
<ele>660.6</ele>
<time>2024-05-12T16:54:32Z</time>
</trkpt>
<trkpt lat="48.78927988931537" lon="9.954538308084013">
<ele>661.2</ele>
<time>2024-05-12T16:54:33Z</time>
</trkpt>
<trkpt lat="48.78929137252271" lon="9.954593628644943">
<ele>661.6</ele>
<time>2024-05-12T16:54:34Z</time>
</trkpt>
<trkpt lat="48.78930662758648" lon="9.95465657673776">
<ele>662.2</ele>
<time>2024-05-12T16:54:35Z</time>
</trkpt>
<trkpt lat="48.78932565450668" lon="9.954709969460964">
<ele>662.6</ele>
<time>2024-05-12T16:54:36Z</time>
</trkpt>
<trkpt lat="48.789340909570456" lon="9.954766212031243">
<ele>663.2</ele>
<time>2024-05-12T16:54:37Z</time>
</trkpt>
<trkpt lat="48.7893523927778" lon="9.954811977222562">
<ele>663.6</ele>
<time>2024-05-12T16:54:38Z</time>
</trkpt>
<trkpt lat="48.78936002030969" lon="9.95485682040453">
<ele>664</ele>
<time>2024-05-12T16:54:39Z</time>
</trkpt>
<trkpt lat="48.789371419698" lon="9.954899735748768">
<ele>664.4</ele>
<time>2024-05-12T16:54:40Z</time>
</trkpt>
<trkpt lat="48.789379047229886" lon="9.954937873408198">
<ele>664.8</ele>
<time>2024-05-12T16:54:41Z</time>
</trkpt>
<trkpt lat="48.78938667476177" lon="9.95497508905828">
<ele>665.2</ele>
<time>2024-05-12T16:54:42Z</time>
</trkpt>
<trkpt lat="48.78938667476177" lon="9.955008449032904">
<ele>665.8</ele>
<time>2024-05-12T16:54:43Z</time>
</trkpt>
<trkpt lat="48.78939430229366" lon="9.955046586692331">
<ele>666.2</ele>
<time>2024-05-12T16:54:44Z</time>
</trkpt>
<trkpt lat="48.789401929825544" lon="9.955081874504684">
<ele>666.6</ele>
<time>2024-05-12T16:54:45Z</time>
</trkpt>
<trkpt lat="48.78940955735743" lon="9.955124789848924">
<ele>666.8</ele>
<time>2024-05-12T16:54:46Z</time>
</trkpt>
<trkpt lat="48.789421040564775" lon="9.955162005499004">
<ele>667.2</ele>
<time>2024-05-12T16:54:47Z</time>
</trkpt>
<trkpt lat="48.78942866809666" lon="9.955196371302009">
<ele>667.6</ele>
<time>2024-05-12T16:54:48Z</time>
</trkpt>
<trkpt lat="48.78944015130401" lon="9.955236352980137">
<ele>667.8</ele>
<time>2024-05-12T16:54:49Z</time>
</trkpt>
<trkpt lat="48.78944777883589" lon="9.955271640792487">
<ele>668.2</ele>
<time>2024-05-12T16:54:50Z</time>
</trkpt>
<trkpt lat="48.78944777883589" lon="9.955301228910685">
<ele>668.6</ele>
<time>2024-05-12T16:54:51Z</time>
</trkpt>
<trkpt lat="48.78945155069232" lon="9.955327967181802">
<ele>668.8</ele>
<time>2024-05-12T16:54:52Z</time>
</trkpt>
<trkpt lat="48.78944777883589" lon="9.955360405147076">
<ele>669.2</ele>
<time>2024-05-12T16:54:53Z</time>
</trkpt>
<trkpt lat="48.78944777883589" lon="9.955388065427542">
<ele>669.6</ele>
<time>2024-05-12T16:54:54Z</time>
</trkpt>
<trkpt lat="48.78945155069232" lon="9.955423353239894">
<ele>669.8</ele>
<time>2024-05-12T16:54:55Z</time>
</trkpt>
<trkpt lat="48.78945155069232" lon="9.955456713214517">
<ele>669.8</ele>
<time>2024-05-12T16:54:56Z</time>
</trkpt>
<trkpt lat="48.78945540636778" lon="9.955494850873947">
<ele>670</ele>
<time>2024-05-12T16:54:57Z</time>
</trkpt>
<trkpt lat="48.78945155069232" lon="9.955538688227534">
<ele>670</ele>
<time>2024-05-12T16:54:58Z</time>
</trkpt>
<trkpt lat="48.78944777883589" lon="9.955576825886965">
<ele>670.2</ele>
<time>2024-05-12T16:54:59Z</time>
</trkpt>
<trkpt lat="48.78944015130401" lon="9.955621669068933">
<ele>670.4</ele>
<time>2024-05-12T16:55:00Z</time>
</trkpt>
<trkpt lat="48.78942866809666" lon="9.955673217773438">
<ele>670.8</ele>
<time>2024-05-12T16:55:01Z</time>
</trkpt>
<trkpt lat="48.789424896240234" lon="9.955731388181448">
<ele>671</ele>
<time>2024-05-12T16:55:02Z</time>
</trkpt>
<trkpt lat="48.789424896240234" lon="9.955780003219845">
<ele>671.4</ele>
<time>2024-05-12T16:55:03Z</time>
</trkpt>
<trkpt lat="48.789421040564775" lon="9.955826690420508">
<ele>671.6</ele>
<time>2024-05-12T16:55:04Z</time>
</trkpt>
<trkpt lat="48.78940955735743" lon="9.955869605764748">
<ele>672</ele>
<time>2024-05-12T16:55:05Z</time>
</trkpt>
<trkpt lat="48.78939815796912" lon="9.955913526937366">
<ele>672.4</ele>
<time>2024-05-12T16:55:06Z</time>
</trkpt>
<trkpt lat="48.78939430229366" lon="9.955955436453223">
<ele>672.6</ele>
<time>2024-05-12T16:55:07Z</time>
</trkpt>
<trkpt lat="48.789382902905345" lon="9.955986952409148">
<ele>673</ele>
<time>2024-05-12T16:55:08Z</time>
</trkpt>
<trkpt lat="48.789371419698" lon="9.956011762842536">
<ele>673.2</ele>
<time>2024-05-12T16:55:09Z</time>
</trkpt>
<trkpt lat="48.78934853710234" lon="9.956031795591116">
<ele>673.4</ele>
<time>2024-05-12T16:55:10Z</time>
</trkpt>
<trkpt lat="48.78932565450668" lon="9.956053672358394">
<ele>673.4</ele>
<time>2024-05-12T16:55:11Z</time>
</trkpt>
<trkpt lat="48.789302771911025" lon="9.956074710935354">
<ele>673.4</ele>
<time>2024-05-12T16:55:12Z</time>
</trkpt>
<trkpt lat="48.78927988931537" lon="9.95610044337809">
<ele>673.4</ele>
<time>2024-05-12T16:55:13Z</time>
</trkpt>
<trkpt lat="48.78925700671971" lon="9.95612332597375">
<ele>673.4</ele>
<time>2024-05-12T16:55:14Z</time>
</trkpt>
<trkpt lat="48.78923026844859" lon="9.956151908263564">
<ele>673.4</ele>
<time>2024-05-12T16:55:15Z</time>
</trkpt>
<trkpt lat="48.789203613996506" lon="9.95618149638176">
<ele>673.4</ele>
<time>2024-05-12T16:55:16Z</time>
</trkpt>
<trkpt lat="48.78917687572539" lon="9.956214856356382">
<ele>673.2</ele>
<time>2024-05-12T16:55:17Z</time>
</trkpt>
<trkpt lat="48.7891502212733" lon="9.956248216331003">
<ele>673</ele>
<time>2024-05-12T16:55:18Z</time>
</trkpt>
<trkpt lat="48.789127338677645" lon="9.95627973228693">
<ele>673</ele>
<time>2024-05-12T16:55:19Z</time>
</trkpt>
<trkpt lat="48.789108227938414" lon="9.956310242414474">
<ele>673</ele>
<time>2024-05-12T16:55:20Z</time>
</trkpt>
<trkpt lat="48.789085345342755" lon="9.956335052847862">
<ele>673.2</ele>
<time>2024-05-12T16:55:21Z</time>
</trkpt>
<trkpt lat="48.78907009027898" lon="9.95635793544352">
<ele>673.4</ele>
<time>2024-05-12T16:55:22Z</time>
</trkpt>
<trkpt lat="48.78905097953975" lon="9.956379812210798">
<ele>673.6</ele>
<time>2024-05-12T16:55:23Z</time>
</trkpt>
<trkpt lat="48.78903958015144" lon="9.956401772797108">
<ele>673.8</ele>
<time>2024-05-12T16:55:24Z</time>
</trkpt>
<trkpt lat="48.78902432508767" lon="9.95641803368926">
<ele>674</ele>
<time>2024-05-12T16:55:25Z</time>
</trkpt>
<trkpt lat="48.789009070023894" lon="9.95643706060946">
<ele>674</ele>
<time>2024-05-12T16:55:26Z</time>
</trkpt>
<trkpt lat="48.78898995928466" lon="9.95645516552031">
<ele>674.2</ele>
<time>2024-05-12T16:55:27Z</time>
</trkpt>
<trkpt lat="48.788970932364464" lon="9.956486681476235">
<ele>674.4</ele>
<time>2024-05-12T16:55:28Z</time>
</trkpt>
<trkpt lat="48.788948049768806" lon="9.95651333592832">
<ele>674.6</ele>
<time>2024-05-12T16:55:29Z</time>
</trkpt>
<trkpt lat="48.78892516717315" lon="9.95653621852398">
<ele>674.8</ele>
<time>2024-05-12T16:55:30Z</time>
</trkpt>
<trkpt lat="48.78890605643392" lon="9.956549629569054">
<ele>674.8</ele>
<time>2024-05-12T16:55:31Z</time>
</trkpt>
<trkpt lat="48.788886945694685" lon="9.956560106948018">
<ele>674.8</ele>
<time>2024-05-12T16:55:32Z</time>
</trkpt>
<trkpt lat="48.78887169063091" lon="9.956564884632826">
<ele>674.8</ele>
<time>2024-05-12T16:55:33Z</time>
</trkpt>
<trkpt lat="48.7888602912426" lon="9.95657343417406">
<ele>674.8</ele>
<time>2024-05-12T16:55:34Z</time>
</trkpt>
<trkpt lat="48.78885643556714" lon="9.95659346692264">
<ele>675</ele>
<time>2024-05-12T16:55:35Z</time>
</trkpt>
<trkpt lat="48.788848808035254" lon="9.95661542750895">
<ele>675.2</ele>
<time>2024-05-12T16:55:36Z</time>
</trkpt>
<trkpt lat="48.78884503617883" lon="9.956649709492922">
<ele>675.2</ele>
<time>2024-05-12T16:55:37Z</time>
</trkpt>
<trkpt lat="48.78883740864694" lon="9.956681225448849">
<ele>675.2</ele>
<time>2024-05-12T16:55:38Z</time>
</trkpt>
<trkpt lat="48.788829781115055" lon="9.956705030053854">
<ele>675.2</ele>
<time>2024-05-12T16:55:39Z</time>
</trkpt>
<trkpt lat="48.78881452605128" lon="9.9567165132612">
<ele>675.2</ele>
<time>2024-05-12T16:55:40Z</time>
</trkpt>
<trkpt lat="48.78879927098751" lon="9.956723134964705">
<ele>675</ele>
<time>2024-05-12T16:55:41Z</time>
</trkpt>
<trkpt lat="48.78878016024828" lon="9.9567336961627">
<ele>675</ele>
<time>2024-05-12T16:55:42Z</time>
</trkpt>
<trkpt lat="48.78876490518451" lon="9.956745095551014">
<ele>675</ele>
<time>2024-05-12T16:55:43Z</time>
</trkpt>
<trkpt lat="48.788749650120735" lon="9.95675465092063">
<ele>675</ele>
<time>2024-05-12T16:55:44Z</time>
</trkpt>
<trkpt lat="48.78873439505696" lon="9.956765128299594">
<ele>675</ele>
<time>2024-05-12T16:55:45Z</time>
</trkpt>
<trkpt lat="48.78871528431773" lon="9.956771833822131">
<ele>675.2</ele>
<time>2024-05-12T16:55:46Z</time>
</trkpt>
<trkpt lat="48.78870002925396" lon="9.956785161048174">
<ele>675.2</ele>
<time>2024-05-12T16:55:47Z</time>
</trkpt>
<trkpt lat="48.788692401722074" lon="9.956801338121297">
<ele>675.2</ele>
<time>2024-05-12T16:55:48Z</time>
</trkpt>
<trkpt lat="48.788669519126415" lon="9.956828076392412">
<ele>675.2</ele>
<time>2024-05-12T16:55:49Z</time>
</trkpt>
<trkpt lat="48.78864663653076" lon="9.956850036978722">
<ele>675.2</ele>
<time>2024-05-12T16:55:50Z</time>
</trkpt>
<trkpt lat="48.78861998207867" lon="9.956878619268537">
<ele>675.2</ele>
<time>2024-05-12T16:55:51Z</time>
</trkpt>
<trkpt lat="48.78858947195113" lon="9.956906279549004">
<ele>675.4</ele>
<time>2024-05-12T16:55:52Z</time>
</trkpt>
<trkpt lat="48.78856273368001" lon="9.956923462450504">
<ele>675.4</ele>
<time>2024-05-12T16:55:53Z</time>
</trkpt>
<trkpt lat="48.78853599540889" lon="9.956938717514277">
<ele>675.6</ele>
<time>2024-05-12T16:55:54Z</time>
</trkpt>
<trkpt lat="48.78850934095681" lon="9.956959672272204">
<ele>675.8</ele>
<time>2024-05-12T16:55:55Z</time>
</trkpt>
<trkpt lat="48.78848260268569" lon="9.956974927335978">
<ele>675.8</ele>
<time>2024-05-12T16:55:56Z</time>
</trkpt>
<trkpt lat="48.78845972009003" lon="9.956983560696244">
<ele>676</ele>
<time>2024-05-12T16:55:57Z</time>
</trkpt>
<trkpt lat="48.78843683749437" lon="9.956994960084558">
<ele>676</ele>
<time>2024-05-12T16:55:58Z</time>
</trkpt>
<trkpt lat="48.78841018304229" lon="9.957024548202751">
<ele>676.2</ele>
<time>2024-05-12T16:55:59Z</time>
</trkpt>
<trkpt lat="48.78837958909571" lon="9.957053130492568">
<ele>676.2</ele>
<time>2024-05-12T16:56:00Z</time>
</trkpt>
<trkpt lat="48.78834907896817" lon="9.957083640620112">
<ele>676.2</ele>
<time>2024-05-12T16:56:01Z</time>
</trkpt>
<trkpt lat="48.78833005204797" lon="9.957104679197071">
<ele>676.4</ele>
<time>2024-05-12T16:56:02Z</time>
</trkpt>
<trkpt lat="48.78831094130874" lon="9.95713041163981">
<ele>676.4</ele>
<time>2024-05-12T16:56:03Z</time>
</trkpt>
<trkpt lat="48.78829191438854" lon="9.957153294235468">
<ele>676.6</ele>
<time>2024-05-12T16:56:04Z</time>
</trkpt>
<trkpt lat="48.78826517611742" lon="9.957173326984048">
<ele>676.8</ele>
<time>2024-05-12T16:56:05Z</time>
</trkpt>
<trkpt lat="48.788238521665335" lon="9.95718858204782">
<ele>677</ele>
<time>2024-05-12T16:56:06Z</time>
</trkpt>
<trkpt lat="48.788215555250645" lon="9.95720475912094">
<ele>677.2</ele>
<time>2024-05-12T16:56:07Z</time>
</trkpt>
<trkpt lat="48.788192672654986" lon="9.957221942022445">
<ele>677.6</ele>
<time>2024-05-12T16:56:08Z</time>
</trkpt>
<trkpt lat="48.78816979005933" lon="9.957235269248486">
<ele>677.8</ele>
<time>2024-05-12T16:56:09Z</time>
</trkpt>
<trkpt lat="48.78814313560724" lon="9.95724868029356">
<ele>678.2</ele>
<time>2024-05-12T16:56:10Z</time>
</trkpt>
<trkpt lat="48.78812402486801" lon="9.957256307825446">
<ele>678.4</ele>
<time>2024-05-12T16:56:11Z</time>
</trkpt>
<trkpt lat="48.788097370415926" lon="9.95726871304214">
<ele>678.6</ele>
<time>2024-05-12T16:56:12Z</time>
</trkpt>
<trkpt lat="48.78807063214481" lon="9.957280112430452">
<ele>678.8</ele>
<time>2024-05-12T16:56:13Z</time>
</trkpt>
<trkpt lat="48.788040122017264" lon="9.957302995026112">
<ele>679</ele>
<time>2024-05-12T16:56:14Z</time>
</trkpt>
<trkpt lat="48.78800961188972" lon="9.957320177927611">
<ele>679.2</ele>
<time>2024-05-12T16:56:15Z</time>
</trkpt>
<trkpt lat="48.787979101762176" lon="9.957336355000734">
<ele>679.4</ele>
<time>2024-05-12T16:56:16Z</time>
</trkpt>
<trkpt lat="48.78795236349106" lon="9.957360243424771">
<ele>679.6</ele>
<time>2024-05-12T16:56:17Z</time>
</trkpt>
<trkpt lat="48.787921853363514" lon="9.957383126020432">
<ele>679.8</ele>
<time>2024-05-12T16:56:18Z</time>
</trkpt>
<trkpt lat="48.78789519891143" lon="9.95740693062544">
<ele>680</ele>
<time>2024-05-12T16:56:19Z</time>
</trkpt>
<trkpt lat="48.787856977432966" lon="9.9574279692024">
<ele>680</ele>
<time>2024-05-12T16:56:20Z</time>
</trkpt>
<trkpt lat="48.78781506791711" lon="9.957456551492214">
<ele>680</ele>
<time>2024-05-12T16:56:21Z</time>
</trkpt>
<trkpt lat="48.787761675193906" lon="9.95748513378203">
<ele>680.2</ele>
<time>2024-05-12T16:56:22Z</time>
</trkpt>
<trkpt lat="48.7877082824707" lon="9.957519499585032">
<ele>680.4</ele>
<time>2024-05-12T16:56:23Z</time>
</trkpt>
<trkpt lat="48.787662433460355" lon="9.957552859559655">
<ele>680.4</ele>
<time>2024-05-12T16:56:24Z</time>
</trkpt>
<trkpt lat="48.78761289641261" lon="9.957566186785698">
<ele>680.4</ele>
<time>2024-05-12T16:56:25Z</time>
</trkpt>
<trkpt lat="48.78757475875318" lon="9.9575833696872">
<ele>680.6</ele>
<time>2024-05-12T16:56:26Z</time>
</trkpt>
<trkpt lat="48.78753276541829" lon="9.957599630579352">
<ele>680.8</ele>
<time>2024-05-12T16:56:27Z</time>
</trkpt>
<trkpt lat="48.7874907720834" lon="9.957612035796046">
<ele>681</ele>
<time>2024-05-12T16:56:28Z</time>
</trkpt>
<trkpt lat="48.787445006892085" lon="9.957626285031438">
<ele>681.2</ele>
<time>2024-05-12T16:56:29Z</time>
</trkpt>
<trkpt lat="48.787406869232655" lon="9.95763961225748">
<ele>681.4</ele>
<time>2024-05-12T16:56:30Z</time>
</trkpt>
<trkpt lat="48.787368731573224" lon="9.95764154009521">
<ele>681.6</ele>
<time>2024-05-12T16:56:31Z</time>
</trkpt>
<trkpt lat="48.787326738238335" lon="9.957654951140285">
<ele>682</ele>
<time>2024-05-12T16:56:32Z</time>
</trkpt>
<trkpt lat="48.78728097304702" lon="9.9576835334301">
<ele>682.2</ele>
<time>2024-05-12T16:56:33Z</time>
</trkpt>
<trkpt lat="48.787227580323815" lon="9.957708343863487">
<ele>682.6</ele>
<time>2024-05-12T16:56:34Z</time>
</trkpt>
<trkpt lat="48.7871818151325" lon="9.957737848162653">
<ele>682.8</ele>
<time>2024-05-12T16:56:35Z</time>
</trkpt>
<trkpt lat="48.78713982179761" lon="9.95775980874896">
<ele>683.2</ele>
<time>2024-05-12T16:56:36Z</time>
</trkpt>
<trkpt lat="48.787109311670065" lon="9.957777913659813">
<ele>683.6</ele>
<time>2024-05-12T16:56:37Z</time>
</trkpt>
<trkpt lat="48.78707502968609" lon="9.957797024399042">
<ele>684.2</ele>
<time>2024-05-12T16:56:38Z</time>
</trkpt>
<trkpt lat="48.78704451955855" lon="9.957813201472163">
<ele>684.4</ele>
<time>2024-05-12T16:56:39Z</time>
</trkpt>
<trkpt lat="48.78701392561197" lon="9.957833234220743">
<ele>684.8</ele>
<time>2024-05-12T16:56:40Z</time>
</trkpt>
<trkpt lat="48.786979643628" lon="9.957848489284515">
<ele>685.2</ele>
<time>2024-05-12T16:56:41Z</time>
</trkpt>
<trkpt lat="48.78693765029311" lon="9.957870449870825">
<ele>685.6</ele>
<time>2024-05-12T16:56:42Z</time>
</trkpt>
<trkpt lat="48.78687663003802" lon="9.957895260304213">
<ele>686</ele>
<time>2024-05-12T16:56:43Z</time>
</trkpt>
<trkpt lat="48.78681938163936" lon="9.95792292058468">
<ele>686.2</ele>
<time>2024-05-12T16:56:44Z</time>
</trkpt>
<trkpt lat="48.786773616448045" lon="9.957941947504878">
<ele>686.6</ele>
<time>2024-05-12T16:56:45Z</time>
</trkpt>
<trkpt lat="48.78672785125673" lon="9.9579562805593">
<ele>687</ele>
<time>2024-05-12T16:56:46Z</time>
</trkpt>
<trkpt lat="48.78668594174087" lon="9.957968685775995">
<ele>687.4</ele>
<time>2024-05-12T16:56:47Z</time>
</trkpt>
<trkpt lat="48.786655347794294" lon="9.9579753074795">
<ele>687.6</ele>
<time>2024-05-12T16:56:48Z</time>
</trkpt>
<trkpt lat="48.786617210134864" lon="9.957980085164309">
<ele>688</ele>
<time>2024-05-12T16:56:49Z</time>
</trkpt>
<trkpt lat="48.78658670000732" lon="9.957982013002038">
<ele>688.4</ele>
<time>2024-05-12T16:56:50Z</time>
</trkpt>
<trkpt lat="48.78655241802335" lon="9.957982935011389">
<ele>688.8</ele>
<time>2024-05-12T16:56:51Z</time>
</trkpt>
<trkpt lat="48.78652953542769" lon="9.957991568371654">
<ele>689</ele>
<time>2024-05-12T16:56:52Z</time>
</trkpt>
<trkpt lat="48.7865219078958" lon="9.957991568371654">
<ele>689.4</ele>
<time>2024-05-12T16:56:53Z</time>
</trkpt>
<trkpt lat="48.78651428036392" lon="9.958000117912889">
<ele>689.4</ele>
<time>2024-05-12T16:56:54Z</time>
</trkpt>
<trkpt lat="48.78650279715657" lon="9.958009673282504">
<ele>689.6</ele>
<time>2024-05-12T16:56:55Z</time>
</trkpt>
<trkpt lat="48.78650279715657" lon="9.958013528957965">
<ele>689.6</ele>
<time>2024-05-12T16:56:56Z</time>
</trkpt>
<trkpt lat="48.78649894148111" lon="9.95801537297666">
<ele>689.6</ele>
<time>2024-05-12T16:56:57Z</time>
</trkpt>
<trkpt lat="48.78649894148111" lon="9.95801637880504">
<ele>689.8</ele>
<time>2024-05-12T16:56:58Z</time>
</trkpt>
<trkpt lat="48.78649894148111" lon="9.95801537297666">
<ele>689.8</ele>
<time>2024-05-12T16:56:59Z</time>
</trkpt>
<trkpt lat="48.786495169624686" lon="9.958013528957965">
<ele>690</ele>
<time>2024-05-12T16:57:00Z</time>
</trkpt>
<trkpt lat="48.786495169624686" lon="9.958011601120234">
<ele>690</ele>
<time>2024-05-12T16:57:01Z</time>
</trkpt>
<trkpt lat="48.78649131394923" lon="9.958009673282504">
<ele>690.2</ele>
<time>2024-05-12T16:57:02Z</time>
</trkpt>
<trkpt lat="48.7864875420928" lon="9.958008751273155">
<ele>690.2</ele>
<time>2024-05-12T16:57:03Z</time>
</trkpt>
<trkpt lat="48.7864875420928" lon="9.958009673282504">
<ele>690</ele>
<time>2024-05-12T16:57:04Z</time>
</trkpt>
<trkpt lat="48.78648368641734" lon="9.958009673282504">
<ele>690</ele>
<time>2024-05-12T16:57:05Z</time>
</trkpt>
<trkpt lat="48.78648368641734" lon="9.958011601120234">
<ele>690</ele>
<time>2024-05-12T16:57:06Z</time>
</trkpt>
<trkpt lat="48.786479914560914" lon="9.958013528957965">
<ele>690</ele>
<time>2024-05-12T16:57:07Z</time>
</trkpt>
<trkpt lat="48.786479914560914" lon="9.95801537297666">
<ele>690</ele>
<time>2024-05-12T16:57:08Z</time>
</trkpt>
<trkpt lat="48.786479914560914" lon="9.958013528957965">
<ele>689.8</ele>
<time>2024-05-12T16:57:09Z</time>
</trkpt>
<trkpt lat="48.786476058885455" lon="9.958009673282504">
<ele>689.8</ele>
<time>2024-05-12T16:57:10Z</time>
</trkpt>
<trkpt lat="48.78646465949714" lon="9.958004895597696">
<ele>689.8</ele>
<time>2024-05-12T16:57:11Z</time>
</trkpt>
<trkpt lat="48.78644554875791" lon="9.958000117912889">
<ele>689.6</ele>
<time>2024-05-12T16:57:12Z</time>
</trkpt>
<trkpt lat="48.78643029369414" lon="9.957989640533924">
<ele>689.6</ele>
<time>2024-05-12T16:57:13Z</time>
</trkpt>
<trkpt lat="48.78640363924205" lon="9.957989640533924">
<ele>689.6</ele>
<time>2024-05-12T16:57:14Z</time>
</trkpt>
<trkpt lat="48.78637312911451" lon="9.957982013002038">
<ele>689.6</ele>
<time>2024-05-12T16:57:15Z</time>
</trkpt>
<trkpt lat="48.786338763311505" lon="9.95797631330788">
<ele>689.4</ele>
<time>2024-05-12T16:57:16Z</time>
</trkpt>
<trkpt lat="48.78630825318396" lon="9.957971535623074">
<ele>689.4</ele>
<time>2024-05-12T16:57:17Z</time>
</trkpt>
<trkpt lat="48.78627011552453" lon="9.957969607785344">
<ele>689.4</ele>
<time>2024-05-12T16:57:18Z</time>
</trkpt>
<trkpt lat="48.78623574972153" lon="9.95795820839703">
<ele>689.4</ele>
<time>2024-05-12T16:57:19Z</time>
</trkpt>
<trkpt lat="48.786201467737556" lon="9.957949575036764">
<ele>689.4</ele>
<time>2024-05-12T16:57:20Z</time>
</trkpt>
<trkpt lat="48.786163330078125" lon="9.957949575036764">
<ele>689.4</ele>
<time>2024-05-12T16:57:21Z</time>
</trkpt>
<trkpt lat="48.78612510859966" lon="9.957966757938266">
<ele>689.2</ele>
<time>2024-05-12T16:57:22Z</time>
</trkpt>
<trkpt lat="48.786083199083805" lon="9.957964830100536">
<ele>689.2</ele>
<time>2024-05-12T16:57:23Z</time>
</trkpt>
<trkpt lat="48.786045061424375" lon="9.957968685775995">
<ele>689.2</ele>
<time>2024-05-12T16:57:24Z</time>
</trkpt>
<trkpt lat="48.78601069562137" lon="9.957968685775995">
<ele>689.4</ele>
<time>2024-05-12T16:57:25Z</time>
</trkpt>
<trkpt lat="48.78597255796194" lon="9.957966757938266">
<ele>689.4</ele>
<time>2024-05-12T16:57:26Z</time>
</trkpt>
<trkpt lat="48.78593819215894" lon="9.957961980253458">
<ele>689.4</ele>
<time>2024-05-12T16:57:27Z</time>
</trkpt>
<trkpt lat="48.78589628264308" lon="9.957961980253458">
<ele>689.4</ele>
<time>2024-05-12T16:57:28Z</time>
</trkpt>
<trkpt lat="48.78586191684008" lon="9.957960052415729">
<ele>689.4</ele>
<time>2024-05-12T16:57:29Z</time>
</trkpt>
<trkpt lat="48.78583140671253" lon="9.95796298608184">
<ele>689.4</ele>
<time>2024-05-12T16:57:30Z</time>
</trkpt>
<trkpt lat="48.78580089658499" lon="9.95796298608184">
<ele>689.6</ele>
<time>2024-05-12T16:57:31Z</time>
</trkpt>
<trkpt lat="48.78576275892556" lon="9.95796298608184">
<ele>689.6</ele>
<time>2024-05-12T16:57:32Z</time>
</trkpt>
<trkpt lat="48.78572076559067" lon="9.95795820839703">
<ele>689.6</ele>
<time>2024-05-12T16:57:33Z</time>
</trkpt>
<trkpt lat="48.78568262793124" lon="9.957955358549953">
<ele>689.6</ele>
<time>2024-05-12T16:57:34Z</time>
</trkpt>
<trkpt lat="48.785648345947266" lon="9.957953430712225">
<ele>689.8</ele>
<time>2024-05-12T16:57:35Z</time>
</trkpt>
<trkpt lat="48.78561398014426" lon="9.9579562805593">
<ele>689.8</ele>
<time>2024-05-12T16:57:36Z</time>
</trkpt>
<trkpt lat="48.78558347001672" lon="9.95795820839703">
<ele>689.8</ele>
<time>2024-05-12T16:57:37Z</time>
</trkpt>
<trkpt lat="48.78554533235729" lon="9.957960052415729">
<ele>690</ele>
<time>2024-05-12T16:57:38Z</time>
</trkpt>
<trkpt lat="48.78551859408617" lon="9.957966757938266">
<ele>690</ele>
<time>2024-05-12T16:57:39Z</time>
</trkpt>
<trkpt lat="48.785488083958626" lon="9.957971535623074">
<ele>690.2</ele>
<time>2024-05-12T16:57:40Z</time>
</trkpt>
<trkpt lat="48.78545757383108" lon="9.957982013002038">
<ele>690.4</ele>
<time>2024-05-12T16:57:41Z</time>
</trkpt>
<trkpt lat="48.78543469123542" lon="9.957988718524575">
<ele>690.6</ele>
<time>2024-05-12T16:57:42Z</time>
</trkpt>
<trkpt lat="48.785407952964306" lon="9.957993496209385">
<ele>690.6</ele>
<time>2024-05-12T16:57:43Z</time>
</trkpt>
<trkpt lat="48.78538507036865" lon="9.95799534022808">
<ele>690.8</ele>
<time>2024-05-12T16:57:44Z</time>
</trkpt>
<trkpt lat="48.78535841591656" lon="9.958000117912889">
<ele>690.8</ele>
<time>2024-05-12T16:57:45Z</time>
</trkpt>
<trkpt lat="48.78532790578902" lon="9.958009673282504">
<ele>690.8</ele>
<time>2024-05-12T16:57:46Z</time>
</trkpt>
<trkpt lat="48.7853011675179" lon="9.95801537297666">
<ele>691</ele>
<time>2024-05-12T16:57:47Z</time>
</trkpt>
<trkpt lat="48.78528205677867" lon="9.958013528957965">
<ele>691.2</ele>
<time>2024-05-12T16:57:48Z</time>
</trkpt>
<trkpt lat="48.78525917418301" lon="9.95801637880504">
<ele>691.4</ele>
<time>2024-05-12T16:57:49Z</time>
</trkpt>
<trkpt lat="48.78524014726281" lon="9.958020150661469">
<ele>691.6</ele>
<time>2024-05-12T16:57:50Z</time>
</trkpt>
<trkpt lat="48.78521726466715" lon="9.958026856184006">
<ele>691.8</ele>
<time>2024-05-12T16:57:51Z</time>
</trkpt>
<trkpt lat="48.785194382071495" lon="9.958040183410048">
<ele>692</ele>
<time>2024-05-12T16:57:52Z</time>
</trkpt>
<trkpt lat="48.78517149947584" lon="9.958049738779664">
<ele>692.2</ele>
<time>2024-05-12T16:57:53Z</time>
</trkpt>
<trkpt lat="48.78513713367283" lon="9.958063066005709">
<ele>692.6</ele>
<time>2024-05-12T16:57:54Z</time>
</trkpt>
<trkpt lat="48.7851180229336" lon="9.958074549213052">
<ele>693</ele>
<time>2024-05-12T16:57:55Z</time>
</trkpt>
<trkpt lat="48.785095140337944" lon="9.95809835381806">
<ele>693.2</ele>
<time>2024-05-12T16:57:56Z</time>
</trkpt>
<trkpt lat="48.78507988527417" lon="9.958113608881831">
<ele>693.4</ele>
<time>2024-05-12T16:57:57Z</time>
</trkpt>
<trkpt lat="48.78504937514663" lon="9.958127941936256">
<ele>693.6</ele>
<time>2024-05-12T16:57:58Z</time>
</trkpt>
<trkpt lat="48.78502649255097" lon="9.958160379901528">
<ele>694</ele>
<time>2024-05-12T16:57:59Z</time>
</trkpt>
<trkpt lat="48.785015093162656" lon="9.958191812038422">
<ele>694.4</ele>
<time>2024-05-12T16:58:00Z</time>
</trkpt>
<trkpt lat="48.78500746563077" lon="9.958221400156615">
<ele>694.6</ele>
<time>2024-05-12T16:58:01Z</time>
</trkpt>
<trkpt lat="48.784995982423425" lon="9.95825668796897">
<ele>694.8</ele>
<time>2024-05-12T16:58:02Z</time>
</trkpt>
<trkpt lat="48.784973099827766" lon="9.95829675346613">
<ele>695</ele>
<time>2024-05-12T16:58:03Z</time>
</trkpt>
<trkpt lat="48.78495021723211" lon="9.958339668810368">
<ele>695.4</ele>
<time>2024-05-12T16:58:04Z</time>
</trkpt>
<trkpt lat="48.78491207957268" lon="9.958390211686492">
<ele>695.6</ele>
<time>2024-05-12T16:58:05Z</time>
</trkpt>
<trkpt lat="48.78488534130156" lon="9.958431199193">
<ele>695.8</ele>
<time>2024-05-12T16:58:06Z</time>
</trkpt>
<trkpt lat="48.7848624587059" lon="9.958468414843082">
<ele>696.2</ele>
<time>2024-05-12T16:58:07Z</time>
</trkpt>
<trkpt lat="48.78482817672193" lon="9.958497919142246">
<ele>696.4</ele>
<time>2024-05-12T16:58:08Z</time>
</trkpt>
<trkpt lat="48.78480529412627" lon="9.958535134792328">
<ele>696.6</ele>
<time>2024-05-12T16:58:09Z</time>
</trkpt>
<trkpt lat="48.7847900390625" lon="9.958575200289488">
<ele>696.8</ele>
<time>2024-05-12T16:58:10Z</time>
</trkpt>
<trkpt lat="48.78476330079138" lon="9.958624821156263">
<ele>697.2</ele>
<time>2024-05-12T16:58:11Z</time>
</trkpt>
<trkpt lat="48.784736562520266" lon="9.9586695805192">
<ele>697.6</ele>
<time>2024-05-12T16:58:12Z</time>
</trkpt>
<trkpt lat="48.78471367992461" lon="9.958715429529548">
<ele>698</ele>
<time>2024-05-12T16:58:13Z</time>
</trkpt>
<trkpt lat="48.784698424860835" lon="9.958753567188978">
<ele>698.2</ele>
<time>2024-05-12T16:58:14Z</time>
</trkpt>
<trkpt lat="48.78468316979706" lon="9.95878977701068">
<ele>698.4</ele>
<time>2024-05-12T16:58:15Z</time>
</trkpt>
<trkpt lat="48.78466414287686" lon="9.95882699266076">
<ele>698.6</ele>
<time>2024-05-12T16:58:16Z</time>
</trkpt>
<trkpt lat="48.78464503213763" lon="9.958863202482462">
<ele>698.8</ele>
<time>2024-05-12T16:58:17Z</time>
</trkpt>
<trkpt lat="48.78462977707386" lon="9.958900418132544">
<ele>699.2</ele>
<time>2024-05-12T16:58:18Z</time>
</trkpt>
<trkpt lat="48.78461066633463" lon="9.958932856097816">
<ele>699.6</ele>
<time>2024-05-12T16:58:19Z</time>
</trkpt>
<trkpt lat="48.78459163941443" lon="9.958969987928867">
<ele>699.8</ele>
<time>2024-05-12T16:58:20Z</time>
</trkpt>
<trkpt lat="48.78457638435066" lon="9.9590062815696">
<ele>700.2</ele>
<time>2024-05-12T16:58:21Z</time>
</trkpt>
<trkpt lat="48.784557273611426" lon="9.95904534123838">
<ele>700.4</ele>
<time>2024-05-12T16:58:22Z</time>
</trkpt>
<trkpt lat="48.784542018547654" lon="9.959079707041385">
<ele>700.6</ele>
<time>2024-05-12T16:58:23Z</time>
</trkpt>
<trkpt lat="48.78452676348388" lon="9.959116922691464">
<ele>700.8</ele>
<time>2024-05-12T16:58:24Z</time>
</trkpt>
<trkpt lat="48.78450773656368" lon="9.959157910197971">
<ele>701</ele>
<time>2024-05-12T16:58:25Z</time>
</trkpt>
<trkpt lat="48.784484853968024" lon="9.959195125848057">
<ele>701</ele>
<time>2024-05-12T16:58:26Z</time>
</trkpt>
<trkpt lat="48.78446574322879" lon="9.959230413660409">
<ele>701.2</ele>
<time>2024-05-12T16:58:27Z</time>
</trkpt>
<trkpt lat="48.78443900495768" lon="9.95925991795957">
<ele>701.2</ele>
<time>2024-05-12T16:58:28Z</time>
</trkpt>
<trkpt lat="48.78441612236202" lon="9.95928380638361">
<ele>701.4</ele>
<time>2024-05-12T16:58:29Z</time>
</trkpt>
<trkpt lat="48.78438946790993" lon="9.95930283330381">
<ele>701.6</ele>
<time>2024-05-12T16:58:30Z</time>
</trkpt>
<trkpt lat="48.784362729638815" lon="9.95932001620531">
<ele>701.8</ele>
<time>2024-05-12T16:58:31Z</time>
</trkpt>
<trkpt lat="48.78434747457504" lon="9.959333343431354">
<ele>702</ele>
<time>2024-05-12T16:58:32Z</time>
</trkpt>
<trkpt lat="48.78433221951127" lon="9.95934289880097">
<ele>702</ele>
<time>2024-05-12T16:58:33Z</time>
</trkpt>
<trkpt lat="48.78431319259107" lon="9.959356226027012">
<ele>702.2</ele>
<time>2024-05-12T16:58:34Z</time>
</trkpt>
<trkpt lat="48.78429030999541" lon="9.959373408928514">
<ele>702.2</ele>
<time>2024-05-12T16:58:35Z</time>
</trkpt>
<trkpt lat="48.784263571724296" lon="9.959393441677094">
<ele>702.4</ele>
<time>2024-05-12T16:58:36Z</time>
</trkpt>
<trkpt lat="48.78423683345318" lon="9.959409702569246">
<ele>702.4</ele>
<time>2024-05-12T16:58:37Z</time>
</trkpt>
<trkpt lat="48.78421395085752" lon="9.959423029795287">
<ele>702.6</ele>
<time>2024-05-12T16:58:38Z</time>
</trkpt>
<trkpt lat="48.78419492393732" lon="9.95944021269679">
<ele>702.8</ele>
<time>2024-05-12T16:58:39Z</time>
</trkpt>
<trkpt lat="48.7841681856662" lon="9.95946116745472">
<ele>703</ele>
<time>2024-05-12T16:58:40Z</time>
</trkpt>
<trkpt lat="48.784145303070545" lon="9.959486899897456">
<ele>703</ele>
<time>2024-05-12T16:58:41Z</time>
</trkpt>
<trkpt lat="48.784126276150346" lon="9.959509782493114">
<ele>703.2</ele>
<time>2024-05-12T16:58:42Z</time>
</trkpt>
<trkpt lat="48.784107165411115" lon="9.959527887403963">
<ele>703.4</ele>
<time>2024-05-12T16:58:43Z</time>
</trkpt>
<trkpt lat="48.784084282815456" lon="9.959553703665732">
<ele>703.8</ele>
<time>2024-05-12T16:58:44Z</time>
</trkpt>
<trkpt lat="48.7840614002198" lon="9.959565103054048">
<ele>704</ele>
<time>2024-05-12T16:58:45Z</time>
</trkpt>
<trkpt lat="48.78403466194868" lon="9.959583207964895">
<ele>704.2</ele>
<time>2024-05-12T16:58:46Z</time>
</trkpt>
<trkpt lat="48.784008007496595" lon="9.959603240713475">
<ele>704.4</ele>
<time>2024-05-12T16:58:47Z</time>
</trkpt>
<trkpt lat="48.78397749736905" lon="9.95962142944336">
<ele>704.6</ele>
<time>2024-05-12T16:58:48Z</time>
</trkpt>
<trkpt lat="48.78395461477339" lon="9.959646156057715">
<ele>704.8</ele>
<time>2024-05-12T16:58:49Z</time>
</trkpt>
<trkpt lat="48.78392402082682" lon="9.959672894328833">
<ele>705</ele>
<time>2024-05-12T16:58:50Z</time>
</trkpt>
<trkpt lat="48.78389736637473" lon="9.95969862677157">
<ele>705.2</ele>
<time>2024-05-12T16:58:51Z</time>
</trkpt>
<trkpt lat="48.783870628103614" lon="9.959728214889765">
<ele>705.4</ele>
<time>2024-05-12T16:58:52Z</time>
</trkpt>
<trkpt lat="48.78384011797607" lon="9.959753025323153">
<ele>705.6</ele>
<time>2024-05-12T16:58:53Z</time>
</trkpt>
<trkpt lat="48.783809607848525" lon="9.959770124405622">
<ele>705.8</ele>
<time>2024-05-12T16:58:54Z</time>
</trkpt>
<trkpt lat="48.78377909772098" lon="9.959786385297775">
<ele>705.8</ele>
<time>2024-05-12T16:58:55Z</time>
</trkpt>
<trkpt lat="48.78375621512532" lon="9.959803568199275">
<ele>706</ele>
<time>2024-05-12T16:58:56Z</time>
</trkpt>
<trkpt lat="48.783733332529664" lon="9.959821673110127">
<ele>706</ele>
<time>2024-05-12T16:58:57Z</time>
</trkpt>
<trkpt lat="48.783710449934006" lon="9.959844555705786">
<ele>706</ele>
<time>2024-05-12T16:58:58Z</time>
</trkpt>
<trkpt lat="48.783691339194775" lon="9.959861738607287">
<ele>706</ele>
<time>2024-05-12T16:58:59Z</time>
</trkpt>
<trkpt lat="48.783672312274575" lon="9.95987506583333">
<ele>706</ele>
<time>2024-05-12T16:59:00Z</time>
</trkpt>
<trkpt lat="48.783653201535344" lon="9.959881771355867">
<ele>706.2</ele>
<time>2024-05-12T16:59:01Z</time>
</trkpt>
<trkpt lat="48.783630318939686" lon="9.95989317074418">
<ele>706.2</ele>
<time>2024-05-12T16:59:02Z</time>
</trkpt>
<trkpt lat="48.7836036644876" lon="9.95991513133049">
<ele>706.2</ele>
<time>2024-05-12T16:59:03Z</time>
</trkpt>
<trkpt lat="48.78357692621648" lon="9.9599370919168">
<ele>706.4</ele>
<time>2024-05-12T16:59:04Z</time>
</trkpt>
<trkpt lat="48.783554043620825" lon="9.959948491305113">
<ele>706.4</ele>
<time>2024-05-12T16:59:05Z</time>
</trkpt>
<trkpt lat="48.783515905961394" lon="9.959968524053693">
<ele>706.4</ele>
<time>2024-05-12T16:59:06Z</time>
</trkpt>
<trkpt lat="48.78347776830197" lon="9.959988556802273">
<ele>706.2</ele>
<time>2024-05-12T16:59:07Z</time>
</trkpt>
<trkpt lat="48.78345103003085" lon="9.959989478811622">
<ele>706.2</ele>
<time>2024-05-12T16:59:08Z</time>
</trkpt>
<trkpt lat="48.78340903669596" lon="9.960026694461703">
<ele>706.2</ele>
<time>2024-05-12T16:59:09Z</time>
</trkpt>
<trkpt lat="48.7833671271801" lon="9.960035244002938">
<ele>706.2</ele>
<time>2024-05-12T16:59:10Z</time>
</trkpt>
<trkpt lat="48.78332898952067" lon="9.960044799372554">
<ele>706.2</ele>
<time>2024-05-12T16:59:11Z</time>
</trkpt>
<trkpt lat="48.78329085186124" lon="9.960060054436326">
<ele>706.2</ele>
<time>2024-05-12T16:59:12Z</time>
</trkpt>
<trkpt lat="48.78325271420181" lon="9.960061982274055">
<ele>706.2</ele>
<time>2024-05-12T16:59:13Z</time>
</trkpt>
<trkpt lat="48.78320686519146" lon="9.960078159347177">
<ele>706.2</ele>
<time>2024-05-12T16:59:14Z</time>
</trkpt>
<trkpt lat="48.7831649556756" lon="9.960100119933486">
<ele>706.4</ele>
<time>2024-05-12T16:59:15Z</time>
</trkpt>
<trkpt lat="48.783119190484285" lon="9.960122080519795">
<ele>706.4</ele>
<time>2024-05-12T16:59:16Z</time>
</trkpt>
<trkpt lat="48.78307719714939" lon="9.960133479908109">
<ele>706.6</ele>
<time>2024-05-12T16:59:17Z</time>
</trkpt>
<trkpt lat="48.78303143195808" lon="9.960142113268375">
<ele>706.6</ele>
<time>2024-05-12T16:59:18Z</time>
</trkpt>
<trkpt lat="48.78299329429865" lon="9.960151668637993">
<ele>706.6</ele>
<time>2024-05-12T16:59:19Z</time>
</trkpt>
<trkpt lat="48.78294367343187" lon="9.96017161756754">
<ele>706.6</ele>
<time>2024-05-12T16:59:20Z</time>
</trkpt>
<trkpt lat="48.782901763916016" lon="9.960185028612614">
<ele>706.6</ele>
<time>2024-05-12T16:59:21Z</time>
</trkpt>
<trkpt lat="48.78285591490567" lon="9.960203133523464">
<ele>706.6</ele>
<time>2024-05-12T16:59:22Z</time>
</trkpt>
<trkpt lat="48.78281014971435" lon="9.960214532911776">
<ele>706.8</ele>
<time>2024-05-12T16:59:23Z</time>
</trkpt>
<trkpt lat="48.78276824019849" lon="9.960213610902429">
<ele>706.8</ele>
<time>2024-05-12T16:59:24Z</time>
</trkpt>
<trkpt lat="48.78273010253906" lon="9.960213610902429">
<ele>706.8</ele>
<time>2024-05-12T16:59:25Z</time>
</trkpt>
<trkpt lat="48.7826918810606" lon="9.960209839046">
<ele>706.8</ele>
<time>2024-05-12T16:59:26Z</time>
</trkpt>
<trkpt lat="48.78264997154474" lon="9.9602116830647">
<ele>707</ele>
<time>2024-05-12T16:59:27Z</time>
</trkpt>
<trkpt lat="48.78261183388531" lon="9.960207911208272">
<ele>707</ele>
<time>2024-05-12T16:59:28Z</time>
</trkpt>
<trkpt lat="48.78256984055042" lon="9.96019165031612">
<ele>707.2</ele>
<time>2024-05-12T16:59:29Z</time>
</trkpt>
<trkpt lat="48.78253170289099" lon="9.960181172937157">
<ele>707.2</ele>
<time>2024-05-12T16:59:30Z</time>
</trkpt>
<trkpt lat="48.78249733708799" lon="9.960161140188577">
<ele>707.4</ele>
<time>2024-05-12T16:59:31Z</time>
</trkpt>
<trkpt lat="48.78245919942856" lon="9.960153512656689">
<ele>707.6</ele>
<time>2024-05-12T16:59:32Z</time>
</trkpt>
<trkpt lat="48.7824172899127" lon="9.960147812962532">
<ele>707.8</ele>
<time>2024-05-12T16:59:33Z</time>
</trkpt>
<trkpt lat="48.78237529657781" lon="9.96014974080026">
<ele>707.8</ele>
<time>2024-05-12T16:59:34Z</time>
</trkpt>
<trkpt lat="48.78233715891838" lon="9.960147812962532">
<ele>708</ele>
<time>2024-05-12T16:59:35Z</time>
</trkpt>
<trkpt lat="48.78229902125895" lon="9.960158290341496">
<ele>708.2</ele>
<time>2024-05-12T16:59:36Z</time>
</trkpt>
<trkpt lat="48.78226088359952" lon="9.960166923701763">
<ele>708.2</ele>
<time>2024-05-12T16:59:37Z</time>
</trkpt>
<trkpt lat="48.78222651779651" lon="9.960161140188577">
<ele>708.4</ele>
<time>2024-05-12T16:59:38Z</time>
</trkpt>
<trkpt lat="48.78219215199351" lon="9.960161140188577">
<ele>708.6</ele>
<time>2024-05-12T16:59:39Z</time>
</trkpt>
<trkpt lat="48.782169269397855" lon="9.960155440494418">
<ele>708.8</ele>
<time>2024-05-12T16:59:40Z</time>
</trkpt>
<trkpt lat="48.78214261494577" lon="9.960138257592916">
<ele>709</ele>
<time>2024-05-12T16:59:41Z</time>
</trkpt>
<trkpt lat="48.782108249142766" lon="9.960142113268375">
<ele>709.2</ele>
<time>2024-05-12T16:59:42Z</time>
</trkpt>
<trkpt lat="48.782070111483335" lon="9.960143035277724">
<ele>709.4</ele>
<time>2024-05-12T16:59:43Z</time>
</trkpt>
<trkpt lat="48.78203574568033" lon="9.960146890953183">
<ele>709.6</ele>
<time>2024-05-12T16:59:44Z</time>
</trkpt>
<trkpt lat="48.78200523555279" lon="9.960153512656689">
<ele>709.6</ele>
<time>2024-05-12T16:59:45Z</time>
</trkpt>
<trkpt lat="48.78196709789336" lon="9.960176395252349">
<ele>709.8</ele>
<time>2024-05-12T16:59:46Z</time>
</trkpt>
<trkpt lat="48.781932815909386" lon="9.96018980629742">
<ele>710</ele>
<time>2024-05-12T16:59:47Z</time>
</trkpt>
<trkpt lat="48.78190607763827" lon="9.960209839046">
<ele>710.2</ele>
<time>2024-05-12T16:59:48Z</time>
</trkpt>
<trkpt lat="48.7818717956543" lon="9.960226938128471">
<ele>710.2</ele>
<time>2024-05-12T16:59:49Z</time>
</trkpt>
<trkpt lat="48.781837429851294" lon="9.96025174856186">
<ele>710.4</ele>
<time>2024-05-12T16:59:50Z</time>
</trkpt>
<trkpt lat="48.78180306404829" lon="9.960278486832976">
<ele>710.6</ele>
<time>2024-05-12T16:59:51Z</time>
</trkpt>
<trkpt lat="48.781776409596205" lon="9.960306147113442">
<ele>710.8</ele>
<time>2024-05-12T16:59:52Z</time>
</trkpt>
<trkpt lat="48.78174589946866" lon="9.960340429097414">
<ele>711</ele>
<time>2024-05-12T16:59:53Z</time>
</trkpt>
<trkpt lat="48.781700134277344" lon="9.96037001721561">
<ele>711.2</ele>
<time>2024-05-12T16:59:54Z</time>
</trkpt>
<trkpt lat="48.78167339600623" lon="9.960398599505424">
<ele>711.6</ele>
<time>2024-05-12T16:59:55Z</time>
</trkpt>
<trkpt lat="48.78165051341057" lon="9.960434893146155">
<ele>711.8</ele>
<time>2024-05-12T16:59:56Z</time>
</trkpt>
<trkpt lat="48.781620003283024" lon="9.960472024977207">
<ele>712</ele>
<time>2024-05-12T16:59:57Z</time>
</trkpt>
<trkpt lat="48.78158186562359" lon="9.960501613095404">
<ele>712.2</ele>
<time>2024-05-12T16:59:58Z</time>
</trkpt>
<trkpt lat="48.78154372796416" lon="9.960534973070024">
<ele>712.6</ele>
<time>2024-05-12T16:59:59Z</time>
</trkpt>
<trkpt lat="48.78151313401759" lon="9.96056648902595">
<ele>712.8</ele>
<time>2024-05-12T17:00:00Z</time>
</trkpt>
<trkpt lat="48.781478852033615" lon="9.960601776838304">
<ele>713</ele>
<time>2024-05-12T17:00:01Z</time>
</trkpt>
<trkpt lat="48.78144834190607" lon="9.960639914497731">
<ele>713.4</ele>
<time>2024-05-12T17:00:02Z</time>
</trkpt>
<trkpt lat="48.781417831778526" lon="9.960678052157164">
<ele>713.6</ele>
<time>2024-05-12T17:00:03Z</time>
</trkpt>
<trkpt lat="48.78139494918287" lon="9.960709568113089">
<ele>713.8</ele>
<time>2024-05-12T17:00:04Z</time>
</trkpt>
<trkpt lat="48.78136443905533" lon="9.96074669994414">
<ele>714</ele>
<time>2024-05-12T17:00:05Z</time>
</trkpt>
<trkpt lat="48.781341472640634" lon="9.960782993584871">
<ele>714.2</ele>
<time>2024-05-12T17:00:06Z</time>
</trkpt>
<trkpt lat="48.78132621757686" lon="9.960816353559494">
<ele>714.4</ele>
<time>2024-05-12T17:00:07Z</time>
</trkpt>
<trkpt lat="48.78131096251309" lon="9.960856419056654">
<ele>714.6</ele>
<time>2024-05-12T17:00:08Z</time>
</trkpt>
<trkpt lat="48.78128430806101" lon="9.960898328572512">
<ele>715</ele>
<time>2024-05-12T17:00:09Z</time>
</trkpt>
<trkpt lat="48.781261425465345" lon="9.9609403219074">
<ele>715.2</ele>
<time>2024-05-12T17:00:10Z</time>
</trkpt>
<trkpt lat="48.7812309153378" lon="9.96098130941391">
<ele>715.4</ele>
<time>2024-05-12T17:00:11Z</time>
</trkpt>
<trkpt lat="48.78120417706669" lon="9.961018525063992">
<ele>715.6</ele>
<time>2024-05-12T17:00:12Z</time>
</trkpt>
<trkpt lat="48.781181294471025" lon="9.961054734885693">
<ele>715.6</ele>
<time>2024-05-12T17:00:13Z</time>
</trkpt>
<trkpt lat="48.78115841187537" lon="9.961088178679349">
<ele>715.8</ele>
<time>2024-05-12T17:00:14Z</time>
</trkpt>
<trkpt lat="48.78113552927971" lon="9.9611234664917">
<ele>715.8</ele>
<time>2024-05-12T17:00:15Z</time>
</trkpt>
<trkpt lat="48.78110501915216" lon="9.961150120943785">
<ele>716</ele>
<time>2024-05-12T17:00:16Z</time>
</trkpt>
<trkpt lat="48.78107828088105" lon="9.961183480918407">
<ele>716</ele>
<time>2024-05-12T17:00:17Z</time>
</trkpt>
<trkpt lat="48.78105539828539" lon="9.961213069036605">
<ele>716</ele>
<time>2024-05-12T17:00:18Z</time>
</trkpt>
<trkpt lat="48.78101726062596" lon="9.96123687364161">
<ele>716</ele>
<time>2024-05-12T17:00:19Z</time>
</trkpt>
<trkpt lat="48.7809943780303" lon="9.961266461759806">
<ele>716.2</ele>
<time>2024-05-12T17:00:20Z</time>
</trkpt>
<trkpt lat="48.78096386790275" lon="9.961295127868652">
<ele>716.2</ele>
<time>2024-05-12T17:00:21Z</time>
</trkpt>
<trkpt lat="48.78093335777521" lon="9.961330331861973">
<ele>716</ele>
<time>2024-05-12T17:00:22Z</time>
</trkpt>
<trkpt lat="48.78090284764767" lon="9.961371403187512">
<ele>716</ele>
<time>2024-05-12T17:00:23Z</time>
</trkpt>
<trkpt lat="48.780868481844664" lon="9.96141809038818">
<ele>715.8</ele>
<time>2024-05-12T17:00:24Z</time>
</trkpt>
<trkpt lat="48.78082271665335" lon="9.96147533878684">
<ele>715.6</ele>
<time>2024-05-12T17:00:25Z</time>
</trkpt>
<trkpt lat="48.78078457899392" lon="9.961542058736086">
<ele>715.4</ele>
<time>2024-05-12T17:00:26Z</time>
</trkpt>
<trkpt lat="48.78073495812714" lon="9.96161171235144">
<ele>715.2</ele>
<time>2024-05-12T17:00:27Z</time>
</trkpt>
<trkpt lat="48.78067779354751" lon="9.961678432300689">
<ele>715.2</ele>
<time>2024-05-12T17:00:28Z</time>
</trkpt>
<trkpt lat="48.78062054514885" lon="9.961745236068964">
<ele>715</ele>
<time>2024-05-12T17:00:29Z</time>
</trkpt>
<trkpt lat="48.78056329675019" lon="9.961808184161782">
<ele>714.8</ele>
<time>2024-05-12T17:00:30Z</time>
</trkpt>
<trkpt lat="48.780509904026985" lon="9.96187205426395">
<ele>714.8</ele>
<time>2024-05-12T17:00:31Z</time>
</trkpt>
<trkpt lat="48.78046413883567" lon="9.961935002356768">
<ele>714.6</ele>
<time>2024-05-12T17:00:32Z</time>
</trkpt>
<trkpt lat="48.78040689043701" lon="9.961999878287315">
<ele>714.4</ele>
<time>2024-05-12T17:00:33Z</time>
</trkpt>
<trkpt lat="48.78035735338926" lon="9.962058048695326">
<ele>714.2</ele>
<time>2024-05-12T17:00:34Z</time>
</trkpt>
<trkpt lat="48.7803001049906" lon="9.962118146941066">
<ele>714.2</ele>
<time>2024-05-12T17:00:35Z</time>
</trkpt>
<trkpt lat="48.7802467122674" lon="9.962180089205503">
<ele>714</ele>
<time>2024-05-12T17:00:36Z</time>
</trkpt>
<trkpt lat="48.78020471893251" lon="9.962236331775784">
<ele>713.8</ele>
<time>2024-05-12T17:00:37Z</time>
</trkpt>
<trkpt lat="48.78017043694854" lon="9.96228980831802">
<ele>713.8</ele>
<time>2024-05-12T17:00:38Z</time>
</trkpt>
<trkpt lat="48.780136071145535" lon="9.962349822744727">
<ele>713.6</ele>
<time>2024-05-12T17:00:39Z</time>
</trkpt>
<trkpt lat="48.78010556101799" lon="9.962394665926697">
<ele>713.6</ele>
<time>2024-05-12T17:00:40Z</time>
</trkpt>
<trkpt lat="48.78007119521499" lon="9.962436659261584">
<ele>713.6</ele>
<time>2024-05-12T17:00:41Z</time>
</trkpt>
<trkpt lat="48.780036913231015" lon="9.962476724758744">
<ele>713.6</ele>
<time>2024-05-12T17:00:42Z</time>
</trkpt>
<trkpt lat="48.78000254742801" lon="9.962512934580444">
<ele>713.6</ele>
<time>2024-05-12T17:00:43Z</time>
</trkpt>
<trkpt lat="48.779979664832354" lon="9.962551994249225">
<ele>713.8</ele>
<time>2024-05-12T17:00:44Z</time>
</trkpt>
<trkpt lat="48.779956782236695" lon="9.962590215727689">
<ele>714</ele>
<time>2024-05-12T17:00:45Z</time>
</trkpt>
<trkpt lat="48.77994152717292" lon="9.962628353387116">
<ele>714.2</ele>
<time>2024-05-12T17:00:46Z</time>
</trkpt>
<trkpt lat="48.77993004396558" lon="9.96265785768628">
<ele>714.4</ele>
<time>2024-05-12T17:00:47Z</time>
</trkpt>
<trkpt lat="48.779914788901806" lon="9.962690295651557">
<ele>714.4</ele>
<time>2024-05-12T17:00:48Z</time>
</trkpt>
<trkpt lat="48.77989190630615" lon="9.962730361148717">
<ele>714.6</ele>
<time>2024-05-12T17:00:49Z</time>
</trkpt>
<trkpt lat="48.77986525185406" lon="9.962770426645877">
<ele>714.6</ele>
<time>2024-05-12T17:00:50Z</time>
</trkpt>
<trkpt lat="48.779838513582945" lon="9.962815269827844">
<ele>714.8</ele>
<time>2024-05-12T17:00:51Z</time>
</trkpt>
<trkpt lat="48.7798080034554" lon="9.96286002919078">
<ele>714.8</ele>
<time>2024-05-12T17:00:52Z</time>
</trkpt>
<trkpt lat="48.77978126518428" lon="9.962904872372746">
<ele>714.8</ele>
<time>2024-05-12T17:00:53Z</time>
</trkpt>
<trkpt lat="48.77975075505674" lon="9.96295826509595">
<ele>714.6</ele>
<time>2024-05-12T17:00:54Z</time>
</trkpt>
<trkpt lat="48.779720244929194" lon="9.96301358565688">
<ele>714.6</ele>
<time>2024-05-12T17:00:55Z</time>
</trkpt>
<trkpt lat="48.77969359047711" lon="9.96307368390262">
<ele>714.4</ele>
<time>2024-05-12T17:00:56Z</time>
</trkpt>
<trkpt lat="48.779663080349565" lon="9.96313470415771">
<ele>714.2</ele>
<time>2024-05-12T17:00:57Z</time>
</trkpt>
<trkpt lat="48.77963248640299" lon="9.963201507925987">
<ele>714.2</ele>
<time>2024-05-12T17:00:58Z</time>
</trkpt>
<trkpt lat="48.77960197627544" lon="9.963259678333998">
<ele>713.8</ele>
<time>2024-05-12T17:00:59Z</time>
</trkpt>
<trkpt lat="48.7795714661479" lon="9.96333503164351">
<ele>713.6</ele>
<time>2024-05-12T17:01:00Z</time>
</trkpt>
<trkpt lat="48.779544811695814" lon="9.963403679430485">
<ele>713.4</ele>
<time>2024-05-12T17:01:01Z</time>
</trkpt>
<trkpt lat="48.7795180734247" lon="9.963473249226809">
<ele>713</ele>
<time>2024-05-12T17:01:02Z</time>
</trkpt>
<trkpt lat="48.77948756329715" lon="9.96353141963482">
<ele>712.8</ele>
<time>2024-05-12T17:01:03Z</time>
</trkpt>
<trkpt lat="48.77945705316961" lon="9.96359151788056">
<ele>712.6</ele>
<time>2024-05-12T17:01:04Z</time>
</trkpt>
<trkpt lat="48.77941891551018" lon="9.963653543964028">
<ele>712.4</ele>
<time>2024-05-12T17:01:05Z</time>
</trkpt>
<trkpt lat="48.77937315031886" lon="9.963705008849502">
<ele>712</ele>
<time>2024-05-12T17:01:06Z</time>
</trkpt>
<trkpt lat="48.779327385127544" lon="9.963756557554008">
<ele>711.6</ele>
<time>2024-05-12T17:01:07Z</time>
</trkpt>
<trkpt lat="48.77927013672888" lon="9.963803244754672">
<ele>711.4</ele>
<time>2024-05-12T17:01:08Z</time>
</trkpt>
<trkpt lat="48.77921674400568" lon="9.963838532567024">
<ele>711</ele>
<time>2024-05-12T17:01:09Z</time>
</trkpt>
<trkpt lat="48.779167123138905" lon="9.96386812068522">
<ele>710.8</ele>
<time>2024-05-12T17:01:10Z</time>
</trkpt>
<trkpt lat="48.7791137304157" lon="9.96390818618238">
<ele>710.6</ele>
<time>2024-05-12T17:01:11Z</time>
</trkpt>
<trkpt lat="48.77905648201704" lon="9.963936768472196">
<ele>710.2</ele>
<time>2024-05-12T17:01:12Z</time>
</trkpt>
<trkpt lat="48.7790069449693" lon="9.963961578905582">
<ele>710.2</ele>
<time>2024-05-12T17:01:13Z</time>
</trkpt>
<trkpt lat="48.77896495163441" lon="9.963990161195396">
<ele>710</ele>
<time>2024-05-12T17:01:14Z</time>
</trkpt>
<trkpt lat="48.77891918644309" lon="9.964028298854828">
<ele>709.6</ele>
<time>2024-05-12T17:01:15Z</time>
</trkpt>
<trkpt lat="48.778869565576315" lon="9.964066436514258">
<ele>709</ele>
<time>2024-05-12T17:01:16Z</time>
</trkpt>
<trkpt lat="48.77881617285311" lon="9.964099880307913">
<ele>708.8</ele>
<time>2024-05-12T17:01:17Z</time>
</trkpt>
<trkpt lat="48.77876278012991" lon="9.964135168120263">
<ele>708.2</ele>
<time>2024-05-12T17:01:18Z</time>
</trkpt>
<trkpt lat="48.77871701493859" lon="9.964166600257158">
<ele>707.6</ele>
<time>2024-05-12T17:01:19Z</time>
</trkpt>
<trkpt lat="48.7786750216037" lon="9.96420188806951">
<ele>707</ele>
<time>2024-05-12T17:01:20Z</time>
</trkpt>
<trkpt lat="48.77862925641239" lon="9.96424002572894">
<ele>706.4</ele>
<time>2024-05-12T17:01:21Z</time>
</trkpt>
<trkpt lat="48.778572008013725" lon="9.964304901659489">
<ele>705.8</ele>
<time>2024-05-12T17:01:22Z</time>
</trkpt>
<trkpt lat="48.77851861529052" lon="9.964368771761656">
<ele>705.4</ele>
<time>2024-05-12T17:01:23Z</time>
</trkpt>
<trkpt lat="48.77848433330655" lon="9.964425014331937">
<ele>705</ele>
<time>2024-05-12T17:01:24Z</time>
</trkpt>
<trkpt lat="48.778457595035434" lon="9.964483184739947">
<ele>704.6</ele>
<time>2024-05-12T17:01:25Z</time>
</trkpt>
<trkpt lat="48.77842708490789" lon="9.964549988508224">
<ele>704.2</ele>
<time>2024-05-12T17:01:27Z</time>
</trkpt>
<trkpt lat="48.7783660646528" lon="9.964685440063477">
<ele>703</ele>
<time>2024-05-12T17:01:28Z</time>
</trkpt>
<trkpt lat="48.77833932638168" lon="9.964750232174993">
<ele>702.4</ele>
<time>2024-05-12T17:01:29Z</time>
</trkpt>
<trkpt lat="48.77832029946149" lon="9.964810330420732">
<ele>701.8</ele>
<time>2024-05-12T17:01:30Z</time>
</trkpt>
<trkpt lat="48.77830504439771" lon="9.96487135067582">
<ele>701.2</ele>
<time>2024-05-12T17:01:31Z</time>
</trkpt>
<trkpt lat="48.77829356119037" lon="9.964939998462796">
<ele>700.8</ele>
<time>2024-05-12T17:01:32Z</time>
</trkpt>
<trkpt lat="48.77828216180205" lon="9.965002024546266">
<ele>700.4</ele>
<time>2024-05-12T17:01:33Z</time>
</trkpt>
<trkpt lat="48.77827453427017" lon="9.965063044801354">
<ele>700.2</ele>
<time>2024-05-12T17:01:34Z</time>
</trkpt>
<trkpt lat="48.77826690673828" lon="9.965126914903522">
<ele>700</ele>
<time>2024-05-12T17:01:35Z</time>
</trkpt>
<trkpt lat="48.77826305106282" lon="9.965196568518875">
<ele>699.8</ele>
<time>2024-05-12T17:01:36Z</time>
</trkpt>
<trkpt lat="48.778255423530936" lon="9.965266222134233">
<ele>699.4</ele>
<time>2024-05-12T17:01:37Z</time>
</trkpt>
<trkpt lat="48.77824779599905" lon="9.965336797758937">
<ele>699.2</ele>
<time>2024-05-12T17:01:38Z</time>
</trkpt>
<trkpt lat="48.77824016846717" lon="9.965404439717531">
<ele>699</ele>
<time>2024-05-12T17:01:39Z</time>
</trkpt>
<trkpt lat="48.77824016846717" lon="9.965473171323538">
<ele>699</ele>
<time>2024-05-12T17:01:40Z</time>
</trkpt>
<trkpt lat="48.77822868525982" lon="9.965537041425703">
<ele>699</ele>
<time>2024-05-12T17:01:41Z</time>
</trkpt>
<trkpt lat="48.77822491340339" lon="9.965601917356253">
<ele>699</ele>
<time>2024-05-12T17:01:42Z</time>
</trkpt>
<trkpt lat="48.77822105772793" lon="9.965673414990306">
<ele>699</ele>
<time>2024-05-12T17:01:43Z</time>
</trkpt>
<trkpt lat="48.77821343019605" lon="9.96574491262436">
<ele>698.8</ele>
<time>2024-05-12T17:01:44Z</time>
</trkpt>
<trkpt lat="48.77820580266416" lon="9.965809788554909">
<ele>698.8</ele>
<time>2024-05-12T17:01:45Z</time>
</trkpt>
<trkpt lat="48.778198175132275" lon="9.965873658657074">
<ele>698.6</ele>
<time>2024-05-12T17:01:46Z</time>
</trkpt>
<trkpt lat="48.77818677574396" lon="9.965934678912165">
<ele>698.2</ele>
<time>2024-05-12T17:01:47Z</time>
</trkpt>
<trkpt lat="48.778175292536616" lon="9.96599955484271">
<ele>697.8</ele>
<time>2024-05-12T17:01:48Z</time>
</trkpt>
<trkpt lat="48.778175292536616" lon="9.966068202629684">
<ele>697.6</ele>
<time>2024-05-12T17:01:49Z</time>
</trkpt>
<trkpt lat="48.77817152068019" lon="9.96613685041666">
<ele>697.4</ele>
<time>2024-05-12T17:01:50Z</time>
</trkpt>
<trkpt lat="48.77816003747285" lon="9.96621505357325">
<ele>697.2</ele>
<time>2024-05-12T17:01:51Z</time>
</trkpt>
<trkpt lat="48.778137154877186" lon="9.966279929503798">
<ele>697</ele>
<time>2024-05-12T17:01:52Z</time>
</trkpt>
<trkpt lat="48.77810664474964" lon="9.966326700523496">
<ele>697</ele>
<time>2024-05-12T17:01:53Z</time>
</trkpt>
<trkpt lat="48.77807990647853" lon="9.96635620482266">
<ele>696.6</ele>
<time>2024-05-12T17:01:54Z</time>
</trkpt>
<trkpt lat="48.77804562449455" lon="9.966382021084428">
<ele>696.4</ele>
<time>2024-05-12T17:01:55Z</time>
</trkpt>
<trkpt lat="48.77801511436701" lon="9.966400125995278">
<ele>696.2</ele>
<time>2024-05-12T17:01:56Z</time>
</trkpt>
<trkpt lat="48.77798837609589" lon="9.96641538105905">
<ele>696</ele>
<time>2024-05-12T17:01:57Z</time>
</trkpt>
<trkpt lat="48.77795409411192" lon="9.96643541380763">
<ele>695.8</ele>
<time>2024-05-12T17:01:58Z</time>
</trkpt>
<trkpt lat="48.77790824510157" lon="9.966458296403289">
<ele>695.8</ele>
<time>2024-05-12T17:01:59Z</time>
</trkpt>
<trkpt lat="48.77785870805383" lon="9.966482101008296">
<ele>695.8</ele>
<time>2024-05-12T17:02:00Z</time>
</trkpt>
<trkpt lat="48.77781671471894" lon="9.966504983603954">
<ele>695.6</ele>
<time>2024-05-12T17:02:01Z</time>
</trkpt>
<trkpt lat="48.777782432734966" lon="9.966523088514805">
<ele>695.6</ele>
<time>2024-05-12T17:02:02Z</time>
</trkpt>
<trkpt lat="48.777744211256504" lon="9.966538427397609">
<ele>695.6</ele>
<time>2024-05-12T17:02:03Z</time>
</trkpt>
<trkpt lat="48.77770992927253" lon="9.966543121263385">
<ele>695.6</ele>
<time>2024-05-12T17:02:04Z</time>
</trkpt>
<trkpt lat="48.77767556346953" lon="9.96655653230846">
<ele>695.4</ele>
<time>2024-05-12T17:02:05Z</time>
</trkpt>
<trkpt lat="48.7776374258101" lon="9.966569859534502">
<ele>695.4</ele>
<time>2024-05-12T17:02:06Z</time>
</trkpt>
<trkpt lat="48.77760314382613" lon="9.966583186760545">
<ele>695.4</ele>
<time>2024-05-12T17:02:07Z</time>
</trkpt>
<trkpt lat="48.77756115049124" lon="9.96661470271647">
<ele>695.4</ele>
<time>2024-05-12T17:02:08Z</time>
</trkpt>
<trkpt lat="48.77752301283181" lon="9.966628029942513">
<ele>695.6</ele>
<time>2024-05-12T17:02:09Z</time>
</trkpt>
<trkpt lat="48.7774886470288" lon="9.966636579483747">
<ele>695.6</ele>
<time>2024-05-12T17:02:10Z</time>
</trkpt>
<trkpt lat="48.77745813690126" lon="9.966646134853365">
<ele>695.8</ele>
<time>2024-05-12T17:02:11Z</time>
</trkpt>
<trkpt lat="48.777431482449174" lon="9.96665376238525">
<ele>696</ele>
<time>2024-05-12T17:02:12Z</time>
</trkpt>
<trkpt lat="48.77740474417806" lon="9.966658540070055">
<ele>696.2</ele>
<time>2024-05-12T17:02:13Z</time>
</trkpt>
<trkpt lat="48.7773818615824" lon="9.966658540070055">
<ele>696.4</ele>
<time>2024-05-12T17:02:14Z</time>
</trkpt>
<trkpt lat="48.77737037837505" lon="9.966649990528822">
<ele>696.4</ele>
<time>2024-05-12T17:02:15Z</time>
</trkpt>
<trkpt lat="48.77734372392297" lon="9.966629957780242">
<ele>696.8</ele>
<time>2024-05-12T17:02:16Z</time>
</trkpt>
<trkpt lat="48.77731321379542" lon="9.966623252257705">
<ele>697</ele>
<time>2024-05-12T17:02:17Z</time>
</trkpt>
<trkpt lat="48.77728270366788" lon="9.9666166305542">
<ele>697.2</ele>
<time>2024-05-12T17:02:18Z</time>
</trkpt>
<trkpt lat="48.77724833786488" lon="9.966618474572895">
<ele>697.4</ele>
<time>2024-05-12T17:02:19Z</time>
</trkpt>
<trkpt lat="48.77721782773733" lon="9.966629957780242">
<ele>697.6</ele>
<time>2024-05-12T17:02:20Z</time>
</trkpt>
<trkpt lat="48.77717583440244" lon="9.966627107933164">
<ele>697.8</ele>
<time>2024-05-12T17:02:21Z</time>
</trkpt>
<trkpt lat="48.777130069211125" lon="9.966643285006285">
<ele>698</ele>
<time>2024-05-12T17:02:22Z</time>
</trkpt>
<trkpt lat="48.77708430401981" lon="9.966631885617971">
<ele>698.2</ele>
<time>2024-05-12T17:02:23Z</time>
</trkpt>
<trkpt lat="48.77703468315303" lon="9.966623252257705">
<ele>698.6</ele>
<time>2024-05-12T17:02:24Z</time>
</trkpt>
<trkpt lat="48.77698514610529" lon="9.966620402410626">
<ele>698.8</ele>
<time>2024-05-12T17:02:25Z</time>
</trkpt>
<trkpt lat="48.776935525238514" lon="9.966620402410626">
<ele>699</ele>
<time>2024-05-12T17:02:26Z</time>
</trkpt>
<trkpt lat="48.776893615722656" lon="9.9666166305542">
<ele>699.2</ele>
<time>2024-05-12T17:02:27Z</time>
</trkpt>
<trkpt lat="48.77685162238777" lon="9.966611852869391">
<ele>699.4</ele>
<time>2024-05-12T17:02:28Z</time>
</trkpt>
<trkpt lat="48.77680585719645" lon="9.96661470271647">
<ele>699.4</ele>
<time>2024-05-12T17:02:29Z</time>
</trkpt>
<trkpt lat="48.77676386386156" lon="9.966620402410626">
<ele>699.6</ele>
<time>2024-05-12T17:02:30Z</time>
</trkpt>
<trkpt lat="48.77671809867024" lon="9.966625180095434">
<ele>699.8</ele>
<time>2024-05-12T17:02:31Z</time>
</trkpt>
<trkpt lat="48.776676105335355" lon="9.96663280762732">
<ele>700</ele>
<time>2024-05-12T17:02:32Z</time>
</trkpt>
<trkpt lat="48.7766341958195" lon="9.966638507321475">
<ele>700.2</ele>
<time>2024-05-12T17:02:33Z</time>
</trkpt>
<trkpt lat="48.77659605816007" lon="9.966638507321475">
<ele>700.4</ele>
<time>2024-05-12T17:02:34Z</time>
</trkpt>
<trkpt lat="48.77655792050064" lon="9.96663473546505">
<ele>700.6</ele>
<time>2024-05-12T17:02:35Z</time>
</trkpt>
<trkpt lat="48.77652355469763" lon="9.966631885617971">
<ele>700.8</ele>
<time>2024-05-12T17:02:36Z</time>
</trkpt>
<trkpt lat="48.77648918889463" lon="9.966627107933164">
<ele>700.8</ele>
<time>2024-05-12T17:02:37Z</time>
</trkpt>
<trkpt lat="48.77644727937877" lon="9.966623252257705">
<ele>701</ele>
<time>2024-05-12T17:02:38Z</time>
</trkpt>
<trkpt lat="48.776401514187455" lon="9.966618474572895">
<ele>701</ele>
<time>2024-05-12T17:02:39Z</time>
</trkpt>
<trkpt lat="48.77636329270899" lon="9.966609925031662">
<ele>701.2</ele>
<time>2024-05-12T17:02:40Z</time>
</trkpt>
<trkpt lat="48.776321383193135" lon="9.966607997193933">
<ele>701.2</ele>
<time>2024-05-12T17:02:41Z</time>
</trkpt>
<trkpt lat="48.776283245533705" lon="9.966601291671395">
<ele>701.2</ele>
<time>2024-05-12T17:02:42Z</time>
</trkpt>
<trkpt lat="48.776245107874274" lon="9.96659366413951">
<ele>701.4</ele>
<time>2024-05-12T17:02:43Z</time>
</trkpt>
<trkpt lat="48.77620697021485" lon="9.966587042436004">
<ele>701.4</ele>
<time>2024-05-12T17:02:44Z</time>
</trkpt>
<trkpt lat="48.77616874873638" lon="9.966580336913466">
<ele>701.4</ele>
<time>2024-05-12T17:02:45Z</time>
</trkpt>
<trkpt lat="48.77613061107695" lon="9.96657371520996">
<ele>701.6</ele>
<time>2024-05-12T17:02:46Z</time>
</trkpt>
<trkpt lat="48.77609247341752" lon="9.966567009687424">
<ele>701.6</ele>
<time>2024-05-12T17:02:47Z</time>
</trkpt>
<trkpt lat="48.77605056390166" lon="9.96655460447073">
<ele>701.8</ele>
<time>2024-05-12T17:02:48Z</time>
</trkpt>
<trkpt lat="48.7760123424232" lon="9.966549826785922">
<ele>702</ele>
<time>2024-05-12T17:02:49Z</time>
</trkpt>
<trkpt lat="48.77596657723189" lon="9.966541277244689">
<ele>702.2</ele>
<time>2024-05-12T17:02:50Z</time>
</trkpt>
<trkpt lat="48.77592843957245" lon="9.96653457172215">
<ele>702.2</ele>
<time>2024-05-12T17:02:51Z</time>
</trkpt>
<trkpt lat="48.77588267438114" lon="9.966527866199613">
<ele>702.4</ele>
<time>2024-05-12T17:02:52Z</time>
</trkpt>
<trkpt lat="48.77584068104625" lon="9.966518394649029">
<ele>702.6</ele>
<time>2024-05-12T17:02:53Z</time>
</trkpt>
<trkpt lat="48.77579877153039" lon="9.966511689126492">
<ele>702.8</ele>
<time>2024-05-12T17:02:54Z</time>
</trkpt>
<trkpt lat="48.7757567781955" lon="9.96651361696422">
<ele>702.8</ele>
<time>2024-05-12T17:02:55Z</time>
</trkpt>
<trkpt lat="48.77571486867964" lon="9.966506911441684">
<ele>703</ele>
<time>2024-05-12T17:02:56Z</time>
</trkpt>
<trkpt lat="48.77567664720118" lon="9.966500205919148">
<ele>703</ele>
<time>2024-05-12T17:02:57Z</time>
</trkpt>
<trkpt lat="48.77563473768532" lon="9.96649358421564">
<ele>703</ele>
<time>2024-05-12T17:02:58Z</time>
</trkpt>
<trkpt lat="48.77559660002589" lon="9.966484950855374">
<ele>703</ele>
<time>2024-05-12T17:02:59Z</time>
</trkpt>
<trkpt lat="48.775554606691" lon="9.966482101008296">
<ele>703</ele>
<time>2024-05-12T17:03:00Z</time>
</trkpt>
<trkpt lat="48.77551261335611" lon="9.966478329151869">
<ele>703</ele>
<time>2024-05-12T17:03:01Z</time>
</trkpt>
<trkpt lat="48.77547447569668" lon="9.966469695791602">
<ele>703</ele>
<time>2024-05-12T17:03:02Z</time>
</trkpt>
<trkpt lat="48.775432566180825" lon="9.966461146250367">
<ele>703.2</ele>
<time>2024-05-12T17:03:03Z</time>
</trkpt>
<trkpt lat="48.775390572845936" lon="9.96645636856556">
<ele>703.2</ele>
<time>2024-05-12T17:03:04Z</time>
</trkpt>
<trkpt lat="48.775352435186505" lon="9.966449663043022">
<ele>703.2</ele>
<time>2024-05-12T17:03:05Z</time>
</trkpt>
<trkpt lat="48.775310441851616" lon="9.966443041339517">
<ele>703.4</ele>
<time>2024-05-12T17:03:06Z</time>
</trkpt>
<trkpt lat="48.77526853233576" lon="9.966440191492438">
<ele>703.4</ele>
<time>2024-05-12T17:03:07Z</time>
</trkpt>
<trkpt lat="48.77522653900087" lon="9.96643541380763">
<ele>703.6</ele>
<time>2024-05-12T17:03:08Z</time>
</trkpt>
<trkpt lat="48.77518840134144" lon="9.966429630294442">
<ele>703.6</ele>
<time>2024-05-12T17:03:09Z</time>
</trkpt>
<trkpt lat="48.77514263615012" lon="9.966426780447364">
<ele>703.8</ele>
<time>2024-05-12T17:03:10Z</time>
</trkpt>
<trkpt lat="48.77510064281523" lon="9.966418230906129">
<ele>703.8</ele>
<time>2024-05-12T17:03:11Z</time>
</trkpt>
<trkpt lat="48.77505487762392" lon="9.966408675536512">
<ele>703.8</ele>
<time>2024-05-12T17:03:12Z</time>
</trkpt>
<trkpt lat="48.77501296810806" lon="9.966398198157547">
<ele>704</ele>
<time>2024-05-12T17:03:13Z</time>
</trkpt>
<trkpt lat="48.77496711909771" lon="9.966386714950204">
<ele>704.2</ele>
<time>2024-05-12T17:03:14Z</time>
</trkpt>
<trkpt lat="48.77492520958185" lon="9.966380093246698">
<ele>704.4</ele>
<time>2024-05-12T17:03:15Z</time>
</trkpt>
<trkpt lat="48.774879444390535" lon="9.966371459886432">
<ele>704.6</ele>
<time>2024-05-12T17:03:16Z</time>
</trkpt>
<trkpt lat="48.774837451055646" lon="9.966362910345197">
<ele>704.8</ele>
<time>2024-05-12T17:03:17Z</time>
</trkpt>
<trkpt lat="48.77479545772076" lon="9.96635528281331">
<ele>705.2</ele>
<time>2024-05-12T17:03:18Z</time>
</trkpt>
<trkpt lat="48.7747535482049" lon="9.966348577290772">
<ele>705.4</ele>
<time>2024-05-12T17:03:19Z</time>
</trkpt>
<trkpt lat="48.77471155487001" lon="9.966340027749538">
<ele>705.6</ele>
<time>2024-05-12T17:03:20Z</time>
</trkpt>
<trkpt lat="48.77467341721058" lon="9.966331478208303">
<ele>705.6</ele>
<time>2024-05-12T17:03:21Z</time>
</trkpt>
<trkpt lat="48.77463527955115" lon="9.966326700523496">
<ele>705.8</ele>
<time>2024-05-12T17:03:22Z</time>
</trkpt>
<trkpt lat="48.77459328621626" lon="9.966324772685766">
<ele>705.8</ele>
<time>2024-05-12T17:03:23Z</time>
</trkpt>
<trkpt lat="48.77455514855683" lon="9.966319995000958">
<ele>706</ele>
<time>2024-05-12T17:03:24Z</time>
</trkpt>
<trkpt lat="48.7745170108974" lon="9.96631521731615">
<ele>706</ele>
<time>2024-05-12T17:03:25Z</time>
</trkpt>
<trkpt lat="48.774482645094395" lon="9.966308511793612">
<ele>706</ele>
<time>2024-05-12T17:03:26Z</time>
</trkpt>
<trkpt lat="48.77444450743496" lon="9.966299962252378">
<ele>706</ele>
<time>2024-05-12T17:03:27Z</time>
</trkpt>
<trkpt lat="48.774406369775534" lon="9.96629325672984">
<ele>706.2</ele>
<time>2024-05-12T17:03:28Z</time>
</trkpt>
<trkpt lat="48.77436446025968" lon="9.966286635026336">
<ele>706.2</ele>
<time>2024-05-12T17:03:29Z</time>
</trkpt>
<trkpt lat="48.77432246692479" lon="9.966281857341528">
<ele>706.4</ele>
<time>2024-05-12T17:03:30Z</time>
</trkpt>
<trkpt lat="48.7742804735899" lon="9.966276157647371">
<ele>706.4</ele>
<time>2024-05-12T17:03:31Z</time>
</trkpt>
<trkpt lat="48.77423856407404" lon="9.966270374134185">
<ele>706.4</ele>
<time>2024-05-12T17:03:32Z</time>
</trkpt>
<trkpt lat="48.77419279888272" lon="9.966261824592948">
<ele>706.6</ele>
<time>2024-05-12T17:03:33Z</time>
</trkpt>
<trkpt lat="48.77415466122329" lon="9.966253275051711">
<ele>706.6</ele>
<time>2024-05-12T17:03:34Z</time>
</trkpt>
<trkpt lat="48.7741126678884" lon="9.966246569529176">
<ele>706.6</ele>
<time>2024-05-12T17:03:35Z</time>
</trkpt>
<trkpt lat="48.77407067455351" lon="9.96623801998794">
<ele>706.6</ele>
<time>2024-05-12T17:03:36Z</time>
</trkpt>
<trkpt lat="48.774028765037656" lon="9.966228464618323">
<ele>706.8</ele>
<time>2024-05-12T17:03:37Z</time>
</trkpt>
<trkpt lat="48.773986771702766" lon="9.96621983125806">
<ele>706.8</ele>
<time>2024-05-12T17:03:38Z</time>
</trkpt>
<trkpt lat="48.77394477836788" lon="9.96621698141098">
<ele>707</ele>
<time>2024-05-12T17:03:39Z</time>
</trkpt>
<trkpt lat="48.77389901317656" lon="9.966211281716824">
<ele>707</ele>
<time>2024-05-12T17:03:40Z</time>
</trkpt>
<trkpt lat="48.7738571036607" lon="9.966206504032016">
<ele>707</ele>
<time>2024-05-12T17:03:41Z</time>
</trkpt>
<trkpt lat="48.77381511032581" lon="9.9661969486624">
<ele>707.2</ele>
<time>2024-05-12T17:03:42Z</time>
</trkpt>
<trkpt lat="48.77377311699093" lon="9.966188399121163">
<ele>707.2</ele>
<time>2024-05-12T17:03:43Z</time>
</trkpt>
<trkpt lat="48.773731207475066" lon="9.966181693598628">
<ele>707.4</ele>
<time>2024-05-12T17:03:44Z</time>
</trkpt>
<trkpt lat="48.77368544228375" lon="9.966175071895124">
<ele>707.4</ele>
<time>2024-05-12T17:03:45Z</time>
</trkpt>
<trkpt lat="48.77363967709243" lon="9.966166438534856">
<ele>707.6</ele>
<time>2024-05-12T17:03:46Z</time>
</trkpt>
<trkpt lat="48.773597683757544" lon="9.96615981683135">
<ele>707.8</ele>
<time>2024-05-12T17:03:47Z</time>
</trkpt>
<trkpt lat="48.773555690422654" lon="9.966150261461737">
<ele>708</ele>
<time>2024-05-12T17:03:48Z</time>
</trkpt>
<trkpt lat="48.7735137809068" lon="9.966144561767578">
<ele>708</ele>
<time>2024-05-12T17:03:49Z</time>
</trkpt>
<trkpt lat="48.77347178757191" lon="9.96613877825439">
<ele>708.2</ele>
<time>2024-05-12T17:03:50Z</time>
</trkpt>
<trkpt lat="48.77342979423702" lon="9.966131150722504">
<ele>708.4</ele>
<time>2024-05-12T17:03:51Z</time>
</trkpt>
<trkpt lat="48.7733840290457" lon="9.966125451028349">
<ele>708.4</ele>
<time>2024-05-12T17:03:52Z</time>
</trkpt>
<trkpt lat="48.773338263854384" lon="9.96611782349646">
<ele>708.4</ele>
<time>2024-05-12T17:03:53Z</time>
</trkpt>
<trkpt lat="48.77329249866307" lon="9.966110195964577">
<ele>708.6</ele>
<time>2024-05-12T17:03:54Z</time>
</trkpt>
<trkpt lat="48.77324673347175" lon="9.96609971858561">
<ele>708.6</ele>
<time>2024-05-12T17:03:55Z</time>
</trkpt>
<trkpt lat="48.77320474013686" lon="9.966092091053724">
<ele>708.8</ele>
<time>2024-05-12T17:03:56Z</time>
</trkpt>
<trkpt lat="48.77316283062101" lon="9.966086307540536">
<ele>708.8</ele>
<time>2024-05-12T17:03:57Z</time>
</trkpt>
<trkpt lat="48.77311706542969" lon="9.96608161367476">
<ele>708.8</ele>
<time>2024-05-12T17:03:58Z</time>
</trkpt>
<trkpt lat="48.773078843951225" lon="9.96607868000865">
<ele>708.8</ele>
<time>2024-05-12T17:03:59Z</time>
</trkpt>
<trkpt lat="48.773040706291795" lon="9.966072980314491">
<ele>708.8</ele>
<time>2024-05-12T17:04:00Z</time>
</trkpt>
<trkpt lat="48.77300256863237" lon="9.966065352782609">
<ele>709</ele>
<time>2024-05-12T17:04:01Z</time>
</trkpt>
<trkpt lat="48.772964430972934" lon="9.966056803241372">
<ele>709</ele>
<time>2024-05-12T17:04:02Z</time>
</trkpt>
<trkpt lat="48.7729262933135" lon="9.966050097718837">
<ele>709.2</ele>
<time>2024-05-12T17:04:03Z</time>
</trkpt>
<trkpt lat="48.77288815565407" lon="9.966043392196298">
<ele>709.2</ele>
<time>2024-05-12T17:04:04Z</time>
</trkpt>
<trkpt lat="48.77284616231918" lon="9.966034842655064">
<ele>709.2</ele>
<time>2024-05-12T17:04:05Z</time>
</trkpt>
<trkpt lat="48.772804252803326" lon="9.966028137132524">
<ele>709.2</ele>
<time>2024-05-12T17:04:06Z</time>
</trkpt>
<trkpt lat="48.77276603132486" lon="9.96601958759129">
<ele>709.2</ele>
<time>2024-05-12T17:04:07Z</time>
</trkpt>
<trkpt lat="48.772724121809006" lon="9.966008104383944">
<ele>709.2</ele>
<time>2024-05-12T17:04:08Z</time>
</trkpt>
<trkpt lat="48.772685984149575" lon="9.96599955484271">
<ele>709.2</ele>
<time>2024-05-12T17:04:09Z</time>
</trkpt>
<trkpt lat="48.772647846490145" lon="9.965991927310824">
<ele>709.2</ele>
<time>2024-05-12T17:04:11Z</time>
</trkpt>
<trkpt lat="48.77257148735225" lon="9.965978600084782">
<ele>709.2</ele>
<time>2024-05-12T17:04:12Z</time>
</trkpt>
<trkpt lat="48.77253334969282" lon="9.965976672247052">
<ele>709.4</ele>
<time>2024-05-12T17:04:13Z</time>
</trkpt>
<trkpt lat="48.77249906770885" lon="9.965968122705815">
<ele>709.6</ele>
<time>2024-05-12T17:04:14Z</time>
</trkpt>
<trkpt lat="48.77246093004942" lon="9.965958567336202">
<ele>709.6</ele>
<time>2024-05-12T17:04:15Z</time>
</trkpt>
<trkpt lat="48.772426564246416" lon="9.965946162119508">
<ele>709.8</ele>
<time>2024-05-12T17:04:16Z</time>
</trkpt>
<trkpt lat="48.77239219844341" lon="9.965938534587622">
<ele>710</ele>
<time>2024-05-12T17:04:17Z</time>
</trkpt>
<trkpt lat="48.77235791645944" lon="9.965932834893463">
<ele>710</ele>
<time>2024-05-12T17:04:18Z</time>
</trkpt>
<trkpt lat="48.77232355065644" lon="9.965931829065084">
<ele>710.2</ele>
<time>2024-05-12T17:04:19Z</time>
</trkpt>
<trkpt lat="48.772289268672466" lon="9.965929985046388">
<ele>710.2</ele>
<time>2024-05-12T17:04:20Z</time>
</trkpt>
<trkpt lat="48.77225490286946" lon="9.965929985046388">
<ele>710.4</ele>
<time>2024-05-12T17:04:21Z</time>
</trkpt>
<trkpt lat="48.77221676521003" lon="9.965931829065084">
<ele>710.2</ele>
<time>2024-05-12T17:04:22Z</time>
</trkpt>
<trkpt lat="48.77218239940703" lon="9.965934678912165">
<ele>710.2</ele>
<time>2024-05-12T17:04:23Z</time>
</trkpt>
<trkpt lat="48.7721442617476" lon="9.96594331227243">
<ele>710.2</ele>
<time>2024-05-12T17:04:24Z</time>
</trkpt>
<trkpt lat="48.77210612408817" lon="9.965948089957235">
<ele>710.2</ele>
<time>2024-05-12T17:04:25Z</time>
</trkpt>
<trkpt lat="48.77206798642874" lon="9.965958567336202">
<ele>710</ele>
<time>2024-05-12T17:04:26Z</time>
</trkpt>
<trkpt lat="48.77202984876931" lon="9.965971894562244">
<ele>710</ele>
<time>2024-05-12T17:04:27Z</time>
</trkpt>
<trkpt lat="48.77198785543442" lon="9.96598337776959">
<ele>709.8</ele>
<time>2024-05-12T17:04:28Z</time>
</trkpt>
<trkpt lat="48.7719420902431" lon="9.96599955484271">
<ele>709.6</ele>
<time>2024-05-12T17:04:29Z</time>
</trkpt>
<trkpt lat="48.771896325051785" lon="9.966018665581942">
<ele>709.6</ele>
<time>2024-05-12T17:04:30Z</time>
</trkpt>
<trkpt lat="48.77184670418501" lon="9.9660415481776">
<ele>709.4</ele>
<time>2024-05-12T17:04:31Z</time>
</trkpt>
<trkpt lat="48.771797167137265" lon="9.966072980314491">
<ele>709.6</ele>
<time>2024-05-12T17:04:32Z</time>
</trkpt>
<trkpt lat="48.77175140194595" lon="9.966112123802304">
<ele>709.6</ele>
<time>2024-05-12T17:04:33Z</time>
</trkpt>
<trkpt lat="48.77170940861106" lon="9.96615788899362">
<ele>709.4</ele>
<time>2024-05-12T17:04:34Z</time>
</trkpt>
<trkpt lat="48.77166741527617" lon="9.966210359707476">
<ele>709.4</ele>
<time>2024-05-12T17:04:35Z</time>
</trkpt>
<trkpt lat="48.7716331332922" lon="9.966273307800291">
<ele>709.2</ele>
<time>2024-05-12T17:04:36Z</time>
</trkpt>
<trkpt lat="48.771598767489195" lon="9.966338099911807">
<ele>709.2</ele>
<time>2024-05-12T17:04:37Z</time>
</trkpt>
<trkpt lat="48.77157588489354" lon="9.966398198157547">
<ele>709</ele>
<time>2024-05-12T17:04:38Z</time>
</trkpt>
<trkpt lat="48.77156062982976" lon="9.96645636856556">
<ele>708.8</ele>
<time>2024-05-12T17:04:39Z</time>
</trkpt>
<trkpt lat="48.77154151909053" lon="9.966504983603954">
<ele>708.8</ele>
<time>2024-05-12T17:04:40Z</time>
</trkpt>
<trkpt lat="48.771518636494875" lon="9.96653649955988">
<ele>708.8</ele>
<time>2024-05-12T17:04:41Z</time>
</trkpt>
<trkpt lat="48.77149198204279" lon="9.96655368246138">
<ele>708.6</ele>
<time>2024-05-12T17:04:42Z</time>
</trkpt>
<trkpt lat="48.771461471915245" lon="9.966545049101114">
<ele>708.2</ele>
<time>2024-05-12T17:04:43Z</time>
</trkpt>
<trkpt lat="48.77143858931959" lon="9.966518394649029">
<ele>708.2</ele>
<time>2024-05-12T17:04:44Z</time>
</trkpt>
<trkpt lat="48.771423334255815" lon="9.96647640131414">
<ele>708</ele>
<time>2024-05-12T17:04:45Z</time>
</trkpt>
<trkpt lat="48.77140807919204" lon="9.96643541380763">
<ele>707.8</ele>
<time>2024-05-12T17:04:46Z</time>
</trkpt>
<trkpt lat="48.7713965959847" lon="9.966389648616314">
<ele>707.6</ele>
<time>2024-05-12T17:04:47Z</time>
</trkpt>
<trkpt lat="48.77138511277735" lon="9.966348577290772">
<ele>707.4</ele>
<time>2024-05-12T17:04:48Z</time>
</trkpt>
<trkpt lat="48.771377485245466" lon="9.966308511793612">
<ele>707.2</ele>
<time>2024-05-12T17:04:49Z</time>
</trkpt>
<trkpt lat="48.77136985771358" lon="9.966271379962564">
<ele>706.8</ele>
<time>2024-05-12T17:04:50Z</time>
</trkpt>
<trkpt lat="48.771362230181694" lon="9.966233242303131">
<ele>706.6</ele>
<time>2024-05-12T17:04:51Z</time>
</trkpt>
<trkpt lat="48.77134697511792" lon="9.966190326958897">
<ele>706.4</ele>
<time>2024-05-12T17:04:52Z</time>
</trkpt>
<trkpt lat="48.77132794819772" lon="9.966148333624004">
<ele>706.2</ele>
<time>2024-05-12T17:04:53Z</time>
</trkpt>
<trkpt lat="48.771305065602064" lon="9.966104496270418">
<ele>706</ele>
<time>2024-05-12T17:04:54Z</time>
</trkpt>
<trkpt lat="48.77127832733095" lon="9.966058731079102">
<ele>706</ele>
<time>2024-05-12T17:04:55Z</time>
</trkpt>
<trkpt lat="48.77124018967152" lon="9.966005254536867">
<ele>705.8</ele>
<time>2024-05-12T17:04:56Z</time>
</trkpt>
<trkpt lat="48.77120967954397" lon="9.965969966724517">
<ele>705.6</ele>
<time>2024-05-12T17:04:57Z</time>
</trkpt>
<trkpt lat="48.77117916941643" lon="9.965938534587622">
<ele>705.6</ele>
<time>2024-05-12T17:04:58Z</time>
</trkpt>
<trkpt lat="48.771141031757" lon="9.965909952297809">
<ele>705.6</ele>
<time>2024-05-12T17:04:59Z</time>
</trkpt>
<trkpt lat="48.77109141089022" lon="9.96588514186442">
<ele>705.6</ele>
<time>2024-05-12T17:05:00Z</time>
</trkpt>
<trkpt lat="48.77103039063513" lon="9.965854631736876">
<ele>705.6</ele>
<time>2024-05-12T17:05:01Z</time>
</trkpt>
<trkpt lat="48.77096937038005" lon="9.965836443006992">
<ele>705.6</ele>
<time>2024-05-12T17:05:02Z</time>
</trkpt>
<trkpt lat="48.770904494449496" lon="9.965800233185291">
<ele>705.6</ele>
<time>2024-05-12T17:05:03Z</time>
</trkpt>
<trkpt lat="48.77083961851895" lon="9.965776428580284">
<ele>705.6</ele>
<time>2024-05-12T17:05:04Z</time>
</trkpt>
<trkpt lat="48.770786225795746" lon="9.96576301753521">
<ele>705.6</ele>
<time>2024-05-12T17:05:05Z</time>
</trkpt>
<trkpt lat="48.77071757800877" lon="9.965740134939551">
<ele>705.4</ele>
<time>2024-05-12T17:05:06Z</time>
</trkpt>
<trkpt lat="48.770667957141995" lon="9.96572487987578">
<ele>705.4</ele>
<time>2024-05-12T17:05:07Z</time>
</trkpt>
<trkpt lat="48.77060693688691" lon="9.965708702802658">
<ele>705.2</ele>
<time>2024-05-12T17:05:08Z</time>
</trkpt>
<trkpt lat="48.77054591663182" lon="9.965691519901156">
<ele>705.2</ele>
<time>2024-05-12T17:05:09Z</time>
</trkpt>
<trkpt lat="48.77048104070127" lon="9.965675342828035">
<ele>705</ele>
<time>2024-05-12T17:05:10Z</time>
</trkpt>
<trkpt lat="48.77042002044618" lon="9.965651454403996">
<ele>704.8</ele>
<time>2024-05-12T17:05:11Z</time>
</trkpt>
<trkpt lat="48.77035900019109" lon="9.965646676719189">
<ele>704.8</ele>
<time>2024-05-12T17:05:12Z</time>
</trkpt>
<trkpt lat="48.770294124260545" lon="9.965624799951913">
<ele>704.8</ele>
<time>2024-05-12T17:05:13Z</time>
</trkpt>
<trkpt lat="48.77022933214903" lon="9.965602839365602">
<ele>704.8</ele>
<time>2024-05-12T17:05:14Z</time>
</trkpt>
<trkpt lat="48.77016445621848" lon="9.965584734454753">
<ele>704.6</ele>
<time>2024-05-12T17:05:15Z</time>
</trkpt>
<trkpt lat="48.77009958028793" lon="9.9655666295439">
<ele>704.6</ele>
<time>2024-05-12T17:05:16Z</time>
</trkpt>
<trkpt lat="48.77003478817642" lon="9.965544668957593">
<ele>704.6</ele>
<time>2024-05-12T17:05:17Z</time>
</trkpt>
<trkpt lat="48.76996605657041" lon="9.965519858524203">
<ele>704.6</ele>
<time>2024-05-12T17:05:18Z</time>
</trkpt>
<trkpt lat="48.769901264458895" lon="9.965496975928543">
<ele>704.4</ele>
<time>2024-05-12T17:05:19Z</time>
</trkpt>
<trkpt lat="48.76983638852835" lon="9.965476943179963">
<ele>704</ele>
<time>2024-05-12T17:05:20Z</time>
</trkpt>
<trkpt lat="48.76976774074137" lon="9.965453138574958">
<ele>703.6</ele>
<time>2024-05-12T17:05:21Z</time>
</trkpt>
<trkpt lat="48.769702864810824" lon="9.965433105826378">
<ele>703.2</ele>
<time>2024-05-12T17:05:22Z</time>
</trkpt>
<trkpt lat="48.769641844555736" lon="9.965417850762606">
<ele>703</ele>
<time>2024-05-12T17:05:23Z</time>
</trkpt>
<trkpt lat="48.76957696862519" lon="9.965399662032723">
<ele>702.8</ele>
<time>2024-05-12T17:05:24Z</time>
</trkpt>
<trkpt lat="48.76951217651367" lon="9.965376779437063">
<ele>702.4</ele>
<time>2024-05-12T17:05:25Z</time>
</trkpt>
<trkpt lat="48.76944730058312" lon="9.965356746688483">
<ele>702.2</ele>
<time>2024-05-12T17:05:26Z</time>
</trkpt>
<trkpt lat="48.76937865279615" lon="9.965336797758937">
<ele>701.8</ele>
<time>2024-05-12T17:05:27Z</time>
</trkpt>
<trkpt lat="48.76930992119014" lon="9.965314837172627">
<ele>701.6</ele>
<time>2024-05-12T17:05:28Z</time>
</trkpt>
<trkpt lat="48.76924512907863" lon="9.965296732261775">
<ele>701.4</ele>
<time>2024-05-12T17:05:29Z</time>
</trkpt>
<trkpt lat="48.76917262561619" lon="9.965279549360275">
<ele>701.2</ele>
<time>2024-05-12T17:05:30Z</time>
</trkpt>
<trkpt lat="48.76910397782922" lon="9.965266222134233">
<ele>701</ele>
<time>2024-05-12T17:05:31Z</time>
</trkpt>
<trkpt lat="48.76903533004224" lon="9.96524803340435">
<ele>701</ele>
<time>2024-05-12T17:05:32Z</time>
</trkpt>
<trkpt lat="48.76896659843624" lon="9.965236634016035">
<ele>700.8</ele>
<time>2024-05-12T17:05:33Z</time>
</trkpt>
<trkpt lat="48.768894178792834" lon="9.965223306789994">
<ele>700.6</ele>
<time>2024-05-12T17:05:34Z</time>
</trkpt>
<trkpt lat="48.7688216753304" lon="9.96520704589784">
<ele>700.4</ele>
<time>2024-05-12T17:05:35Z</time>
</trkpt>
<trkpt lat="48.76874917186797" lon="9.965185085311532">
<ele>700.2</ele>
<time>2024-05-12T17:05:36Z</time>
</trkpt>
<trkpt lat="48.768676752224565" lon="9.965163208544254">
<ele>700</ele>
<time>2024-05-12T17:05:37Z</time>
</trkpt>
<trkpt lat="48.76860039308667" lon="9.96515172533691">
<ele>699.6</ele>
<time>2024-05-12T17:05:38Z</time>
</trkpt>
<trkpt lat="48.76852411776781" lon="9.965136470273135">
<ele>699.4</ele>
<time>2024-05-12T17:05:39Z</time>
</trkpt>
<trkpt lat="48.76844398677349" lon="9.965129848569632">
<ele>699.2</ele>
<time>2024-05-12T17:05:40Z</time>
</trkpt>
<trkpt lat="48.7683639395982" lon="9.96511459350586">
<ele>699</ele>
<time>2024-05-12T17:05:41Z</time>
</trkpt>
<trkpt lat="48.76829143613577" lon="9.965087855234742">
<ele>698.6</ele>
<time>2024-05-12T17:05:42Z</time>
</trkpt>
<trkpt lat="48.76821516081691" lon="9.96505348943174">
<ele>698.4</ele>
<time>2024-05-12T17:05:43Z</time>
</trkpt>
<trkpt lat="48.768142657354474" lon="9.965028762817385">
<ele>698.2</ele>
<time>2024-05-12T17:05:44Z</time>
</trkpt>
<trkpt lat="48.76807015389204" lon="9.965000096708536">
<ele>698</ele>
<time>2024-05-12T17:05:45Z</time>
</trkpt>
<trkpt lat="48.76799773424864" lon="9.964984841644764">
<ele>697.6</ele>
<time>2024-05-12T17:05:46Z</time>
</trkpt>
<trkpt lat="48.767921375110745" lon="9.964960031211376">
<ele>697.4</ele>
<time>2024-05-12T17:05:47Z</time>
</trkpt>
<trkpt lat="48.76786035485566" lon="9.964924743399024">
<ele>697.4</ele>
<time>2024-05-12T17:05:48Z</time>
</trkpt>
<trkpt lat="48.76779933460057" lon="9.9648913834244">
<ele>697.2</ele>
<time>2024-05-12T17:05:49Z</time>
</trkpt>
<trkpt lat="48.76773831434548" lon="9.964864728972316">
<ele>697.2</ele>
<time>2024-05-12T17:05:50Z</time>
</trkpt>
<trkpt lat="48.76768106594682" lon="9.964850395917892">
<ele>697.2</ele>
<time>2024-05-12T17:05:51Z</time>
</trkpt>
<trkpt lat="48.76762390136719" lon="9.964826507493854">
<ele>697.4</ele>
<time>2024-05-12T17:05:52Z</time>
</trkpt>
<trkpt lat="48.767566652968526" lon="9.964808402583005">
<ele>697.2</ele>
<time>2024-05-12T17:05:53Z</time>
</trkpt>
<trkpt lat="48.76751326024532" lon="9.964790297672153">
<ele>697.2</ele>
<time>2024-05-12T17:05:54Z</time>
</trkpt>
<trkpt lat="48.76745986752212" lon="9.964771270751951">
<ele>697.2</ele>
<time>2024-05-12T17:05:55Z</time>
</trkpt>
<trkpt lat="48.767406390979886" lon="9.96475693769753">
<ele>697.2</ele>
<time>2024-05-12T17:05:56Z</time>
</trkpt>
<trkpt lat="48.76735299825668" lon="9.964743610471489">
<ele>697.2</ele>
<time>2024-05-12T17:05:57Z</time>
</trkpt>
<trkpt lat="48.76729583367705" lon="9.964741682633758">
<ele>697.6</ele>
<time>2024-05-12T17:05:58Z</time>
</trkpt>
<trkpt lat="48.76723858527839" lon="9.964733049273493">
<ele>697.6</ele>
<time>2024-05-12T17:06:00Z</time>
</trkpt>
<trkpt lat="48.7671241723001" lon="9.96473690494895">
<ele>697.6</ele>
<time>2024-05-12T17:06:01Z</time>
</trkpt>
<trkpt lat="48.76705929636955" lon="9.964748304337265">
<ele>697.4</ele>
<time>2024-05-12T17:06:02Z</time>
</trkpt>
<trkpt lat="48.766998276114464" lon="9.964761715382338">
<ele>697.2</ele>
<time>2024-05-12T17:06:03Z</time>
</trkpt>
<trkpt lat="48.766937255859375" lon="9.96477697044611">
<ele>697</ele>
<time>2024-05-12T17:06:04Z</time>
</trkpt>
<trkpt lat="48.76688000746071" lon="9.96479792520404">
<ele>697</ele>
<time>2024-05-12T17:06:05Z</time>
</trkpt>
<trkpt lat="48.76683038659394" lon="9.964819885790348">
<ele>696.6</ele>
<time>2024-05-12T17:06:06Z</time>
</trkpt>
<trkpt lat="48.76678462140262" lon="9.964841762557626">
<ele>696.4</ele>
<time>2024-05-12T17:06:07Z</time>
</trkpt>
<trkpt lat="48.766735000535846" lon="9.96485710144043">
<ele>696.2</ele>
<time>2024-05-12T17:06:08Z</time>
</trkpt>
<trkpt lat="48.7666854634881" lon="9.96487327851355">
<ele>695.8</ele>
<time>2024-05-12T17:06:09Z</time>
</trkpt>
<trkpt lat="48.766635842621326" lon="9.964884677901864">
<ele>695.6</ele>
<time>2024-05-12T17:06:10Z</time>
</trkpt>
<trkpt lat="48.76658622175455" lon="9.964889455586672">
<ele>695.6</ele>
<time>2024-05-12T17:06:11Z</time>
</trkpt>
<trkpt lat="48.76652905717492" lon="9.96489523909986">
<ele>695.4</ele>
<time>2024-05-12T17:06:12Z</time>
</trkpt>
<trkpt lat="48.76647180877626" lon="9.96491141617298">
<ele>695.2</ele>
<time>2024-05-12T17:06:13Z</time>
</trkpt>
<trkpt lat="48.76640693284571" lon="9.964928599074485">
<ele>695</ele>
<time>2024-05-12T17:06:14Z</time>
</trkpt>
<trkpt lat="48.76634976826608" lon="9.964941926300526">
<ele>694.6</ele>
<time>2024-05-12T17:06:15Z</time>
</trkpt>
<trkpt lat="48.76629251986742" lon="9.96495148167014">
<ele>694.2</ele>
<time>2024-05-12T17:06:16Z</time>
</trkpt>
<trkpt lat="48.76623149961233" lon="9.964962881058456">
<ele>693.8</ele>
<time>2024-05-12T17:06:17Z</time>
</trkpt>
<trkpt lat="48.76617425121367" lon="9.964978136122228">
<ele>693.4</ele>
<time>2024-05-12T17:06:19Z</time>
</trkpt>
<trkpt lat="48.76605221070349" lon="9.964996324852107">
<ele>692.4</ele>
<time>2024-05-12T17:06:20Z</time>
</trkpt>
<trkpt lat="48.76599496230483" lon="9.96501342393458">
<ele>692</ele>
<time>2024-05-12T17:06:21Z</time>
</trkpt>
<trkpt lat="48.7659377977252" lon="9.965028762817385">
<ele>691.4</ele>
<time>2024-05-12T17:06:22Z</time>
</trkpt>
<trkpt lat="48.76587292179465" lon="9.965049717575312">
<ele>691</ele>
<time>2024-05-12T17:06:23Z</time>
</trkpt>
<trkpt lat="48.76581190153957" lon="9.965082155540586">
<ele>690.4</ele>
<time>2024-05-12T17:06:25Z</time>
</trkpt>
<trkpt lat="48.76571265980601" lon="9.9651937186718">
<ele>689.4</ele>
<time>2024-05-12T17:06:26Z</time>
</trkpt>
<trkpt lat="48.76566312275827" lon="9.96525381691754">
<ele>688.8</ele>
<time>2024-05-12T17:06:27Z</time>
</trkpt>
<trkpt lat="48.76561735756695" lon="9.965318609029056">
<ele>688.2</ele>
<time>2024-05-12T17:06:28Z</time>
</trkpt>
<trkpt lat="48.76557159237563" lon="9.96538826264441">
<ele>687.4</ele>
<time>2024-05-12T17:06:29Z</time>
</trkpt>
<trkpt lat="48.76552959904075" lon="9.965463615953922">
<ele>687</ele>
<time>2024-05-12T17:06:30Z</time>
</trkpt>
<trkpt lat="48.76547997817397" lon="9.965543746948242">
<ele>687</ele>
<time>2024-05-12T17:06:31Z</time>
</trkpt>
<trkpt lat="48.76542658545077" lon="9.96562957763672">
<ele>686.4</ele>
<time>2024-05-12T17:06:32Z</time>
</trkpt>
<trkpt lat="48.76536556519568" lon="9.965713480487466">
<ele>686</ele>
<time>2024-05-12T17:06:33Z</time>
</trkpt>
<trkpt lat="48.76531217247248" lon="9.965791683644056">
<ele>685.6</ele>
<time>2024-05-12T17:06:34Z</time>
</trkpt>
<trkpt lat="48.7652625516057" lon="9.965871730819345">
<ele>685</ele>
<time>2024-05-12T17:06:35Z</time>
</trkpt>
<trkpt lat="48.765216786414385" lon="9.965949933975937">
<ele>684.4</ele>
<time>2024-05-12T17:06:36Z</time>
</trkpt>
<trkpt lat="48.76516716554761" lon="9.966018665581942">
<ele>683.6</ele>
<time>2024-05-12T17:06:37Z</time>
</trkpt>
<trkpt lat="48.76510237343609" lon="9.966070130467417">
<ele>683</ele>
<time>2024-05-12T17:06:38Z</time>
</trkpt>
<trkpt lat="48.76503364183009" lon="9.966112123802304">
<ele>682.2</ele>
<time>2024-05-12T17:06:39Z</time>
</trkpt>
<trkpt lat="48.76496499404311" lon="9.966135006397964">
<ele>681.6</ele>
<time>2024-05-12T17:06:40Z</time>
</trkpt>
<trkpt lat="48.76489634625614" lon="9.96613685041666">
<ele>680.8</ele>
<time>2024-05-12T17:06:41Z</time>
</trkpt>
<trkpt lat="48.76482007093728" lon="9.966135006397964">
<ele>680.2</ele>
<time>2024-05-12T17:06:42Z</time>
</trkpt>
<trkpt lat="48.76475519500673" lon="9.966108268126844">
<ele>679.8</ele>
<time>2024-05-12T17:06:43Z</time>
</trkpt>
<trkpt lat="48.764682691544294" lon="9.96607868000865">
<ele>679.2</ele>
<time>2024-05-12T17:06:44Z</time>
</trkpt>
<trkpt lat="48.76461789943278" lon="9.966043392196298">
<ele>678.8</ele>
<time>2024-05-12T17:06:45Z</time>
</trkpt>
<trkpt lat="48.76455302350223" lon="9.966016737744212">
<ele>678.4</ele>
<time>2024-05-12T17:06:46Z</time>
</trkpt>
<trkpt lat="48.76448814757168" lon="9.965988155454395">
<ele>678</ele>
<time>2024-05-12T17:06:47Z</time>
</trkpt>
<trkpt lat="48.76442335546017" lon="9.965954711660745">
<ele>677.4</ele>
<time>2024-05-12T17:06:48Z</time>
</trkpt>
<trkpt lat="48.76436233520508" lon="9.965929985046388">
<ele>677</ele>
<time>2024-05-12T17:06:49Z</time>
</trkpt>
<trkpt lat="48.76429745927453" lon="9.965896541252732">
<ele>676.6</ele>
<time>2024-05-12T17:06:50Z</time>
</trkpt>
<trkpt lat="48.76423643901944" lon="9.965860331431031">
<ele>676.2</ele>
<time>2024-05-12T17:06:51Z</time>
</trkpt>
<trkpt lat="48.764171563088894" lon="9.96582311578095">
<ele>675.8</ele>
<time>2024-05-12T17:06:52Z</time>
</trkpt>
<trkpt lat="48.764106687158346" lon="9.965789755806329">
<ele>675.4</ele>
<time>2024-05-12T17:06:53Z</time>
</trkpt>
<trkpt lat="48.76404566690326" lon="9.965751618146896">
<ele>675</ele>
<time>2024-05-12T17:06:54Z</time>
</trkpt>
<trkpt lat="48.76398464664817" lon="9.965716330334544">
<ele>674.8</ele>
<time>2024-05-12T17:06:55Z</time>
</trkpt>
<trkpt lat="48.76392362639308" lon="9.965676264837384">
<ele>674.6</ele>
<time>2024-05-12T17:06:56Z</time>
</trkpt>
<trkpt lat="48.76386260613799" lon="9.965638127177954">
<ele>674.4</ele>
<time>2024-05-12T17:06:57Z</time>
</trkpt>
<trkpt lat="48.76380150206387" lon="9.965601917356253">
<ele>674.2</ele>
<time>2024-05-12T17:06:58Z</time>
</trkpt>
<trkpt lat="48.76374048180878" lon="9.965564701706173">
<ele>674</ele>
<time>2024-05-12T17:06:59Z</time>
</trkpt>
<trkpt lat="48.76368331722915" lon="9.965530335903168">
<ele>673.8</ele>
<time>2024-05-12T17:07:00Z</time>
</trkpt>
<trkpt lat="48.76362606883049" lon="9.965491276234388">
<ele>673.6</ele>
<time>2024-05-12T17:07:01Z</time>
</trkpt>
<trkpt lat="48.7635650485754" lon="9.965456910431383">
<ele>673.6</ele>
<time>2024-05-12T17:07:02Z</time>
</trkpt>
<trkpt lat="48.7635116558522" lon="9.965419694781303">
<ele>673.4</ele>
<time>2024-05-12T17:07:03Z</time>
</trkpt>
<trkpt lat="48.76345817930997" lon="9.96538826264441">
<ele>673.4</ele>
<time>2024-05-12T17:07:04Z</time>
</trkpt>
<trkpt lat="48.76340478658676" lon="9.965359680354595">
<ele>673.2</ele>
<time>2024-05-12T17:07:05Z</time>
</trkpt>
<trkpt lat="48.76335139386356" lon="9.9653300922364">
<ele>673.2</ele>
<time>2024-05-12T17:07:06Z</time>
</trkpt>
<trkpt lat="48.76330177299678" lon="9.965299582108855">
<ele>673.2</ele>
<time>2024-05-12T17:07:07Z</time>
</trkpt>
<trkpt lat="48.76324460841715" lon="9.965272843837738">
<ele>673</ele>
<time>2024-05-12T17:07:08Z</time>
</trkpt>
<trkpt lat="48.76319498755038" lon="9.965243339538574">
<ele>673</ele>
<time>2024-05-12T17:07:09Z</time>
</trkpt>
<trkpt lat="48.763141594827175" lon="9.96521182358265">
<ele>673</ele>
<time>2024-05-12T17:07:10Z</time>
</trkpt>
<trkpt lat="48.76308820210397" lon="9.965180391445756">
<ele>673</ele>
<time>2024-05-12T17:07:11Z</time>
</trkpt>
<trkpt lat="48.7630385812372" lon="9.965156503021715">
<ele>673</ele>
<time>2024-05-12T17:07:12Z</time>
</trkpt>
<trkpt lat="48.76298904418945" lon="9.965134542435408">
<ele>673.2</ele>
<time>2024-05-12T17:07:13Z</time>
</trkpt>
<trkpt lat="48.76293942332268" lon="9.96511165983975">
<ele>673.2</ele>
<time>2024-05-12T17:07:14Z</time>
</trkpt>
<trkpt lat="48.7628898024559" lon="9.965086933225392">
<ele>673.2</ele>
<time>2024-05-12T17:07:16Z</time>
</trkpt>
<trkpt lat="48.76279064454138" lon="9.965049717575312">
<ele>673.2</ele>
<time>2024-05-12T17:07:17Z</time>
</trkpt>
<trkpt lat="48.76273725181818" lon="9.965028762817385">
<ele>673</ele>
<time>2024-05-12T17:07:18Z</time>
</trkpt>
<trkpt lat="48.762687630951405" lon="9.965006802231072">
<ele>673</ele>
<time>2024-05-12T17:07:19Z</time>
</trkpt>
<trkpt lat="48.7626342382282" lon="9.964976292103527">
<ele>673</ele>
<time>2024-05-12T17:07:20Z</time>
</trkpt>
<trkpt lat="48.762580845505" lon="9.964949553832412">
<ele>673</ele>
<time>2024-05-12T17:07:21Z</time>
</trkpt>
<trkpt lat="48.76252359710634" lon="9.964922899380326">
<ele>672.8</ele>
<time>2024-05-12T17:07:22Z</time>
</trkpt>
<trkpt lat="48.76246634870768" lon="9.96489523909986">
<ele>673</ele>
<time>2024-05-12T17:07:23Z</time>
</trkpt>
<trkpt lat="48.76241681165993" lon="9.964870428666472">
<ele>672.8</ele>
<time>2024-05-12T17:07:24Z</time>
</trkpt>
<trkpt lat="48.76236341893673" lon="9.964848468080165">
<ele>672.8</ele>
<time>2024-05-12T17:07:25Z</time>
</trkpt>
<trkpt lat="48.76231002621353" lon="9.96483321301639">
<ele>672.8</ele>
<time>2024-05-12T17:07:26Z</time>
</trkpt>
<trkpt lat="48.76225654967129" lon="9.964819885790348">
<ele>672.6</ele>
<time>2024-05-12T17:07:27Z</time>
</trkpt>
<trkpt lat="48.76220701262355" lon="9.964804630726576">
<ele>672.6</ele>
<time>2024-05-12T17:07:28Z</time>
</trkpt>
<trkpt lat="48.76215739175677" lon="9.96479700319469">
<ele>672.4</ele>
<time>2024-05-12T17:07:29Z</time>
</trkpt>
<trkpt lat="48.762111626565456" lon="9.964788369834425">
<ele>672.4</ele>
<time>2024-05-12T17:07:30Z</time>
</trkpt>
<trkpt lat="48.76206200569868" lon="9.96477697044611">
<ele>672.4</ele>
<time>2024-05-12T17:07:31Z</time>
</trkpt>
<trkpt lat="48.76202009618282" lon="9.964763559401035">
<ele>672.4</ele>
<time>2024-05-12T17:07:32Z</time>
</trkpt>
<trkpt lat="48.76197433099151" lon="9.96475785970688">
<ele>672.4</ele>
<time>2024-05-12T17:07:33Z</time>
</trkpt>
<trkpt lat="48.76193610951304" lon="9.964763559401035">
<ele>672.4</ele>
<time>2024-05-12T17:07:34Z</time>
</trkpt>
<trkpt lat="48.761897971853614" lon="9.964771270751951">
<ele>672.4</ele>
<time>2024-05-12T17:07:35Z</time>
</trkpt>
<trkpt lat="48.76185983419418" lon="9.964788369834425">
<ele>672.4</ele>
<time>2024-05-12T17:07:36Z</time>
</trkpt>
<trkpt lat="48.7618331797421" lon="9.964804630726576">
<ele>672.4</ele>
<time>2024-05-12T17:07:37Z</time>
</trkpt>
<trkpt lat="48.76181029714644" lon="9.96481510810554">
<ele>672.2</ele>
<time>2024-05-12T17:07:38Z</time>
</trkpt>
<trkpt lat="48.76178741455078" lon="9.96483128517866">
<ele>672</ele>
<time>2024-05-12T17:07:39Z</time>
</trkpt>
<trkpt lat="48.76176830381155" lon="9.96485131792724">
<ele>672</ele>
<time>2024-05-12T17:07:40Z</time>
</trkpt>
<trkpt lat="48.76175304874778" lon="9.964868500828745">
<ele>672</ele>
<time>2024-05-12T17:07:41Z</time>
</trkpt>
<trkpt lat="48.761737793684006" lon="9.964881828054786">
<ele>671.8</ele>
<time>2024-05-12T17:07:42Z</time>
</trkpt>
<trkpt lat="48.761718682944775" lon="9.96489523909986">
<ele>671.6</ele>
<time>2024-05-12T17:07:43Z</time>
</trkpt>
<trkpt lat="48.761703427881" lon="9.964906638488172">
<ele>671.4</ele>
<time>2024-05-12T17:07:44Z</time>
</trkpt>
<trkpt lat="48.7616844009608" lon="9.964919965714216">
<ele>671.2</ele>
<time>2024-05-12T17:07:45Z</time>
</trkpt>
<trkpt lat="48.761661518365145" lon="9.96493337675929">
<ele>671</ele>
<time>2024-05-12T17:07:46Z</time>
</trkpt>
<trkpt lat="48.76163478009403" lon="9.964949553832412">
<ele>670.8</ele>
<time>2024-05-12T17:07:47Z</time>
</trkpt>
<trkpt lat="48.76160804182291" lon="9.964966736733912">
<ele>670.6</ele>
<time>2024-05-12T17:07:48Z</time>
</trkpt>
<trkpt lat="48.761581387370825" lon="9.964988697320225">
<ele>670.6</ele>
<time>2024-05-12T17:07:49Z</time>
</trkpt>
<trkpt lat="48.76154702156782" lon="9.965008730068805">
<ele>670.6</ele>
<time>2024-05-12T17:07:50Z</time>
</trkpt>
<trkpt lat="48.76151651144028" lon="9.965029684826732">
<ele>670.6</ele>
<time>2024-05-12T17:07:51Z</time>
</trkpt>
<trkpt lat="48.761482229456306" lon="9.965058267116548">
<ele>670.4</ele>
<time>2024-05-12T17:07:52Z</time>
</trkpt>
<trkpt lat="48.7614478636533" lon="9.96509162709117">
<ele>670.4</ele>
<time>2024-05-12T17:07:53Z</time>
</trkpt>
<trkpt lat="48.7614134978503" lon="9.965125070884824">
<ele>670.2</ele>
<time>2024-05-12T17:07:54Z</time>
</trkpt>
<trkpt lat="48.76137536019087" lon="9.965163208544254">
<ele>670.4</ele>
<time>2024-05-12T17:07:55Z</time>
</trkpt>
<trkpt lat="48.76133722253144" lon="9.965200424194336">
<ele>670.4</ele>
<time>2024-05-12T17:07:56Z</time>
</trkpt>
<trkpt lat="48.761302940547466" lon="9.965232778340578">
<ele>670.6</ele>
<time>2024-05-12T17:07:57Z</time>
</trkpt>
<trkpt lat="48.76126471906901" lon="9.96526806615293">
<ele>670.6</ele>
<time>2024-05-12T17:07:58Z</time>
</trkpt>
<trkpt lat="48.76123043708503" lon="9.965299582108855">
<ele>670.8</ele>
<time>2024-05-12T17:07:59Z</time>
</trkpt>
<trkpt lat="48.7611922994256" lon="9.9653300922364">
<ele>670.8</ele>
<time>2024-05-12T17:08:00Z</time>
</trkpt>
<trkpt lat="48.76115416176617" lon="9.965359680354595">
<ele>671</ele>
<time>2024-05-12T17:08:01Z</time>
</trkpt>
<trkpt lat="48.76111602410674" lon="9.96539019048214">
<ele>671.2</ele>
<time>2024-05-12T17:08:02Z</time>
</trkpt>
<trkpt lat="48.76107780262828" lon="9.965419694781303">
<ele>671.2</ele>
<time>2024-05-12T17:08:03Z</time>
</trkpt>
<trkpt lat="48.76103966496885" lon="9.965450204908848">
<ele>671.4</ele>
<time>2024-05-12T17:08:04Z</time>
</trkpt>
<trkpt lat="48.76100538298488" lon="9.965481720864773">
<ele>671.6</ele>
<time>2024-05-12T17:08:05Z</time>
</trkpt>
<trkpt lat="48.76097487285733" lon="9.96550845913589">
<ele>671.8</ele>
<time>2024-05-12T17:08:06Z</time>
</trkpt>
<trkpt lat="48.76094436272979" lon="9.965537963435054">
<ele>672</ele>
<time>2024-05-12T17:08:07Z</time>
</trkpt>
<trkpt lat="48.7609213963151" lon="9.965571323409677">
<ele>672.2</ele>
<time>2024-05-12T17:08:08Z</time>
</trkpt>
<trkpt lat="48.76089088618755" lon="9.965604767203333">
<ele>672.4</ele>
<time>2024-05-12T17:08:09Z</time>
</trkpt>
<trkpt lat="48.76086423173547" lon="9.965636199340224">
<ele>672.6</ele>
<time>2024-05-12T17:08:10Z</time>
</trkpt>
<trkpt lat="48.76083749346435" lon="9.965666709467769">
<ele>672.6</ele>
<time>2024-05-12T17:08:11Z</time>
</trkpt>
<trkpt lat="48.760806983336806" lon="9.965696297585964">
<ele>672.6</ele>
<time>2024-05-12T17:08:12Z</time>
</trkpt>
<trkpt lat="48.76077647320926" lon="9.965729657560589">
<ele>672.6</ele>
<time>2024-05-12T17:08:13Z</time>
</trkpt>
<trkpt lat="48.76074596308172" lon="9.965760167688131">
<ele>672.4</ele>
<time>2024-05-12T17:08:14Z</time>
</trkpt>
<trkpt lat="48.76071545295417" lon="9.965789755806329">
<ele>672.2</ele>
<time>2024-05-12T17:08:15Z</time>
</trkpt>
<trkpt lat="48.76068494282663" lon="9.96582118794322">
<ele>672.2</ele>
<time>2024-05-12T17:08:16Z</time>
</trkpt>
<trkpt lat="48.76065443269909" lon="9.965854631736876">
<ele>672.2</ele>
<time>2024-05-12T17:08:17Z</time>
</trkpt>
<trkpt lat="48.76062769442797" lon="9.96588514186442">
<ele>672</ele>
<time>2024-05-12T17:08:18Z</time>
</trkpt>
<trkpt lat="48.76060103997588" lon="9.965916574001312">
<ele>672.2</ele>
<time>2024-05-12T17:08:19Z</time>
</trkpt>
<trkpt lat="48.76057430170477" lon="9.965953789651394">
<ele>672.2</ele>
<time>2024-05-12T17:08:20Z</time>
</trkpt>
<trkpt lat="48.76054756343365" lon="9.965998632833362">
<ele>672.4</ele>
<time>2024-05-12T17:08:21Z</time>
</trkpt>
<trkpt lat="48.76052468083799" lon="9.966032914817331">
<ele>672.4</ele>
<time>2024-05-12T17:08:22Z</time>
</trkpt>
<trkpt lat="48.76050179824233" lon="9.966068202629684">
<ele>672.6</ele>
<time>2024-05-12T17:08:23Z</time>
</trkpt>
<trkpt lat="48.76047891564667" lon="9.966104496270418">
<ele>672.8</ele>
<time>2024-05-12T17:08:24Z</time>
</trkpt>
<trkpt lat="48.76045988872647" lon="9.96613877825439">
<ele>673</ele>
<time>2024-05-12T17:08:25Z</time>
</trkpt>
<trkpt lat="48.7604446336627" lon="9.966170294210317">
<ele>673.2</ele>
<time>2024-05-12T17:08:26Z</time>
</trkpt>
<trkpt lat="48.76042937859893" lon="9.96619795449078">
<ele>673.4</ele>
<time>2024-05-12T17:08:27Z</time>
</trkpt>
<trkpt lat="48.76042175106704" lon="9.966223686933516">
<ele>673.4</ele>
<time>2024-05-12T17:08:28Z</time>
</trkpt>
<trkpt lat="48.76040264032781" lon="9.966253275051711">
<ele>673.6</ele>
<time>2024-05-12T17:08:29Z</time>
</trkpt>
<trkpt lat="48.76038738526404" lon="9.966286635026336">
<ele>673.8</ele>
<time>2024-05-12T17:08:30Z</time>
</trkpt>
<trkpt lat="48.760375902056694" lon="9.966318067163227">
<ele>673.8</ele>
<time>2024-05-12T17:08:31Z</time>
</trkpt>
<trkpt lat="48.76036450266838" lon="9.966346733272076">
<ele>674</ele>
<time>2024-05-12T17:08:32Z</time>
</trkpt>
<trkpt lat="48.76034924760461" lon="9.966388642787932">
<ele>674.2</ele>
<time>2024-05-12T17:08:33Z</time>
</trkpt>
<trkpt lat="48.76032636500895" lon="9.966429630294442">
<ele>674.4</ele>
<time>2024-05-12T17:08:34Z</time>
</trkpt>
<trkpt lat="48.76030348241329" lon="9.96647640131414">
<ele>674.6</ele>
<time>2024-05-12T17:08:35Z</time>
</trkpt>
<trkpt lat="48.760276744142175" lon="9.966523088514805">
<ele>674.6</ele>
<time>2024-05-12T17:08:36Z</time>
</trkpt>
<trkpt lat="48.76025008969009" lon="9.96657656505704">
<ele>674.8</ele>
<time>2024-05-12T17:08:37Z</time>
</trkpt>
<trkpt lat="48.76021949574351" lon="9.966628029942513">
<ele>674.8</ele>
<time>2024-05-12T17:08:38Z</time>
</trkpt>
<trkpt lat="48.760196613147855" lon="9.966686200350525">
<ele>674.8</ele>
<time>2024-05-12T17:08:39Z</time>
</trkpt>
<trkpt lat="48.76016995869577" lon="9.966746298596265">
<ele>674.8</ele>
<time>2024-05-12T17:08:40Z</time>
</trkpt>
<trkpt lat="48.76014707610011" lon="9.966806396842005">
<ele>674.8</ele>
<time>2024-05-12T17:08:41Z</time>
</trkpt>
<trkpt lat="48.76012419350445" lon="9.96686833910644">
<ele>675</ele>
<time>2024-05-12T17:08:42Z</time>
</trkpt>
<trkpt lat="48.760101310908794" lon="9.966933215036988">
<ele>675</ele>
<time>2024-05-12T17:08:43Z</time>
</trkpt>
<trkpt lat="48.760078428313136" lon="9.967006640508773">
<ele>674.8</ele>
<time>2024-05-12T17:08:44Z</time>
</trkpt>
<trkpt lat="48.76005169004202" lon="9.96708484366536">
<ele>674.8</ele>
<time>2024-05-12T17:08:45Z</time>
</trkpt>
<trkpt lat="48.7600249517709" lon="9.967160196974874">
<ele>674.6</ele>
<time>2024-05-12T17:08:46Z</time>
</trkpt>
<trkpt lat="48.75999066978693" lon="9.967231694608929">
<ele>674.6</ele>
<time>2024-05-12T17:08:47Z</time>
</trkpt>
<trkpt lat="48.759960159659386" lon="9.96730704791844">
<ele>674.4</ele>
<time>2024-05-12T17:08:48Z</time>
</trkpt>
<trkpt lat="48.75992964953184" lon="9.967379551380873">
<ele>674.2</ele>
<time>2024-05-12T17:08:49Z</time>
</trkpt>
<trkpt lat="48.75990291126072" lon="9.967448199167848">
<ele>674</ele>
<time>2024-05-12T17:08:50Z</time>
</trkpt>
<trkpt lat="48.75987617298961" lon="9.96752355247736">
<ele>674</ele>
<time>2024-05-12T17:08:51Z</time>
</trkpt>
<trkpt lat="48.75984951853752" lon="9.967596977949142">
<ele>673.8</ele>
<time>2024-05-12T17:08:52Z</time>
</trkpt>
<trkpt lat="48.7598227802664" lon="9.967671325430274">
<ele>673.8</ele>
<time>2024-05-12T17:08:53Z</time>
</trkpt>
<trkpt lat="48.75979612581432" lon="9.96774005703628">
<ele>673.8</ele>
<time>2024-05-12T17:08:54Z</time>
</trkpt>
<trkpt lat="48.759761760011315" lon="9.967808704823256">
<ele>673.6</ele>
<time>2024-05-12T17:08:55Z</time>
</trkpt>
<trkpt lat="48.759727478027344" lon="9.96787827461958">
<ele>673.4</ele>
<time>2024-05-12T17:08:56Z</time>
</trkpt>
<trkpt lat="48.75970073975623" lon="9.967947928234937">
<ele>673.2</ele>
<time>2024-05-12T17:08:57Z</time>
</trkpt>
<trkpt lat="48.75966637395322" lon="9.968020431697369">
<ele>673</ele>
<time>2024-05-12T17:08:58Z</time>
</trkpt>
<trkpt lat="48.75963586382568" lon="9.968091929331422">
<ele>672.8</ele>
<time>2024-05-12T17:08:59Z</time>
</trkpt>
<trkpt lat="48.75959395430982" lon="9.968168204650285">
<ele>672.6</ele>
<time>2024-05-12T17:09:00Z</time>
</trkpt>
<trkpt lat="48.75955196097493" lon="9.96823500841856">
<ele>672.4</ele>
<time>2024-05-12T17:09:01Z</time>
</trkpt>
<trkpt lat="48.75950996764004" lon="9.968295022845268">
<ele>672.2</ele>
<time>2024-05-12T17:09:02Z</time>
</trkpt>
<trkpt lat="48.759468058124185" lon="9.96835319325328">
<ele>672.2</ele>
<time>2024-05-12T17:09:03Z</time>
</trkpt>
<trkpt lat="48.75942229293287" lon="9.968418069183826">
<ele>672.2</ele>
<time>2024-05-12T17:09:04Z</time>
</trkpt>
<trkpt lat="48.75938029959798" lon="9.968478167429566">
<ele>672.2</ele>
<time>2024-05-12T17:09:05Z</time>
</trkpt>
<trkpt lat="48.759345933794975" lon="9.96854681521654">
<ele>672</ele>
<time>2024-05-12T17:09:06Z</time>
</trkpt>
<trkpt lat="48.75931165181101" lon="9.968623090535402">
<ele>672</ele>
<time>2024-05-12T17:09:07Z</time>
</trkpt>
<trkpt lat="48.75928114168346" lon="9.968696516007183">
<ele>672</ele>
<time>2024-05-12T17:09:08Z</time>
</trkpt>
<trkpt lat="48.759250631555915" lon="9.96876809746027">
<ele>672</ele>
<time>2024-05-12T17:09:09Z</time>
</trkpt>
<trkpt lat="48.75922012142837" lon="9.968836745247245">
<ele>672</ele>
<time>2024-05-12T17:09:10Z</time>
</trkpt>
<trkpt lat="48.759189527481794" lon="9.968898771330714">
<ele>672.2</ele>
<time>2024-05-12T17:09:11Z</time>
</trkpt>
<trkpt lat="48.75916287302971" lon="9.968955013900995">
<ele>672.2</ele>
<time>2024-05-12T17:09:12Z</time>
</trkpt>
<trkpt lat="48.75913999043405" lon="9.969011256471276">
<ele>672.2</ele>
<time>2024-05-12T17:09:13Z</time>
</trkpt>
<trkpt lat="48.75911710783839" lon="9.96906464919448">
<ele>672.2</ele>
<time>2024-05-12T17:09:14Z</time>
</trkpt>
<trkpt lat="48.75910185277462" lon="9.969108570367098">
<ele>672.2</ele>
<time>2024-05-12T17:09:15Z</time>
</trkpt>
<trkpt lat="48.75908274203539" lon="9.969153329730034">
<ele>672.4</ele>
<time>2024-05-12T17:09:16Z</time>
</trkpt>
<trkpt lat="48.75906748697162" lon="9.969195323064923">
<ele>672.2</ele>
<time>2024-05-12T17:09:17Z</time>
</trkpt>
<trkpt lat="48.759052231907845" lon="9.969238238409162">
<ele>672.4</ele>
<time>2024-05-12T17:09:18Z</time>
</trkpt>
<trkpt lat="48.75903312116861" lon="9.96928308159113">
<ele>672.6</ele>
<time>2024-05-12T17:09:19Z</time>
</trkpt>
<trkpt lat="48.759014094248414" lon="9.969326918944716">
<ele>672.8</ele>
<time>2024-05-12T17:09:20Z</time>
</trkpt>
<trkpt lat="48.75900261104107" lon="9.969365056604149">
<ele>673</ele>
<time>2024-05-12T17:09:21Z</time>
</trkpt>
<trkpt lat="48.7589873559773" lon="9.969405122101309">
<ele>673.2</ele>
<time>2024-05-12T17:09:22Z</time>
</trkpt>
<trkpt lat="48.75897595658898" lon="9.969436638057232">
<ele>673.4</ele>
<time>2024-05-12T17:09:23Z</time>
</trkpt>
<trkpt lat="48.75896447338164" lon="9.969472847878931">
<ele>673.6</ele>
<time>2024-05-12T17:09:24Z</time>
</trkpt>
<trkpt lat="48.75894544646144" lon="9.969510063529016">
<ele>674</ele>
<time>2024-05-12T17:09:25Z</time>
</trkpt>
<trkpt lat="48.75893019139767" lon="9.969546273350716">
<ele>674</ele>
<time>2024-05-12T17:09:26Z</time>
</trkpt>
<trkpt lat="48.758914936333895" lon="9.969585416838529">
<ele>674.2</ele>
<time>2024-05-12T17:09:27Z</time>
</trkpt>
<trkpt lat="48.758895825594664" lon="9.969619698822498">
<ele>674.4</ele>
<time>2024-05-12T17:09:28Z</time>
</trkpt>
<trkpt lat="48.75888057053089" lon="9.96965305879712">
<ele>674.6</ele>
<time>2024-05-12T17:09:29Z</time>
</trkpt>
<trkpt lat="48.75886917114258" lon="9.969688346609471">
<ele>675</ele>
<time>2024-05-12T17:09:30Z</time>
</trkpt>
<trkpt lat="48.75884620472789" lon="9.969728412106631">
<ele>675.2</ele>
<time>2024-05-12T17:09:31Z</time>
</trkpt>
<trkpt lat="48.75882332213223" lon="9.969771327450871">
<ele>675.4</ele>
<time>2024-05-12T17:09:32Z</time>
</trkpt>
<trkpt lat="48.758796667680144" lon="9.96981524862349">
<ele>675.6</ele>
<time>2024-05-12T17:09:33Z</time>
</trkpt>
<trkpt lat="48.75876992940903" lon="9.969861935824156">
<ele>675.8</ele>
<time>2024-05-12T17:09:34Z</time>
</trkpt>
<trkpt lat="48.758735647425056" lon="9.969909628853202">
<ele>675.8</ele>
<time>2024-05-12T17:09:35Z</time>
</trkpt>
<trkpt lat="48.75870513729751" lon="9.969961093738675">
<ele>675.8</ele>
<time>2024-05-12T17:09:36Z</time>
</trkpt>
<trkpt lat="48.75867077149451" lon="9.97001457028091">
<ele>675.6</ele>
<time>2024-05-12T17:09:37Z</time>
</trkpt>
<trkpt lat="48.75864026136696" lon="9.97006980702281">
<ele>675.6</ele>
<time>2024-05-12T17:09:38Z</time>
</trkpt>
<trkpt lat="48.758613523095846" lon="9.97012990526855">
<ele>675.4</ele>
<time>2024-05-12T17:09:39Z</time>
</trkpt>
<trkpt lat="48.758575385436416" lon="9.970199558883904">
<ele>675</ele>
<time>2024-05-12T17:09:41Z</time>
</trkpt>
<trkpt lat="48.75850673764944" lon="9.970333082601428">
<ele>674.8</ele>
<time>2024-05-12T17:09:42Z</time>
</trkpt>
<trkpt lat="48.758476227521896" lon="9.970393180847168">
<ele>674.6</ele>
<time>2024-05-12T17:09:43Z</time>
</trkpt>
<trkpt lat="48.758438089862466" lon="9.970461828634145">
<ele>674.4</ele>
<time>2024-05-12T17:09:44Z</time>
</trkpt>
<trkpt lat="48.75840757973492" lon="9.970521926879885">
<ele>674.4</ele>
<time>2024-05-12T17:09:45Z</time>
</trkpt>
<trkpt lat="48.75837706960738" lon="9.970582947134972">
<ele>674.4</ele>
<time>2024-05-12T17:09:46Z</time>
</trkpt>
<trkpt lat="48.758342703804374" lon="9.970655366778374">
<ele>674.4</ele>
<time>2024-05-12T17:09:47Z</time>
</trkpt>
<trkpt lat="48.75831219367683" lon="9.970718314871192">
<ele>674.4</ele>
<time>2024-05-12T17:09:48Z</time>
</trkpt>
<trkpt lat="48.75828545540571" lon="9.97078126296401">
<ele>674.6</ele>
<time>2024-05-12T17:09:49Z</time>
</trkpt>
<trkpt lat="48.75825880095363" lon="9.970845216885207">
<ele>674.6</ele>
<time>2024-05-12T17:09:50Z</time>
</trkpt>
<trkpt lat="48.75822829082608" lon="9.970908164978027">
<ele>674.4</ele>
<time>2024-05-12T17:09:51Z</time>
</trkpt>
<trkpt lat="48.75819778069854" lon="9.970968179404736">
<ele>674.2</ele>
<time>2024-05-12T17:09:52Z</time>
</trkpt>
<trkpt lat="48.75817104242742" lon="9.97101972810924">
<ele>673.8</ele>
<time>2024-05-12T17:09:53Z</time>
</trkpt>
<trkpt lat="48.75815193168819" lon="9.971063565462828">
<ele>673.8</ele>
<time>2024-05-12T17:09:54Z</time>
</trkpt>
<trkpt lat="48.75813667662442" lon="9.971103630959988">
<ele>673.6</ele>
<time>2024-05-12T17:09:55Z</time>
</trkpt>
<trkpt lat="48.758121421560645" lon="9.971144618466496">
<ele>673.6</ele>
<time>2024-05-12T17:09:56Z</time>
</trkpt>
<trkpt lat="48.75811002217233" lon="9.971191389486194">
<ele>673.2</ele>
<time>2024-05-12T17:09:57Z</time>
</trkpt>
<trkpt lat="48.75809853896499" lon="9.971224749460816">
<ele>673.2</ele>
<time>2024-05-12T17:09:58Z</time>
</trkpt>
<trkpt lat="48.75809476710856" lon="9.971253331750631">
<ele>673</ele>
<time>2024-05-12T17:09:59Z</time>
</trkpt>
<trkpt lat="48.7580909114331" lon="9.97127814218402">
<ele>673</ele>
<time>2024-05-12T17:10:00Z</time>
</trkpt>
<trkpt lat="48.7580909114331" lon="9.97129532508552">
<ele>672.8</ele>
<time>2024-05-12T17:10:01Z</time>
</trkpt>
<trkpt lat="48.75808713957667" lon="9.971321979537606">
<ele>672.8</ele>
<time>2024-05-12T17:10:02Z</time>
</trkpt>
<trkpt lat="48.75809476710856" lon="9.97133824042976">
<ele>672.6</ele>
<time>2024-05-12T17:10:03Z</time>
</trkpt>
<trkpt lat="48.75808713957667" lon="9.971382077783346">
<ele>672.6</ele>
<time>2024-05-12T17:10:04Z</time>
</trkpt>
<trkpt lat="48.758083283901215" lon="9.971400182694197">
<ele>672.6</ele>
<time>2024-05-12T17:10:05Z</time>
</trkpt>
<trkpt lat="48.75807951204479" lon="9.97141644358635">
<ele>672.6</ele>
<time>2024-05-12T17:10:06Z</time>
</trkpt>
<trkpt lat="48.7580718845129" lon="9.97143840417266">
<ele>672.6</ele>
<time>2024-05-12T17:10:07Z</time>
</trkpt>
<trkpt lat="48.75806040130555" lon="9.971453659236431">
<ele>672.6</ele>
<time>2024-05-12T17:10:08Z</time>
</trkpt>
<trkpt lat="48.75804900191724" lon="9.971466986462474">
<ele>672.4</ele>
<time>2024-05-12T17:10:09Z</time>
</trkpt>
<trkpt lat="48.75802989117801" lon="9.971483163535597">
<ele>672.2</ele>
<time>2024-05-12T17:10:10Z</time>
</trkpt>
<trkpt lat="48.75801463611424" lon="9.971507973968984">
<ele>672</ele>
<time>2024-05-12T17:10:11Z</time>
</trkpt>
<trkpt lat="48.758003152906895" lon="9.971523229032757">
<ele>671.8</ele>
<time>2024-05-12T17:10:12Z</time>
</trkpt>
<trkpt lat="48.75798789784312" lon="9.971545189619064">
<ele>671.6</ele>
<time>2024-05-12T17:10:13Z</time>
</trkpt>
<trkpt lat="48.75797264277935" lon="9.971563294529917">
<ele>671.4</ele>
<time>2024-05-12T17:10:14Z</time>
</trkpt>
<trkpt lat="48.75796124339104" lon="9.971576621755958">
<ele>671.4</ele>
<time>2024-05-12T17:10:15Z</time>
</trkpt>
<trkpt lat="48.75794976018369" lon="9.971580477431417">
<ele>671.4</ele>
<time>2024-05-12T17:10:16Z</time>
</trkpt>
<trkpt lat="48.75793450511992" lon="9.971588104963304">
<ele>671.4</ele>
<time>2024-05-12T17:10:17Z</time>
</trkpt>
<trkpt lat="48.75791162252426" lon="9.971605287864804">
<ele>671.2</ele>
<time>2024-05-12T17:10:18Z</time>
</trkpt>
<trkpt lat="48.7578887399286" lon="9.971610065549612">
<ele>671.2</ele>
<time>2024-05-12T17:10:19Z</time>
</trkpt>
<trkpt lat="48.7578697130084" lon="9.971610065549612">
<ele>671</ele>
<time>2024-05-12T17:10:20Z</time>
</trkpt>
<trkpt lat="48.757846830412745" lon="9.97163194231689">
<ele>670.8</ele>
<time>2024-05-12T17:10:21Z</time>
</trkpt>
<trkpt lat="48.75782009214163" lon="9.97165004722774">
<ele>670.8</ele>
<time>2024-05-12T17:10:22Z</time>
</trkpt>
<trkpt lat="48.75779720954597" lon="9.971656752750278">
<ele>670.6</ele>
<time>2024-05-12T17:10:23Z</time>
</trkpt>
<trkpt lat="48.75777809880674" lon="9.971656752750278">
<ele>670.4</ele>
<time>2024-05-12T17:10:24Z</time>
</trkpt>
<trkpt lat="48.75776284374297" lon="9.971658680588009">
<ele>670.2</ele>
<time>2024-05-12T17:10:25Z</time>
</trkpt>
<trkpt lat="48.75773996114731" lon="9.971654824912548">
<ele>670</ele>
<time>2024-05-12T17:10:26Z</time>
</trkpt>
<trkpt lat="48.75771330669522" lon="9.9716729298234">
<ele>669.8</ele>
<time>2024-05-12T17:10:27Z</time>
</trkpt>
<trkpt lat="48.757690424099565" lon="9.971701595932243">
<ele>669.6</ele>
<time>2024-05-12T17:10:28Z</time>
</trkpt>
<trkpt lat="48.75767516903579" lon="9.971736883744596">
<ele>669.4</ele>
<time>2024-05-12T17:10:29Z</time>
</trkpt>
<trkpt lat="48.75765983015299" lon="9.97178642079234">
<ele>669.2</ele>
<time>2024-05-12T17:10:30Z</time>
</trkpt>
<trkpt lat="48.75763694755733" lon="9.971836963668466">
<ele>669</ele>
<time>2024-05-12T17:10:31Z</time>
</trkpt>
<trkpt lat="48.75762169249356" lon="9.97188943438232">
<ele>668.8</ele>
<time>2024-05-12T17:10:32Z</time>
</trkpt>
<trkpt lat="48.75760266557336" lon="9.971953388303518">
<ele>668.8</ele>
<time>2024-05-12T17:10:33Z</time>
</trkpt>
<trkpt lat="48.757587410509586" lon="9.972011558711529">
<ele>668.6</ele>
<time>2024-05-12T17:10:34Z</time>
</trkpt>
<trkpt lat="48.757568299770355" lon="9.972078278660774">
<ele>668.4</ele>
<time>2024-05-12T17:10:35Z</time>
</trkpt>
<trkpt lat="48.75754927285016" lon="9.97214793227613">
<ele>668.4</ele>
<time>2024-05-12T17:10:36Z</time>
</trkpt>
<trkpt lat="48.7575263902545" lon="9.972220351919532">
<ele>668.4</ele>
<time>2024-05-12T17:10:37Z</time>
</trkpt>
<trkpt lat="48.757507279515266" lon="9.97228522785008">
<ele>668.2</ele>
<time>2024-05-12T17:10:39Z</time>
</trkpt>
<trkpt lat="48.75746914185584" lon="9.972417829558252">
<ele>668</ele>
<time>2024-05-12T17:10:40Z</time>
</trkpt>
<trkpt lat="48.757453886792064" lon="9.972477843984962">
<ele>667.8</ele>
<time>2024-05-12T17:10:41Z</time>
</trkpt>
<trkpt lat="48.75743477605283" lon="9.972551269456744">
<ele>667.6</ele>
<time>2024-05-12T17:10:42Z</time>
</trkpt>
<trkpt lat="48.75741574913263" lon="9.972610445693135">
<ele>667.4</ele>
<time>2024-05-12T17:10:43Z</time>
</trkpt>
<trkpt lat="48.75740812160075" lon="9.972664760425689">
<ele>667.2</ele>
<time>2024-05-12T17:10:44Z</time>
</trkpt>
<trkpt lat="48.7573966383934" lon="9.972736341878772">
<ele>667.2</ele>
<time>2024-05-12T17:10:45Z</time>
</trkpt>
<trkpt lat="48.75738523900509" lon="9.97280021198094">
<ele>667.2</ele>
<time>2024-05-12T17:10:46Z</time>
</trkpt>
<trkpt lat="48.75736612826586" lon="9.972866931930184">
<ele>667.2</ele>
<time>2024-05-12T17:10:47Z</time>
</trkpt>
<trkpt lat="48.757350873202085" lon="9.972928036004305">
<ele>667.2</ele>
<time>2024-05-12T17:10:48Z</time>
</trkpt>
<trkpt lat="48.75733561813831" lon="9.972989978268744">
<ele>667.2</ele>
<time>2024-05-12T17:10:49Z</time>
</trkpt>
<trkpt lat="48.75731650739908" lon="9.973052004352212">
<ele>667.2</ele>
<time>2024-05-12T17:10:50Z</time>
</trkpt>
<trkpt lat="48.75730125233531" lon="9.973110174760222">
<ele>667.2</ele>
<time>2024-05-12T17:10:51Z</time>
</trkpt>
<trkpt lat="48.75727836973965" lon="9.97317312285304">
<ele>667.2</ele>
<time>2024-05-12T17:10:52Z</time>
</trkpt>
<trkpt lat="48.75725548714399" lon="9.973237914964557">
<ele>667</ele>
<time>2024-05-12T17:10:53Z</time>
</trkpt>
<trkpt lat="48.75724023208022" lon="9.973299941048026">
<ele>667</ele>
<time>2024-05-12T17:10:54Z</time>
</trkpt>
<trkpt lat="48.75722497701645" lon="9.973362889140844">
<ele>667</ele>
<time>2024-05-12T17:10:55Z</time>
</trkpt>
<trkpt lat="48.75720972195268" lon="9.973422987386584">
<ele>667</ele>
<time>2024-05-12T17:10:56Z</time>
</trkpt>
<trkpt lat="48.757194466888905" lon="9.973483085632324">
<ele>667</ele>
<time>2024-05-12T17:10:57Z</time>
</trkpt>
<trkpt lat="48.757175439968705" lon="9.973553577437997">
<ele>667.2</ele>
<time>2024-05-12T17:10:58Z</time>
</trkpt>
<trkpt lat="48.757156329229474" lon="9.973623231053352">
<ele>667.2</ele>
<time>2024-05-12T17:10:59Z</time>
</trkpt>
<trkpt lat="48.757133446633816" lon="9.97368617914617">
<ele>667.2</ele>
<time>2024-05-12T17:11:00Z</time>
</trkpt>
<trkpt lat="48.757114335894585" lon="9.973756754770877">
<ele>667.4</ele>
<time>2024-05-12T17:11:01Z</time>
</trkpt>
<trkpt lat="48.757091453298926" lon="9.973834957927464">
<ele>667.4</ele>
<time>2024-05-12T17:11:02Z</time>
</trkpt>
<trkpt lat="48.75706857070327" lon="9.973910311236978">
<ele>667.6</ele>
<time>2024-05-12T17:11:03Z</time>
</trkpt>
<trkpt lat="48.75704954378307" lon="9.973977031186225">
<ele>667.6</ele>
<time>2024-05-12T17:11:04Z</time>
</trkpt>
<trkpt lat="48.75702666118741" lon="9.97404668480158">
<ele>667.6</ele>
<time>2024-05-12T17:11:05Z</time>
</trkpt>
<trkpt lat="48.75700377859175" lon="9.974115332588552">
<ele>667.6</ele>
<time>2024-05-12T17:11:06Z</time>
</trkpt>
<trkpt lat="48.756980895996094" lon="9.9741802085191">
<ele>667.8</ele>
<time>2024-05-12T17:11:07Z</time>
</trkpt>
<trkpt lat="48.75696178525686" lon="9.974234523251653">
<ele>667.8</ele>
<time>2024-05-12T17:11:08Z</time>
</trkpt>
<trkpt lat="48.7569389026612" lon="9.974291771650314">
<ele>667.8</ele>
<time>2024-05-12T17:11:09Z</time>
</trkpt>
<trkpt lat="48.75691979192197" lon="9.97434038668871">
<ele>667.8</ele>
<time>2024-05-12T17:11:10Z</time>
</trkpt>
<trkpt lat="48.756896909326315" lon="9.974386151880026">
<ele>667.8</ele>
<time>2024-05-12T17:11:11Z</time>
</trkpt>
<trkpt lat="48.756877882406116" lon="9.97443669475615">
<ele>667.8</ele>
<time>2024-05-12T17:11:12Z</time>
</trkpt>
<trkpt lat="48.75685499981046" lon="9.974486315622926">
<ele>667.8</ele>
<time>2024-05-12T17:11:13Z</time>
</trkpt>
<trkpt lat="48.75682826153934" lon="9.97453685849905">
<ele>667.6</ele>
<time>2024-05-12T17:11:14Z</time>
</trkpt>
<trkpt lat="48.75680152326822" lon="9.974583545699716">
<ele>667.6</ele>
<time>2024-05-12T17:11:15Z</time>
</trkpt>
<trkpt lat="48.75678249634802" lon="9.974628388881683">
<ele>667.4</ele>
<time>2024-05-12T17:11:16Z</time>
</trkpt>
<trkpt lat="48.75676338560879" lon="9.974673232063653">
<ele>667.4</ele>
<time>2024-05-12T17:11:17Z</time>
</trkpt>
<trkpt lat="48.75674435868859" lon="9.974724696949124">
<ele>667.4</ele>
<time>2024-05-12T17:11:18Z</time>
</trkpt>
<trkpt lat="48.75671762041747" lon="9.974771467968822">
<ele>667.2</ele>
<time>2024-05-12T17:11:19Z</time>
</trkpt>
<trkpt lat="48.756683338433504" lon="9.974826788529754">
<ele>667.2</ele>
<time>2024-05-12T17:11:20Z</time>
</trkpt>
<trkpt lat="48.75665282830596" lon="9.974884958937764">
<ele>667.2</ele>
<time>2024-05-12T17:11:21Z</time>
</trkpt>
<trkpt lat="48.75661846250296" lon="9.974945057183504">
<ele>667</ele>
<time>2024-05-12T17:11:22Z</time>
</trkpt>
<trkpt lat="48.75658795237541" lon="9.975005071610212">
<ele>666.8</ele>
<time>2024-05-12T17:11:23Z</time>
</trkpt>
<trkpt lat="48.756561214104295" lon="9.97506801970303">
<ele>666.4</ele>
<time>2024-05-12T17:11:24Z</time>
</trkpt>
<trkpt lat="48.75653833150864" lon="9.97513197362423">
<ele>666.2</ele>
<time>2024-05-12T17:11:25Z</time>
</trkpt>
<trkpt lat="48.75651167705655" lon="9.975196765735744">
<ele>666</ele>
<time>2024-05-12T17:11:26Z</time>
</trkpt>
<trkpt lat="48.75649256631732" lon="9.9752664193511">
<ele>665.8</ele>
<time>2024-05-12T17:11:27Z</time>
</trkpt>
<trkpt lat="48.75647353939712" lon="9.975339844822884">
<ele>665.6</ele>
<time>2024-05-12T17:11:28Z</time>
</trkpt>
<trkpt lat="48.75645820051432" lon="9.975418047979474">
<ele>665.6</ele>
<time>2024-05-12T17:11:29Z</time>
</trkpt>
<trkpt lat="48.756446801126" lon="9.975482923910022">
<ele>665.4</ele>
<time>2024-05-12T17:11:30Z</time>
</trkpt>
<trkpt lat="48.75642769038677" lon="9.97556204907596">
<ele>665.4</ele>
<time>2024-05-12T17:11:31Z</time>
</trkpt>
<trkpt lat="48.756420062854886" lon="9.975627847015858">
<ele>665.2</ele>
<time>2024-05-12T17:11:32Z</time>
</trkpt>
<trkpt lat="48.75641629099846" lon="9.975698422640562">
<ele>665.2</ele>
<time>2024-05-12T17:11:33Z</time>
</trkpt>
<trkpt lat="48.756412435323" lon="9.975767070427535">
<ele>665</ele>
<time>2024-05-12T17:11:34Z</time>
</trkpt>
<trkpt lat="48.75640866346657" lon="9.975834796205165">
<ele>665</ele>
<time>2024-05-12T17:11:35Z</time>
</trkpt>
<trkpt lat="48.756404807791114" lon="9.975905371829867">
<ele>665</ele>
<time>2024-05-12T17:11:36Z</time>
</trkpt>
<trkpt lat="48.756404807791114" lon="9.97597686946392">
<ele>665</ele>
<time>2024-05-12T17:11:37Z</time>
</trkpt>
<trkpt lat="48.75639718025923" lon="9.976050294935703">
<ele>665.2</ele>
<time>2024-05-12T17:11:38Z</time>
</trkpt>
<trkpt lat="48.7563934084028" lon="9.976121876388788">
<ele>665.2</ele>
<time>2024-05-12T17:11:39Z</time>
</trkpt>
<trkpt lat="48.756385780870914" lon="9.976191446185112">
<ele>665.2</ele>
<time>2024-05-12T17:11:40Z</time>
</trkpt>
<trkpt lat="48.756381925195456" lon="9.976262021809816">
<ele>665</ele>
<time>2024-05-12T17:11:41Z</time>
</trkpt>
<trkpt lat="48.756381925195456" lon="9.976331675425172">
<ele>665</ele>
<time>2024-05-12T17:11:42Z</time>
</trkpt>
<trkpt lat="48.75637815333903" lon="9.976400323212149">
<ele>665</ele>
<time>2024-05-12T17:11:43Z</time>
</trkpt>
<trkpt lat="48.75637815333903" lon="9.9764718208462">
<ele>665</ele>
<time>2024-05-12T17:11:44Z</time>
</trkpt>
<trkpt lat="48.75637815333903" lon="9.976543402299283">
<ele>665.2</ele>
<time>2024-05-12T17:11:45Z</time>
</trkpt>
<trkpt lat="48.75637815333903" lon="9.97661205008626">
<ele>665.2</ele>
<time>2024-05-12T17:11:46Z</time>
</trkpt>
<trkpt lat="48.75637815333903" lon="9.976679775863886">
<ele>665.4</ele>
<time>2024-05-12T17:11:47Z</time>
</trkpt>
<trkpt lat="48.75637815333903" lon="9.97674842365086">
<ele>665.4</ele>
<time>2024-05-12T17:11:48Z</time>
</trkpt>
<trkpt lat="48.75637815333903" lon="9.976818077266216">
<ele>665.6</ele>
<time>2024-05-12T17:11:49Z</time>
</trkpt>
<trkpt lat="48.75637429766357" lon="9.97688957490027">
<ele>665.8</ele>
<time>2024-05-12T17:11:50Z</time>
</trkpt>
<trkpt lat="48.75637815333903" lon="9.976960150524974">
<ele>666</ele>
<time>2024-05-12T17:11:51Z</time>
</trkpt>
<trkpt lat="48.75637815333903" lon="9.9770278763026">
<ele>666</ele>
<time>2024-05-12T17:11:52Z</time>
</trkpt>
<trkpt lat="48.75637429766357" lon="9.977096524089577">
<ele>666</ele>
<time>2024-05-12T17:11:53Z</time>
</trkpt>
<trkpt lat="48.75637429766357" lon="9.97716324403882">
<ele>666</ele>
<time>2024-05-12T17:11:54Z</time>
</trkpt>
<trkpt lat="48.75637429766357" lon="9.977230047807096">
<ele>665.8</ele>
<time>2024-05-12T17:11:55Z</time>
</trkpt>
<trkpt lat="48.75637815333903" lon="9.977292995899916">
<ele>665.6</ele>
<time>2024-05-12T17:11:56Z</time>
</trkpt>
<trkpt lat="48.75637815333903" lon="9.977353094145656">
<ele>665.6</ele>
<time>2024-05-12T17:11:57Z</time>
</trkpt>
<trkpt lat="48.756381925195456" lon="9.977413108572364">
<ele>665.4</ele>
<time>2024-05-12T17:11:58Z</time>
</trkpt>
<trkpt lat="48.756385780870914" lon="9.977470356971024">
<ele>665.4</ele>
<time>2024-05-12T17:11:59Z</time>
</trkpt>
<trkpt lat="48.7563934084028" lon="9.977523749694228">
<ele>665.2</ele>
<time>2024-05-12T17:12:00Z</time>
</trkpt>
<trkpt lat="48.7563934084028" lon="9.977578148245811">
<ele>665.2</ele>
<time>2024-05-12T17:12:01Z</time>
</trkpt>
<trkpt lat="48.75640103593469" lon="9.977631540969014">
<ele>665</ele>
<time>2024-05-12T17:12:02Z</time>
</trkpt>
<trkpt lat="48.75640103593469" lon="9.977684933692217">
<ele>665</ele>
<time>2024-05-12T17:12:03Z</time>
</trkpt>
<trkpt lat="48.756404807791114" lon="9.97773639857769">
<ele>664.8</ele>
<time>2024-05-12T17:12:04Z</time>
</trkpt>
<trkpt lat="48.756404807791114" lon="9.977789875119925">
<ele>664.8</ele>
<time>2024-05-12T17:12:05Z</time>
</trkpt>
<trkpt lat="48.75640866346657" lon="9.977840417996047">
<ele>664.8</ele>
<time>2024-05-12T17:12:06Z</time>
</trkpt>
<trkpt lat="48.756412435323" lon="9.977888027206063">
<ele>664.6</ele>
<time>2024-05-12T17:12:07Z</time>
</trkpt>
<trkpt lat="48.75641629099846" lon="9.97793672606349">
<ele>664.6</ele>
<time>2024-05-12T17:12:08Z</time>
</trkpt>
<trkpt lat="48.756420062854886" lon="9.977983413264155">
<ele>664.4</ele>
<time>2024-05-12T17:12:09Z</time>
</trkpt>
<trkpt lat="48.756420062854886" lon="9.978033034130933">
<ele>664.4</ele>
<time>2024-05-12T17:12:10Z</time>
</trkpt>
<trkpt lat="48.756423918530345" lon="9.978088354691865">
<ele>664.6</ele>
<time>2024-05-12T17:12:11Z</time>
</trkpt>
<trkpt lat="48.75643154606223" lon="9.978144597262144">
<ele>664.6</ele>
<time>2024-05-12T17:12:12Z</time>
</trkpt>
<trkpt lat="48.75643531791866" lon="9.978204695507884">
<ele>664.4</ele>
<time>2024-05-12T17:12:13Z</time>
</trkpt>
<trkpt lat="48.756442945450544" lon="9.978268565610051">
<ele>664.4</ele>
<time>2024-05-12T17:12:14Z</time>
</trkpt>
<trkpt lat="48.756446801126" lon="9.9783334415406">
<ele>664.4</ele>
<time>2024-05-12T17:12:15Z</time>
</trkpt>
<trkpt lat="48.75645442865789" lon="9.978396389633415">
<ele>664.6</ele>
<time>2024-05-12T17:12:16Z</time>
</trkpt>
<trkpt lat="48.75645820051432" lon="9.978461265563965">
<ele>664.4</ele>
<time>2024-05-12T17:12:17Z</time>
</trkpt>
<trkpt lat="48.756462056189775" lon="9.97852706350386">
<ele>664.4</ele>
<time>2024-05-12T17:12:18Z</time>
</trkpt>
<trkpt lat="48.756465911865234" lon="9.97859001159668">
<ele>664.4</ele>
<time>2024-05-12T17:12:19Z</time>
</trkpt>
<trkpt lat="48.75646968372166" lon="9.978651953861116">
<ele>664.4</ele>
<time>2024-05-12T17:12:20Z</time>
</trkpt>
<trkpt lat="48.75647353939712" lon="9.978712974116206">
<ele>664.4</ele>
<time>2024-05-12T17:12:21Z</time>
</trkpt>
<trkpt lat="48.75648116692901" lon="9.978773072361946">
<ele>664.4</ele>
<time>2024-05-12T17:12:22Z</time>
</trkpt>
<trkpt lat="48.75648116692901" lon="9.978835098445415">
<ele>664.4</ele>
<time>2024-05-12T17:12:23Z</time>
</trkpt>
<trkpt lat="48.75648116692901" lon="9.978895112872124">
<ele>664.4</ele>
<time>2024-05-12T17:12:24Z</time>
</trkpt>
<trkpt lat="48.75648116692901" lon="9.978956216946244">
<ele>664.4</ele>
<time>2024-05-12T17:12:25Z</time>
</trkpt>
<trkpt lat="48.75647731125355" lon="9.979018159210682">
<ele>664.2</ele>
<time>2024-05-12T17:12:26Z</time>
</trkpt>
<trkpt lat="48.75647353939712" lon="9.979078257456422">
<ele>664</ele>
<time>2024-05-12T17:12:27Z</time>
</trkpt>
<trkpt lat="48.75646968372166" lon="9.97914120554924">
<ele>664</ele>
<time>2024-05-12T17:12:28Z</time>
</trkpt>
<trkpt lat="48.756462056189775" lon="9.97920130379498">
<ele>664</ele>
<time>2024-05-12T17:12:29Z</time>
</trkpt>
<trkpt lat="48.75645442865789" lon="9.979261318221688">
<ele>664</ele>
<time>2024-05-12T17:12:30Z</time>
</trkpt>
<trkpt lat="48.756442945450544" lon="9.979323344305158">
<ele>664</ele>
<time>2024-05-12T17:12:31Z</time>
</trkpt>
<trkpt lat="48.75643154606223" lon="9.979391992092133">
<ele>663.8</ele>
<time>2024-05-12T17:12:32Z</time>
</trkpt>
<trkpt lat="48.756420062854886" lon="9.97945971786976">
<ele>663.6</ele>
<time>2024-05-12T17:12:33Z</time>
</trkpt>
<trkpt lat="48.756412435323" lon="9.979528365656734">
<ele>663.4</ele>
<time>2024-05-12T17:12:34Z</time>
</trkpt>
<trkpt lat="48.75640103593469" lon="9.97959516942501">
<ele>663.2</ele>
<time>2024-05-12T17:12:35Z</time>
</trkpt>
<trkpt lat="48.756385780870914" lon="9.979661889374256">
<ele>663.2</ele>
<time>2024-05-12T17:12:36Z</time>
</trkpt>
<trkpt lat="48.75637052580714" lon="9.979728693142532">
<ele>662.8</ele>
<time>2024-05-12T17:12:37Z</time>
</trkpt>
<trkpt lat="48.75635527074337" lon="9.979798262938855">
<ele>662.6</ele>
<time>2024-05-12T17:12:38Z</time>
</trkpt>
<trkpt lat="48.7563400156796" lon="9.97986976057291">
<ele>662.4</ele>
<time>2024-05-12T17:12:39Z</time>
</trkpt>
<trkpt lat="48.756324760615826" lon="9.979945113882422">
<ele>662.2</ele>
<time>2024-05-12T17:12:40Z</time>
</trkpt>
<trkpt lat="48.75631327740848" lon="9.980016695335507">
<ele>662</ele>
<time>2024-05-12T17:12:41Z</time>
</trkpt>
<trkpt lat="48.75629425048828" lon="9.98009204864502">
<ele>661.8</ele>
<time>2024-05-12T17:12:42Z</time>
</trkpt>
<trkpt lat="48.75627891160548" lon="9.980166396126153">
<ele>661.6</ele>
<time>2024-05-12T17:12:43Z</time>
</trkpt>
<trkpt lat="48.75625988468528" lon="9.980241749435663">
<ele>661.4</ele>
<time>2024-05-12T17:12:44Z</time>
</trkpt>
<trkpt lat="48.756244629621506" lon="9.980315174907446">
<ele>661.2</ele>
<time>2024-05-12T17:12:45Z</time>
</trkpt>
<trkpt lat="48.75622174702585" lon="9.980380050837994">
<ele>661</ele>
<time>2024-05-12T17:12:46Z</time>
</trkpt>
<trkpt lat="48.75619886443019" lon="9.980441993102431">
<ele>660.8</ele>
<time>2024-05-12T17:12:47Z</time>
</trkpt>
<trkpt lat="48.75617975369096" lon="9.98050301335752">
<ele>660.4</ele>
<time>2024-05-12T17:12:48Z</time>
</trkpt>
<trkpt lat="48.756168354302645" lon="9.980567889288068">
<ele>660</ele>
<time>2024-05-12T17:12:49Z</time>
</trkpt>
<trkpt lat="48.7561568710953" lon="9.980638464912772">
<ele>659.4</ele>
<time>2024-05-12T17:12:50Z</time>
</trkpt>
<trkpt lat="48.756145471706986" lon="9.980716668069364">
<ele>659</ele>
<time>2024-05-12T17:12:51Z</time>
</trkpt>
<trkpt lat="48.75613398849964" lon="9.980796799063684">
<ele>658.6</ele>
<time>2024-05-12T17:12:52Z</time>
</trkpt>
<trkpt lat="48.75611873343587" lon="9.9808787740767">
<ele>658.2</ele>
<time>2024-05-12T17:12:53Z</time>
</trkpt>
<trkpt lat="48.7561034783721" lon="9.98095504939556">
<ele>658</ele>
<time>2024-05-12T17:12:54Z</time>
</trkpt>
<trkpt lat="48.756088223308325" lon="9.981024703010917">
<ele>657.8</ele>
<time>2024-05-12T17:12:55Z</time>
</trkpt>
<trkpt lat="48.75607296824455" lon="9.981086729094386">
<ele>657.8</ele>
<time>2024-05-12T17:12:56Z</time>
</trkpt>
<trkpt lat="48.75606148503721" lon="9.981142971664667">
<ele>657.6</ele>
<time>2024-05-12T17:12:57Z</time>
</trkpt>
<trkpt lat="48.75605385750532" lon="9.981193514540792">
<ele>657.6</ele>
<time>2024-05-12T17:12:58Z</time>
</trkpt>
<trkpt lat="48.756046229973435" lon="9.981240201741455">
<ele>657.6</ele>
<time>2024-05-12T17:12:59Z</time>
</trkpt>
<trkpt lat="48.75603860244155" lon="9.981280267238615">
<ele>657.6</ele>
<time>2024-05-12T17:13:00Z</time>
</trkpt>
<trkpt lat="48.75603097490966" lon="9.98131656087935">
<ele>657.6</ele>
<time>2024-05-12T17:13:01Z</time>
</trkpt>
<trkpt lat="48.75602334737778" lon="9.981349920853972">
<ele>657.4</ele>
<time>2024-05-12T17:13:02Z</time>
</trkpt>
<trkpt lat="48.75601571984589" lon="9.981381352990866">
<ele>657.4</ele>
<time>2024-05-12T17:13:03Z</time>
</trkpt>
<trkpt lat="48.756008092314005" lon="9.98141286894679">
<ele>657.2</ele>
<time>2024-05-12T17:13:04Z</time>
</trkpt>
<trkpt lat="48.756008092314005" lon="9.981439523398876">
<ele>657.2</ele>
<time>2024-05-12T17:13:05Z</time>
</trkpt>
<trkpt lat="48.75600432045758" lon="9.981465339660645">
<ele>657</ele>
<time>2024-05-12T17:13:06Z</time>
</trkpt>
<trkpt lat="48.75600046478212" lon="9.981486294418572">
<ele>657</ele>
<time>2024-05-12T17:13:07Z</time>
</trkpt>
<trkpt lat="48.75600046478212" lon="9.981506327167152">
<ele>656.8</ele>
<time>2024-05-12T17:13:08Z</time>
</trkpt>
<trkpt lat="48.75600046478212" lon="9.981526359915732">
<ele>656.6</ele>
<time>2024-05-12T17:13:09Z</time>
</trkpt>
<trkpt lat="48.75600432045758" lon="9.981543458998203">
<ele>656.6</ele>
<time>2024-05-12T17:13:10Z</time>
</trkpt>
<trkpt lat="48.756008092314005" lon="9.981559719890356">
<ele>656.4</ele>
<time>2024-05-12T17:13:11Z</time>
</trkpt>
<trkpt lat="48.756008092314005" lon="9.981574974954128">
<ele>656.4</ele>
<time>2024-05-12T17:13:12Z</time>
</trkpt>
<trkpt lat="48.756011947989464" lon="9.981588302180173">
<ele>656.4</ele>
<time>2024-05-12T17:13:13Z</time>
</trkpt>
<trkpt lat="48.756011947989464" lon="9.981599785387516">
<ele>656.4</ele>
<time>2024-05-12T17:13:14Z</time>
</trkpt>
<trkpt lat="48.756011947989464" lon="9.981597857549788">
<ele>656.4</ele>
<time>2024-05-12T17:13:16Z</time>
</trkpt>
<trkpt lat="48.756008092314005" lon="9.981597857549788">
<ele>656.4</ele>
<time>2024-05-12T17:13:17Z</time>
</trkpt>
<trkpt lat="48.756008092314005" lon="9.981599785387516">
<ele>656.6</ele>
<time>2024-05-12T17:13:18Z</time>
</trkpt>
<trkpt lat="48.75599669292569" lon="9.981621662154794">
<ele>656.6</ele>
<time>2024-05-12T17:13:19Z</time>
</trkpt>
<trkpt lat="48.75599283725023" lon="9.98164647258818">
<ele>656.6</ele>
<time>2024-05-12T17:13:20Z</time>
</trkpt>
<trkpt lat="48.755989065393806" lon="9.981676982715726">
<ele>656.6</ele>
<time>2024-05-12T17:13:21Z</time>
</trkpt>
<trkpt lat="48.75597758218646" lon="9.98171042650938">
<ele>656.6</ele>
<time>2024-05-12T17:13:22Z</time>
</trkpt>
<trkpt lat="48.75596618279815" lon="9.98174856416881">
<ele>656.6</ele>
<time>2024-05-12T17:13:23Z</time>
</trkpt>
<trkpt lat="48.755950927734375" lon="9.981793323531749">
<ele>656.6</ele>
<time>2024-05-12T17:13:24Z</time>
</trkpt>
<trkpt lat="48.755931816995144" lon="9.981840094551444">
<ele>656.4</ele>
<time>2024-05-12T17:13:25Z</time>
</trkpt>
<trkpt lat="48.75591656193137" lon="9.981893487274649">
<ele>656.4</ele>
<time>2024-05-12T17:13:26Z</time>
</trkpt>
<trkpt lat="48.75590507872403" lon="9.981949729844928">
<ele>656.4</ele>
<time>2024-05-12T17:13:27Z</time>
</trkpt>
<trkpt lat="48.755889823660254" lon="9.98200697824359">
<ele>656.4</ele>
<time>2024-05-12T17:13:28Z</time>
</trkpt>
<trkpt lat="48.75587456859648" lon="9.982061376795173">
<ele>656.2</ele>
<time>2024-05-12T17:13:29Z</time>
</trkpt>
<trkpt lat="48.75585931353271" lon="9.982118541374804">
<ele>656.2</ele>
<time>2024-05-12T17:13:30Z</time>
</trkpt>
<trkpt lat="48.75584028661251" lon="9.982172939926386">
<ele>656.2</ele>
<time>2024-05-12T17:13:31Z</time>
</trkpt>
<trkpt lat="48.755828803405166" lon="9.982226332649589">
<ele>656.2</ele>
<time>2024-05-12T17:13:32Z</time>
</trkpt>
<trkpt lat="48.75581740401685" lon="9.982278803363442">
<ele>656.2</ele>
<time>2024-05-12T17:13:33Z</time>
</trkpt>
<trkpt lat="48.755809776484966" lon="9.982333118095994">
<ele>656</ele>
<time>2024-05-12T17:13:34Z</time>
</trkpt>
<trkpt lat="48.75579829327762" lon="9.982386510819197">
<ele>656</ele>
<time>2024-05-12T17:13:35Z</time>
</trkpt>
<trkpt lat="48.75578303821385" lon="9.98243705369532">
<ele>656</ele>
<time>2024-05-12T17:13:36Z</time>
</trkpt>
<trkpt lat="48.755771555006504" lon="9.982486674562097">
<ele>656</ele>
<time>2024-05-12T17:13:37Z</time>
</trkpt>
<trkpt lat="48.75575629994273" lon="9.982535289600492">
<ele>656</ele>
<time>2024-05-12T17:13:38Z</time>
</trkpt>
<trkpt lat="48.75574104487896" lon="9.982589688152077">
<ele>656</ele>
<time>2024-05-12T17:13:39Z</time>
</trkpt>
<trkpt lat="48.75572578981519" lon="9.982646936550736">
<ele>656</ele>
<time>2024-05-12T17:13:40Z</time>
</trkpt>
<trkpt lat="48.755710534751415" lon="9.982705106958749">
<ele>656</ele>
<time>2024-05-12T17:13:41Z</time>
</trkpt>
<trkpt lat="48.75569527968764" lon="9.982761349529028">
<ele>656</ele>
<time>2024-05-12T17:13:42Z</time>
</trkpt>
<trkpt lat="48.75568002462387" lon="9.982819519937038">
<ele>655.8</ele>
<time>2024-05-12T17:13:43Z</time>
</trkpt>
<trkpt lat="48.75566099770367" lon="9.98287484049797">
<ele>655.8</ele>
<time>2024-05-12T17:13:44Z</time>
</trkpt>
<trkpt lat="48.7556457426399" lon="9.982932088896632">
<ele>655.8</ele>
<time>2024-05-12T17:13:45Z</time>
</trkpt>
<trkpt lat="48.75562663190067" lon="9.98299310915172">
<ele>655.8</ele>
<time>2024-05-12T17:13:46Z</time>
</trkpt>
<trkpt lat="48.755611376836896" lon="9.98305320739746">
<ele>655.8</ele>
<time>2024-05-12T17:13:47Z</time>
</trkpt>
<trkpt lat="48.755592266097665" lon="9.98311037197709">
<ele>655.8</ele>
<time>2024-05-12T17:13:48Z</time>
</trkpt>
<trkpt lat="48.755573239177465" lon="9.983159992843866">
<ele>655.8</ele>
<time>2024-05-12T17:13:49Z</time>
</trkpt>
<trkpt lat="48.75555035658181" lon="9.98321145772934">
<ele>655.8</ele>
<time>2024-05-12T17:13:50Z</time>
</trkpt>
<trkpt lat="48.75552747398615" lon="9.983268706128">
<ele>655.6</ele>
<time>2024-05-12T17:13:51Z</time>
</trkpt>
<trkpt lat="48.75550836324692" lon="9.983326876536012">
<ele>655.6</ele>
<time>2024-05-12T17:13:52Z</time>
</trkpt>
<trkpt lat="48.75548548065126" lon="9.983381191268563">
<ele>655.4</ele>
<time>2024-05-12T17:13:53Z</time>
</trkpt>
<trkpt lat="48.7554625980556" lon="9.983436511829495">
<ele>655.4</ele>
<time>2024-05-12T17:13:54Z</time>
</trkpt>
<trkpt lat="48.75543971545994" lon="9.98348998837173">
<ele>655.2</ele>
<time>2024-05-12T17:13:55Z</time>
</trkpt>
<trkpt lat="48.755416832864285" lon="9.98354522511363">
<ele>655.2</ele>
<time>2024-05-12T17:13:56Z</time>
</trkpt>
<trkpt lat="48.755393950268626" lon="9.983599623665214">
<ele>655.2</ele>
<time>2024-05-12T17:13:57Z</time>
</trkpt>
<trkpt lat="48.755374839529395" lon="9.983657794073224">
<ele>654.8</ele>
<time>2024-05-12T17:13:58Z</time>
</trkpt>
<trkpt lat="48.75535195693374" lon="9.983716886490583">
<ele>654.6</ele>
<time>2024-05-12T17:13:59Z</time>
</trkpt>
<trkpt lat="48.75533293001354" lon="9.983777990564704">
<ele>654.6</ele>
<time>2024-05-12T17:14:00Z</time>
</trkpt>
<trkpt lat="48.75530619174242" lon="9.983837082982063">
<ele>654.4</ele>
<time>2024-05-12T17:14:01Z</time>
</trkpt>
<trkpt lat="48.755279537290335" lon="9.983889553695915">
<ele>654.2</ele>
<time>2024-05-12T17:14:02Z</time>
</trkpt>
<trkpt lat="48.75524894334376" lon="9.983942024409773">
<ele>654</ele>
<time>2024-05-12T17:14:03Z</time>
</trkpt>
<trkpt lat="48.75522228889167" lon="9.983995417132974">
<ele>653.8</ele>
<time>2024-05-12T17:14:04Z</time>
</trkpt>
<trkpt lat="48.75519555062056" lon="9.984049731865523">
<ele>653.6</ele>
<time>2024-05-12T17:14:05Z</time>
</trkpt>
<trkpt lat="48.75516889616847" lon="9.984107902273536">
<ele>653.4</ele>
<time>2024-05-12T17:14:06Z</time>
</trkpt>
<trkpt lat="48.75514215789735" lon="9.98415844514966">
<ele>653.2</ele>
<time>2024-05-12T17:14:07Z</time>
</trkpt>
<trkpt lat="48.75511164776981" lon="9.984203288331628">
<ele>653</ele>
<time>2024-05-12T17:14:08Z</time>
</trkpt>
<trkpt lat="48.755081137642264" lon="9.984245281666515">
<ele>652.8</ele>
<time>2024-05-12T17:14:09Z</time>
</trkpt>
<trkpt lat="48.75505062751472" lon="9.984285347163675">
<ele>652.6</ele>
<time>2024-05-12T17:14:10Z</time>
</trkpt>
<trkpt lat="48.755020117387176" lon="9.984323484823108">
<ele>652.4</ele>
<time>2024-05-12T17:14:11Z</time>
</trkpt>
<trkpt lat="48.75498960725963" lon="9.984371177852154">
<ele>652.2</ele>
<time>2024-05-12T17:14:12Z</time>
</trkpt>
<trkpt lat="48.75495909713209" lon="9.984419792890549">
<ele>652.2</ele>
<time>2024-05-12T17:14:13Z</time>
</trkpt>
<trkpt lat="48.75492858700454" lon="9.984470335766671">
<ele>652</ele>
<time>2024-05-12T17:14:14Z</time>
</trkpt>
<trkpt lat="48.75489422120154" lon="9.984519956633449">
<ele>651.8</ele>
<time>2024-05-12T17:14:15Z</time>
</trkpt>
<trkpt lat="48.75485608354211" lon="9.984573349356651">
<ele>651.6</ele>
<time>2024-05-12T17:14:16Z</time>
</trkpt>
<trkpt lat="48.75481794588268" lon="9.984629591926932">
<ele>651.2</ele>
<time>2024-05-12T17:14:17Z</time>
</trkpt>
<trkpt lat="48.75477980822325" lon="9.984688684344292">
<ele>651</ele>
<time>2024-05-12T17:14:18Z</time>
</trkpt>
<trkpt lat="48.75474544242024" lon="9.984746854752302">
<ele>650.8</ele>
<time>2024-05-12T17:14:19Z</time>
</trkpt>
<trkpt lat="48.7547149322927" lon="9.98480980284512">
<ele>650.8</ele>
<time>2024-05-12T17:14:20Z</time>
</trkpt>
<trkpt lat="48.7546805664897" lon="9.98487375676632">
<ele>650.6</ele>
<time>2024-05-12T17:14:21Z</time>
</trkpt>
<trkpt lat="48.754646284505725" lon="9.984934777021408">
<ele>650.4</ele>
<time>2024-05-12T17:14:22Z</time>
</trkpt>
<trkpt lat="48.75461577437818" lon="9.98499202542007">
<ele>650.4</ele>
<time>2024-05-12T17:14:23Z</time>
</trkpt>
<trkpt lat="48.75459289178252" lon="9.98504634015262">
<ele>650.2</ele>
<time>2024-05-12T17:14:24Z</time>
</trkpt>
<trkpt lat="48.754566153511405" lon="9.985096883028746">
<ele>650.2</ele>
<time>2024-05-12T17:14:25Z</time>
</trkpt>
<trkpt lat="48.75454327091575" lon="9.985144576057792">
<ele>650</ele>
<time>2024-05-12T17:14:26Z</time>
</trkpt>
<trkpt lat="48.75452416017651" lon="9.985191263258455">
<ele>650</ele>
<time>2024-05-12T17:14:27Z</time>
</trkpt>
<trkpt lat="48.75450513325632" lon="9.985233256593348">
<ele>649.8</ele>
<time>2024-05-12T17:14:28Z</time>
</trkpt>
<trkpt lat="48.754486022517085" lon="9.985276171937585">
<ele>649.6</ele>
<time>2024-05-12T17:14:29Z</time>
</trkpt>
<trkpt lat="48.754466995596886" lon="9.985318165272474">
<ele>649.4</ele>
<time>2024-05-12T17:14:30Z</time>
</trkpt>
<trkpt lat="48.754447884857655" lon="9.98536485247314">
<ele>649.2</ele>
<time>2024-05-12T17:14:31Z</time>
</trkpt>
<trkpt lat="48.754428857937455" lon="9.985414473339915">
<ele>649</ele>
<time>2024-05-12T17:14:32Z</time>
</trkpt>
<trkpt lat="48.754409747198224" lon="9.98546501621604">
<ele>648.8</ele>
<time>2024-05-12T17:14:34Z</time>
</trkpt>
<trkpt lat="48.75439063645899" lon="9.985514637082815">
<ele>648.8</ele>
<time>2024-05-12T17:14:35Z</time>
</trkpt>
<trkpt lat="48.75436398200691" lon="9.985609939321876">
<ele>648.4</ele>
<time>2024-05-12T17:14:36Z</time>
</trkpt>
<trkpt lat="48.75435249879956" lon="9.985654782503843">
<ele>648.2</ele>
<time>2024-05-12T17:14:37Z</time>
</trkpt>
<trkpt lat="48.75434109941125" lon="9.985696775838733">
<ele>648</ele>
<time>2024-05-12T17:14:38Z</time>
</trkpt>
<trkpt lat="48.75433347187936" lon="9.985736841335893">
<ele>647.8</ele>
<time>2024-05-12T17:14:39Z</time>
</trkpt>
<trkpt lat="48.75431821681559" lon="9.98577682301402">
<ele>647.8</ele>
<time>2024-05-12T17:14:40Z</time>
</trkpt>
<trkpt lat="48.754306733608246" lon="9.98581789433956">
<ele>647.6</ele>
<time>2024-05-12T17:14:41Z</time>
</trkpt>
<trkpt lat="48.75429533421993" lon="9.98585795983672">
<ele>647.6</ele>
<time>2024-05-12T17:14:42Z</time>
</trkpt>
<trkpt lat="48.75428385101259" lon="9.9858970195055">
<ele>647.6</ele>
<time>2024-05-12T17:14:43Z</time>
</trkpt>
<trkpt lat="48.754268595948815" lon="9.985935157164931">
<ele>647.4</ele>
<time>2024-05-12T17:14:44Z</time>
</trkpt>
<trkpt lat="48.75426096841693" lon="9.98597715049982">
<ele>647.4</ele>
<time>2024-05-12T17:14:45Z</time>
</trkpt>
<trkpt lat="48.754249569028616" lon="9.98601813800633">
<ele>647.2</ele>
<time>2024-05-12T17:14:46Z</time>
</trkpt>
<trkpt lat="48.75424194149673" lon="9.98605820350349">
<ele>647.2</ele>
<time>2024-05-12T17:14:47Z</time>
</trkpt>
<trkpt lat="48.75423431396485" lon="9.98609826900065">
<ele>647</ele>
<time>2024-05-12T17:14:48Z</time>
</trkpt>
<trkpt lat="48.754226602613926" lon="9.98613640666008">
<ele>647</ele>
<time>2024-05-12T17:14:49Z</time>
</trkpt>
<trkpt lat="48.75421520322561" lon="9.986173622310162">
<ele>646.8</ele>
<time>2024-05-12T17:14:50Z</time>
</trkpt>
<trkpt lat="48.754211347550154" lon="9.986209832131864">
<ele>646.8</ele>
<time>2024-05-12T17:14:51Z</time>
</trkpt>
<trkpt lat="48.75419994816184" lon="9.986245119944217">
<ele>646.8</ele>
<time>2024-05-12T17:14:52Z</time>
</trkpt>
<trkpt lat="48.754192320629954" lon="9.986283257603644">
<ele>646.6</ele>
<time>2024-05-12T17:14:53Z</time>
</trkpt>
<trkpt lat="48.75418469309807" lon="9.986320473253729">
<ele>646.4</ele>
<time>2024-05-12T17:14:54Z</time>
</trkpt>
<trkpt lat="48.75417320989072" lon="9.986358610913156">
<ele>646.4</ele>
<time>2024-05-12T17:14:55Z</time>
</trkpt>
<trkpt lat="48.75416558235884" lon="9.986398676410316">
<ele>646.2</ele>
<time>2024-05-12T17:14:56Z</time>
</trkpt>
<trkpt lat="48.75416181050241" lon="9.986439663916826">
<ele>646</ele>
<time>2024-05-12T17:14:57Z</time>
</trkpt>
<trkpt lat="48.75415418297053" lon="9.986478723585606">
<ele>646</ele>
<time>2024-05-12T17:14:58Z</time>
</trkpt>
<trkpt lat="48.754150327295065" lon="9.986513089388607">
<ele>645.8</ele>
<time>2024-05-12T17:14:59Z</time>
</trkpt>
<trkpt lat="48.75414655543864" lon="9.98654837720096">
<ele>645.8</ele>
<time>2024-05-12T17:15:00Z</time>
</trkpt>
<trkpt lat="48.75414655543864" lon="9.986575115472078">
<ele>645.6</ele>
<time>2024-05-12T17:15:01Z</time>
</trkpt>
<trkpt lat="48.75414655543864" lon="9.986596992239356">
<ele>645.6</ele>
<time>2024-05-12T17:15:02Z</time>
</trkpt>
<trkpt lat="48.754150327295065" lon="9.98661132529378">
<ele>645.4</ele>
<time>2024-05-12T17:15:03Z</time>
</trkpt>
<trkpt lat="48.754150327295065" lon="9.986615180969238">
<ele>645.4</ele>
<time>2024-05-12T17:15:04Z</time>
</trkpt>
<trkpt lat="48.75415418297053" lon="9.986615180969238">
<ele>645.2</ele>
<time>2024-05-12T17:15:05Z</time>
</trkpt>
<trkpt lat="48.75415418297053" lon="9.986613253131509">
<ele>645</ele>
<time>2024-05-12T17:15:06Z</time>
</trkpt>
<trkpt lat="48.75415795482695" lon="9.986615180969238">
<ele>645</ele>
<time>2024-05-12T17:15:12Z</time>
</trkpt>
<trkpt lat="48.75416181050241" lon="9.986619874835014">
<ele>645</ele>
<time>2024-05-12T17:15:13Z</time>
</trkpt>
<trkpt lat="48.75416181050241" lon="9.986621802672744">
<ele>644.8</ele>
<time>2024-05-12T17:15:14Z</time>
</trkpt>
<trkpt lat="48.75416181050241" lon="9.986626580357552">
<ele>644.8</ele>
<time>2024-05-12T17:15:16Z</time>
</trkpt>
<trkpt lat="48.75416181050241" lon="9.986626580357552">
<ele>644.8</ele>
</trkpt>
</trkseg>
</trk>
</gpx>